# Wetter Temperatur Luftdruck Luftfeuchtigkeit Sichtweite Windgeschwindigkeit Windrichtung Zeit
1 Clear 31 1015 35 10000 4.1 240 22:19 24.01.2020
2 Clear 33 1015 31 10000 3.6 220 21:41 24.01.2020
3 Clear 33 1015 31 10000 3.6 220 21:19 24.01.2020
4 Clear 32 1016 35 10000 3.6 220 20:44 24.01.2020
5 Clear 32 1016 35 10000 3.6 220 20:23 24.01.2020
6 Clouds 31 1016 35 7000 3.6 210 19:59 24.01.2020
7 Clouds 31 1016 35 7000 3.6 210 19:41 24.01.2020
8 Clouds 31 1016 35 7000 3.6 210 19:22 24.01.2020
9 Clouds 30 1017 39 7000 2.1 190 18:58 24.01.2020
10 Clouds 30 1017 39 7000 2.1 190 18:40 24.01.2020
11 Clouds 30 1017 39 7000 2.1 190 18:21 24.01.2020
12 Clouds 30 1017 39 7000 2.1 190 18:21 24.01.2020
13 Clouds 29 1017 42 6000 2.1 270 17:42 24.01.2020
14 Clouds 28 1017 42 6000 2.1 270 17:21 24.01.2020
15 Clouds 28 1017 47 8000 2.6 230 16:57 24.01.2020
16 Clouds 28 1017 47 8000 2.6 230 16:57 24.01.2020
17 Clouds 28 1017 47 8000 2.6 230 16:38 24.01.2020
18 Clouds 27 1017 47 8000 2.6 230 16:18 24.01.2020
19 Clouds 25 1017 50 8000 2.1 190 15:41 24.01.2020
20 Clouds 25 1017 50 8000 2.1 190 15:21 24.01.2020
21 Clouds 23 1017 56 8000 1 0 14:42 24.01.2020
22 Clouds 22 1017 56 8000 1 0 14:24 24.01.2020
23 Clouds 21 1017 68 10000 1.71 291 13:58 24.01.2020
24 Clouds 21 1017 68 10000 1.71 291 13:40 24.01.2020
25 Clouds 20 1017 68 10000 1.71 291 13:21 24.01.2020
26 Clouds 20 1017 64 10000 1 230 12:42 24.01.2020
27 Clouds 20 1017 64 10000 1 230 12:20 24.01.2020
28 Clouds 20 1015 77 10000 2.6 170 11:44 24.01.2020
29 Clouds 19 1015 77 10000 2.6 170 11:19 24.01.2020
30 Clouds 20 1015 72 10000 3.6 150 10:43 24.01.2020
31 Clouds 19 1015 72 10000 3.6 150 10:23 24.01.2020
32 Clouds 20 1015 72 10000 3.6 150 09:57 24.01.2020
33 Clouds 20 1015 72 10000 3.6 150 09:39 24.01.2020
34 Clouds 19 1015 72 10000 3.6 150 09:21 24.01.2020
35 Clouds 20 1015 72 10000 3.6 160 08:41 24.01.2020
36 Clouds 19 1015 72 10000 3.6 160 08:20 24.01.2020
37 Clouds 20 1015 68 10000 3.6 160 07:52 24.01.2020
38 Clouds 20 1015 68 10000 3.6 160 07:34 24.01.2020
39 Clouds 20 1015 68 10000 3.6 150 06:48 24.01.2020
40 Clouds 20 1015 68 10000 3.6 150 06:29 24.01.2020
41 Clouds 21 1016 64 10000 3.6 150 05:58 24.01.2020
42 Clouds 21 1016 60 10000 4.1 150 04:57 24.01.2020
43 Clouds 23 1015 53 10000 4.1 140 02:53 24.01.2020
44 Clouds 24 1015 53 10000 4.1 140 02:25 24.01.2020
45 Clouds 24 1017 47 10000 2.6 240 01:45 24.01.2020
46 Clouds 24 1017 47 10000 2.6 240 01:26 24.01.2020
47 Clouds 27 1016 42 10000 3.6 250 00:23 24.01.2020
48 Clouds 28 1016 37 10000 4.6 240 23:49 23.01.2020
49 Clouds 29 1016 37 10000 4.6 240 23:31 23.01.2020
50 Clouds 29 1016 25 10000 4.1 240 22:59 23.01.2020
51 Clouds 30 1016 25 10000 4.1 240 22:38 23.01.2020
52 Clouds 30 1016 25 10000 4.1 240 22:38 23.01.2020
53 Clouds 30 1016 25 10000 4.1 240 22:19 23.01.2020
54 Clouds 30 1016 35 10000 4.1 240 21:57 23.01.2020
55 Clouds 30 1016 35 10000 4.1 240 21:39 23.01.2020
56 Clouds 30 1016 35 10000 4.1 240 21:20 23.01.2020
57 Clouds 30 1017 35 10000 3.1 260 20:58 23.01.2020
58 Clouds 30 1017 35 10000 3.1 260 20:38 23.01.2020
59 Clouds 30 1017 35 10000 3.1 260 20:19 23.01.2020
60 Clouds 30 1017 26 10000 3.1 210 19:54 23.01.2020
61 Clouds 30 1017 26 10000 3.1 210 19:36 23.01.2020
62 Clouds 30 1017 26 10000 3.1 210 19:18 23.01.2020
63 Clouds 29 1018 39 10000 3.6 270 18:42 23.01.2020
64 Clouds 29 1018 39 10000 3.6 270 18:20 23.01.2020
65 Clouds 29 1018 39 10000 3.6 270 18:20 23.01.2020
66 Clouds 28 1018 42 10000 3.6 240 17:58 23.01.2020
67 Clouds 28 1018 42 10000 3.6 240 17:39 23.01.2020
68 Clouds 28 1018 42 10000 3.6 240 17:19 23.01.2020
69 Clouds 26 1018 44 10000 2.6 240 16:55 23.01.2020
70 Clouds 26 1018 44 10000 2.6 240 16:36 23.01.2020
71 Clouds 26 1018 44 10000 2.6 240 16:18 23.01.2020
72 Clouds 25 1018 50 8000 1.5 210 15:54 23.01.2020
73 Clouds 25 1018 50 8000 1.5 210 15:36 23.01.2020
74 Clouds 25 1018 50 8000 1.5 210 15:18 23.01.2020
75 Clouds 23 1018 60 10000 1 120 14:54 23.01.2020
76 Clouds 23 1018 60 10000 1 120 14:36 23.01.2020
77 Clouds 21 1018 60 10000 1 120 14:18 23.01.2020
78 Clouds 20 1018 68 10000 1.95 247 13:38 23.01.2020
79 Clouds 19 1018 68 10000 1.68 247 13:19 23.01.2020
80 Clouds 19 1018 67 10000 1.68 247 12:47 23.01.2020
81 Clouds 19 1018 67 10000 1.68 247 12:25 23.01.2020
82 Clouds 19 1018 67 10000 1.83 249 12:25 23.01.2020
83 Clouds 20 1016 82 10000 3.6 170 11:58 23.01.2020
84 Clouds 19 1016 82 10000 3.6 170 11:38 23.01.2020
85 Clear 17 1016 82 10000 3.6 170 11:19 23.01.2020
86 Clouds 17 1015 82 10000 3.6 160 10:44 23.01.2020
87 Clouds 17 1015 82 10000 3.6 160 10:22 23.01.2020
88 Clear 18 1015 77 10000 3.6 160 09:59 23.01.2020
89 Clear 19 1015 77 10000 3.6 160 09:37 23.01.2020
90 Clouds 19 1015 77 10000 3.6 160 09:19 23.01.2020
91 Clear 21 573 41 0 0.35 252 08:41 23.01.2020
92 Clouds 20 1014 72 10000 3.6 160 08:22 23.01.2020
93 Clouds 20 1014 72 10000 3.6 160 07:45 23.01.2020
94 Clouds 20 1014 72 10000 3.6 160 07:26 23.01.2020
95 Clouds 20 1014 68 10000 3.1 160 06:53 23.01.2020
96 Clouds 20 1014 68 10000 3.1 160 06:23 23.01.2020
97 Clouds 20 1014 68 10000 2.6 140 05:57 23.01.2020
98 Clear 19 1014 68 10000 3.6 170 04:24 23.01.2020
99 Clear 22 1013 56 10000 6.2 140 02:34 23.01.2020
100 Clear 24 1014 50 10000 2.6 250 01:41 23.01.2020
101 Clouds 26 1013 44 10000 3.1 230 00:28 23.01.2020
102 Clouds 28 1013 39 8000 4.1 240 23:48 22.01.2020
103 Clouds 28 1013 39 8000 4.1 240 23:30 22.01.2020
104 Clear 30 1013 33 10000 4.1 220 22:59 22.01.2020
105 Clear 30 1013 33 10000 4.1 220 22:41 22.01.2020
106 Clear 30 1013 33 10000 4.1 220 22:41 22.01.2020
107 Clear 30 1013 33 10000 4.1 220 22:22 22.01.2020
108 Clear 31 1013 33 10000 4.6 220 21:41 22.01.2020
109 Clear 31 1013 33 10000 4.6 220 21:22 22.01.2020
110 Clear 30 1013 35 10000 3.6 250 20:58 22.01.2020
111 Clear 30 1013 35 10000 3.6 250 20:39 22.01.2020
112 Clear 30 1013 35 10000 3.6 250 20:21 22.01.2020
113 Clear 30 1014 35 10000 3.1 230 19:57 22.01.2020
114 Clear 30 1014 35 10000 3.1 230 19:39 22.01.2020
115 Clear 30 1014 35 10000 3.1 230 19:19 22.01.2020
116 Clear 29 1014 39 10000 2.6 250 18:57 22.01.2020
117 Clear 29 1014 39 10000 2.6 250 18:38 22.01.2020
118 Clear 29 1014 39 10000 2.6 250 18:38 22.01.2020
119 Clear 28 1014 39 10000 2.6 250 18:19 22.01.2020
120 Clear 27 1014 39 10000 2.1 210 17:55 22.01.2020
121 Clear 27 1014 39 10000 2.1 210 17:36 22.01.2020
122 Clear 27 1014 39 10000 2.1 210 17:18 22.01.2020
123 Clear 26 1015 41 10000 2.6 240 16:43 22.01.2020
124 Clear 25 1015 41 10000 2.6 240 16:23 22.01.2020
125 Clear 24 1015 49 10000 2.6 260 15:58 22.01.2020
126 Clear 24 1015 49 10000 2.6 260 15:40 22.01.2020
127 Clear 23 1015 49 10000 2.6 260 15:22 22.01.2020
128 Clear 22 1015 56 10000 1.5 250 14:56 22.01.2020
129 Clear 21 1015 56 10000 1.5 250 14:36 22.01.2020
130 Clear 21 1015 56 10000 1.5 250 14:18 22.01.2020
131 Clear 21 1014 63 10000 1 220 13:54 22.01.2020
132 Clear 20 1014 63 10000 1 220 13:36 22.01.2020
133 Clear 18 1014 63 10000 1 220 13:18 22.01.2020
134 Clear 20 1014 63 10000 5.1 220 12:54 22.01.2020
135 Clear 19 1014 63 10000 5.1 220 12:36 22.01.2020
136 Clear 19 1014 63 10000 5.1 220 12:18 22.01.2020
137 Clear 19 1012 77 10000 2.6 170 11:55 22.01.2020
138 Clear 18 1012 77 10000 2.6 170 11:36 22.01.2020
139 Clear 18 1012 77 10000 2.6 170 11:18 22.01.2020
140 Clear 18 1011 77 10000 2.6 170 10:42 22.01.2020
141 Clear 18 1011 77 10000 2.6 170 10:19 22.01.2020
142 Clear 19 1011 72 10000 3.6 170 09:43 22.01.2020
143 Clear 18 1011 72 10000 3.6 170 09:24 22.01.2020
144 Clear 19 1011 67 10000 2.6 170 08:57 22.01.2020
145 Clear 19 1011 67 10000 2.6 170 08:57 22.01.2020
146 Clear 19 1011 67 10000 2.6 170 08:39 22.01.2020
147 Clear 19 1011 67 10000 2.6 170 08:20 22.01.2020
148 Clear 19 1011 67 10000 3.6 160 07:47 22.01.2020
149 Clear 19 1011 67 10000 3.6 160 07:29 22.01.2020
150 Clear 20 1011 63 10000 4.1 150 06:46 22.01.2020
151 Clear 20 1011 63 10000 4.1 150 06:26 22.01.2020
152 Clear 20 1011 59 10000 4.1 170 05:26 22.01.2020
153 Clear 22 1011 53 10000 4.6 140 04:18 22.01.2020
154 Clear 22 1011 53 10000 4.6 140 03:21 22.01.2020
155 Clear 26 1012 36 10000 1 270 01:43 22.01.2020
156 Clear 28 1012 37 10000 2.1 230 00:44 22.01.2020
157 Clear 28 1012 37 10000 2.1 230 00:26 22.01.2020
158 Clear 30 1012 30 8000 3.6 250 23:38 21.01.2020
159 Clear 30 1012 30 8000 3.6 250 23:20 21.01.2020
160 Clear 31 1012 33 8000 4.1 250 22:56 21.01.2020
161 Clear 31 1012 33 8000 4.1 250 22:37 21.01.2020
162 Clear 31 1012 33 8000 4.1 250 22:37 21.01.2020
163 Clear 31 1012 33 8000 4.1 250 22:19 21.01.2020
164 Clear 31 1012 31 8000 4.6 220 21:55 21.01.2020
165 Clear 32 1012 31 8000 4.6 220 21:37 21.01.2020
166 Clear 31 1012 31 8000 4.6 220 21:18 21.01.2020
167 Clear 32 1012 29 8000 4.6 240 20:55 21.01.2020
168 Clear 32 1012 29 8000 4.6 240 20:36 21.01.2020
169 Clear 32 1012 29 8000 4.6 240 20:18 21.01.2020
170 Clear 32 1013 29 8000 4 255 19:55 21.01.2020
171 Clear 32 1013 29 8000 4 255 19:36 21.01.2020
172 Clear 32 1013 29 8000 4 255 19:18 21.01.2020
173 Clear 32 1013 31 8000 3.1 260 18:54 21.01.2020
174 Clear 32 1013 31 8000 3.1 260 18:36 21.01.2020
175 Clear 32 1013 31 8000 3.1 260 18:18 21.01.2020
176 Clear 30 1013 37 8000 2.1 250 17:42 21.01.2020
177 Clear 30 1013 37 8000 2.1 250 17:19 21.01.2020
178 Clear 29 1013 39 8000 2.1 270 16:55 21.01.2020
179 Clear 29 1013 39 8000 2.1 270 16:36 21.01.2020
180 Clear 28 1013 39 8000 2.1 270 16:18 21.01.2020
181 Clear 27 1014 44 8000 2.6 240 15:39 21.01.2020
182 Clear 26 1014 44 8000 2.6 240 15:20 21.01.2020
183 Clear 29 927 91 0 0.45 270 14:40 21.01.2020
184 Clear 20 1013 64 8000 3.19 261 14:22 21.01.2020
185 Clear 22 1013 64 8000 1.56 262 13:58 21.01.2020
186 Clear 22 1013 64 8000 1.56 262 13:38 21.01.2020
187 Clear 20 1013 64 8000 1.73 260 13:18 21.01.2020
188 Clear 21 1014 64 10000 1.73 260 12:42 21.01.2020
189 Clear 21 1014 64 10000 1.73 260 12:24 21.01.2020
190 Clear 21 1012 63 10000 3.1 160 11:56 21.01.2020
191 Clear 20 1012 63 10000 3.1 160 11:38 21.01.2020
192 Clear 20 1012 63 10000 3.1 160 11:38 21.01.2020
193 Clear 19 1012 63 10000 3.1 160 11:19 21.01.2020
194 Clear 20 1011 59 10000 3.1 160 10:43 21.01.2020
195 Clear 20 1011 59 10000 3.1 160 10:23 21.01.2020
196 Clear 20 1011 59 10000 3.6 160 09:56 21.01.2020
197 Clear 20 1011 59 10000 3.6 160 09:56 21.01.2020
198 Clear 20 1011 59 10000 3.6 160 09:38 21.01.2020
199 Clear 20 1011 59 10000 3.6 160 09:20 21.01.2020
200 Clear 20 1011 63 10000 2.6 160 08:44 21.01.2020
201 Clear 20 1011 63 10000 2.6 160 08:26 21.01.2020
202 Clear 20 1011 63 10000 3.1 160 07:44 21.01.2020
203 Clear 20 1011 63 10000 3.1 160 07:25 21.01.2020
204 Clear 21 1011 56 10000 2.6 150 06:58 21.01.2020
205 Clear 21 1011 56 10000 2.6 150 06:38 21.01.2020
206 Clear 22 1012 53 10000 3.1 150 05:55 21.01.2020
207 Clear 22 1012 53 10000 3.1 150 05:55 21.01.2020
208 Clear 22 1012 53 10000 3.1 150 05:32 21.01.2020
209 Clear 23 1012 49 10000 3.6 160 04:38 21.01.2020
210 Clear 25 1012 47 10000 4.6 150 02:29 21.01.2020
211 Clear 26 1013 44 10000 2.1 230 01:36 21.01.2020
212 Clear 29 1013 37 10000 3.1 260 00:51 21.01.2020
213 Clear 29 1013 37 10000 3.1 260 00:28 21.01.2020
214 Clear 30 1012 33 10000 3.6 230 23:56 20.01.2020
215 Clear 31 1012 33 10000 3.6 230 23:36 20.01.2020
216 Clear 30 1012 33 10000 3.6 230 23:18 20.01.2020
217 Haze 31 1012 29 5000 3.6 230 22:54 20.01.2020
218 Haze 31 1012 29 5000 3.6 230 22:36 20.01.2020
219 Haze 32 1012 29 5000 3.6 230 22:18 20.01.2020
220 Haze 32 1013 29 5000 3.6 230 21:54 20.01.2020
221 Haze 32 1013 29 5000 3.6 230 21:36 20.01.2020
222 Haze 32 1013 29 5000 3.6 230 21:18 20.01.2020
223 Haze 32 1013 31 5000 4.1 0 20:42 20.01.2020
224 Haze 32 1013 31 5000 4.1 0 20:20 20.01.2020
225 Haze 32 1014 33 5000 3.1 220 19:58 20.01.2020
226 Haze 32 1014 33 5000 3.1 220 19:40 20.01.2020
227 Haze 32 1014 33 5000 3.1 220 19:19 20.01.2020
228 Clear 32 1014 35 6000 2.6 240 18:55 20.01.2020
229 Clear 31 1014 35 6000 2.6 240 18:37 20.01.2020
230 Clear 31 1014 35 6000 2.6 240 18:19 20.01.2020
231 Clear 29 1014 39 6000 2.1 250 17:38 20.01.2020
232 Clear 29 1014 39 6000 2.1 250 17:19 20.01.2020
233 Clear 27 1014 44 8000 1.5 240 16:46 20.01.2020
234 Clear 27 1014 44 8000 1.5 240 16:26 20.01.2020
235 Clear 25 1014 50 8000 2.1 230 15:59 20.01.2020
236 Clear 25 1014 50 8000 2.1 230 15:40 20.01.2020
237 Clear 25 1014 50 8000 2.1 230 15:22 20.01.2020
238 Clear 23 1014 60 8000 3.05 261 14:58 20.01.2020
239 Clear 24 1014 60 8000 3.05 261 14:39 20.01.2020
240 Clouds 23 1014 60 8000 1.51 278 14:20 20.01.2020
241 Clouds 20 1014 72 10000 1.51 278 13:44 20.01.2020
242 Clear 20 1014 72 10000 1.58 275 13:24 20.01.2020
243 Clouds 19 1014 68 10000 1.58 275 12:58 20.01.2020
244 Clouds 21 1014 68 10000 1.58 275 12:40 20.01.2020
245 Clouds 20 1014 68 10000 1.58 275 12:21 20.01.2020
246 Clear 20 1013 82 10000 1 0 11:55 20.01.2020
247 Clear 19 1013 82 10000 1 0 11:36 20.01.2020
248 Clouds 17 1013 82 10000 1 0 11:18 20.01.2020
249 Clouds 17 1013 82 10000 3.6 160 10:41 20.01.2020
250 Clouds 17 1013 82 10000 3.6 160 10:20 20.01.2020
251 Clouds 17 1013 82 10000 4.1 170 09:41 20.01.2020
252 Clouds 17 1013 82 10000 4.1 170 09:23 20.01.2020
253 Clouds 18 1012 77 10000 3.6 160 08:55 20.01.2020
254 Clouds 17 1012 77 10000 3.6 160 08:31 20.01.2020
255 Clouds 17 1012 77 10000 3.6 150 07:55 20.01.2020
256 Clouds 17 1012 77 10000 3.6 150 07:37 20.01.2020
257 Clouds 17 1012 77 10000 3.6 150 07:19 20.01.2020
258 Clouds 18 1013 72 10000 5.1 150 06:40 20.01.2020
259 Clouds 18 1013 72 10000 5.1 150 06:20 20.01.2020
260 Clouds 19 1013 68 10000 3.6 160 05:38 20.01.2020
261 Clouds 20 1013 68 10000 3.6 160 05:19 20.01.2020
262 Clouds 21 1013 56 10000 2.6 160 03:55 20.01.2020
263 Clouds 22 1014 56 10000 2.1 200 01:58 20.01.2020
264 Clouds 22 1014 56 10000 2.1 200 01:39 20.01.2020
265 Clouds 25 1013 47 10000 4.1 230 00:56 20.01.2020
266 Clouds 25 1013 47 10000 4.1 230 00:37 20.01.2020
267 Clouds 25 1013 47 10000 4.1 230 00:19 20.01.2020
268 Clouds 27 1012 39 10000 1.5 0 23:37 19.01.2020
269 Clouds 28 1012 39 10000 1.5 0 23:18 19.01.2020
270 Clouds 27 1013 41 10000 2.1 210 22:55 19.01.2020
271 Clouds 27 1013 41 10000 2.1 210 22:37 19.01.2020
272 Clouds 28 1013 41 10000 2.1 210 22:18 19.01.2020
273 Clouds 28 1014 41 10000 1 240 21:55 19.01.2020
274 Clouds 27 1014 41 10000 1 240 21:37 19.01.2020
275 Clouds 27 1014 41 10000 1 240 21:19 19.01.2020
276 Clouds 27 1014 41 10000 2.6 190 20:56 19.01.2020
277 Clouds 27 1014 41 10000 2.6 190 20:37 19.01.2020
278 Clouds 28 1014 41 10000 2.6 190 20:19 19.01.2020
279 Clouds 28 1014 39 10000 4.1 190 19:55 19.01.2020
280 Clouds 28 1014 39 10000 4.1 190 19:37 19.01.2020
281 Clouds 28 1014 39 10000 4.1 190 19:19 19.01.2020
282 -273 0 0 0 0 0 18:55 19.01.2020
283 Clouds 30 1013 33 10000 3.6 240 18:37 19.01.2020
284 Clouds 30 1013 33 10000 3.6 240 18:18 19.01.2020
285 Clouds 30 1013 33 10000 3.6 240 18:18 19.01.2020
286 Clouds 29 1013 32 10000 3.1 240 17:57 19.01.2020
287 Clouds 29 1013 32 10000 3.1 240 17:38 19.01.2020
288 Clouds 29 1013 32 10000 3.1 240 17:19 19.01.2020
289 Clouds 28 1013 36 10000 2.6 250 16:55 19.01.2020
290 Clouds 27 1013 36 10000 2.6 250 16:36 19.01.2020
291 Clouds 28 1013 36 10000 2.6 250 16:18 19.01.2020
292 Clear 27 1013 38 10000 3.1 260 15:55 19.01.2020
293 Clear 26 1013 38 10000 3.1 260 15:36 19.01.2020
294 Clear 26 1013 38 10000 3.1 260 15:18 19.01.2020
295 Clear 26 1013 38 10000 3.1 260 15:18 19.01.2020
296 Clear 26 1013 38 10000 3.1 260 15:18 19.01.2020
297 Clouds 26 1013 44 10000 3.1 240 14:40 19.01.2020
298 Clouds 25 1013 44 10000 3.1 240 14:21 19.01.2020
299 Clouds 24 1012 52 10000 1.56 285 13:59 19.01.2020
300 Clouds 24 1012 52 10000 1.56 285 13:40 19.01.2020
301 Clouds 21 1012 52 10000 1.41 273 13:22 19.01.2020
302 Clouds 19 1012 63 10000 1 30 12:59 19.01.2020
303 Clouds 22 1012 63 10000 1 30 12:41 19.01.2020
304 Clouds 22 1012 63 10000 1 30 12:21 19.01.2020
305 Clouds 24 1010 55 10000 2.1 180 11:57 19.01.2020
306 Clouds 24 1010 55 10000 2.1 180 11:38 19.01.2020
307 Clouds 19 1010 55 10000 2.1 180 11:18 19.01.2020
308 Clouds 19 1010 52 10000 2.6 170 10:41 19.01.2020
309 Clouds 19 1010 52 10000 2.6 170 10:21 19.01.2020
310 Clouds 19 1010 52 10000 5.7 150 09:57 19.01.2020
311 Clouds 19 1010 52 10000 5.7 150 09:38 19.01.2020
312 Clouds 19 1010 52 10000 5.7 150 09:20 19.01.2020
313 Clouds 19 1010 55 10000 4.6 160 08:55 19.01.2020
314 Clouds 19 1010 55 10000 4.6 160 08:33 19.01.2020
315 Clouds 20 1010 52 10000 4.6 160 07:58 19.01.2020
316 Clouds 20 1010 52 10000 4.6 160 07:29 19.01.2020
317 Clouds 22 1010 46 10000 3.1 160 06:55 19.01.2020
318 Clouds 22 1010 46 10000 3.1 160 06:23 19.01.2020
319 Clouds 23 1010 43 10000 4.6 160 04:18 19.01.2020
320 Clouds 25 1009 41 10000 5.7 150 02:34 19.01.2020
321 Clouds 27 1010 36 10000 2.6 230 01:43 19.01.2020
322 Clouds 27 1010 36 10000 2.6 230 01:21 19.01.2020
323 Clouds 28 1007 34 0 2.27 245 00:45 19.01.2020
324 Clouds 30 1010 30 7000 3.1 250 00:24 19.01.2020
325 Clouds 30 1010 30 7000 3.1 250 23:55 18.01.2020
326 Clouds 30 1010 30 7000 3.1 250 23:36 18.01.2020
327 Clouds 30 1010 30 7000 3.1 250 23:18 18.01.2020
328 Clouds 32 1010 27 10000 4.1 250 22:42 18.01.2020
329 Clouds 32 1010 27 10000 4.1 250 22:24 18.01.2020
330 Clouds 32 1010 27 10000 4.1 250 22:24 18.01.2020
331 Clouds 32 1010 27 10000 4.1 250 21:58 18.01.2020
332 Clouds 32 1010 27 10000 4.1 250 21:39 18.01.2020
333 Clouds 32 1010 27 10000 4.1 250 21:21 18.01.2020
334 Clouds 34 1010 24 10000 3.1 240 20:59 18.01.2020
335 Clouds 34 1010 24 10000 3.1 240 20:41 18.01.2020
336 Clouds 33 1010 24 10000 3.1 240 20:19 18.01.2020
337 Clouds 33 1010 24 10000 3.1 240 20:19 18.01.2020
338 Clouds 33 1011 24 10000 3.6 230 19:43 18.01.2020
339 Clouds 33 1011 24 10000 3.6 230 19:25 18.01.2020
340 Clouds 32 1011 26 7000 2.6 270 18:55 18.01.2020
341 Clouds 33 1011 26 7000 2.6 270 18:36 18.01.2020
342 Clouds 33 1011 26 7000 2.6 270 18:18 18.01.2020
343 Clouds 31 1011 29 10000 2.6 260 17:41 18.01.2020
344 Clouds 31 1011 29 10000 2.6 260 17:21 18.01.2020
345 Clouds 29 1011 32 10000 2.1 140 16:57 18.01.2020
346 Clouds 29 1011 32 10000 2.1 140 16:38 18.01.2020
347 Clouds 29 1011 32 10000 2.1 140 16:19 18.01.2020
348 Clouds 29 1011 32 10000 2.1 140 16:19 18.01.2020
349 Clouds 27 1012 39 10000 1 280 15:47 18.01.2020
350 Clouds 27 1012 39 10000 1 280 15:26 18.01.2020
351 Clouds 27 1012 39 10000 1 280 15:26 18.01.2020
352 Clouds 22 1012 49 10000 2.62 266 15:00 18.01.2020
353 Clouds 25 1012 49 10000 2.62 266 14:41 18.01.2020
354 Clouds 25 1012 49 10000 0.76 227 14:19 18.01.2020
355 Clouds 24 1011 52 10000 0.76 227 13:57 18.01.2020
356 Clouds 23 1011 52 10000 0.76 227 13:36 18.01.2020
357 Clouds 23 1011 52 10000 1.36 257 13:18 18.01.2020
358 Clouds 23 1011 52 10000 1.36 257 13:18 18.01.2020
359 Clouds 22 1011 60 10000 1.36 257 12:41 18.01.2020
360 Clouds 22 1011 60 10000 1.36 257 12:22 18.01.2020
361 Clouds 24 1009 63 10000 3.6 160 11:57 18.01.2020
362 Clouds 23 1009 63 10000 3.6 160 11:38 18.01.2020
363 Clouds 21 1009 63 10000 3.6 160 11:19 18.01.2020
364 Clouds 22 1009 59 10000 2.6 150 10:43 18.01.2020
365 Clouds 22 1009 59 10000 2.6 150 10:21 18.01.2020
366 Clouds 22 1009 59 10000 2.6 160 09:55 18.01.2020
367 Clouds 22 1009 59 10000 2.6 160 09:37 18.01.2020
368 Clouds 23 1009 56 10000 3.1 180 08:59 18.01.2020
369 Clouds 23 1009 56 10000 3.1 180 08:41 18.01.2020
370 Clouds 23 1009 56 10000 3.1 180 08:41 18.01.2020
371 Clouds 22 1009 56 10000 3.1 180 08:20 18.01.2020
372 Clouds 22 1009 56 10000 3.1 180 08:20 18.01.2020
373 Clouds 22 1010 63 10000 3.1 160 07:52 18.01.2020
374 Clouds 22 1010 63 10000 3.1 160 07:34 18.01.2020
375 Clouds 23 1010 60 10000 3.6 170 06:48 18.01.2020
376 Clouds 23 1010 60 10000 3.6 170 06:19 18.01.2020
377 Clouds 23 1010 56 10000 3.1 180 05:31 18.01.2020
378 Clouds 22 1010 53 10000 5.7 150 03:46 18.01.2020
379 Clouds 25 1009 47 10000 5.1 150 02:21 18.01.2020
380 Clouds 26 1011 36 10000 1.5 230 01:36 18.01.2020
381 Clouds 29 1010 30 10000 2.6 250 00:39 18.01.2020
382 Clouds 29 1010 30 10000 2.6 250 00:19 18.01.2020
383 Clouds 30 1010 25 8000 3.6 230 23:56 17.01.2020
384 Clouds 31 1010 25 8000 3.6 230 23:38 17.01.2020
385 Clouds 31 1010 25 8000 3.6 230 23:18 17.01.2020
386 Clouds 31 1010 25 7000 3.6 250 22:40 17.01.2020
387 Clouds 32 1010 25 7000 3.6 250 22:19 17.01.2020
388 Clouds 32 1010 19 7000 3.1 200 21:43 17.01.2020
389 Clouds 32 1010 19 7000 3.1 200 21:24 17.01.2020
390 Clouds 32 1011 21 7000 3.1 170 20:59 17.01.2020
391 Clouds 32 1011 21 7000 3.1 170 20:41 17.01.2020
392 Clear 33 1011 21 7000 3.1 170 20:20 17.01.2020
393 Clear 33 1012 21 7000 3.6 200 19:57 17.01.2020
394 Clear 33 1012 21 7000 3.6 200 19:38 17.01.2020
395 Clear 33 1012 21 7000 3.6 200 19:20 17.01.2020
396 Clear 32 1012 23 7000 2.6 270 18:57 17.01.2020
397 Clear 32 1012 23 7000 2.6 270 18:38 17.01.2020
398 Clear 32 1012 23 7000 2.6 270 18:20 17.01.2020
399 Clear 30 1012 26 7000 2.6 230 17:40 17.01.2020
400 Clear 30 1012 26 7000 2.6 230 17:21 17.01.2020
401 Clear 29 1013 28 7000 2.1 220 16:57 17.01.2020
402 Clear 29 1013 28 7000 2.1 220 16:38 17.01.2020
403 Clear 29 1013 28 7000 2.1 220 16:18 17.01.2020
404 Clear 27 1012 31 8000 3 267 15:44 17.01.2020
405 Clear 27 1012 31 8000 3 267 15:26 17.01.2020
406 Clear 25 1012 40 10000 3 267 14:44 17.01.2020
407 Clear 25 1012 40 10000 3 267 14:26 17.01.2020
408 Clouds 23 1012 48 10000 1.68 269 13:56 17.01.2020
409 Clouds 22 1012 48 10000 1.68 269 13:37 17.01.2020
410 Clear 21 1012 48 10000 1.89 277 13:18 17.01.2020
411 Clear 21 1012 48 10000 1.89 277 13:18 17.01.2020
412 Clear 20 1012 52 10000 1.89 277 12:42 17.01.2020
413 Clear 20 1012 52 10000 1.89 277 12:42 17.01.2020
414 Clear 21 1012 52 10000 1.89 277 12:21 17.01.2020
415 Clear 22 1011 51 10000 2.1 150 11:38 17.01.2020
416 Clear 16 1011 51 10000 2.1 150 11:18 17.01.2020
417 Clear 17 1010 48 10000 2.6 150 10:43 17.01.2020
418 Clear 17 1010 48 10000 2.6 150 10:23 17.01.2020
419 Clear 17 1010 51 10000 3.6 170 09:58 17.01.2020
420 Clear 17 1010 51 10000 3.6 170 09:58 17.01.2020
421 Clear 17 1010 51 10000 3.6 170 09:38 17.01.2020
422 Clear 17 1010 51 10000 3.6 170 09:19 17.01.2020
423 Clear 19 1010 45 10000 3.6 180 08:43 17.01.2020
424 Clear 19 1010 45 10000 3.6 180 08:24 17.01.2020
425 Clouds 19 1010 45 10000 3.6 150 07:53 17.01.2020
426 Clouds 19 1010 45 10000 3.6 150 07:31 17.01.2020
427 Clouds 20 1010 45 10000 4.1 150 06:57 17.01.2020
428 Clouds 20 1010 45 10000 4.1 150 06:38 17.01.2020
429 Clouds 21 1010 43 10000 3.1 170 05:53 17.01.2020
430 Clouds 22 1015 32 0 0.9 262 03:39 17.01.2020
431 Clouds 26 1009 31 0 0.9 262 02:47 17.01.2020
432 Clouds 26 1008 32 0 2.17 229 01:47 17.01.2020
433 Clouds 26 1008 32 0 2.13 222 01:29 17.01.2020
434 Clouds 28 1006 32 0 2.13 222 00:48 17.01.2020
435 Clouds 31 1010 18 10000 3.6 210 00:23 17.01.2020
436 Clouds 31 1010 18 10000 3.6 210 23:44 16.01.2020
437 Clouds 31 1010 18 10000 3.6 210 23:25 16.01.2020
438 Clouds 32 1010 16 10000 3.6 210 22:56 16.01.2020
439 Clouds 32 1010 16 10000 3.6 210 22:38 16.01.2020
440 Clouds 32 1010 16 10000 3.6 210 22:19 16.01.2020
441 Clouds 32 1010 16 10000 3.6 210 21:54 16.01.2020
442 Clouds 32 1010 16 10000 3.6 210 21:36 16.01.2020
443 Clouds 32 1010 16 10000 3.6 210 21:36 16.01.2020
444 Clouds 33 1010 16 10000 3.6 210 21:18 16.01.2020
445 Clouds 33 1010 16 10000 3.6 240 20:40 16.01.2020
446 Clear 34 1010 16 10000 3.6 240 20:21 16.01.2020
447 Clouds 33 1011 17 10000 3.1 250 19:58 16.01.2020
448 Clouds 33 1011 17 10000 3.1 250 19:40 16.01.2020
449 Clouds 33 1011 17 10000 3.1 250 19:22 16.01.2020
450 Clouds 32 1012 18 10000 1.5 0 18:57 16.01.2020
451 Clouds 32 1012 18 10000 1.5 0 18:37 16.01.2020
452 Clouds 32 1012 18 10000 1.5 0 18:19 16.01.2020
453 Clouds 31 1012 21 10000 2.6 260 17:58 16.01.2020
454 Clouds 30 1012 21 10000 2.6 260 17:39 16.01.2020
455 Clouds 30 1012 21 10000 2.6 260 17:20 16.01.2020
456 Clouds 30 1012 24 10000 1.5 220 16:41 16.01.2020
457 Clouds 29 1012 24 10000 1.5 220 16:23 16.01.2020
458 Clouds 28 1013 27 10000 1.5 230 15:58 16.01.2020
459 Clouds 27 1013 27 10000 1.5 230 15:39 16.01.2020
460 Clouds 27 1013 27 10000 1.5 230 15:39 16.01.2020
461 Clouds 27 1013 27 10000 1.5 230 15:20 16.01.2020
462 Clouds 25 1013 33 10000 1 250 14:44 16.01.2020
463 Clouds 24 1013 33 10000 1 250 14:24 16.01.2020
464 Clouds 24 1013 33 10000 1 250 14:24 16.01.2020
465 Clouds 22 1012 42 10000 1.21 287 13:56 16.01.2020
466 Clouds 22 1012 42 10000 1.21 287 13:37 16.01.2020
467 Clouds 20 1012 42 10000 1.21 287 13:19 16.01.2020
468 Clouds 21 1012 42 10000 1.35 291 12:42 16.01.2020
469 Clouds 20 1012 42 10000 1.35 291 12:22 16.01.2020
470 Clouds 22 1010 45 8000 3.1 140 11:43 16.01.2020
471 Clouds 18 1010 45 8000 3.1 140 11:24 16.01.2020
472 Clouds 18 1010 42 10000 2.1 190 10:59 16.01.2020
473 Clouds 18 1010 42 10000 2.1 190 10:38 16.01.2020
474 Clouds 18 1010 42 10000 2.1 190 10:20 16.01.2020
475 Clouds 17 1009 45 10000 2.1 270 09:54 16.01.2020
476 Clouds 17 1009 45 10000 2.1 270 09:36 16.01.2020
477 Clouds 17 1009 45 10000 2.1 270 09:18 16.01.2020
478 Clouds 17 1010 45 10000 1 0 08:42 16.01.2020
479 Clouds 17 1010 45 10000 1 0 08:23 16.01.2020
480 Clouds 19 1010 37 10000 1 0 07:43 16.01.2020
481 Clouds 19 1010 37 10000 1 0 07:25 16.01.2020
482 Clouds 20 1011 37 10000 2.1 160 06:55 16.01.2020
483 Clouds 20 1011 37 10000 2.1 160 06:35 16.01.2020
484 Clouds 22 1011 30 10000 3.6 170 05:56 16.01.2020
485 Clouds 22 1011 30 10000 3.6 170 05:30 16.01.2020
486 Clear 24 1012 27 10000 7.2 170 04:37 16.01.2020
487 Clear 24 1012 27 10000 7.2 170 04:37 16.01.2020
488 Clear 24 1012 27 10000 5.1 160 03:27 16.01.2020
489 Clear 26 1011 22 10000 5.1 200 02:24 16.01.2020
490 Clear 29 1011 25 10000 3.1 210 00:45 16.01.2020
491 Clear 29 1011 25 10000 3.1 210 00:24 16.01.2020
492 Clear 31 1012 21 10000 3.6 210 23:46 15.01.2020
493 Clear 31 1012 21 10000 3.6 210 23:22 15.01.2020
494 Clear 32 1012 17 10000 3.6 180 22:57 15.01.2020
495 Clear 32 1012 17 10000 3.6 180 22:39 15.01.2020
496 Clear 32 1012 17 10000 3.6 180 22:19 15.01.2020
497 Clear 32 1012 15 10000 3.6 200 21:57 15.01.2020
498 Clear 32 1012 15 10000 3.6 200 21:37 15.01.2020
499 Clear 33 1012 15 10000 3.6 200 21:19 15.01.2020
500 Clear 32 1013 18 10000 3.6 220 20:56 15.01.2020
501 Clear 32 1013 18 10000 3.6 220 20:38 15.01.2020
502 Clear 33 1013 18 10000 3.6 220 20:19 15.01.2020
503 Clear 32 1012 22 10000 3.1 240 19:54 15.01.2020
504 Clear 32 1012 22 10000 3.1 240 19:36 15.01.2020
505 Clear 32 1012 22 10000 3.1 240 19:18 15.01.2020
506 Clear 31 1013 25 10000 2.1 300 18:56 15.01.2020
507 Clear 30 1013 25 10000 2.1 300 18:37 15.01.2020
508 Clear 30 1013 25 10000 2.1 300 18:19 15.01.2020
509 Clear 30 1013 25 10000 2.1 300 18:19 15.01.2020
510 Clear 30 1014 28 10000 2.1 210 17:55 15.01.2020
511 Clear 31 927 50 0 0.45 225 17:37 15.01.2020
512 Clear 28 1014 32 10000 2.1 210 17:18 15.01.2020
513 Clear 28 1014 32 10000 2.1 210 16:40 15.01.2020
514 Clear 27 1014 32 10000 2.1 210 16:21 15.01.2020
515 Clear 26 1014 38 10000 2.1 140 15:57 15.01.2020
516 Clear 25 1014 38 10000 2.1 140 15:39 15.01.2020
517 Clear 25 1014 38 10000 2.1 140 15:18 15.01.2020
518 Clear 24 1014 64 10000 1 160 14:43 15.01.2020
519 Clouds 21 1014 64 10000 1 160 14:20 15.01.2020
520 Clouds 21 1014 56 10000 1.67 257 13:46 15.01.2020
521 Clouds 22 1014 56 10000 1.67 257 13:27 15.01.2020
522 Clouds 20 1014 52 10000 1 150 12:59 15.01.2020
523 Clouds 22 1014 52 10000 1 150 12:40 15.01.2020
524 Clouds 22 1014 52 10000 1 150 12:19 15.01.2020
525 Clouds 23 1012 59 10000 4.1 170 11:57 15.01.2020
526 Clouds 22 1012 59 10000 4.1 170 11:37 15.01.2020
527 Clouds 18 1012 59 10000 4.1 170 11:19 15.01.2020
528 Clouds 19 1011 55 10000 5.1 180 10:43 15.01.2020
529 Clouds 19 1011 55 10000 5.1 180 10:25 15.01.2020
530 Clouds 21 1011 49 10000 3.6 180 09:45 15.01.2020
531 Clouds 21 1011 49 10000 3.6 180 09:26 15.01.2020
532 Clouds 21 1011 46 10000 2.1 230 08:58 15.01.2020
533 Clouds 21 1011 46 10000 2.1 230 08:39 15.01.2020
534 Clouds 21 1011 46 10000 2.1 230 08:21 15.01.2020
535 Clouds 21 1010 46 10000 4.1 170 07:51 15.01.2020
536 Clouds 21 1010 46 10000 4.1 170 07:31 15.01.2020
537 Clouds 21 1010 46 10000 2.6 170 06:46 15.01.2020
538 Clouds 21 1010 46 10000 2.6 170 06:20 15.01.2020
539 Clouds 23 1011 43 10000 2.6 140 04:42 15.01.2020
540 Clouds 26 1010 36 10000 5.7 200 02:38 15.01.2020
541 Clouds 26 1012 39 10000 2.1 210 01:28 15.01.2020
542 Clouds 27 1012 34 10000 3.6 260 00:45 15.01.2020
543 Clouds 28 1012 34 10000 3.6 260 00:26 15.01.2020
544 Clouds 29 1012 30 8000 4.1 250 23:55 14.01.2020
545 Clouds 29 1012 30 8000 4.1 250 23:36 14.01.2020
546 Clouds 30 1012 30 8000 4.1 250 23:18 14.01.2020
547 Clouds 30 1012 29 10000 4.6 240 22:41 14.01.2020
548 Clouds 31 1012 29 10000 4.6 240 22:19 14.01.2020
549 Clouds 31 1012 22 10000 4.1 240 21:58 14.01.2020
550 Clouds 31 1012 22 10000 4.1 240 21:40 14.01.2020
551 Clouds 31 1012 22 10000 4.1 240 21:21 14.01.2020
552 Clouds 31 1012 22 10000 4.6 240 20:59 14.01.2020
553 Clouds 31 1008 30 0 4.19 236 20:40 14.01.2020
554 Clear 31 1013 23 8000 3.6 240 20:20 14.01.2020
555 Clear 31 1013 23 8000 3.6 240 19:56 14.01.2020
556 Clear 31 1013 23 8000 3.6 240 19:37 14.01.2020
557 Clear 31 1013 23 8000 3.6 240 19:18 14.01.2020
558 Clear 30 1013 26 8000 3.6 240 18:55 14.01.2020
559 Clear 32 926 37 0 1.34 225 18:37 14.01.2020
560 Clear 30 1013 26 8000 2.1 210 18:18 14.01.2020
561 Clear 29 1013 26 8000 2.1 210 17:38 14.01.2020
562 Clear 29 1013 26 8000 2.1 210 17:19 14.01.2020
563 Clear 28 1013 28 8000 2.6 260 16:55 14.01.2020
564 Clear 28 1013 28 8000 2.6 260 16:37 14.01.2020
565 Clear 27 1013 28 8000 2.6 260 16:19 14.01.2020
566 Clear 26 1014 36 8000 1.5 280 15:42 14.01.2020
567 Clear 26 1014 36 8000 1.5 280 15:19 14.01.2020
568 Clear 24 1014 43 10000 0.5 210 14:47 14.01.2020
569 Clear 24 1014 43 10000 0.5 210 14:23 14.01.2020
570 Clear 21 1014 52 10000 2.07 265 13:59 14.01.2020
571 Clear 21 1014 52 10000 2.07 265 13:40 14.01.2020
572 Clear 21 1014 52 10000 2.1 271 13:19 14.01.2020
573 Clear 19 1013 67 10000 2.1 271 12:42 14.01.2020
574 Clear 19 1013 67 10000 2.1 271 12:23 14.01.2020
575 Clear 23 1011 63 10000 2.6 150 11:57 14.01.2020
576 Clear 22 1011 63 10000 2.6 150 11:39 14.01.2020
577 Clear 16 1011 63 10000 2.6 150 11:20 14.01.2020
578 Clear 17 1011 59 10000 3.1 170 10:56 14.01.2020
579 Clear 17 1011 59 10000 3.1 170 10:37 14.01.2020
580 Clear 17 1011 59 10000 3.1 170 10:19 14.01.2020
581 Clear 16 1010 59 10000 1.5 160 09:42 14.01.2020
582 Clear 16 1010 59 10000 1.5 160 09:23 14.01.2020
583 Clear 17 1010 59 10000 2.1 120 08:58 14.01.2020
584 Clear 17 1010 59 10000 2.1 120 08:39 14.01.2020
585 Clear 17 1010 59 10000 2.1 120 08:20 14.01.2020
586 Clear 18 1010 55 10000 2.1 180 07:40 14.01.2020
587 Clear 18 1010 55 10000 2.1 180 07:18 14.01.2020
588 Clear 19 1010 52 10000 2.6 170 06:42 14.01.2020
589 Clear 20 1010 45 10000 2.6 160 05:56 14.01.2020
590 Clear 21 1010 43 10000 3.1 150 04:24 14.01.2020
591 Clear 23 1011 35 10000 4.1 150 03:45 14.01.2020
592 Clear 26 1011 29 10000 5.1 170 02:30 14.01.2020
593 Clear 26 1012 34 10000 2.1 250 01:19 14.01.2020
594 Clear 28 1012 30 10000 3.6 250 00:47 14.01.2020
595 Clear 28 1012 30 10000 3.6 250 00:21 14.01.2020
596 Clear 29 1012 28 10000 4.1 250 23:42 13.01.2020
597 Clear 29 1012 28 10000 4.1 250 23:18 13.01.2020
598 Clear 32 1012 25 10000 4.6 250 22:56 13.01.2020
599 Clear 32 1012 25 10000 4.6 250 22:37 13.01.2020
600 Clear 31 1012 25 10000 4.6 250 22:19 13.01.2020
601 Clear 32 1012 22 10000 4.6 230 21:54 13.01.2020
602 Clear 32 1012 22 10000 4.6 230 21:36 13.01.2020
603 Clear 32 1012 22 10000 4.6 230 21:18 13.01.2020
604 Clear 31 1012 24 10000 3.6 250 20:42 13.01.2020
605 Clear 31 1012 24 10000 3.6 250 20:23 13.01.2020
606 Clear 32 1012 27 10000 3.6 190 19:59 13.01.2020
607 Clear 32 1012 27 10000 3.6 190 19:41 13.01.2020
608 Clear 32 1012 27 10000 3.6 190 19:20 13.01.2020
609 Clear 32 1013 28 10000 2.6 260 18:58 13.01.2020
610 Clear 31 1013 28 10000 2.6 260 18:38 13.01.2020
611 Clear 31 1013 28 10000 2.6 260 18:38 13.01.2020
612 Clear 31 1013 28 10000 2.6 260 18:19 13.01.2020
613 Clear 30 1013 28 10000 2.1 220 17:57 13.01.2020
614 Clear 30 1013 28 10000 2.1 220 17:38 13.01.2020
615 Clear 29 1013 28 10000 2.1 220 17:20 13.01.2020
616 Clear 29 1013 28 10000 2.1 220 17:20 13.01.2020
617 Clear 28 1009 36 0 3.16 263 16:41 13.01.2020
618 Clear 28 1009 37 0 3.16 263 16:22 13.01.2020
619 Clear 28 1009 38 0 3.16 263 15:58 13.01.2020
620 Clear 28 1010 38 0 3.16 263 15:40 13.01.2020
621 Clear 28 1010 37 0 3.16 263 15:20 13.01.2020
622 Clear 27 1010 38 0 3.16 263 14:43 13.01.2020
623 Clear 20 1013 44 0 1.68 267 14:24 13.01.2020
624 Clear 20 1013 44 0 1.68 267 13:59 13.01.2020
625 Clear 20 1013 44 0 1.68 267 13:39 13.01.2020
626 Clear 20 1014 42 0 1.72 266 13:21 13.01.2020
627 Clear 26 1010 38 0 1.72 266 12:56 13.01.2020
628 Clear 26 1010 38 0 1.72 266 12:38 13.01.2020
629 -273 0 0 0 0 0 12:19 13.01.2020
630 Clear 22 1012 82 8000 1.5 180 12:19 13.01.2020
631 Clear 22 1012 82 8000 1.5 180 12:19 13.01.2020
632 Clear 21 1012 82 8000 1.5 180 11:39 13.01.2020
633 Clear 14 1012 82 8000 1.5 180 11:20 13.01.2020
634 Clear 15 1012 77 10000 3.1 180 10:57 13.01.2020
635 Clear 15 1012 77 10000 3.1 180 10:39 13.01.2020
636 Clear 15 1012 77 10000 3.1 180 10:20 13.01.2020
637 Clear 15 1012 77 10000 2.6 150 09:58 13.01.2020
638 Clear 15 1012 77 10000 2.6 150 09:38 13.01.2020
639 Clear 15 1012 77 10000 2.6 150 09:19 13.01.2020
640 Clear 16 1012 72 10000 3.6 150 08:39 13.01.2020
641 Clear 16 1012 72 10000 3.6 150 08:20 13.01.2020
642 Clear 16 1012 72 10000 4.6 160 07:47 13.01.2020
643 Clear 16 1012 72 10000 4.6 160 07:27 13.01.2020
644 Clear 18 1012 59 10000 4.1 160 06:43 13.01.2020
645 Clear 18 1012 59 10000 4.1 160 06:20 13.01.2020
646 Clear 19 1012 55 10000 3.6 170 05:23 13.01.2020
647 Clear 22 1012 46 10000 5.7 160 03:54 13.01.2020
648 Clear 22 1012 46 10000 5.7 160 03:24 13.01.2020
649 Clear 23 1012 43 10000 5.1 150 02:45 13.01.2020
650 Clear 24 1012 43 10000 5.1 150 02:26 13.01.2020
651 Clear 25 1014 33 10000 1.5 240 01:20 13.01.2020
652 Clear 27 1013 30 10000 2.6 240 00:41 13.01.2020
653 Clear 28 1013 30 10000 2.6 240 00:22 13.01.2020
654 Clear 29 1012 26 10000 3.6 250 23:42 12.01.2020
655 Clear 29 1012 26 10000 3.6 250 23:24 12.01.2020
656 Clear 30 1012 22 10000 4.1 250 22:58 12.01.2020
657 Clear 30 1012 22 10000 4.1 250 22:39 12.01.2020
658 Clear 30 1012 22 10000 4.1 250 22:21 12.01.2020
659 Clear 31 1012 24 10000 4.1 240 21:56 12.01.2020
660 Clear 31 1012 24 10000 4.1 240 21:38 12.01.2020
661 Clear 30 1012 24 10000 4.1 240 21:19 12.01.2020
662 Clear 31 1012 19 10000 3.1 210 20:56 12.01.2020
663 Clear 32 1012 19 10000 3.1 210 20:38 12.01.2020
664 Clear 33 1012 19 10000 3.1 210 20:19 12.01.2020
665 Clear 33 1012 19 10000 3.6 220 19:56 12.01.2020
666 Clear 33 1012 19 10000 3.6 220 19:37 12.01.2020
667 Clear 33 1012 19 10000 3.6 220 19:18 12.01.2020
668 Clear 32 1013 20 10000 2.1 0 18:57 12.01.2020
669 Clear 32 1013 20 10000 2.1 0 18:39 12.01.2020
670 Clear 32 1013 20 10000 2.1 0 18:21 12.01.2020
671 Clear 31 1013 22 10000 2.6 0 17:43 12.01.2020
672 Clear 29 1013 22 10000 2.6 0 17:23 12.01.2020
673 Clear 29 1013 22 10000 2.6 0 17:23 12.01.2020
674 Clear 29 1013 23 10000 2.1 200 16:59 12.01.2020
675 Clear 29 1013 23 10000 2.1 200 16:39 12.01.2020
676 Clear 29 1013 23 10000 2.1 200 16:20 12.01.2020
677 Clear 28 1013 27 10000 1 200 15:57 12.01.2020
678 Clear 27 1013 27 10000 1 200 15:38 12.01.2020
679 Clear 27 1013 27 10000 1 200 15:20 12.01.2020
680 Clear 25 1013 31 10000 3.02 264 14:43 12.01.2020
681 Clear 25 1013 31 10000 3.02 264 14:43 12.01.2020
682 Clear 25 1013 31 10000 3.02 264 14:24 12.01.2020
683 Clear 20 1013 42 10000 1.9 260 13:57 12.01.2020
684 Clear 20 1013 42 10000 1.9 260 13:57 12.01.2020
685 Clear 20 1013 42 10000 1.9 260 13:39 12.01.2020
686 Clear 20 1013 42 10000 1.83 263 13:20 12.01.2020
687 Clear 20 1013 42 10000 1.83 263 13:20 12.01.2020
688 Clear 17 1013 45 10000 1.83 263 12:57 12.01.2020
689 Clear 21 1013 45 10000 1.83 263 12:37 12.01.2020
690 Clear 21 1013 45 10000 1.83 263 12:19 12.01.2020
691 Clear 22 1011 51 8000 1 0 11:42 12.01.2020
692 Clear 17 1011 51 8000 1 0 11:22 12.01.2020
693 Clear 17 1010 48 10000 1 0 10:57 12.01.2020
694 Clear 17 1010 48 10000 1 0 10:39 12.01.2020
695 Clear 17 1010 48 10000 1 0 10:39 12.01.2020
696 Clear 16 1010 48 10000 1 0 10:20 12.01.2020
697 Clear 18 1010 42 10000 2.1 130 09:42 12.01.2020
698 Clear 18 1010 42 10000 2.1 130 09:23 12.01.2020
699 Clear 18 1010 42 10000 3.1 140 08:48 12.01.2020
700 Clear 18 1010 42 10000 3.1 140 08:24 12.01.2020
701 Clear 19 1010 37 10000 3.1 180 07:56 12.01.2020
702 Clear 19 1010 37 10000 3.1 180 07:37 12.01.2020
703 Clear 19 1010 37 10000 3.1 180 07:19 12.01.2020
704 Clear 21 1011 32 10000 1.5 0 06:38 12.01.2020
705 Clear 22 1011 30 10000 3.1 140 05:55 12.01.2020
706 Clear 22 1011 30 10000 4.1 150 04:56 12.01.2020
707 Clear 23 1011 31 10000 4.1 140 03:43 12.01.2020
708 Clear 24 1011 29 10000 4.6 140 02:48 12.01.2020
709 Clear 27 1011 29 10000 4.6 140 02:24 12.01.2020
710 Clear 27 1012 26 10000 2.6 230 01:34 12.01.2020
711 Clear 28 1011 23 10000 4.1 260 00:49 12.01.2020
712 Clear 28 1011 23 10000 4.1 260 00:22 12.01.2020
713 Clear 30 1011 21 10000 4.1 250 23:59 11.01.2020
714 Clear 30 1011 21 10000 4.1 250 23:41 11.01.2020
715 Clear 31 1011 21 10000 4.1 250 23:18 11.01.2020
716 Clear 31 1011 18 10000 3.6 210 22:56 11.01.2020
717 Clear 32 1011 18 10000 3.6 210 22:38 11.01.2020
718 Clear 31 1011 18 10000 3.6 210 22:19 11.01.2020
719 Clear 33 1011 17 10000 3.6 190 21:44 11.01.2020
720 Clear 33 1011 17 10000 3.6 190 21:19 11.01.2020
721 Clear 32 1012 18 10000 3.6 240 20:57 11.01.2020
722 Clear 32 1012 18 10000 3.6 240 20:39 11.01.2020
723 Clear 33 1012 18 10000 3.6 240 20:19 11.01.2020
724 Clear 33 1012 19 10000 3.6 240 19:57 11.01.2020
725 Clear 33 1012 19 10000 3.6 240 19:38 11.01.2020
726 Clear 33 1012 19 10000 3.6 240 19:38 11.01.2020
727 Clear 33 1012 19 10000 3.6 240 19:38 11.01.2020
728 Clear 33 1012 19 10000 3.6 240 19:20 11.01.2020
729 Clear 32 1012 19 10000 2.6 180 18:55 11.01.2020
730 Clear 31 1012 19 10000 2.6 180 18:37 11.01.2020
731 Clear 31 1012 19 10000 2.6 180 18:18 11.01.2020
732 Clear 30 1013 23 10000 2.6 270 17:57 11.01.2020
733 Clear 30 1013 23 10000 2.6 270 17:57 11.01.2020
734 Clear 30 1013 23 10000 2.6 270 17:39 11.01.2020
735 Clear 28 1013 23 10000 2.6 270 17:18 11.01.2020
736 Clear 28 1013 26 10000 1.5 180 16:43 11.01.2020
737 Clear 28 1013 26 10000 1.5 180 16:24 11.01.2020
738 Clear 26 1013 29 10000 2.1 190 15:56 11.01.2020
739 Clear 26 1013 29 10000 2.1 190 15:38 11.01.2020
740 Clear 25 1013 29 10000 2.1 190 15:19 11.01.2020
741 Clear 25 1013 31 10000 1 230 14:46 11.01.2020
742 Clear 25 1013 31 10000 1 230 14:25 11.01.2020
743 Clear 19 1013 42 10000 1.66 251 13:57 11.01.2020
744 Clear 22 1013 42 10000 1.66 251 13:37 11.01.2020
745 Clear 19 1013 42 10000 1.63 252 13:19 11.01.2020
746 Clear 19 1013 58 10000 1.63 252 12:44 11.01.2020
747 Clear 19 1013 58 10000 1.63 252 12:26 11.01.2020
748 Clear 22 1011 51 6000 1.63 252 11:56 11.01.2020
749 Clear 21 1011 51 6000 1.63 252 11:37 11.01.2020
750 Clear 15 1011 51 6000 0.37 250 11:18 11.01.2020
751 Clear 16 1011 48 8000 0.5 0 10:44 11.01.2020
752 Clear 16 1011 48 8000 0.5 0 10:24 11.01.2020
753 Clear 16 1010 48 10000 0.37 250 09:42 11.01.2020
754 Clear 16 1010 48 10000 0.37 250 09:21 11.01.2020
755 Clear 18 1011 45 10000 0.37 250 08:43 11.01.2020
756 Clear 18 1011 45 10000 0.37 250 08:23 11.01.2020
757 Clear 17 1011 48 10000 1 0 07:45 11.01.2020
758 Clear 17 1011 48 10000 1 0 07:27 11.01.2020
759 Clear 20 1012 37 10000 2.1 150 06:56 11.01.2020
760 Clear 20 1012 37 10000 2.1 150 06:37 11.01.2020
761 Clear 21 1012 35 10000 3.6 140 05:18 11.01.2020
762 Clear 22 1012 33 10000 3.6 140 04:37 11.01.2020
763 Clear 22 1012 33 10000 3.6 140 04:19 11.01.2020
764 Clear 25 1012 27 10000 7.2 190 02:45 11.01.2020
765 Clear 26 1013 26 10000 1.5 230 01:45 11.01.2020
766 Clear 26 1013 26 10000 1.5 230 01:21 11.01.2020
767 Clear 29 1012 20 10000 3.6 250 00:47 11.01.2020
768 Clear 28 1012 20 10000 3.6 250 00:20 11.01.2020
769 Clear 30 1012 18 10000 4.1 250 23:41 10.01.2020
770 Clear 30 1012 18 10000 4.1 250 23:23 10.01.2020
771 Clear 30 1012 18 10000 4.1 250 23:23 10.01.2020
772 Clear 31 1012 14 10000 4.1 210 22:59 10.01.2020
773 Clear 31 1012 14 10000 4.1 210 22:41 10.01.2020
774 Clear 31 1012 14 10000 4.1 210 22:21 10.01.2020
775 Clear 31 1012 15 10000 3.6 210 21:58 10.01.2020
776 Clear 32 1012 15 10000 3.6 210 21:39 10.01.2020
777 Clear 32 1012 15 10000 3.6 210 21:20 10.01.2020
778 Clear 32 1013 19 10000 3.1 270 20:55 10.01.2020
779 Clear 32 1013 19 10000 3.1 270 20:37 10.01.2020
780 Clear 32 1013 19 10000 3.1 270 20:19 10.01.2020
781 Clear 32 1013 22 10000 3.1 210 19:39 10.01.2020
782 Clear 32 1013 22 10000 3.1 210 19:20 10.01.2020
783 Clear 30 1014 26 10000 3.1 250 18:54 10.01.2020
784 Clear 30 1014 26 10000 3.1 250 18:36 10.01.2020
785 Clear 30 1014 26 10000 3.1 250 18:18 10.01.2020
786 Clear 29 1014 28 10000 3.1 270 17:55 10.01.2020
787 Clear 29 1014 28 10000 3.1 270 17:37 10.01.2020
788 Clear 28 1014 28 10000 3.1 270 17:18 10.01.2020
789 Clear 26 1015 33 10000 1.5 190 16:41 10.01.2020
790 Clear 26 1015 33 10000 1.5 190 16:21 10.01.2020
791 Clear 26 1015 33 10000 1.5 190 16:21 10.01.2020
792 Clear 25 1015 38 10000 2.1 250 15:56 10.01.2020
793 Clear 25 1015 38 10000 2.1 250 15:37 10.01.2020
794 Clear 24 1015 38 10000 2.1 250 15:19 10.01.2020
795 Clear 24 1015 38 10000 2.1 250 15:19 10.01.2020
796 Clear 23 1015 45 10000 3.24 260 14:57 10.01.2020
797 Clear 23 1015 45 10000 3.24 260 14:38 10.01.2020
798 Clear 21 1015 45 10000 1.52 260 14:19 10.01.2020
799 Clear 20 1015 55 10000 1.52 260 13:46 10.01.2020
800 Clear 20 1015 55 10000 1.45 265 13:28 10.01.2020
801 Clear 18 1015 63 10000 1.45 265 12:59 10.01.2020
802 Clear 18 1015 63 10000 1.45 265 12:40 10.01.2020
803 Clear 20 1015 63 10000 1.45 265 12:21 10.01.2020
804 Clear 20 1014 62 10000 1.45 265 11:58 10.01.2020
805 Clear 20 1014 62 10000 1.45 265 11:40 10.01.2020
806 Clear 14 1014 62 10000 0.74 262 11:19 10.01.2020
807 Clear 15 1014 58 10000 1.5 170 10:59 10.01.2020
808 Clear 15 1014 58 10000 1.5 170 10:38 10.01.2020
809 Clear 15 1014 58 10000 1.5 170 10:18 10.01.2020
810 Clear 16 1014 55 10000 1.5 180 09:45 10.01.2020
811 Clear 16 1014 55 10000 1.5 180 09:26 10.01.2020
812 Clear 16 1014 55 10000 1.5 180 08:57 10.01.2020
813 Clear 16 1014 55 10000 1.5 180 08:37 10.01.2020
814 Clear 16 1014 55 10000 1.5 180 08:18 10.01.2020
815 Clear 17 1014 51 10000 1.5 140 07:41 10.01.2020
816 Clear 17 1014 51 10000 1.5 140 07:21 10.01.2020
817 Clear 18 1015 48 10000 2.6 160 06:41 10.01.2020
818 Clear 18 1015 48 10000 2.6 160 06:23 10.01.2020
819 Clear 18 1015 52 10000 3.1 140 05:25 10.01.2020
820 Clouds 20 1016 45 10000 3.6 160 03:32 10.01.2020
821 Clouds 22 1015 40 10000 4.6 200 02:53 10.01.2020
822 Clouds 22 1015 40 10000 4.6 200 02:33 10.01.2020
823 Clouds 23 1016 33 10000 2.6 240 01:33 10.01.2020
824 Clouds 25 1016 29 10000 3.6 230 00:53 10.01.2020
825 Clouds 25 1016 29 10000 3.6 230 00:35 10.01.2020
826 Clouds 27 1015 26 10000 4.1 230 23:57 09.01.2020
827 Clouds 27 1015 26 10000 4.1 230 23:37 09.01.2020
828 Clouds 27 1015 26 10000 4.1 230 23:19 09.01.2020
829 Clouds 28 1015 28 10000 4.1 230 22:56 09.01.2020
830 Clouds 28 1015 28 10000 4.1 230 22:37 09.01.2020
831 Clouds 28 1015 28 10000 4.1 230 22:18 09.01.2020
832 Clouds 28 1016 25 10000 4.1 240 21:55 09.01.2020
833 Clouds 28 1016 25 10000 4.1 240 21:37 09.01.2020
834 Clouds 28 1016 25 10000 4.1 240 21:18 09.01.2020
835 Clouds 28 1016 26 10000 3.1 250 20:55 09.01.2020
836 Clouds 28 1016 26 10000 3.1 250 20:37 09.01.2020
837 Clouds 28 1016 26 10000 3.1 250 20:18 09.01.2020
838 Clouds 28 1016 26 10000 3.1 250 20:18 09.01.2020
839 Clouds 28 1016 30 10000 3.1 210 19:39 09.01.2020
840 Clouds 28 1016 30 10000 3.1 210 19:21 09.01.2020
841 Clouds 27 1017 34 10000 3.1 240 18:57 09.01.2020
842 Clouds 27 1017 34 10000 3.1 240 18:39 09.01.2020
843 Clouds 27 1017 34 10000 3.1 240 18:21 09.01.2020
844 Clouds 25 1017 38 10000 2.1 250 17:41 09.01.2020
845 Clouds 25 1017 38 10000 2.1 250 17:20 09.01.2020
846 Clouds 24 1016 46 10000 1.5 190 16:59 09.01.2020
847 Clouds 24 1016 46 10000 1.5 190 16:59 09.01.2020
848 Clouds 24 1016 46 10000 1.5 190 16:41 09.01.2020
849 Clouds 24 1016 46 10000 1.5 190 16:21 09.01.2020
850 Clouds 23 1018 49 10000 1.5 200 15:43 09.01.2020
851 Clouds 21 1018 49 10000 1.5 200 15:23 09.01.2020
852 Clouds 20 1018 55 10000 1 170 14:58 09.01.2020
853 Clouds 19 1018 55 10000 1 170 14:40 09.01.2020
854 Clear 19 1018 55 10000 1 170 14:19 09.01.2020
855 Clear 17 1018 71 10000 1.87 255 13:55 09.01.2020
856 Clear 17 1018 71 10000 1.87 255 13:37 09.01.2020
857 Clouds 17 1018 71 10000 1.65 256 13:18 09.01.2020
858 Clouds 15 1018 76 10000 1.65 256 12:55 09.01.2020
859 Clouds 15 1018 76 10000 1.65 256 12:37 09.01.2020
860 Clouds 16 1018 76 10000 1.65 256 12:18 09.01.2020
861 Clouds 19 1017 76 10000 1.65 256 11:42 09.01.2020
862 Clouds 14 1017 76 10000 1.65 256 11:24 09.01.2020
863 Clouds 14 1017 76 10000 1.65 256 11:24 09.01.2020
864 Clouds 14 1017 76 10000 1.65 256 11:24 09.01.2020
865 Clear 13 1017 76 10000 1 0 10:58 09.01.2020
866 Clear 12 1017 76 10000 1 0 10:39 09.01.2020
867 Clear 12 1017 76 10000 1 0 10:20 09.01.2020
868 Clear 14 1016 71 10000 2.1 140 09:45 09.01.2020
869 Clear 14 1016 71 10000 2.1 140 09:23 09.01.2020
870 Clear 14 1016 71 10000 2.1 140 09:23 09.01.2020
871 Clear 14 1017 71 10000 2.6 150 08:57 09.01.2020
872 Clear 14 1017 71 10000 2.6 150 08:38 09.01.2020
873 Clear 14 1017 71 10000 2.6 150 08:20 09.01.2020
874 Clear 14 1017 71 10000 3.1 160 07:46 09.01.2020
875 Clear 14 1017 71 10000 3.1 160 07:28 09.01.2020
876 Clear 15 1018 72 10000 3.6 160 06:40 09.01.2020
877 Clear 15 1018 72 10000 3.6 160 06:21 09.01.2020
878 Clear 15 1018 67 10000 2.1 160 05:51 09.01.2020
879 Clear 16 1019 67 10000 4.1 160 04:54 09.01.2020
880 Clear 16 1019 67 10000 4.1 160 04:36 09.01.2020
881 Clear 17 1018 59 10000 3.6 150 03:26 09.01.2020
882 Clear 18 1018 55 10000 4.1 170 02:46 09.01.2020
883 Clouds 19 1019 52 10000 2.6 240 01:41 09.01.2020
884 Clouds 20 1018 46 10000 3.1 240 00:56 09.01.2020
885 Clouds 21 1018 46 10000 3.1 240 00:36 09.01.2020
886 Clouds 21 1018 46 10000 3.1 240 00:18 09.01.2020
887 Clouds 22 1018 46 10000 3.6 240 23:39 08.01.2020
888 Clouds 23 1018 46 10000 3.6 240 23:20 08.01.2020
889 Clouds 24 1018 40 10000 4.1 200 22:40 08.01.2020
890 Clouds 24 1018 40 10000 4.1 200 22:21 08.01.2020
891 Clouds 24 1018 40 10000 3.6 220 21:58 08.01.2020
892 Clouds 24 1018 40 10000 3.6 220 21:40 08.01.2020
893 Clouds 24 1018 40 10000 3.6 220 21:40 08.01.2020
894 Clouds 24 1018 40 10000 3.6 220 21:20 08.01.2020
895 Clouds 25 1018 40 10000 3.1 180 20:59 08.01.2020
896 Clouds 25 1018 40 10000 3.1 180 20:40 08.01.2020
897 Clouds 25 1018 40 10000 3.1 180 20:20 08.01.2020
898 Clouds 25 1018 40 10000 3.1 180 20:20 08.01.2020
899 Clouds 25 1018 33 10000 3.1 220 19:58 08.01.2020
900 Clouds 25 1018 33 10000 3.1 220 19:38 08.01.2020
901 Clouds 24 1018 33 10000 3.1 220 19:19 08.01.2020
902 Clouds 24 1018 43 10000 4.6 240 18:57 08.01.2020
903 Clouds 24 1018 43 10000 4.6 240 18:38 08.01.2020
904 Clouds 24 1018 43 10000 4.6 240 18:18 08.01.2020
905 Clouds 25 1018 36 10000 3.1 270 17:56 08.01.2020
906 Clouds 25 1018 36 10000 3.1 270 17:56 08.01.2020
907 Clouds 25 1018 36 10000 3.1 270 17:37 08.01.2020
908 Clouds 25 1018 36 10000 3.1 270 17:18 08.01.2020
909 Clouds 24 1018 35 10000 2.6 180 16:55 08.01.2020
910 Clouds 24 1018 35 10000 2.6 180 16:37 08.01.2020
911 Clouds 23 1018 35 10000 2.6 180 16:18 08.01.2020
912 Clouds 22 1018 34 10000 1 270 15:42 08.01.2020
913 Clouds 21 1018 34 10000 1 270 15:21 08.01.2020
914 Clouds 19 1019 39 10000 1.5 240 14:57 08.01.2020
915 Clouds 19 1019 39 10000 1.5 240 14:39 08.01.2020
916 Clouds 19 1019 39 10000 1.5 240 14:20 08.01.2020
917 Clouds 17 1019 36 10000 2.6 200 13:40 08.01.2020
918 Clouds 18 1019 36 10000 2.6 200 13:19 08.01.2020
919 Clouds 16 1018 57 10000 2.4 265 12:43 08.01.2020
920 Clouds 16 1018 57 10000 2.4 265 12:20 08.01.2020
921 Clear 18 1016 66 10000 3.1 170 11:59 08.01.2020
922 Clear 18 1016 66 10000 3.1 170 11:40 08.01.2020
923 Clear 14 1016 66 10000 3.1 170 11:19 08.01.2020
924 Clear 14 1015 62 10000 4.1 160 10:56 08.01.2020
925 Clear 14 1015 62 10000 4.1 160 10:37 08.01.2020
926 Clear 14 1015 62 10000 4.1 160 10:19 08.01.2020
927 Clear 15 1015 62 10000 3.6 140 09:42 08.01.2020
928 Clear 15 1015 62 10000 3.6 140 09:20 08.01.2020
929 Clear 15 1014 67 10000 4.1 160 08:57 08.01.2020
930 Clear 15 1014 67 10000 4.1 160 08:37 08.01.2020
931 Clear 15 1014 67 10000 4.1 160 08:19 08.01.2020
932 Clear 16 1014 59 10000 4.1 160 07:49 08.01.2020
933 Clear 16 1014 59 10000 4.1 160 07:30 08.01.2020
934 Clear 16 1014 59 10000 4.1 160 07:30 08.01.2020
935 Clear 17 1014 59 10000 4.1 160 06:48 08.01.2020
936 Clear 17 1014 59 10000 4.1 160 06:24 08.01.2020
937 Clear 18 1014 55 10000 3.6 150 05:53 08.01.2020
938 Clear 18 1014 55 10000 3.6 150 05:53 08.01.2020
939 Clear 18 1014 55 10000 4.6 150 04:59 08.01.2020
940 Clear 18 1014 55 10000 4.6 150 04:26 08.01.2020
941 Clear 21 1013 46 10000 4.6 160 02:45 08.01.2020
942 Clear 21 1013 46 10000 4.6 160 02:22 08.01.2020
943 Clouds 22 1014 40 10000 2.1 240 01:50 08.01.2020
944 Clouds 22 1014 40 10000 2.1 240 01:23 08.01.2020
945 Clouds 23 1014 36 10000 3.6 250 00:40 08.01.2020
946 Clouds 23 1014 36 10000 3.6 250 00:20 08.01.2020
947 Clouds 25 1013 33 10000 3.6 240 23:44 07.01.2020
948 Clouds 26 1013 33 10000 3.6 240 23:20 07.01.2020
949 Clouds 27 1013 30 10000 6.2 210 22:40 07.01.2020
950 Clouds 27 1013 30 10000 6.2 210 22:20 07.01.2020
951 Clouds 27 1013 28 10000 5.7 250 21:57 07.01.2020
952 Clouds 27 1013 28 10000 5.7 250 21:38 07.01.2020
953 Clouds 27 1013 28 10000 5.7 250 21:38 07.01.2020
954 Clouds 28 1013 28 10000 5.7 250 21:20 07.01.2020
955 Clouds 28 1014 26 10000 4.1 240 20:56 07.01.2020
956 Clouds 28 1014 26 10000 4.1 240 20:38 07.01.2020
957 Clouds 29 1014 26 10000 4.1 240 20:19 07.01.2020
958 Clouds 28 1014 28 10000 5.1 220 19:38 07.01.2020
959 Clouds 29 1014 28 10000 5.1 220 19:20 07.01.2020
960 Clouds 28 1015 30 10000 4.6 210 18:58 07.01.2020
961 Clouds 28 1015 30 10000 4.6 210 18:40 07.01.2020
962 Clouds 28 1015 30 10000 4.6 210 18:19 07.01.2020
963 Clouds 27 1015 34 10000 3.6 240 18:00 07.01.2020
964 Clouds 27 1015 34 10000 3.6 240 17:39 07.01.2020
965 Clouds 26 1015 34 10000 3.6 240 17:21 07.01.2020
966 Clear 25 1015 36 10000 3.1 250 16:57 07.01.2020
967 Clear 26 1015 36 10000 3.1 250 16:38 07.01.2020
968 Clear 25 1015 36 10000 3.1 250 16:19 07.01.2020
969 Clear 25 1015 40 10000 2.1 260 15:58 07.01.2020
970 Clear 25 1015 40 10000 2.1 260 15:39 07.01.2020
971 Clear 24 1015 40 10000 2.1 260 15:21 07.01.2020
972 Clear 22 1016 49 10000 1 210 14:55 07.01.2020
973 Clear 22 1016 49 10000 1 210 14:36 07.01.2020
974 Clear 21 1016 49 10000 1 210 14:18 07.01.2020
975 Clear 20 1016 55 10000 1.5 210 13:39 07.01.2020
976 Clear 18 1016 55 10000 1.5 210 13:19 07.01.2020
977 Clear 17 1016 67 10000 2.04 265 12:41 07.01.2020
978 Clear 17 1016 67 10000 2.04 265 12:20 07.01.2020
979 Clear 20 1014 67 10000 2.04 265 11:55 07.01.2020
980 Clear 20 1014 67 10000 2.04 265 11:36 07.01.2020
981 Clear 15 1014 67 10000 0.87 304 11:18 07.01.2020
982 Clear 15 1014 62 10000 2.1 150 10:41 07.01.2020
983 Clear 15 1014 62 10000 2.1 150 10:23 07.01.2020
984 Clear 15 1014 62 10000 0.87 304 09:57 07.01.2020
985 Clear 15 1014 62 10000 0.87 304 09:38 07.01.2020
986 Clear 16 1014 62 10000 0.87 304 09:20 07.01.2020
987 Clear 16 929 99 0 0.87 304 08:42 07.01.2020
988 Clear 17 1015 55 10000 2.1 180 08:23 07.01.2020
989 Clear 17 1015 55 10000 2.1 180 07:54 07.01.2020
990 Clear 17 1015 55 10000 2.1 180 07:28 07.01.2020
991 Clear 17 1015 55 10000 3.1 130 06:53 07.01.2020
992 Clear 17 1015 55 10000 3.1 130 06:34 07.01.2020
993 Clear 18 1015 55 10000 3.6 130 05:54 07.01.2020
994 Clear 19 1015 52 10000 3.1 150 04:33 07.01.2020
995 Clear 19 1015 52 10000 4.1 150 03:26 07.01.2020
996 Clear 21 1015 46 10000 4.6 200 02:22 07.01.2020
997 Clear 22 1016 37 10000 2.6 240 01:51 07.01.2020
998 Clouds 22 1016 37 10000 2.6 240 01:28 07.01.2020
999 Clouds 23 1015 38 10000 3.6 240 00:37 07.01.2020
1000 Clouds 23 1015 38 10000 3.6 240 00:18 07.01.2020
1001 Clouds 25 1015 34 10000 3.6 240 23:39 06.01.2020
1002 Clouds 25 1015 34 10000 3.6 240 23:39 06.01.2020
1003 Clouds 26 1015 34 10000 3.6 240 23:21 06.01.2020
1004 Clouds 26 1015 34 10000 4.1 240 22:58 06.01.2020
1005 Clouds 27 1015 34 10000 4.1 240 22:38 06.01.2020
1006 Clouds 26 1015 34 10000 4.1 240 22:20 06.01.2020
1007 Clouds 27 1016 32 10000 2.6 230 21:56 06.01.2020
1008 Clouds 27 1016 32 10000 2.6 230 21:56 06.01.2020
1009 Clouds 27 1016 32 10000 2.6 230 21:37 06.01.2020
1010 Clouds 27 1016 32 10000 2.6 230 21:19 06.01.2020
1011 Clouds 27 1016 31 10000 3.6 240 20:56 06.01.2020
1012 Clouds 27 1016 31 10000 3.6 240 20:37 06.01.2020
1013 Clouds 27 1016 31 10000 3.6 240 20:19 06.01.2020
1014 Clouds 27 1016 34 10000 3.1 230 19:55 06.01.2020
1015 Clouds 27 1016 34 10000 3.1 230 19:37 06.01.2020
1016 Clouds 27 1016 34 10000 3.1 230 19:18 06.01.2020
1017 Clouds 26 1017 36 10000 3.6 280 18:44 06.01.2020
1018 Clouds 26 1017 36 10000 3.6 280 18:21 06.01.2020
1019 Clouds 25 1017 40 10000 2.6 210 17:40 06.01.2020
1020 Clouds 25 1017 40 10000 2.6 210 17:40 06.01.2020
1021 Clouds 25 1017 40 10000 2.6 210 17:20 06.01.2020
1022 Clouds 23 1018 49 8000 1 180 16:59 06.01.2020
1023 Clouds 23 1018 49 8000 1 180 16:41 06.01.2020
1024 Clouds 22 1018 49 8000 1 180 16:23 06.01.2020
1025 Clouds 19 1018 62 8000 1.5 270 15:59 06.01.2020
1026 Clouds 19 1018 62 8000 1.5 270 15:37 06.01.2020
1027 Clouds 18 1018 62 8000 1.5 270 15:18 06.01.2020
1028 Clouds 18 1018 63 8000 1 0 14:42 06.01.2020
1029 Clouds 18 1018 63 8000 1 0 14:22 06.01.2020
1030 Clouds 18 1018 63 8000 1 0 14:22 06.01.2020
1031 Clouds 17 1017 62 10000 1.5 330 13:59 06.01.2020
1032 Clouds 16 1017 62 10000 1.5 330 13:39 06.01.2020
1033 Clouds 15 1017 62 10000 1.5 330 13:21 06.01.2020
1034 Clouds 15 1018 76 8000 1.65 262 12:56 06.01.2020
1035 Clouds 14 1018 76 8000 1.65 262 12:37 06.01.2020
1036 Clouds 14 1018 76 8000 1.65 262 12:19 06.01.2020
1037 Clouds 14 1018 76 8000 1.65 262 12:19 06.01.2020
1038 Clouds 16 1017 71 10000 1.65 262 11:43 06.01.2020
1039 Clouds 16 1017 71 10000 1.65 262 11:43 06.01.2020
1040 Clouds 13 1017 71 10000 1.65 262 11:24 06.01.2020
1041 Clouds 13 1016 67 10000 1.5 110 10:59 06.01.2020
1042 Clouds 13 1016 67 10000 1.5 110 10:41 06.01.2020
1043 Clouds 14 1016 67 10000 1.5 110 10:21 06.01.2020
1044 Clouds 13 1017 71 10000 2.6 150 09:42 06.01.2020
1045 Clouds 13 1017 71 10000 2.6 150 09:23 06.01.2020
1046 Clouds 13 1017 71 10000 2.1 150 08:55 06.01.2020
1047 Clouds 13 1017 71 10000 2.1 150 08:37 06.01.2020
1048 Clouds 14 1017 67 10000 3.6 150 07:57 06.01.2020
1049 Clouds 14 1017 67 10000 3.6 150 07:38 06.01.2020
1050 Clouds 14 1017 67 10000 3.6 140 06:51 06.01.2020
1051 Clouds 14 1017 67 10000 3.6 140 06:32 06.01.2020
1052 Clouds 14 1018 71 10000 3.6 160 05:48 06.01.2020
1053 Clouds 15 1018 67 10000 3.6 180 04:58 06.01.2020
1054 Clouds 15 1018 67 10000 3.6 180 04:22 06.01.2020
1055 Clouds 15 1018 72 10000 6.2 170 03:26 06.01.2020
1056 Clouds 17 1018 67 10000 5.1 160 02:26 06.01.2020
1057 Clouds 18 1019 63 10000 2.6 230 01:49 06.01.2020
1058 Clouds 18 1019 63 10000 2.6 230 01:29 06.01.2020
1059 Clouds 19 1019 55 10000 4.1 230 00:45 06.01.2020
1060 Clouds 19 1019 55 10000 4.1 230 00:26 06.01.2020
1061 Clouds 21 1018 46 7000 3.6 0 23:57 05.01.2020
1062 Clouds 21 1018 46 7000 3.6 0 23:37 05.01.2020
1063 Clouds 22 1018 46 7000 3.6 0 23:19 05.01.2020
1064 Clouds 23 1017 43 7000 3.1 0 22:40 05.01.2020
1065 Clouds 23 1017 43 7000 3.1 0 22:40 05.01.2020
1066 Clouds 24 1017 43 7000 3.1 0 22:20 05.01.2020
1067 Clouds 24 1017 43 7000 3.6 210 21:57 05.01.2020
1068 Clouds 24 1017 43 7000 3.6 210 21:38 05.01.2020
1069 Clouds 25 1017 43 7000 3.6 210 21:20 05.01.2020
1070 Clouds 25 1017 43 7000 3.6 210 21:20 05.01.2020
1071 Clouds 24 1017 46 7000 2.6 0 20:56 05.01.2020
1072 Clouds 24 1017 46 7000 2.6 0 20:38 05.01.2020
1073 Clouds 24 1017 46 7000 2.6 0 20:19 05.01.2020
1074 Clouds 23 1018 52 7000 4.1 210 19:58 05.01.2020
1075 Clouds 23 1018 52 7000 4.1 210 19:38 05.01.2020
1076 Clouds 23 1018 52 7000 4.1 210 19:19 05.01.2020
1077 Clouds 22 1018 55 7000 5.1 240 18:55 05.01.2020
1078 Clouds 22 1018 55 7000 5.1 240 18:37 05.01.2020
1079 Clouds 22 1018 55 7000 5.1 240 18:19 05.01.2020
1080 Clouds 20 1017 52 8000 3.1 210 17:57 05.01.2020
1081 Clouds 23 1017 52 8000 3.1 210 17:38 05.01.2020
1082 Clouds 22 1017 52 8000 3.1 210 17:19 05.01.2020
1083 Clouds 21 1017 52 9000 3.1 230 16:55 05.01.2020
1084 Clouds 21 1017 52 9000 3.1 230 16:37 05.01.2020
1085 Clouds 21 1017 52 9000 3.1 230 16:19 05.01.2020
1086 Clouds 20 1017 56 9000 2.1 250 15:37 05.01.2020
1087 Clouds 20 1017 56 9000 2.1 250 15:18 05.01.2020
1088 Clouds 19 1017 56 8000 1.5 220 14:55 05.01.2020
1089 Clouds 19 1017 56 8000 1.5 220 14:55 05.01.2020
1090 Clouds 19 1017 56 8000 1.5 220 14:37 05.01.2020
1091 Clouds 19 1017 56 8000 1.5 220 14:18 05.01.2020
1092 Clouds 19 1016 63 10000 2.1 230 13:40 05.01.2020
1093 Clouds 16 1016 63 10000 2.1 230 13:21 05.01.2020
1094 Clear 15 1016 76 10000 2.35 269 12:58 05.01.2020
1095 Clear 17 1016 76 10000 2.35 269 12:39 05.01.2020
1096 Clear 17 1016 76 10000 2.35 269 12:39 05.01.2020
1097 Clear 15 1016 76 10000 2.35 269 12:21 05.01.2020
1098 Clear 14 1014 76 10000 3.1 150 11:59 05.01.2020
1099 Clear 17 1014 76 10000 3.1 150 11:39 05.01.2020
1100 Clear 14 1014 76 10000 3.1 150 11:19 05.01.2020
1101 Clear 14 1014 76 10000 3.1 150 11:19 05.01.2020
1102 Clear 15 1014 72 10000 3.1 150 10:56 05.01.2020
1103 Clear 15 1014 72 10000 3.1 150 10:36 05.01.2020
1104 Clear 15 1014 72 10000 3.1 150 10:18 05.01.2020
1105 Clear 15 1013 72 10000 4.1 180 09:41 05.01.2020
1106 Clear 15 1013 72 10000 4.1 180 09:21 05.01.2020
1107 Clear 15 1013 72 10000 4.1 180 09:21 05.01.2020
1108 Clear 16 1013 67 10000 4.1 160 08:48 05.01.2020
1109 Clear 16 1013 67 10000 4.1 160 08:29 05.01.2020
1110 Clear 16 1013 72 10000 3.6 160 07:55 05.01.2020
1111 Clear 16 1013 72 10000 3.6 160 07:36 05.01.2020
1112 Clear 17 1013 67 10000 4.6 170 06:59 05.01.2020
1113 Clear 18 1014 63 10000 4.1 160 05:59 05.01.2020
1114 Clear 18 1014 63 10000 4.1 160 05:30 05.01.2020
1115 Clear 20 1013 56 10000 4.1 160 04:43 05.01.2020
1116 Clear 20 1013 60 10000 5.1 160 03:52 05.01.2020
1117 Clear 21 1013 52 10000 7.2 150 02:46 05.01.2020
1118 Clear 23 1013 52 10000 7.2 150 02:22 05.01.2020
1119 Clear 24 1015 43 10000 2.6 250 01:46 05.01.2020
1120 Clear 24 1015 43 10000 2.6 250 01:18 05.01.2020
1121 Clear 25 1014 39 10000 3.6 230 00:41 05.01.2020
1122 Clear 25 1014 39 10000 3.6 230 00:41 05.01.2020
1123 Clear 26 1014 39 10000 3.6 230 00:22 05.01.2020
1124 Clear 28 1013 34 10000 3.6 260 23:59 04.01.2020
1125 Clear 28 1013 34 10000 3.6 260 23:39 04.01.2020
1126 Clear 28 1013 34 10000 3.6 260 23:19 04.01.2020
1127 Clear 29 1013 30 10000 4.1 250 22:39 04.01.2020
1128 Clear 29 1013 30 10000 4.1 250 22:21 04.01.2020
1129 Clear 30 1014 27 10000 3.6 240 21:57 04.01.2020
1130 Clear 30 1014 27 10000 3.6 240 21:38 04.01.2020
1131 Clear 30 1014 27 10000 3.6 240 21:20 04.01.2020
1132 Clear 30 1014 27 10000 3.6 230 20:58 04.01.2020
1133 Clear 30 1014 27 10000 3.6 230 20:39 04.01.2020
1134 Clear 30 1014 27 10000 3.6 230 20:39 04.01.2020
1135 Clear 31 1014 27 10000 3.6 230 20:21 04.01.2020
1136 Clear 31 1015 30 10000 3.6 210 19:56 04.01.2020
1137 Clear 31 1015 30 10000 3.6 210 19:37 04.01.2020
1138 Clear 31 1015 30 10000 3.6 210 19:18 04.01.2020
1139 Clear 30 1015 32 10000 2.6 230 18:54 04.01.2020
1140 Clear 30 1015 32 10000 2.6 230 18:36 04.01.2020
1141 Clear 30 1015 32 10000 2.6 230 18:18 04.01.2020
1142 Clear 30 1016 34 10000 2.1 290 17:40 04.01.2020
1143 Clear 29 1016 34 10000 2.1 290 17:22 04.01.2020
1144 Clear 28 1016 36 10000 2.6 210 16:55 04.01.2020
1145 Clear 28 1016 36 10000 2.6 210 16:36 04.01.2020
1146 Clear 28 1016 36 10000 2.6 210 16:18 04.01.2020
1147 Clear 26 1016 41 10000 2.1 240 15:42 04.01.2020
1148 Clear 26 1016 41 10000 2.1 240 15:20 04.01.2020
1149 Clear 23 1016 49 10000 1.5 270 14:59 04.01.2020
1150 Clear 23 1016 49 10000 1.5 270 14:59 04.01.2020
1151 Clear 23 1016 49 10000 1.5 270 14:59 04.01.2020
1152 Clear 25 1016 49 10000 1.5 270 14:40 04.01.2020
1153 Clear 25 1016 49 10000 1.5 270 14:20 04.01.2020
1154 Clear 24 1016 52 10000 1 190 13:58 04.01.2020
1155 Clear 24 1016 52 10000 1 190 13:37 04.01.2020
1156 Clear 24 1016 52 10000 1 190 13:37 04.01.2020
1157 Clear 21 1016 52 10000 1 190 13:19 04.01.2020
1158 Clear 17 1016 72 10000 1.74 271 12:56 04.01.2020
1159 Clear 21 1016 72 10000 1.74 271 12:38 04.01.2020
1160 Clear 20 1016 72 10000 1.74 271 12:18 04.01.2020
1161 Clear 23 1015 72 10000 1.74 271 11:55 04.01.2020
1162 Clear 22 1015 72 10000 1.74 271 11:36 04.01.2020
1163 Clear 16 1015 72 10000 0.66 354 11:18 04.01.2020
1164 Clear 16 1014 72 10000 1 0 10:40 04.01.2020
1165 Clear 16 1014 72 10000 1 0 10:21 04.01.2020
1166 Clear 17 1014 67 10000 1 0 09:44 04.01.2020
1167 Clear 17 1014 67 10000 1 0 09:25 04.01.2020
1168 Clear 17 1014 72 10000 1.5 300 08:49 04.01.2020
1169 Clear 17 1014 72 10000 1.5 300 08:29 04.01.2020
1170 Clear 18 1014 68 10000 1.5 220 07:55 04.01.2020
1171 Clear 18 1014 68 10000 1.5 220 07:37 04.01.2020
1172 Clear 19 1015 63 10000 2.6 160 06:43 04.01.2020
1173 Clear 19 1015 63 10000 4.1 150 05:57 04.01.2020
1174 Clear 20 1015 60 10000 4.6 160 04:50 04.01.2020
1175 Clear 20 1015 60 10000 4.6 160 04:29 04.01.2020
1176 Clear 21 1015 56 10000 5.7 150 03:28 04.01.2020
1177 Clear 22 1015 53 10000 5.7 150 02:46 04.01.2020
1178 Clear 23 1015 53 10000 5.7 150 02:18 04.01.2020
1179 Clear 24 1017 44 10000 1.5 240 01:37 04.01.2020
1180 Clear 24 1017 44 10000 1.5 240 01:19 04.01.2020
1181 Clear 26 1017 41 10000 3.1 240 00:29 04.01.2020
1182 Clear 27 1016 37 10000 4.1 240 23:57 03.01.2020
1183 Clear 27 1016 37 10000 4.1 240 23:29 03.01.2020
1184 Clear 28 1016 35 10000 4.1 240 22:57 03.01.2020
1185 Clear 28 1016 35 10000 4.1 240 22:57 03.01.2020
1186 Clear 28 1016 35 10000 4.1 240 22:39 03.01.2020
1187 Clear 29 1016 35 10000 4.1 240 22:19 03.01.2020
1188 Clear 30 1016 33 10000 4.1 250 21:57 03.01.2020
1189 Clear 30 1016 33 10000 4.1 250 21:37 03.01.2020
1190 Clear 30 1016 33 10000 4.1 250 21:18 03.01.2020
1191 Clear 30 1017 29 10000 3.6 190 20:55 03.01.2020
1192 Clear 30 1017 29 10000 3.6 190 20:36 03.01.2020
1193 Clear 30 1017 29 10000 3.6 190 20:18 03.01.2020
1194 Clear 30 1018 30 10000 4.1 240 19:44 03.01.2020
1195 Clear 30 1018 30 10000 4.1 240 19:23 03.01.2020
1196 Clear 30 1018 32 10000 3.1 240 18:57 03.01.2020
1197 Clear 30 1018 32 10000 3.1 240 18:38 03.01.2020
1198 Clear 30 1018 32 10000 3.1 240 18:20 03.01.2020
1199 Clear 29 1019 32 10000 3.1 270 17:42 03.01.2020
1200 Clear 28 1019 32 10000 3.1 270 17:21 03.01.2020
1201 Clear 27 1019 39 10000 2.1 240 16:58 03.01.2020
1202 Clear 27 1019 39 10000 2.1 240 16:39 03.01.2020
1203 Clear 27 1019 39 10000 2.1 240 16:20 03.01.2020
1204 Clear 25 1019 43 10000 1.5 210 15:41 03.01.2020
1205 Clear 25 1019 43 10000 1.5 210 15:19 03.01.2020
1206 Clear 23 1018 49 10000 1.5 240 14:40 03.01.2020
1207 Clear 23 1018 49 10000 1.5 240 14:40 03.01.2020
1208 Clear 22 1018 49 10000 1.5 240 14:20 03.01.2020
1209 Clear 20 1018 59 10000 2.13 269 13:59 03.01.2020
1210 Clear 20 1018 59 10000 2.13 269 13:40 03.01.2020
1211 Clear 17 1018 59 10000 1.95 270 13:21 03.01.2020
1212 Clear 18 1017 67 10000 1.95 270 12:41 03.01.2020
1213 Clear 17 1017 67 10000 1.95 270 12:22 03.01.2020
1214 Clear 21 1016 82 10000 2.1 180 11:54 03.01.2020
1215 Clear 20 1016 82 10000 2.1 180 11:35 03.01.2020
1216 Clear 15 1016 82 10000 2.6 170 10:58 03.01.2020
1217 Clear 14 1016 82 10000 2.6 170 10:39 03.01.2020
1218 Clear 13 1016 82 10000 2.6 170 10:21 03.01.2020
1219 Clear 14 1016 76 10000 3.1 150 09:55 03.01.2020
1220 Clear 14 1016 76 10000 3.1 150 09:37 03.01.2020
1221 Clear 14 1016 76 10000 3.1 150 09:19 03.01.2020
1222 Clear 14 1016 76 10000 2.6 170 08:45 03.01.2020
1223 Clear 14 1016 76 10000 2.6 170 08:23 03.01.2020
1224 Clear 14 1016 76 10000 3.1 160 07:56 03.01.2020
1225 Clear 14 1016 76 10000 3.1 160 07:37 03.01.2020
1226 Clear 14 1016 76 10000 3.1 160 07:18 03.01.2020
1227 Clear 15 1016 72 10000 4.6 170 06:42 03.01.2020
1228 Clear 15 1016 72 10000 4.6 170 06:22 03.01.2020
1229 Clear 16 1016 72 10000 5.1 150 04:59 03.01.2020
1230 Clear 18 1015 63 10000 6.2 160 03:38 03.01.2020
1231 Clear 20 1015 56 10000 7.2 160 02:53 03.01.2020
1232 Clear 20 1015 56 10000 7.2 160 02:53 03.01.2020
1233 Clear 22 1016 46 10000 2.1 250 01:51 03.01.2020
1234 Clear 23 1016 46 10000 2.1 250 01:31 03.01.2020
1235 Clear 25 1016 39 10000 2.6 250 00:40 03.01.2020
1236 Clear 26 1016 39 10000 2.6 250 00:20 03.01.2020
1237 Clear 26 1015 34 10000 4.1 260 23:39 02.01.2020
1238 Clear 27 1015 34 10000 4.1 260 23:20 02.01.2020
1239 Clear 29 1015 30 10000 4.1 250 22:59 02.01.2020
1240 Clear 29 1015 30 10000 4.1 250 22:41 02.01.2020
1241 Clear 29 1015 30 10000 4.1 250 22:20 02.01.2020
1242 Clear 30 1015 28 10000 4.6 240 21:56 02.01.2020
1243 Clear 30 1015 28 10000 4.6 240 21:38 02.01.2020
1244 Clear 30 1015 28 10000 4.6 240 21:19 02.01.2020
1245 Clear 30 1015 27 10000 3.6 210 20:56 02.01.2020
1246 Clear 30 1015 27 10000 3.6 210 20:37 02.01.2020
1247 Clear 30 1015 27 10000 3.6 210 20:18 02.01.2020
1248 Clear 31 1015 30 10000 4.1 250 19:54 02.01.2020
1249 Clear 31 1015 30 10000 4.1 250 19:36 02.01.2020
1250 Clear 31 1015 30 10000 4.1 250 19:18 02.01.2020
1251 Clear 30 1016 28 10000 3.1 0 18:43 02.01.2020
1252 Clear 30 1016 28 10000 3.1 0 18:24 02.01.2020
1253 Clear 29 1016 30 10000 2.1 0 17:58 02.01.2020
1254 Clear 29 1016 30 10000 2.1 0 17:58 02.01.2020
1255 Clear 29 1016 30 10000 2.1 0 17:39 02.01.2020
1256 Clear 29 1016 30 10000 2.1 0 17:20 02.01.2020
1257 Clear 27 1016 31 10000 1.5 220 16:58 02.01.2020
1258 Clear 27 1016 31 10000 1.5 220 16:40 02.01.2020
1259 Clear 27 1016 31 10000 1.5 220 16:20 02.01.2020
1260 Clear 25 1016 40 10000 1 260 15:57 02.01.2020
1261 Clear 25 1016 40 10000 1 260 15:39 02.01.2020
1262 Clear 25 1016 40 10000 1 260 15:20 02.01.2020
1263 Clear 24 1016 49 10000 3.36 264 14:57 02.01.2020
1264 Clear 23 1016 49 10000 3.36 264 14:36 02.01.2020
1265 Clear 22 1016 49 10000 1.97 268 14:18 02.01.2020
1266 Clear 21 1016 52 10000 1.97 268 13:48 02.01.2020
1267 Clear 21 1016 52 10000 1.97 268 13:48 02.01.2020
1268 Clear 20 1016 52 10000 1.82 268 13:30 02.01.2020
1269 Clear 18 1015 67 10000 1.82 268 12:46 02.01.2020
1270 Clear 22 1014 82 10000 3.1 160 12:26 02.01.2020
1271 Clear 21 1014 82 10000 3.1 160 11:58 02.01.2020
1272 Clear 21 1014 82 10000 3.1 160 11:40 02.01.2020
1273 Clear 13 1014 82 10000 3.1 160 11:19 02.01.2020
1274 Clear 15 1014 82 10000 3.6 170 10:44 02.01.2020
1275 Clear 13 1014 82 10000 3.6 170 10:25 02.01.2020
1276 Clear 14 1013 76 10000 3.1 170 09:48 02.01.2020
1277 Clear 14 1013 76 10000 3.1 170 09:29 02.01.2020
1278 Clear 14 1013 76 10000 4.1 170 08:47 02.01.2020
1279 Clear 14 1013 76 10000 4.1 170 08:27 02.01.2020
1280 Clear 16 1014 72 10000 2.6 170 07:53 02.01.2020
1281 Clear 15 1014 72 10000 2.6 170 07:30 02.01.2020
1282 Clear 16 1014 67 10000 3.6 160 06:46 02.01.2020
1283 Clear 16 1014 67 10000 3.6 160 06:27 02.01.2020
1284 Clear 17 1014 63 10000 4.6 160 05:29 02.01.2020
1285 Clear 19 1015 55 10000 5.1 150 04:32 02.01.2020
1286 Clear 20 1014 49 10000 7.7 150 02:48 02.01.2020
1287 Clear 24 1015 20 10000 2.1 230 01:59 02.01.2020
1288 Clear 24 1015 20 10000 2.1 230 01:38 02.01.2020
1289 Clear 25 1015 25 10000 3.1 230 00:58 02.01.2020
1290 Clear 25 1015 25 10000 3.1 230 00:33 02.01.2020
1291 Clear 27 1014 25 10000 3.6 220 23:53 01.01.2020
1292 Clear 28 1014 25 10000 3.6 220 23:28 01.01.2020
1293 Clear 29 1014 18 10000 4.1 230 22:59 01.01.2020
1294 Clear 29 1014 18 10000 4.1 230 22:38 01.01.2020
1295 Clear 29 1014 18 10000 4.1 230 22:19 01.01.2020
1296 Clear 30 1014 18 10000 4.1 200 21:56 01.01.2020
1297 Clear 30 1014 18 10000 4.1 200 21:37 01.01.2020
1298 Clear 30 1014 18 10000 4.1 200 21:19 01.01.2020
1299 Clear 30 1014 20 10000 4.1 230 20:55 01.01.2020
1300 Clear 30 1014 20 10000 4.1 230 20:37 01.01.2020
1301 Clear 30 1014 20 10000 4.1 230 20:18 01.01.2020
1302 Clear 30 1014 19 10000 5.1 230 19:54 01.01.2020
1303 Clear 30 1014 19 10000 5.1 230 19:36 01.01.2020
1304 Clear 30 1014 19 10000 5.1 230 19:18 01.01.2020
1305 Clear 30 1015 25 10000 4.1 240 18:55 01.01.2020
1306 Clear 30 1015 25 10000 4.1 240 18:36 01.01.2020
1307 Clear 30 1015 25 10000 4.1 240 18:18 01.01.2020
1308 Clear 30 1015 26 10000 3.6 210 17:55 01.01.2020
1309 Clear 30 1015 26 10000 3.6 210 17:36 01.01.2020
1310 Clear 29 1015 26 10000 3.6 210 17:18 01.01.2020
1311 Clear 28 1015 24 10000 2.1 210 16:39 01.01.2020
1312 Clear 28 1015 24 10000 2.1 210 16:39 01.01.2020
1313 Clear 28 1015 24 10000 2.1 210 16:20 01.01.2020
1314 Clear 27 1015 25 10000 2.1 240 15:57 01.01.2020
1315 Clear 27 1015 25 10000 2.1 240 15:57 01.01.2020
1316 Clear 27 1015 25 10000 2.1 240 15:39 01.01.2020
1317 Clear 27 1015 25 10000 2.1 240 15:20 01.01.2020
1318 Clear 25 1015 33 10000 3.53 260 14:57 01.01.2020
1319 Clear 25 1015 33 10000 3.53 260 14:39 01.01.2020
1320 Clear 22 1015 33 10000 1.98 273 14:21 01.01.2020
1321 Clear 22 1015 42 10000 1.98 273 13:56 01.01.2020
1322 Clear 22 1015 42 10000 1.98 273 13:37 01.01.2020
1323 Clear 22 1015 42 10000 1.98 273 13:37 01.01.2020
1324 Clear 21 1015 42 10000 1.87 276 13:18 01.01.2020
1325 Clear 19 1014 51 10000 1.87 276 12:55 01.01.2020
1326 Clear 21 1014 51 10000 1.87 276 12:37 01.01.2020
1327 Clear 21 1014 51 10000 1.87 276 12:18 01.01.2020
1328 Clear 21 1013 58 10000 0.5 120 11:43 01.01.2020
1329 Clear 15 1013 58 10000 0.5 120 11:22 01.01.2020
1330 Clear 17 1012 59 10000 1.5 0 10:58 01.01.2020
1331 Clear 17 1012 59 10000 1.5 0 10:39 01.01.2020
1332 Clear 16 1012 59 10000 1.5 0 10:20 01.01.2020
1333 Clear 17 1012 48 10000 2.6 150 09:55 01.01.2020
1334 Clear 17 1012 48 10000 2.6 150 09:36 01.01.2020
1335 Clear 17 1012 48 10000 2.6 150 09:36 01.01.2020
1336 Clear 17 1012 48 10000 2.6 150 09:18 01.01.2020
1337 Clear 17 1012 51 10000 2.1 150 08:54 01.01.2020
1338 Clear 17 1012 51 10000 2.1 150 08:36 01.01.2020
1339 Clear 17 1012 51 10000 2.1 150 08:18 01.01.2020
1340 Clear 18 1012 48 10000 2.1 150 07:42 01.01.2020
1341 Clear 18 1012 48 10000 2.1 150 07:24 01.01.2020
1342 Clear 19 1012 45 10000 3.1 150 06:44 01.01.2020
1343 Clear 19 1012 45 10000 3.1 150 06:19 01.01.2020
1344 Clear 20 1013 42 10000 5.1 150 04:36 01.01.2020
1345 Clear 22 1012 37 10000 5.7 160 03:41 01.01.2020
1346 Clear 22 1012 37 10000 5.7 160 03:22 01.01.2020
1347 Clear 24 1012 31 10000 6.2 150 02:54 01.01.2020
1348 Clear 25 1012 31 10000 6.2 150 02:30 01.01.2020
1349 Clear 26 1013 21 10000 1.5 230 01:45 01.01.2020
1350 Clear 26 1013 21 10000 1.5 230 01:23 01.01.2020
1351 Clear 28 1013 17 10000 3.6 240 00:54 01.01.2020
1352 Clear 28 1013 17 10000 3.6 240 00:36 01.01.2020
1353 Clear 28 1013 17 10000 3.6 240 00:18 01.01.2020
1354 Clear 30 1012 17 10000 4.1 240 23:38 31.12.2019
1355 Clear 30 1012 17 10000 4.1 240 23:19 31.12.2019
1356 Clear 31 1012 14 10000 4.1 230 22:56 31.12.2019
1357 Clear 31 1012 14 10000 4.1 230 22:37 31.12.2019
1358 Clear 32 1012 14 10000 4.1 230 22:18 31.12.2019
1359 Clear 32 1013 15 10000 4.6 250 21:54 31.12.2019
1360 Clear 32 1013 15 10000 4.6 250 21:36 31.12.2019
1361 Clear 32 1013 15 10000 4.6 250 21:18 31.12.2019
1362 Clear 32 1013 15 10000 4.6 250 21:18 31.12.2019
1363 Clear 32 1013 16 10000 4.6 240 20:40 31.12.2019
1364 Clear 32 1013 16 10000 4.6 240 20:21 31.12.2019
1365 Clear 33 1013 21 10000 3.6 0 19:58 31.12.2019
1366 Clear 34 1013 21 10000 3.6 0 19:40 31.12.2019
1367 Clear 33 1013 21 10000 3.6 0 19:22 31.12.2019
1368 Clear 33 1013 19 10000 3.6 250 18:57 31.12.2019
1369 Clear 33 1013 19 10000 3.6 250 18:57 31.12.2019
1370 Clear 33 1013 19 10000 3.6 250 18:39 31.12.2019
1371 Clear 33 1013 19 10000 3.6 250 18:19 31.12.2019
1372 Clear 32 1013 20 10000 1.5 250 17:56 31.12.2019
1373 Clear 32 1013 20 10000 1.5 250 17:37 31.12.2019
1374 Clear 31 1013 20 10000 1.5 250 17:18 31.12.2019
1375 Clear 30 1014 24 10000 1 240 16:56 31.12.2019
1376 Clear 30 1014 24 10000 1 240 16:37 31.12.2019
1377 Clear 30 1014 24 10000 1 240 16:19 31.12.2019
1378 Clear 28 1013 24 10000 1.5 260 15:56 31.12.2019
1379 Clear 28 1013 24 10000 1.5 260 15:38 31.12.2019
1380 Clear 28 1013 24 10000 1.5 260 15:19 31.12.2019
1381 Clear 27 1014 25 10000 1 240 14:55 31.12.2019
1382 Clear 27 1014 25 10000 1 240 14:37 31.12.2019
1383 Clear 26 1014 25 10000 1 240 14:19 31.12.2019
1384 Clear 24 1014 35 10000 1.77 264 13:56 31.12.2019
1385 Clear 24 1014 35 10000 1.77 264 13:38 31.12.2019
1386 Clear 24 1014 35 10000 1.77 264 13:38 31.12.2019
1387 Clear 21 1014 35 10000 1.69 263 13:20 31.12.2019
1388 Clear 17 1014 51 10000 1.69 263 12:56 31.12.2019
1389 Clear 17 1014 51 10000 1.69 263 12:37 31.12.2019
1390 Clear 17 1014 51 10000 1.69 263 12:19 31.12.2019
1391 Clear 22 1013 51 10000 1.69 263 11:55 31.12.2019
1392 Clear 22 1013 51 10000 1.69 263 11:37 31.12.2019
1393 Clear 15 1013 51 10000 0.27 356 11:19 31.12.2019
1394 Clear 16 1012 48 10000 1 280 10:56 31.12.2019
1395 Clear 16 1012 48 10000 1 280 10:37 31.12.2019
1396 Clear 16 1012 48 10000 1 280 10:19 31.12.2019
1397 Clear 17 1012 45 10000 1 0 09:57 31.12.2019
1398 Clear 17 1012 45 10000 1 0 09:57 31.12.2019
1399 Clear 17 1012 45 10000 1 0 09:38 31.12.2019
1400 Clear 17 1012 45 10000 1 0 09:19 31.12.2019
1401 Clear 18 1012 45 10000 0.27 356 08:42 31.12.2019
1402 Clear 18 1012 45 10000 0.31 6 08:23 31.12.2019
1403 Clear 19 1012 42 10000 2.1 150 07:58 31.12.2019
1404 Clear 19 1012 42 10000 2.1 150 07:40 31.12.2019
1405 Clear 19 1012 42 10000 2.1 150 07:19 31.12.2019
1406 Clear 20 1013 40 10000 2.1 180 06:41 31.12.2019
1407 Clear 22 1013 30 10000 2.1 170 05:28 31.12.2019
1408 Clear 24 1013 25 10000 4.1 150 04:25 31.12.2019
1409 Clear 25 1013 22 10000 3.6 140 03:24 31.12.2019
1410 Clear 27 1013 19 10000 4.6 140 02:36 31.12.2019
1411 Clear 27 1014 28 10000 2.6 270 01:51 31.12.2019
1412 Clear 27 1014 28 10000 2.6 270 01:32 31.12.2019
1413 Clear 28 1014 28 10000 3.1 270 00:55 31.12.2019
1414 Clear 28 1014 28 10000 3.1 270 00:37 31.12.2019
1415 Clear 28 1014 28 10000 3.1 270 00:18 31.12.2019
1416 Clear 30 1013 22 10000 4.1 250 23:55 30.12.2019
1417 Clear 31 1013 22 10000 4.1 250 23:36 30.12.2019
1418 Clear 31 1013 22 10000 4.1 250 23:36 30.12.2019
1419 Clear 31 1013 22 10000 4.1 250 23:18 30.12.2019
1420 Clear 32 1013 22 10000 4.6 240 22:54 30.12.2019
1421 Clear 32 1013 22 10000 4.6 240 22:36 30.12.2019
1422 Clear 32 1013 22 10000 4.6 240 22:18 30.12.2019
1423 Clear 32 1013 22 10000 4.6 240 22:18 30.12.2019
1424 Clear 33 1014 22 10000 4.6 0 21:55 30.12.2019
1425 Clear 33 1014 22 10000 4.6 0 21:55 30.12.2019
1426 Clear 33 1014 22 10000 4.6 0 21:36 30.12.2019
1427 Clear 33 1014 22 10000 4.6 0 21:18 30.12.2019
1428 Clear 33 1014 24 10000 3.6 0 20:41 30.12.2019
1429 Clear 33 1014 24 10000 3.6 0 20:21 30.12.2019
1430 Clear 33 1015 24 10000 4.1 0 19:59 30.12.2019
1431 Clear 32 1015 24 10000 4.1 0 19:40 30.12.2019
1432 Clear 33 1015 24 10000 4.1 0 19:20 30.12.2019
1433 Clear 33 1015 27 10000 2.6 200 18:59 30.12.2019
1434 Clear 32 1015 27 10000 2.6 200 18:41 30.12.2019
1435 Clear 32 1015 27 10000 2.6 200 18:21 30.12.2019
1436 Clear 31 1015 28 10000 2.6 150 17:58 30.12.2019
1437 Clear 31 1015 28 10000 2.6 150 17:40 30.12.2019
1438 Clear 30 1015 28 10000 2.6 150 17:19 30.12.2019
1439 Clear 29 1015 32 10000 2.6 230 16:59 30.12.2019
1440 Clear 29 1015 32 10000 2.6 230 16:38 30.12.2019
1441 Clear 29 1015 32 10000 2.6 230 16:20 30.12.2019
1442 Clear 28 1015 36 10000 1.5 250 15:56 30.12.2019
1443 Clear 28 1015 36 10000 1.5 250 15:37 30.12.2019
1444 Clear 28 1015 36 10000 1.5 250 15:19 30.12.2019
1445 Clear 26 1015 40 10000 1 170 14:43 30.12.2019
1446 Clear 26 1015 40 10000 1 170 14:43 30.12.2019
1447 Clear 24 1015 40 10000 1 170 14:21 30.12.2019
1448 Clear 21 1015 49 10000 1.94 259 13:59 30.12.2019
1449 Clear 21 1015 49 10000 1.94 259 13:40 30.12.2019
1450 Clear 21 1015 49 10000 1.94 259 13:22 30.12.2019
1451 Clear 21 1015 49 10000 1.94 259 13:22 30.12.2019
1452 Clear 19 1015 67 10000 1.94 259 12:57 30.12.2019
1453 Clear 20 1015 67 10000 1.94 259 12:37 30.12.2019
1454 Clear 19 1015 67 10000 1.94 259 12:18 30.12.2019
1455 Clear 23 1014 72 10000 1.5 320 11:45 30.12.2019
1456 Clear 15 1014 72 10000 1.5 320 11:22 30.12.2019
1457 Clear 17 1014 72 10000 2.6 170 10:59 30.12.2019
1458 Clear 17 1014 72 10000 2.6 170 10:40 30.12.2019
1459 Clear 16 1014 72 10000 2.6 170 10:19 30.12.2019
1460 Clear 17 1014 67 10000 2.6 160 09:42 30.12.2019
1461 Clear 17 1014 67 10000 2.6 160 09:21 30.12.2019
1462 Clear 17 1014 63 10000 3.6 160 08:56 30.12.2019
1463 Clear 17 1014 63 10000 3.6 160 08:38 30.12.2019
1464 Clear 17 1014 63 10000 3.6 160 08:19 30.12.2019
1465 Clear 18 1014 59 10000 4.1 160 07:44 30.12.2019
1466 Clear 18 1014 59 10000 4.1 160 07:18 30.12.2019
1467 Clear 19 1014 55 10000 3.6 170 06:29 30.12.2019
1468 Clear 21 1014 49 10000 5.1 160 04:23 30.12.2019
1469 Clear 22 1014 46 10000 5.7 130 03:42 30.12.2019
1470 Clear 24 1013 41 10000 5.1 150 02:41 30.12.2019
1471 Clouds 25 1013 41 10000 5.1 150 02:20 30.12.2019
1472 Clouds 25 1015 39 10000 1.5 210 01:26 30.12.2019
1473 Clouds 28 1014 34 10000 3.6 210 00:47 30.12.2019
1474 Clouds 28 1014 34 10000 3.6 210 00:26 30.12.2019
1475 Clouds 29 1013 30 10000 4.1 240 23:40 29.12.2019
1476 Clouds 29 1013 30 10000 4.1 240 23:22 29.12.2019
1477 Clouds 30 1013 25 10000 3.6 260 22:57 29.12.2019
1478 Clouds 30 1013 25 10000 3.6 260 22:38 29.12.2019
1479 Clouds 30 1013 25 10000 3.6 260 22:38 29.12.2019
1480 Clouds 31 1013 25 10000 3.6 260 22:20 29.12.2019
1481 Clouds 31 1013 24 10000 4.1 250 21:54 29.12.2019
1482 Clouds 31 1013 24 10000 4.1 250 21:36 29.12.2019
1483 Clouds 31 1013 24 10000 4.1 250 21:18 29.12.2019
1484 Clouds 32 1012 21 10000 3.6 250 20:55 29.12.2019
1485 Clouds 33 1012 21 10000 3.6 250 20:36 29.12.2019
1486 Clouds 34 1012 21 10000 3.6 250 20:18 29.12.2019
1487 Clear 34 1012 19 10000 3.6 0 19:40 29.12.2019
1488 Clear 34 1012 19 10000 3.6 0 19:22 29.12.2019
1489 Clear 33 1013 24 10000 2.6 240 18:59 29.12.2019
1490 Clear 33 1013 24 10000 2.6 240 18:40 29.12.2019
1491 Clear 33 1013 24 10000 2.6 240 18:21 29.12.2019
1492 Clear 32 1013 23 10000 2.6 250 17:59 29.12.2019
1493 Clear 33 1013 23 10000 2.6 250 17:39 29.12.2019
1494 Clear 32 1013 23 10000 2.6 250 17:20 29.12.2019
1495 Clear 30 1013 27 10000 2.1 240 16:58 29.12.2019
1496 Clear 30 1013 27 10000 2.1 240 16:40 29.12.2019
1497 Clear 30 1013 27 10000 2.1 240 16:40 29.12.2019
1498 Clear 30 1013 27 10000 2.1 240 16:21 29.12.2019
1499 Clear 28 1013 32 10000 1.5 200 15:59 29.12.2019
1500 Clear 28 1013 32 10000 1.5 200 15:40 29.12.2019
1501 Clear 29 1013 32 10000 1.5 200 15:20 29.12.2019
1502 Clear 27 1013 38 10000 3.41 264 14:58 29.12.2019
1503 Clear 27 1013 38 10000 3.41 264 14:39 29.12.2019
1504 Clouds 25 1013 38 10000 2.1 258 14:19 29.12.2019
1505 Clouds 21 1013 45 10000 2.1 258 13:59 29.12.2019
1506 Clouds 21 1013 45 10000 2.1 258 13:39 29.12.2019
1507 Clouds 21 1013 45 10000 2.1 258 13:21 29.12.2019
1508 Clouds 18 1013 63 10000 1.98 260 12:56 29.12.2019
1509 Clouds 21 1013 63 10000 1.98 260 12:38 29.12.2019
1510 Clouds 21 1013 63 10000 1.98 260 12:20 29.12.2019
1511 Clouds 23 1011 59 10000 1.98 260 11:41 29.12.2019
1512 Clouds 17 1011 59 10000 0.33 38 11:21 29.12.2019
1513 Clouds 17 1010 63 10000 2.1 250 10:56 29.12.2019
1514 Clouds 17 1010 63 10000 2.1 250 10:37 29.12.2019
1515 Clouds 17 1010 63 10000 2.1 250 10:18 29.12.2019
1516 Clouds 19 1010 55 10000 2.1 170 09:44 29.12.2019
1517 Clouds 19 1010 55 10000 2.1 170 09:26 29.12.2019
1518 Clouds 20 1010 52 10000 3.1 160 08:52 29.12.2019
1519 Clouds 20 1010 52 10000 3.1 160 08:29 29.12.2019
1520 Clear 20 1010 52 10000 3.1 160 07:59 29.12.2019
1521 Clear 20 1010 52 10000 3.1 160 07:32 29.12.2019
1522 Clear 22 1010 46 10000 4.1 160 06:59 29.12.2019
1523 Clear 22 1010 46 10000 4.1 160 06:27 29.12.2019
1524 Clear 23 1011 43 10000 3.1 150 05:55 29.12.2019
1525 Clear 25 1011 33 10000 3.6 150 04:47 29.12.2019
1526 Clear 25 1011 33 10000 3.6 150 04:28 29.12.2019
1527 Clear 17 1011 55 10000 3.6 160 03:28 29.12.2019
1528 Clear 29 1010 24 10000 5.1 190 02:27 29.12.2019
1529 Clouds 29 1012 26 10000 1.5 250 01:47 29.12.2019
1530 Clouds 29 1012 26 10000 1.5 250 01:28 29.12.2019
1531 Clouds 30 1011 22 10000 3.1 240 00:45 29.12.2019
1532 Clouds 30 1011 22 10000 3.1 240 00:24 29.12.2019
1533 Clouds 32 1011 18 10000 4.1 230 23:46 28.12.2019
1534 Clear 33 1011 18 10000 4.1 230 23:19 28.12.2019
1535 Clear 33 1011 17 10000 3.6 230 22:59 28.12.2019
1536 Clear 33 1011 17 10000 3.6 230 22:37 28.12.2019
1537 Clear 33 1011 17 10000 3.6 230 22:18 28.12.2019
1538 Clear 34 1011 17 10000 3.6 240 21:55 28.12.2019
1539 Clear 33 1011 17 10000 3.6 240 21:37 28.12.2019
1540 Clear 33 1011 17 10000 3.6 240 21:19 28.12.2019
1541 Clear 32 1012 18 10000 3.6 220 20:40 28.12.2019
1542 Clear 34 1012 18 10000 3.6 220 20:22 28.12.2019
1543 Clear 34 1012 21 10000 3.1 200 19:59 28.12.2019
1544 Clear 34 1012 21 10000 3.1 200 19:41 28.12.2019
1545 Clear 33 1012 21 10000 3.1 200 19:23 28.12.2019
1546 Clear 32 1013 23 10000 4.1 210 18:59 28.12.2019
1547 Clear 32 1013 23 10000 4.1 210 18:40 28.12.2019
1548 Clear 32 1013 23 10000 4.1 210 18:20 28.12.2019
1549 Clear 31 1013 23 10000 2.6 250 17:57 28.12.2019
1550 Clear 30 1013 23 10000 2.6 250 17:38 28.12.2019
1551 Clear 30 1013 23 10000 2.6 250 17:19 28.12.2019
1552 Clear 28 1014 24 10000 1.5 210 16:47 28.12.2019
1553 Clear 28 1014 24 10000 1.5 210 16:26 28.12.2019
1554 Clear 25 1014 27 10000 3.32 261 15:57 28.12.2019
1555 Clear 25 1014 27 10000 3.32 261 15:39 28.12.2019
1556 Clear 25 1014 27 10000 3.32 261 15:20 28.12.2019
1557 Clear 24 1015 31 10000 3.32 261 14:45 28.12.2019
1558 Clear 24 1015 31 10000 3.32 261 14:24 28.12.2019
1559 Clear 22 1015 35 10000 1.79 279 13:58 28.12.2019
1560 Clear 22 1015 35 10000 1.79 279 13:39 28.12.2019
1561 Clear 22 1015 35 10000 1.94 281 13:19 28.12.2019
1562 Clear 20 1013 48 8000 1.94 281 12:44 28.12.2019
1563 Clear 22 1013 48 8000 1.94 281 12:25 28.12.2019
1564 Clear 21 1013 54 10000 2.1 350 11:59 28.12.2019
1565 Clear 21 1013 54 10000 2.1 350 11:39 28.12.2019
1566 Clear 14 1013 54 10000 2.1 350 11:20 28.12.2019
1567 Clear 16 1012 48 10000 1 0 10:46 28.12.2019
1568 Clear 16 1012 48 10000 1 0 10:23 28.12.2019
1569 Clear 17 1012 45 10000 1 0 09:59 28.12.2019
1570 Clear 17 1012 45 10000 1 0 09:41 28.12.2019
1571 Clear 17 1012 45 10000 1 0 09:23 28.12.2019
1572 Clear 17 1012 42 10000 1 0 08:45 28.12.2019
1573 Clear 17 1012 42 10000 1 0 08:27 28.12.2019
1574 Clear 18 1013 36 10000 0.8 259 07:59 28.12.2019
1575 Clear 18 1013 36 10000 0.8 259 07:39 28.12.2019
1576 Clear 20 1013 34 10000 2.1 160 06:55 28.12.2019
1577 Clear 21 1014 30 10000 1.5 150 05:40 28.12.2019
1578 Clear 23 1014 27 10000 3.6 160 03:48 28.12.2019
1579 Clear 24 1014 25 10000 4.6 180 02:50 28.12.2019
1580 Clear 24 1014 25 10000 4.6 180 02:19 28.12.2019
1581 Clear 25 1016 31 10000 1.5 250 01:50 28.12.2019
1582 Clear 25 1016 31 10000 1.5 250 01:21 28.12.2019
1583 Clear 27 1015 24 10000 2.6 230 00:42 28.12.2019
1584 Clear 27 1015 24 10000 2.6 230 00:23 28.12.2019
1585 Clear 28 1015 18 10000 4.1 250 23:45 27.12.2019
1586 Clear 29 1015 18 10000 4.1 250 23:21 27.12.2019
1587 Clear 30 1015 18 10000 5.1 240 22:58 27.12.2019
1588 Clear 30 1015 18 10000 5.1 240 22:39 27.12.2019
1589 Clear 31 1015 18 10000 5.1 240 22:21 27.12.2019
1590 Clear 32 1015 19 10000 4.1 240 21:59 27.12.2019
1591 Clear 32 1015 19 10000 4.1 240 21:40 27.12.2019
1592 Clear 32 1015 19 10000 4.1 240 21:22 27.12.2019
1593 Clear 32 1015 19 10000 4.1 230 20:42 27.12.2019
1594 Clear 32 1015 19 10000 4.1 230 20:24 27.12.2019
1595 Clear 32 1015 20 10000 4.1 240 19:55 27.12.2019
1596 Clear 32 1015 20 10000 4.1 240 19:36 27.12.2019
1597 Clear 32 1015 20 10000 4.1 240 19:18 27.12.2019
1598 Clear 32 1015 20 10000 3.6 230 18:42 27.12.2019
1599 Clear 32 1015 20 10000 3.6 230 18:24 27.12.2019
1600 Clear 32 1016 22 10000 1.5 210 18:00 27.12.2019
1601 Clear 31 1016 22 10000 1.5 210 17:41 27.12.2019
1602 Clear 31 1016 22 10000 1.5 210 17:20 27.12.2019
1603 Clear 29 1016 24 10000 1 330 16:59 27.12.2019
1604 Clear 29 1016 24 10000 1 330 16:59 27.12.2019
1605 Clear 30 1016 24 10000 1 330 16:41 27.12.2019
1606 Clear 28 1016 24 10000 1 330 16:22 27.12.2019
1607 Clear 28 1016 26 10000 1 280 15:56 27.12.2019
1608 Clear 28 1016 26 10000 1 280 15:37 27.12.2019
1609 Clear 27 1016 26 10000 1 280 15:18 27.12.2019
1610 Clear 26 1016 29 10000 1 240 14:55 27.12.2019
1611 Clear 26 1016 29 10000 1 240 14:36 27.12.2019
1612 Clear 25 1016 29 10000 1 240 14:18 27.12.2019
1613 Clear 23 1015 34 10000 1.97 262 13:43 27.12.2019
1614 Clear 21 1015 34 10000 1.8 275 13:22 27.12.2019
1615 Clear 20 1015 55 10000 1.8 275 12:48 27.12.2019
1616 Clear 21 1015 55 10000 1.8 275 12:29 27.12.2019
1617 Clear 23 1013 45 10000 2.1 170 11:59 27.12.2019
1618 Clear 23 1013 45 10000 2.1 170 11:41 27.12.2019
1619 Clear 17 1013 45 10000 2.1 170 11:20 27.12.2019
1620 Clear 17 1013 45 10000 2.1 170 11:20 27.12.2019
1621 Clear 17 1013 45 10000 2.1 170 11:20 27.12.2019
1622 Clear 17 1012 44 10000 1 190 10:46 27.12.2019
1623 Clear 17 1012 44 10000 1 190 10:24 27.12.2019
1624 Clear 16 1011 44 10000 0.45 346 09:57 27.12.2019
1625 Clear 16 1011 44 10000 0.45 346 09:37 27.12.2019
1626 Clear 16 1011 44 10000 0.45 346 09:19 27.12.2019
1627 Clear 17 1011 42 10000 0.45 346 08:46 27.12.2019
1628 Clear 17 1011 42 10000 0.45 346 08:27 27.12.2019
1629 Clear 18 1011 39 10000 0.5 0 07:41 27.12.2019
1630 Clear 18 1011 39 10000 0.5 0 07:22 27.12.2019
1631 Clear 20 1011 34 10000 2.6 160 06:27 27.12.2019
1632 Clear 21 1012 30 10000 4.1 150 04:40 27.12.2019
1633 Clear 25 1012 27 10000 6.2 190 02:29 27.12.2019
1634 Clear 25 1012 29 10000 2.1 250 01:48 27.12.2019
1635 Clear 25 1012 29 10000 2.1 250 01:23 27.12.2019
1636 Clear 27 1012 24 10000 3.1 260 00:51 27.12.2019
1637 Clear 27 1012 24 10000 3.1 260 00:33 27.12.2019
1638 Clear 29 1012 23 10000 4.1 260 23:56 26.12.2019
1639 Clear 29 1012 23 10000 4.1 260 23:38 26.12.2019
1640 Clear 29 1012 23 10000 4.1 260 23:20 26.12.2019
1641 Clear 31 1012 20 10000 3.6 250 22:41 26.12.2019
1642 Clear 30 1012 20 10000 3.6 250 22:19 26.12.2019
1643 Clear 31 1013 20 10000 3.6 230 21:40 26.12.2019
1644 Clear 31 1013 20 10000 3.6 230 21:22 26.12.2019
1645 Clear 31 1013 22 10000 3.1 230 20:59 26.12.2019
1646 Clear 31 1013 22 10000 3.1 230 20:41 26.12.2019
1647 Clear 31 1013 22 10000 3.1 230 20:22 26.12.2019
1648 Clear 31 1013 22 10000 4.1 220 19:57 26.12.2019
1649 Clear 31 1013 22 10000 4.1 220 19:38 26.12.2019
1650 Clear 31 1013 22 10000 4.1 220 19:20 26.12.2019
1651 Clear 31 1014 22 10000 4.1 230 18:57 26.12.2019
1652 Clear 31 1014 22 10000 4.1 230 18:37 26.12.2019
1653 Clear 30 1014 22 10000 4.1 230 18:18 26.12.2019
1654 Clear 29 1014 26 10000 1.5 180 17:42 26.12.2019
1655 Clear 28 1014 26 10000 1.5 180 17:22 26.12.2019
1656 Clear 27 1014 31 10000 1.5 230 16:51 26.12.2019
1657 Clear 27 1014 31 10000 1.5 230 16:29 26.12.2019
1658 Clear 25 1014 33 10000 1 210 15:59 26.12.2019
1659 Clear 25 1014 33 10000 1 210 15:40 26.12.2019
1660 Clear 25 1014 33 10000 1 210 15:19 26.12.2019
1661 Clear 23 1014 37 10000 1 180 14:43 26.12.2019
1662 Clear 23 1014 37 10000 1 180 14:24 26.12.2019
1663 Clear 23 1014 37 10000 1 180 14:24 26.12.2019
1664 Clear 23 1014 37 10000 1 180 14:24 26.12.2019
1665 Clear 23 1014 37 10000 1 180 14:24 26.12.2019
1666 Clear 23 1014 37 10000 1 180 14:24 26.12.2019
1667 Clear 19 1014 45 10000 2.26 256 13:58 26.12.2019
1668 Clear 20 1014 45 10000 2.26 256 13:40 26.12.2019
1669 Clear 19 1014 45 10000 2.16 260 13:19 26.12.2019
1670 Clear 17 1013 62 10000 1 50 12:56 26.12.2019
1671 Clear 19 1013 62 10000 1 50 12:37 26.12.2019
1672 Clear 18 1013 62 10000 1 50 12:18 26.12.2019
1673 Clear 22 1012 51 10000 1.5 180 11:42 26.12.2019
1674 Clear 15 1012 51 10000 1.5 180 11:23 26.12.2019
1675 Clear 15 1011 54 10000 1 240 10:57 26.12.2019
1676 Clear 15 1011 54 10000 1 240 10:39 26.12.2019
1677 Clear 15 1011 54 10000 1 240 10:18 26.12.2019
1678 Clear 16 1011 51 10000 1 0 09:42 26.12.2019
1679 Clear 16 1011 51 10000 1 0 09:24 26.12.2019
1680 Clear 17 1012 45 10000 1.5 160 08:40 26.12.2019
1681 Clear 17 1012 45 10000 1.5 160 08:40 26.12.2019
1682 Clouds 17 1012 45 10000 1.5 160 08:22 26.12.2019
1683 Clouds 18 1012 42 10000 3.6 150 07:50 26.12.2019
1684 Clouds 18 1012 42 10000 3.6 150 07:26 26.12.2019
1685 Clouds 18 1012 45 10000 3.6 150 06:44 26.12.2019
1686 Clouds 18 1012 45 10000 3.6 150 06:25 26.12.2019
1687 Clouds 19 1012 42 10000 3.6 160 05:43 26.12.2019
1688 Clouds 19 1012 42 10000 3.6 160 05:43 26.12.2019
1689 Clouds 20 1012 40 10000 4.1 150 04:38 26.12.2019
1690 Clouds 20 1012 40 10000 4.6 150 03:46 26.12.2019
1691 Clouds 21 1011 40 10000 7.2 200 02:50 26.12.2019
1692 Clouds 22 1011 40 10000 7.2 200 02:31 26.12.2019
1693 Clouds 22 1011 40 10000 7.2 200 02:31 26.12.2019
1694 Clouds 23 1012 33 10000 2.1 250 01:45 26.12.2019
1695 Clouds 23 1012 33 10000 2.1 250 01:26 26.12.2019
1696 Clouds 24 1012 31 10000 3.6 250 00:48 26.12.2019
1697 Clouds 24 1012 31 10000 3.6 250 00:24 26.12.2019
1698 Clouds 24 1012 31 10000 3.6 250 00:24 26.12.2019
1699 Clouds 27 1011 28 10000 3.6 250 23:58 25.12.2019
1700 Clouds 27 1011 28 10000 3.6 250 23:38 25.12.2019
1701 Clouds 28 1011 28 10000 3.6 250 23:20 25.12.2019
1702 Clouds 28 1011 27 10000 3.6 220 22:57 25.12.2019
1703 Clouds 28 1011 27 10000 3.6 220 22:38 25.12.2019
1704 Clouds 29 1011 27 10000 3.6 220 22:19 25.12.2019
1705 Clouds 29 1011 27 10000 3.1 190 21:57 25.12.2019
1706 Clouds 29 1011 27 10000 3.1 190 21:39 25.12.2019
1707 Clouds 30 1011 27 10000 3.1 190 21:19 25.12.2019
1708 Clouds 30 1011 28 10000 3.1 210 20:41 25.12.2019
1709 Clouds 30 1011 28 10000 3.1 210 20:41 25.12.2019
1710 Clouds 29 1011 28 10000 3.1 210 20:21 25.12.2019
1711 Clouds 29 1012 28 10000 2.1 210 19:59 25.12.2019
1712 Clouds 29 1012 28 10000 2.1 210 19:41 25.12.2019
1713 Clouds 29 1012 28 10000 2.1 210 19:22 25.12.2019
1714 Clouds 28 1013 34 10000 2.1 210 18:54 25.12.2019
1715 Clouds 28 1013 34 10000 2.1 210 18:36 25.12.2019
1716 Clouds 28 1013 34 10000 2.1 210 18:18 25.12.2019
1717 Clouds 26 1014 41 10000 2.6 240 17:40 25.12.2019
1718 Clear 26 1014 41 10000 2.6 240 17:18 25.12.2019
1719 Clear 25 1014 46 10000 2.6 190 16:55 25.12.2019
1720 Clear 25 1014 46 10000 2.6 190 16:37 25.12.2019
1721 Clear 25 1014 46 10000 2.6 190 16:18 25.12.2019
1722 Clear 24 1014 52 10000 0.5 240 15:56 25.12.2019
1723 Clear 24 1014 52 10000 0.5 240 15:37 25.12.2019
1724 Clear 23 1014 52 10000 0.5 240 15:18 25.12.2019
1725 Clear 20 1014 56 10000 1 210 14:55 25.12.2019
1726 Clear 22 1014 56 10000 1 210 14:37 25.12.2019
1727 Clear 21 1014 56 10000 1 210 14:18 25.12.2019
1728 Clear 19 1014 67 10000 2.52 252 13:42 25.12.2019
1729 Clear 18 1014 67 10000 2.18 264 13:21 25.12.2019
1730 Clear 18 1014 72 10000 0.5 190 12:44 25.12.2019
1731 Clear 18 1014 72 10000 0.5 190 12:23 25.12.2019
1732 Clear 22 1012 72 10000 3.1 140 11:58 25.12.2019
1733 Clear 21 1012 72 10000 3.1 140 11:40 25.12.2019
1734 Clear 16 1012 72 10000 3.1 140 11:21 25.12.2019
1735 Clear 16 1012 72 10000 5.1 180 10:41 25.12.2019
1736 Clear 16 1012 72 10000 5.1 180 10:21 25.12.2019
1737 Clear 16 1011 67 10000 3.6 140 09:59 25.12.2019
1738 Clear 16 1011 67 10000 3.6 140 09:41 25.12.2019
1739 Clear 16 1011 67 10000 3.6 140 09:23 25.12.2019
1740 Clear 17 1011 63 10000 2.1 150 08:44 25.12.2019
1741 Clear 17 1011 63 10000 2.1 150 08:24 25.12.2019
1742 Clear 17 1011 63 10000 2.1 150 08:24 25.12.2019
1743 Clear 18 1011 59 10000 3.1 160 07:44 25.12.2019
1744 Clear 18 1011 59 10000 3.1 160 07:23 25.12.2019
1745 Clear 18 1012 59 10000 5.7 170 06:24 25.12.2019
1746 Clear 20 1012 52 10000 3.6 200 05:51 25.12.2019
1747 Clear 20 1012 52 10000 3.6 180 04:46 25.12.2019
1748 Clear 20 1012 52 10000 3.6 180 04:24 25.12.2019
1749 Clear 21 1012 49 10000 4.1 190 03:46 25.12.2019
1750 Clear 21 1012 49 10000 4.1 190 03:18 25.12.2019
1751 Clear 22 1013 49 10000 6.2 190 02:30 25.12.2019
1752 Clouds 22 1014 49 10000 4.6 220 01:54 25.12.2019
1753 Clouds 22 1014 49 10000 4.6 220 01:24 25.12.2019
1754 Clouds 23 1014 44 10000 4.1 210 00:45 25.12.2019
1755 Clouds 24 1014 44 10000 4.1 210 00:26 25.12.2019
1756 Clear 25 1013 31 10000 4.6 250 23:40 24.12.2019
1757 Clear 26 1013 31 10000 4.6 250 23:21 24.12.2019
1758 Clear 27 1013 36 10000 5.7 250 22:58 24.12.2019
1759 Clear 28 1013 36 10000 5.7 250 22:37 24.12.2019
1760 Clear 28 1013 36 10000 5.7 250 22:19 24.12.2019
1761 Clear 29 1013 25 10000 4.1 230 21:41 24.12.2019
1762 Clear 30 1013 25 10000 4.1 230 21:22 24.12.2019
1763 Clear 30 1013 25 10000 4.1 0 20:43 24.12.2019
1764 Clear 30 1013 25 10000 4.1 0 20:24 24.12.2019
1765 Clear 31 1013 27 10000 4.1 230 19:57 24.12.2019
1766 Clear 30 1013 27 10000 4.1 230 19:37 24.12.2019
1767 Clear 31 1013 27 10000 4.1 230 19:18 24.12.2019
1768 Clear 30 1014 30 10000 3.1 230 18:42 24.12.2019
1769 Clear 30 1014 30 10000 3.1 230 18:19 24.12.2019
1770 Clear 29 1014 34 10000 2.1 0 17:45 24.12.2019
1771 Clear 29 1014 34 10000 2.1 0 17:24 24.12.2019
1772 Clear 27 1015 34 10000 1 270 16:59 24.12.2019
1773 Clear 27 1015 34 10000 1 270 16:40 24.12.2019
1774 Clear 27 1015 34 10000 1 270 16:22 24.12.2019
1775 Clear 26 1015 38 10000 1.5 0 15:58 24.12.2019
1776 Clear 26 1015 38 10000 1.5 0 15:58 24.12.2019
1777 Clear 26 1015 38 10000 1.5 0 15:38 24.12.2019
1778 Clear 26 1015 38 10000 1.5 0 15:20 24.12.2019
1779 Clear 24 1015 40 10000 1 270 14:59 24.12.2019
1780 Clear 24 1015 40 10000 1 270 14:59 24.12.2019
1781 Clear 24 1015 40 10000 1 270 14:41 24.12.2019
1782 Clear 23 1015 40 10000 1 270 14:22 24.12.2019
1783 Clear 21 1014 49 10000 2.27 267 13:57 24.12.2019
1784 Clear 23 1014 49 10000 2.27 267 13:39 24.12.2019
1785 Clear 21 1014 49 10000 2.27 267 13:20 24.12.2019
1786 Clear 20 1014 67 10000 2.27 264 12:58 24.12.2019
1787 Clear 20 1014 67 10000 2.27 264 12:38 24.12.2019
1788 Clear 20 1014 67 10000 2.27 264 12:19 24.12.2019
1789 Clear 20 1014 67 10000 2.27 264 12:19 24.12.2019
1790 Clear 23 1013 63 10000 3.1 150 11:58 24.12.2019
1791 Clear 23 1013 63 10000 3.1 150 11:38 24.12.2019
1792 Clear 23 1013 63 10000 3.1 150 11:38 24.12.2019
1793 Clear 23 1013 63 10000 3.1 150 11:38 24.12.2019
1794 Clear 17 1013 63 10000 3.1 150 11:20 24.12.2019
1795 Clear 17 1012 59 10000 3.1 180 10:57 24.12.2019
1796 Clear 17 1012 59 10000 3.1 180 10:38 24.12.2019
1797 Clear 17 1012 59 10000 3.1 180 10:20 24.12.2019
1798 Clear 18 1012 55 10000 1.5 230 09:59 24.12.2019
1799 Clear 18 1012 55 10000 1.5 230 09:41 24.12.2019
1800 Clear 18 1012 55 10000 1.5 230 09:22 24.12.2019
1801 Clear 19 1012 52 10000 3.6 160 08:56 24.12.2019
1802 Clear 19 1012 52 10000 3.6 160 08:37 24.12.2019
1803 Clear 19 1012 52 10000 3.6 160 08:18 24.12.2019
1804 Clear 20 1012 52 10000 4.1 160 07:43 24.12.2019
1805 Clear 20 1012 52 10000 4.1 160 07:21 24.12.2019
1806 Clear 21 1012 46 10000 5.1 150 06:41 24.12.2019
1807 Clear 21 1012 46 10000 5.1 150 06:22 24.12.2019
1808 Clear 22 1013 43 10000 6.2 140 05:55 24.12.2019
1809 Clear 22 1013 43 10000 6.2 140 05:19 24.12.2019
1810 Clear 24 1013 36 10000 3.6 130 04:21 24.12.2019
1811 Clear 26 1012 29 10000 4.6 140 03:48 24.12.2019
1812 Clear 28 1012 23 10000 5.1 170 02:37 24.12.2019
1813 Clear 29 1012 23 10000 5.1 170 02:18 24.12.2019
1814 Clear 29 1014 23 10000 2.1 240 01:42 24.12.2019
1815 Clear 29 1014 23 10000 2.1 240 01:19 24.12.2019
1816 Clear 31 1013 21 10000 2.6 230 00:40 24.12.2019
1817 Clear 31 1013 21 10000 2.6 230 00:20 24.12.2019
1818 Clear 32 1012 16 10000 4.6 250 23:43 23.12.2019
1819 Clear 33 1012 16 10000 4.6 250 23:24 23.12.2019
1820 Clear 34 1012 16 10000 4.6 250 22:58 23.12.2019
1821 Clear 34 1012 16 10000 4.6 250 22:38 23.12.2019
1822 Clear 34 1012 16 10000 4.6 250 22:20 23.12.2019
1823 Clear 34 1012 13 10000 4.1 210 21:57 23.12.2019
1824 Clear 34 1012 13 10000 4.1 210 21:37 23.12.2019
1825 Clear 34 1012 13 10000 4.1 210 21:19 23.12.2019
1826 Clear 34 1012 12 10000 3.6 240 20:59 23.12.2019
1827 Clear 34 1012 12 10000 3.6 240 20:41 23.12.2019
1828 Clear 36 1012 12 10000 3.6 240 20:19 23.12.2019
1829 Clear 35 1013 14 10000 3.6 250 19:59 23.12.2019
1830 Clear 36 1013 14 10000 3.6 250 19:41 23.12.2019
1831 Clear 35 1013 14 10000 3.6 250 19:22 23.12.2019
1832 Clear 34 1013 14 10000 3.1 190 18:59 23.12.2019
1833 Clear 34 1013 14 10000 3.1 190 18:39 23.12.2019
1834 Clear 34 1013 14 10000 3.1 190 18:21 23.12.2019
1835 Clear 34 1013 18 10000 2.1 240 17:59 23.12.2019
1836 Clear 34 1013 18 10000 2.1 240 17:41 23.12.2019
1837 Clear 33 1013 18 10000 2.1 240 17:20 23.12.2019
1838 Clear 31 1013 22 10000 1.5 270 16:59 23.12.2019
1839 Clear 31 1013 22 10000 1.5 270 16:40 23.12.2019
1840 Clear 30 1013 22 10000 1.5 270 16:19 23.12.2019
1841 Clear 29 1013 23 10000 1 250 15:58 23.12.2019
1842 Clear 30 1013 23 10000 1 250 15:37 23.12.2019
1843 Clear 29 1013 23 10000 1 250 15:19 23.12.2019
1844 Clear 27 1013 29 10000 3.43 262 14:57 23.12.2019
1845 Clear 27 1013 29 10000 3.43 262 14:39 23.12.2019
1846 Clear 25 1013 29 10000 1.77 275 14:19 23.12.2019
1847 Clear 23 1013 37 10000 1.77 275 13:57 23.12.2019
1848 Clear 22 1013 37 10000 1.77 275 13:39 23.12.2019
1849 Clear 22 1013 37 10000 1.79 269 13:21 23.12.2019
1850 Clear 19 1013 48 10000 1.79 269 12:55 23.12.2019
1851 Clear 21 1013 48 10000 1.79 269 12:37 23.12.2019
1852 Clear 21 1013 48 10000 1.79 269 12:37 23.12.2019
1853 Clear 21 1013 48 10000 1.79 269 12:18 23.12.2019
1854 Clear 23 1012 51 10000 1.5 40 11:43 23.12.2019
1855 Clear 22 1012 51 10000 1.5 40 11:25 23.12.2019
1856 Clear 19 1012 45 10000 1.5 320 10:56 23.12.2019
1857 Clear 19 1012 45 10000 1.5 320 10:38 23.12.2019
1858 Clear 19 1012 45 10000 1.5 320 10:20 23.12.2019
1859 Clear 19 1012 48 10000 1.5 40 09:58 23.12.2019
1860 Clear 19 1012 48 10000 1.5 40 09:39 23.12.2019
1861 Clear 19 1012 48 10000 1.5 40 09:20 23.12.2019
1862 Clear 18 1012 48 10000 1.5 10 08:55 23.12.2019
1863 Clear 18 1012 48 10000 1.5 10 08:37 23.12.2019
1864 Clear 18 1012 48 10000 1.5 10 08:18 23.12.2019
1865 Clear 20 1012 45 10000 1.5 340 07:43 23.12.2019
1866 Clear 20 1012 45 10000 1.5 340 07:19 23.12.2019
1867 Clear 21 1013 43 10000 1.5 240 06:45 23.12.2019
1868 Clear 21 1013 43 10000 1.5 240 06:23 23.12.2019
1869 Clear 23 1013 38 10000 3.1 150 05:47 23.12.2019
1870 Clear 23 1013 38 10000 3.1 150 05:18 23.12.2019
1871 Clear 24 1013 36 10000 4.1 160 04:19 23.12.2019
1872 Clear 27 1012 26 10000 5.7 200 02:49 23.12.2019
1873 Clear 28 1012 26 10000 5.7 200 02:23 23.12.2019
1874 Clear 29 1014 23 10000 1.5 240 01:51 23.12.2019
1875 Clear 29 1014 23 10000 1.5 240 01:32 23.12.2019
1876 Clear 30 1013 18 10000 3.6 240 00:54 23.12.2019
1877 Clear 30 1013 18 10000 3.6 240 00:35 23.12.2019
1878 Clear 30 1013 17 10000 4.1 230 23:57 22.12.2019
1879 Clear 30 1013 17 10000 4.1 230 23:39 22.12.2019
1880 Clouds 32 1013 17 10000 4.1 230 23:20 22.12.2019
1881 Clouds 33 1012 16 10000 5.1 250 22:57 22.12.2019
1882 Clouds 33 1012 16 10000 5.1 250 22:38 22.12.2019
1883 Clouds 33 1012 16 10000 5.1 250 22:19 22.12.2019
1884 Clouds 33 1012 14 10000 3.6 180 21:56 22.12.2019
1885 Clouds 33 1012 14 10000 3.6 180 21:38 22.12.2019
1886 Clouds 33 1012 14 10000 3.6 180 21:38 22.12.2019
1887 Clouds 33 1012 14 10000 3.6 180 21:20 22.12.2019
1888 Clouds 34 1013 15 10000 2.6 210 20:55 22.12.2019
1889 Clouds 34 1013 15 10000 2.6 210 20:37 22.12.2019
1890 Clouds 34 1013 15 10000 2.6 210 20:37 22.12.2019
1891 Clouds 34 1013 15 10000 2.6 210 20:18 22.12.2019
1892 Clouds 33 1013 15 10000 1.5 90 19:40 22.12.2019
1893 Clouds 33 1013 15 10000 1.5 90 19:21 22.12.2019
1894 Clouds 32 1013 19 10000 2.1 260 18:58 22.12.2019
1895 Clouds 32 1013 19 10000 2.1 260 18:38 22.12.2019
1896 Clouds 32 1013 19 10000 2.1 260 18:19 22.12.2019
1897 Clouds 31 1013 21 10000 1.5 330 17:55 22.12.2019
1898 Clouds 30 1013 21 10000 1.5 330 17:37 22.12.2019
1899 Clouds 30 1013 21 10000 1.5 330 17:18 22.12.2019
1900 Clouds 28 1014 26 10000 1.5 300 16:43 22.12.2019
1901 Clouds 28 1014 26 10000 1.5 300 16:43 22.12.2019
1902 Clouds 28 1014 26 10000 1.5 300 16:23 22.12.2019
1903 Clouds 27 1014 22 10000 3.58 261 15:59 22.12.2019
1904 Clouds 27 1014 22 10000 3.58 261 15:39 22.12.2019
1905 Clouds 27 1014 22 10000 3.58 261 15:21 22.12.2019
1906 Clouds 27 1014 22 10000 3.58 261 15:21 22.12.2019
1907 Clouds 25 1014 27 10000 1 30 14:59 22.12.2019
1908 Clouds 25 1014 27 10000 1 30 14:39 22.12.2019
1909 Clear 24 1014 27 10000 1 30 14:19 22.12.2019
1910 Clear 23 1015 39 10000 1.65 269 13:56 22.12.2019
1911 Clear 23 1015 39 10000 1.65 269 13:38 22.12.2019
1912 Clear 20 1015 39 10000 1.65 270 13:19 22.12.2019
1913 Clear 19 1015 58 10000 1.65 270 12:57 22.12.2019
1914 Clear 18 1015 58 10000 1.65 270 12:39 22.12.2019
1915 Clear 18 1015 58 10000 1.65 270 12:19 22.12.2019
1916 Clear 18 1015 58 10000 1.65 270 12:19 22.12.2019
1917 Clear 18 1015 58 10000 1.65 270 12:19 22.12.2019
1918 Clear 22 1013 47 10000 1.5 0 11:59 22.12.2019
1919 Clear 22 1013 47 10000 1.5 0 11:39 22.12.2019
1920 Clear 15 1013 47 10000 1.5 0 11:20 22.12.2019
1921 Clear 16 1013 47 10000 1 0 10:57 22.12.2019
1922 Clear 16 1013 47 10000 1 0 10:39 22.12.2019
1923 Clear 15 1013 47 10000 1 0 10:19 22.12.2019
1924 Clear 16 1013 48 10000 0.5 0 09:58 22.12.2019
1925 Clear 16 1013 48 10000 0.5 0 09:39 22.12.2019
1926 Clear 16 1013 48 10000 0.5 0 09:21 22.12.2019
1927 Clear 18 1013 45 10000 1.5 160 08:45 22.12.2019
1928 Clear 18 1013 45 10000 1.5 160 08:23 22.12.2019
1929 Clear 18 1013 42 10000 2.1 120 07:50 22.12.2019
1930 Clear 18 1013 42 10000 2.1 120 07:22 22.12.2019
1931 Clear 19 1013 37 10000 3.6 170 06:56 22.12.2019
1932 Clear 19 1013 37 10000 3.6 170 06:27 22.12.2019
1933 Clear 21 1013 28 10000 2.6 150 05:43 22.12.2019
1934 Clear 21 1013 28 10000 2.6 150 05:21 22.12.2019
1935 Clear 22 1013 26 10000 3.1 150 04:27 22.12.2019
1936 Clear 24 1013 23 10000 3.1 130 03:24 22.12.2019
1937 Clear 24 1012 19 10000 6.2 180 02:34 22.12.2019
1938 Clouds 26 1014 21 10000 2.1 230 01:33 22.12.2019
1939 Clouds 27 1013 17 10000 4.1 240 00:58 22.12.2019
1940 Clouds 27 1013 17 10000 4.1 240 00:39 22.12.2019
1941 Clouds 27 1013 17 10000 4.1 240 00:20 22.12.2019
1942 Clouds 28 1012 21 10000 4.6 240 23:42 21.12.2019
1943 Clouds 29 1012 21 10000 4.6 240 23:24 21.12.2019
1944 Clouds 30 1012 11 10000 3.6 240 22:57 21.12.2019
1945 Clouds 30 1012 11 10000 3.6 240 22:39 21.12.2019
1946 Clouds 30 1012 11 10000 3.6 240 22:18 21.12.2019
1947 Clouds 32 1012 14 10000 3.6 250 21:56 21.12.2019
1948 Clouds 32 1012 14 10000 3.6 250 21:37 21.12.2019
1949 Clouds 32 1012 14 10000 3.6 250 21:18 21.12.2019
1950 Clouds 32 1012 17 10000 3.6 210 20:57 21.12.2019
1951 Clouds 32 1012 17 10000 3.6 210 20:57 21.12.2019
1952 Clouds 32 1012 17 10000 3.6 210 20:37 21.12.2019
1953 Clouds 32 1012 17 10000 3.6 210 20:37 21.12.2019
1954 Clouds 32 1012 17 10000 3.6 210 20:19 21.12.2019
1955 Clouds 31 1013 20 10000 4.1 210 19:56 21.12.2019
1956 Clouds 31 1013 20 10000 4.1 210 19:36 21.12.2019
1957 Clouds 31 1013 20 10000 4.1 210 19:18 21.12.2019
1958 Clouds 31 1013 22 10000 2.6 230 18:42 21.12.2019
1959 Clouds 31 1013 22 10000 2.6 230 18:42 21.12.2019
1960 Clouds 31 1013 22 10000 2.6 230 18:23 21.12.2019
1961 Clouds 29 1013 24 10000 3.1 240 17:57 21.12.2019
1962 Clouds 29 1013 24 10000 3.1 240 17:39 21.12.2019
1963 Clouds 28 1013 24 10000 3.1 240 17:20 21.12.2019
1964 Clouds 27 1013 27 10000 2.6 240 16:57 21.12.2019
1965 Clouds 27 1013 27 10000 2.6 240 16:39 21.12.2019
1966 Clouds 27 1013 27 10000 2.6 240 16:18 21.12.2019
1967 Clouds 26 1014 29 10000 2.1 250 15:56 21.12.2019
1968 Clouds 26 1014 29 10000 2.1 250 15:37 21.12.2019
1969 Clouds 26 1014 29 10000 2.1 250 15:18 21.12.2019
1970 Clouds 24 1014 35 10000 1 210 14:43 21.12.2019
1971 Clouds 24 1014 35 10000 1 210 14:24 21.12.2019
1972 Clouds 23 1014 40 10000 2.01 266 13:58 21.12.2019
1973 Clouds 23 1014 40 10000 2.01 266 13:40 21.12.2019
1974 Clouds 22 1014 40 10000 1.96 269 13:20 21.12.2019
1975 Clouds 22 1014 40 10000 1.96 269 13:20 21.12.2019
1976 Clouds 21 1014 52 10000 1.96 269 12:57 21.12.2019
1977 Clouds 20 1014 52 10000 1.96 269 12:39 21.12.2019
1978 Clouds 21 1014 52 10000 1.96 269 12:20 21.12.2019
1979 Clouds 22 1012 48 10000 1.96 269 11:57 21.12.2019
1980 Clouds 22 1012 48 10000 1.96 269 11:39 21.12.2019
1981 Clouds 17 1012 48 10000 1.05 268 11:20 21.12.2019
1982 Clouds 19 1012 42 10000 2.6 350 10:41 21.12.2019
1983 Clouds 19 1012 42 10000 2.6 350 10:23 21.12.2019
1984 Clouds 19 1012 39 10000 20.6 40 09:58 21.12.2019
1985 Clouds 19 1012 39 10000 20.6 40 09:40 21.12.2019
1986 Clouds 19 1012 39 10000 20.6 40 09:20 21.12.2019
1987 Clouds 19 1012 42 10000 1 0 08:52 21.12.2019
1988 Clouds 19 1012 42 10000 1 0 08:27 21.12.2019
1989 Clouds 19 1013 39 10000 2.1 150 07:58 21.12.2019
1990 Clouds 19 1013 39 10000 2.1 150 07:40 21.12.2019
1991 Clouds 19 1013 39 10000 2.1 150 07:21 21.12.2019
1992 Clouds 20 1013 40 10000 2.1 150 06:41 21.12.2019
1993 Clouds 20 1013 40 10000 2.1 150 06:23 21.12.2019
1994 Clouds 20 1014 37 10000 1.5 160 05:37 21.12.2019
1995 Clouds 21 1014 35 10000 4.1 160 04:55 21.12.2019
1996 Clouds 23 1014 31 10000 4.1 150 03:56 21.12.2019
1997 Clouds 24 1014 29 10000 5.1 190 02:26 21.12.2019
1998 Clear 23 1013 29 10000 8.2 220 01:53 21.12.2019
1999 Clear 25 1013 29 10000 8.2 220 01:26 21.12.2019
2000 Clear 27 1014 24 10000 4.1 240 00:49 21.12.2019
2001 Clear 27 1014 24 10000 4.1 240 00:28 21.12.2019
2002 Clear 29 1014 20 10000 3.6 240 23:40 20.12.2019
2003 Clear 29 1014 20 10000 3.6 240 23:21 20.12.2019
2004 Clear 29 1013 17 10000 3.1 210 22:59 20.12.2019
2005 Clear 30 1013 17 10000 3.1 210 22:39 20.12.2019
2006 Clear 30 1013 17 10000 3.1 210 22:19 20.12.2019
2007 Clear 30 1015 15 10000 3.6 200 21:56 20.12.2019
2008 Clear 30 1015 15 10000 3.6 200 21:38 20.12.2019
2009 Clear 30 1015 15 10000 3.6 200 21:18 20.12.2019
2010 Clear 29 1015 18 10000 3.6 210 20:39 20.12.2019
2011 Clear 29 1015 18 10000 3.6 210 20:19 20.12.2019
2012 Clear 29 1015 21 10000 3.6 240 19:57 20.12.2019
2013 Clear 28 1015 21 10000 3.6 240 19:38 20.12.2019
2014 Clear 29 1015 21 10000 3.6 240 19:19 20.12.2019
2015 Clear 28 1016 28 10000 2.1 260 18:42 20.12.2019
2016 Clear 28 1016 28 10000 2.1 260 18:23 20.12.2019
2017 Clear 27 1017 34 10000 2.6 240 17:58 20.12.2019
2018 Clear 27 1017 34 10000 2.6 240 17:40 20.12.2019
2019 Clear 26 1017 34 10000 2.6 240 17:20 20.12.2019
2020 Clear 25 1017 38 10000 1.5 210 16:57 20.12.2019
2021 Clear 25 1017 38 10000 1.5 210 16:38 20.12.2019
2022 Clear 25 1017 38 10000 1.5 210 16:19 20.12.2019
2023 Clear 24 1017 43 10000 2.1 330 15:55 20.12.2019
2024 Clear 24 1017 43 10000 2.1 330 15:37 20.12.2019
2025 Clear 24 1017 43 10000 2.1 330 15:19 20.12.2019
2026 Clear 21 1018 55 10000 1 260 14:43 20.12.2019
2027 Clear 22 1018 55 10000 1 260 14:24 20.12.2019
2028 Clear 21 1018 55 10000 1.5 150 13:57 20.12.2019
2029 Clear 21 1018 55 10000 1.5 150 13:38 20.12.2019
2030 Clear 19 1018 55 10000 1.5 150 13:19 20.12.2019
2031 Clear 18 1018 59 10000 2.4 252 12:57 20.12.2019
2032 Clear 19 1018 59 10000 2.4 252 12:37 20.12.2019
2033 Clear 19 1018 59 10000 2.4 252 12:18 20.12.2019
2034 Clear 20 1017 67 10000 2.6 160 11:57 20.12.2019
2035 Clear 21 1017 67 10000 2.6 160 11:39 20.12.2019
2036 Clear 15 1017 67 10000 2.6 160 11:18 20.12.2019
2037 Clear 16 1016 67 10000 4.1 180 10:56 20.12.2019
2038 Clear 15 1016 67 10000 4.1 180 10:38 20.12.2019
2039 Clear 15 1016 67 10000 4.1 180 10:19 20.12.2019
2040 Clear 15 1015 67 10000 0.5 0 09:43 20.12.2019
2041 Clear 15 1015 67 10000 0.5 0 09:21 20.12.2019
2042 Clear 15 1015 67 10000 1 0 08:58 20.12.2019
2043 Clear 15 1015 67 10000 1 0 08:40 20.12.2019
2044 Clear 15 1015 67 10000 1 0 08:21 20.12.2019
2045 Clear 16 1016 63 10000 2.1 200 07:57 20.12.2019
2046 Clear 16 1016 63 10000 2.1 200 07:38 20.12.2019
2047 Clear 16 1016 63 10000 2.1 200 07:18 20.12.2019
2048 Clear 17 1016 59 10000 3.1 130 06:48 20.12.2019
2049 Clear 18 1016 59 10000 3.1 130 06:29 20.12.2019
2050 Clear 18 1016 59 10000 3.6 150 05:49 20.12.2019
2051 Clear 18 1016 59 10000 3.6 150 05:20 20.12.2019
2052 Clouds 20 1016 45 10000 4.1 200 03:50 20.12.2019
2053 Clouds 20 1016 45 10000 4.1 200 03:21 20.12.2019
2054 Clouds 20 1016 40 10000 5.7 190 02:30 20.12.2019
2055 Clouds 21 1017 40 10000 2.1 250 01:36 20.12.2019
2056 Clouds 23 1017 35 10000 2.1 230 00:58 20.12.2019
2057 Clouds 23 1017 35 10000 2.1 230 00:36 20.12.2019
2058 Clouds 23 1017 35 10000 1.5 270 23:58 19.12.2019
2059 Clouds 23 1017 35 10000 1.5 270 23:40 19.12.2019
2060 Clouds 23 1017 35 10000 1.5 270 23:21 19.12.2019
2061 Clouds 23 1017 35 10000 1.5 270 23:21 19.12.2019
2062 Clouds 24 1017 38 10000 4.1 230 22:40 19.12.2019
2063 Clouds 24 1017 38 10000 4.1 230 22:22 19.12.2019
2064 Clouds 25 1016 33 10000 5.1 240 21:59 19.12.2019
2065 Clouds 25 1016 33 10000 5.1 240 21:59 19.12.2019
2066 Clouds 25 1016 33 10000 5.1 240 21:41 19.12.2019
2067 Clouds 25 1016 33 10000 5.1 240 21:19 19.12.2019
2068 Clouds 26 1016 34 10000 3.6 220 20:58 19.12.2019
2069 Clouds 27 1016 34 10000 3.6 220 20:38 19.12.2019
2070 Clouds 27 1016 34 10000 3.6 220 20:20 19.12.2019
2071 Clouds 27 1016 28 10000 2.6 0 19:58 19.12.2019
2072 Clouds 27 1016 28 10000 2.6 0 19:40 19.12.2019
2073 Clouds 27 1016 28 10000 2.6 0 19:40 19.12.2019
2074 Clouds 28 1016 28 10000 2.6 0 19:20 19.12.2019
2075 Clouds 28 1016 28 10000 2.6 0 19:20 19.12.2019
2076 Clouds 28 1016 28 10000 2.6 0 19:20 19.12.2019
2077 Clouds 28 1016 28 10000 2.6 0 19:19 19.12.2019
2078 Clouds 28 1016 29 10000 1.5 0 18:58 19.12.2019
2079 Clouds 27 1016 29 10000 1.5 0 18:40 19.12.2019
2080 Clouds 27 1016 29 10000 1.5 0 18:20 19.12.2019
2081 Clouds 27 1016 36 10000 2.1 290 17:56 19.12.2019
2082 Clouds 27 1016 36 10000 2.1 290 17:38 19.12.2019
2083 Clouds 25 1016 36 10000 2.1 290 17:18 19.12.2019
2084 Clouds 25 1017 38 10000 1 60 16:56 19.12.2019
2085 Clouds 25 1017 38 10000 1 60 16:56 19.12.2019
2086 Clouds 25 1017 38 10000 1 60 16:38 19.12.2019
2087 Clouds 25 1017 38 10000 1 60 16:19 19.12.2019
2088 Clouds 24 1016 37 10000 2.1 240 15:58 19.12.2019
2089 Clouds 25 1016 37 10000 2.1 240 15:38 19.12.2019
2090 Clouds 24 1016 37 10000 2.1 240 15:19 19.12.2019
2091 Clouds 23 1016 37 10000 3.19 257 14:57 19.12.2019
2092 Clouds 23 1016 37 10000 3.19 257 14:38 19.12.2019
2093 Clouds 22 1016 37 10000 1.39 303 14:18 19.12.2019
2094 Clouds 21 1015 42 10000 1.5 260 13:39 19.12.2019
2095 Clouds 21 1015 42 10000 1.5 260 13:20 19.12.2019
2096 Clouds 19 1015 48 10000 1.74 279 12:58 19.12.2019
2097 Clouds 19 1015 48 10000 1.74 279 12:40 19.12.2019
2098 Clouds 21 1015 48 10000 1.74 279 12:19 19.12.2019
2099 Clouds 21 1013 42 10000 3.1 170 11:59 19.12.2019
2100 Clouds 21 1013 42 10000 3.1 170 11:41 19.12.2019
2101 Clouds 18 1013 42 10000 3.1 170 11:18 19.12.2019
2102 Clouds 19 1013 42 10000 3.6 160 10:59 19.12.2019
2103 Clouds 19 1013 42 10000 3.6 160 10:38 19.12.2019
2104 Clouds 19 1013 42 10000 3.6 160 10:38 19.12.2019
2105 Clouds 18 1013 42 10000 3.6 160 10:20 19.12.2019
2106 Clouds 19 1012 39 10000 3.1 150 09:56 19.12.2019
2107 Clouds 19 1012 39 10000 3.1 150 09:37 19.12.2019
2108 Clouds 19 1012 39 10000 3.1 150 09:37 19.12.2019
2109 Clouds 19 1012 39 10000 3.1 150 09:19 19.12.2019
2110 Clouds 19 1012 42 10000 1.12 262 08:55 19.12.2019
2111 Clouds 19 1012 42 10000 1.12 262 08:55 19.12.2019
2112 Clouds 19 1012 42 10000 1.12 262 08:37 19.12.2019
2113 Clouds 19 1012 42 10000 0.78 246 08:18 19.12.2019
2114 Clouds 20 1013 40 10000 2.6 160 07:41 19.12.2019
2115 Clouds 20 1013 40 10000 2.6 160 07:41 19.12.2019
2116 Clouds 20 1013 40 10000 2.6 160 07:23 19.12.2019
2117 Clouds 21 1013 37 10000 3.6 140 06:58 19.12.2019
2118 Clouds 21 1013 37 10000 3.6 140 06:39 19.12.2019
2119 Clouds 21 1013 37 10000 3.6 140 06:21 19.12.2019
2120 Clouds 22 1013 35 10000 3.1 130 05:42 19.12.2019
2121 Clouds 22 1013 35 10000 3.1 130 05:19 19.12.2019
2122 Clouds 25 1013 27 10000 5.7 170 03:53 19.12.2019
2123 Clouds 26 1012 29 10000 7.7 190 02:28 19.12.2019
2124 Clouds 26 1014 29 10000 2.6 210 01:25 19.12.2019
2125 Clouds 27 1013 25 10000 3.6 220 00:58 19.12.2019
2126 Clouds 28 1013 25 10000 3.6 220 00:39 19.12.2019
2127 Clouds 28 1013 25 10000 3.6 220 00:19 19.12.2019
2128 Clouds 29 1012 25 10000 4.1 230 23:44 18.12.2019
2129 Clouds 30 1012 25 10000 4.1 230 23:19 18.12.2019
2130 Clouds 31 1012 21 10000 3.1 240 22:57 18.12.2019
2131 Clouds 31 1012 21 10000 3.1 240 22:39 18.12.2019
2132 Clouds 31 1012 21 10000 3.1 240 22:39 18.12.2019
2133 Clouds 31 1012 21 10000 3.1 240 22:21 18.12.2019
2134 Clouds 31 1012 15 10000 3.6 220 21:59 18.12.2019
2135 Clouds 32 1012 15 10000 3.6 220 21:40 18.12.2019
2136 Clouds 31 1012 15 10000 3.6 220 21:20 18.12.2019
2137 Clouds 31 1013 17 10000 4.1 240 20:57 18.12.2019
2138 Clouds 31 1013 17 10000 4.1 240 20:38 18.12.2019
2139 Clouds 31 1013 17 10000 4.1 240 20:20 18.12.2019
2140 Clouds 31 1013 20 10000 3.6 230 19:57 18.12.2019
2141 Clouds 31 1013 20 10000 3.6 230 19:39 18.12.2019
2142 Clouds 31 1013 20 10000 3.6 230 19:19 18.12.2019
2143 Clouds 31 1013 16 10000 3.1 270 18:55 18.12.2019
2144 Clouds 31 1013 16 10000 3.1 270 18:37 18.12.2019
2145 Clouds 32 1013 16 10000 3.1 270 18:18 18.12.2019
2146 Clouds 31 1013 19 10000 2.6 240 17:55 18.12.2019
2147 Clouds 30 1013 19 10000 2.6 240 17:37 18.12.2019
2148 Clouds 30 1013 19 10000 2.6 240 17:18 18.12.2019
2149 Smoke 28 1014 21 10000 2.1 210 16:42 18.12.2019
2150 Smoke 28 1014 21 10000 2.1 210 16:23 18.12.2019
2151 Smoke 27 1014 25 10000 1 250 15:57 18.12.2019
2152 Smoke 27 1014 25 10000 1 250 15:39 18.12.2019
2153 Smoke 27 1014 25 10000 1 250 15:21 18.12.2019
2154 Smoke 25 1014 31 10000 1.5 210 14:56 18.12.2019
2155 Smoke 25 1014 31 10000 1.5 210 14:38 18.12.2019
2156 Smoke 25 1014 31 10000 1.5 210 14:19 18.12.2019
2157 Smoke 22 1013 37 10000 1 220 13:55 18.12.2019
2158 Smoke 23 1013 37 10000 1 220 13:36 18.12.2019
2159 Smoke 23 1013 37 10000 1 220 13:18 18.12.2019
2160 Smoke 20 1013 51 10000 1.85 265 12:40 18.12.2019
2161 Smoke 20 1013 51 10000 1.85 265 12:21 18.12.2019
2162 Clear 22 1012 51 10000 2.1 320 11:57 18.12.2019
2163 Clear 22 1012 51 10000 2.1 320 11:39 18.12.2019
2164 Clear 15 1012 51 10000 2.1 320 11:20 18.12.2019
2165 Clear 17 1012 48 10000 1 0 10:58 18.12.2019
2166 Clear 17 1012 48 10000 1 0 10:39 18.12.2019
2167 Clear 17 1012 48 10000 1 0 10:39 18.12.2019
2168 Clear 17 1012 48 10000 1 0 10:20 18.12.2019
2169 Clear 17 1011 45 8000 0.14 291 09:58 18.12.2019
2170 Clear 17 1011 45 8000 0.14 291 09:20 18.12.2019
2171 Clear 17 1011 48 10000 1 0 08:43 18.12.2019
2172 Clear 17 1011 48 10000 1 0 08:25 18.12.2019
2173 Clear 19 1011 39 10000 0.47 261 07:57 18.12.2019
2174 Clear 19 1011 39 10000 0.47 261 07:39 18.12.2019
2175 Clear 19 1011 39 10000 0.47 261 07:20 18.12.2019
2176 Clear 20 1011 40 10000 1 0 06:52 18.12.2019
2177 Clear 20 1011 40 10000 1 0 06:25 18.12.2019
2178 Clear 21 1011 37 10000 2.6 150 05:36 18.12.2019
2179 Clear 24 1011 31 10000 3.1 150 04:31 18.12.2019
2180 Clear 26 1010 24 10000 5.7 190 02:47 18.12.2019
2181 Clear 27 1010 24 10000 5.7 190 02:28 18.12.2019
2182 Clouds 27 1011 20 10000 2.1 230 01:45 18.12.2019
2183 Clouds 27 1011 20 10000 2.1 230 01:27 18.12.2019
2184 Clouds 29 1011 18 10000 3.6 240 00:55 18.12.2019
2185 Clouds 29 1011 18 10000 3.6 240 00:37 18.12.2019
2186 Clouds 29 1011 18 10000 3.6 240 00:19 18.12.2019
2187 Clouds 30 1011 18 10000 3.6 240 23:43 17.12.2019
2188 Clouds 30 1011 18 10000 3.6 240 23:43 17.12.2019
2189 Clouds 30 1011 18 10000 3.6 240 23:24 17.12.2019
2190 Clouds 30 1011 16 10000 4.1 240 22:57 17.12.2019
2191 Clouds 30 1011 16 10000 4.1 240 22:39 17.12.2019
2192 Clouds 31 1011 16 10000 4.1 240 22:20 17.12.2019
2193 Clouds 31 1011 14 10000 4.6 240 21:57 17.12.2019
2194 Clouds 31 1011 14 10000 4.6 240 21:39 17.12.2019
2195 Clouds 31 1011 14 10000 4.6 240 21:20 17.12.2019
2196 Clouds 31 1011 14 10000 3.1 190 20:59 17.12.2019
2197 Clouds 31 1011 14 10000 3.1 190 20:40 17.12.2019
2198 Clouds 31 1011 14 10000 3.1 190 20:19 17.12.2019
2199 Clouds 31 1012 18 10000 3.6 240 19:57 17.12.2019
2200 Clouds 31 1012 18 10000 3.6 240 19:39 17.12.2019
2201 Clouds 30 1012 18 10000 3.6 240 19:20 17.12.2019
2202 Clouds 31 1012 20 10000 4.1 210 18:57 17.12.2019
2203 Clouds 31 1012 20 10000 4.1 210 18:38 17.12.2019
2204 Clouds 31 1012 20 10000 4.1 210 18:20 17.12.2019
2205 Clouds 29 1012 24 10000 2.1 280 17:55 17.12.2019
2206 Clouds 29 1012 24 10000 2.1 280 17:37 17.12.2019
2207 Clouds 29 1012 24 10000 2.1 280 17:18 17.12.2019
2208 Clouds 28 1013 26 10000 2.1 220 16:55 17.12.2019
2209 Clouds 28 1013 26 10000 2.1 220 16:36 17.12.2019
2210 Clouds 27 1013 26 10000 2.1 220 16:18 17.12.2019
2211 Clouds 26 1013 29 10000 1.5 0 15:38 17.12.2019
2212 Clouds 26 1013 29 10000 1.5 0 15:20 17.12.2019
2213 Clouds 24 1013 37 10000 1.5 180 14:57 17.12.2019
2214 Clouds 24 1013 37 10000 1.5 180 14:38 17.12.2019
2215 Clouds 23 1013 37 10000 1.5 180 14:19 17.12.2019
2216 Clouds 21 1013 42 10000 0.5 220 13:59 17.12.2019
2217 Clouds 21 1013 42 10000 0.5 220 13:40 17.12.2019
2218 Clouds 21 1013 42 10000 0.5 220 13:19 17.12.2019
2219 Clouds 20 1013 52 10000 2.1 273 12:59 17.12.2019
2220 Clouds 21 1013 52 10000 2.1 273 12:38 17.12.2019
2221 Clouds 22 1013 52 10000 2.1 273 12:18 17.12.2019
2222 Clouds 21 1012 58 10000 2.1 273 11:57 17.12.2019
2223 Clouds 21 1012 58 10000 2.1 273 11:37 17.12.2019
2224 Clouds 14 1012 58 10000 0.8 3 11:18 17.12.2019
2225 Clouds 16 1012 51 10000 0.5 0 10:57 17.12.2019
2226 Clouds 16 1012 51 10000 0.5 0 10:38 17.12.2019
2227 Clouds 16 1012 51 10000 0.5 0 10:19 17.12.2019
2228 Clouds 16 1012 51 10000 0.5 0 10:19 17.12.2019
2229 Clouds 15 1011 58 10000 0.8 3 09:55 17.12.2019
2230 Clouds 15 1011 58 10000 0.8 3 09:37 17.12.2019
2231 Clouds 16 1011 58 10000 0.8 3 09:18 17.12.2019
2232 Clouds 17 1011 48 10000 0.8 3 08:40 17.12.2019
2233 Clear 17 1011 48 10000 0.42 284 08:22 17.12.2019
2234 Clear 18 1012 48 10000 2.1 140 07:59 17.12.2019
2235 Clear 18 1012 48 10000 2.1 140 07:41 17.12.2019
2236 Clear 18 1012 48 10000 2.1 140 07:22 17.12.2019
2237 Clear 19 1012 45 10000 3.1 140 06:50 17.12.2019
2238 Clear 19 1012 45 10000 3.1 140 06:32 17.12.2019
2239 Clear 20 1012 42 10000 3.1 160 05:42 17.12.2019
2240 Clear 22 1012 37 10000 4.1 140 04:58 17.12.2019
2241 Clear 23 1012 33 10000 3.1 150 03:55 17.12.2019
2242 Clear 25 1012 31 10000 4.6 190 02:26 17.12.2019
2243 Clear 25 1013 26 10000 2.6 230 01:22 17.12.2019
2244 Clear 27 1012 22 10000 4.1 230 00:47 17.12.2019
2245 Clear 26 1012 22 10000 4.1 230 00:22 17.12.2019
2246 Clear 28 1012 21 10000 3.6 260 23:57 16.12.2019
2247 Clear 28 1012 21 10000 3.6 260 23:38 16.12.2019
2248 Clouds 28 1012 21 10000 3.6 260 23:18 16.12.2019
2249 Clouds 29 1012 19 10000 3.1 210 22:54 16.12.2019
2250 Clouds 29 1012 19 10000 3.1 210 22:36 16.12.2019
2251 Clouds 29 1012 19 10000 3.1 210 22:18 16.12.2019
2252 Clouds 29 1012 19 10000 3.6 260 21:54 16.12.2019
2253 Clouds 29 1012 19 10000 3.6 260 21:36 16.12.2019
2254 Clouds 29 1012 19 10000 3.6 260 21:18 16.12.2019
2255 Clouds 29 1012 21 10000 3.1 210 20:54 16.12.2019
2256 Clouds 29 1012 21 10000 3.1 210 20:36 16.12.2019
2257 Clouds 29 1012 21 10000 3.1 210 20:18 16.12.2019
2258 Clouds 28 1013 24 10000 3.1 230 19:54 16.12.2019
2259 Clouds 28 1013 24 10000 3.1 230 19:36 16.12.2019
2260 Clouds 28 1013 24 10000 3.1 230 19:18 16.12.2019
2261 Clouds 28 1013 24 10000 3.1 230 19:18 16.12.2019
2262 Clear 28 1013 24 10000 2.6 250 18:42 16.12.2019
2263 Clear 28 1013 24 10000 2.6 250 18:42 16.12.2019
2264 Clear 27 1013 24 10000 2.6 250 18:20 16.12.2019
2265 Clear 27 1013 24 10000 2.6 250 18:20 16.12.2019
2266 Clear 26 1014 27 10000 3.6 240 17:59 16.12.2019
2267 Clear 26 1014 27 10000 3.6 240 17:41 16.12.2019
2268 Clear 26 1014 27 10000 3.6 240 17:22 16.12.2019
2269 Clear 25 1014 29 10000 1.5 280 16:58 16.12.2019
2270 Clear 25 1014 29 10000 1.5 280 16:39 16.12.2019
2271 Clear 25 1014 29 10000 1.5 280 16:39 16.12.2019
2272 Clear 25 1014 29 10000 1.5 280 16:20 16.12.2019
2273 Clear 24 1015 33 10000 2.1 240 15:59 16.12.2019
2274 Clear 24 1015 33 10000 2.1 240 15:39 16.12.2019
2275 Clear 23 1015 33 10000 2.1 240 15:21 16.12.2019
2276 Clear 22 1015 37 10000 3.54 254 14:57 16.12.2019
2277 Clear 22 1015 37 10000 3.54 254 14:38 16.12.2019
2278 Clouds 20 1015 37 10000 1.08 278 14:19 16.12.2019
2279 Clouds 19 1016 45 10000 1.08 278 13:57 16.12.2019
2280 Clouds 18 1016 45 10000 1.08 278 13:38 16.12.2019
2281 Clouds 18 1016 45 10000 1.08 278 13:20 16.12.2019
2282 Clouds 16 1016 51 10000 1.72 264 12:58 16.12.2019
2283 Clouds 20 1016 51 10000 1.71 265 12:39 16.12.2019
2284 Clouds 19 1016 51 10000 1.71 265 12:19 16.12.2019
2285 Clouds 20 1015 58 10000 1 0 11:59 16.12.2019
2286 Clouds 19 1015 58 10000 1 0 11:40 16.12.2019
2287 Clouds 13 1015 58 10000 1 0 11:20 16.12.2019
2288 Clouds 15 1015 54 10000 1.5 310 10:58 16.12.2019
2289 Clouds 15 1015 54 10000 1.5 310 10:39 16.12.2019
2290 Clouds 15 1015 54 10000 1.5 310 10:20 16.12.2019
2291 Clouds 17 1015 45 10000 2.1 120 09:45 16.12.2019
2292 Clouds 17 1015 45 10000 2.1 120 09:27 16.12.2019
2293 Clouds 15 1015 51 10000 0.31 330 08:57 16.12.2019
2294 Clouds 15 1015 51 10000 0.49 31 08:38 16.12.2019
2295 Clouds 15 1015 51 10000 1.16 230 08:18 16.12.2019
2296 Clouds 17 1015 48 10000 1.5 180 07:47 16.12.2019
2297 Clouds 17 1015 48 10000 1.5 180 07:28 16.12.2019
2298 Clouds 17 1016 48 10000 3.1 150 06:45 16.12.2019
2299 Clouds 17 1016 48 10000 3.1 150 06:26 16.12.2019
2300 Clouds 19 1016 42 10000 4.6 160 05:52 16.12.2019
2301 Clouds 19 1016 42 10000 4.6 160 05:33 16.12.2019
2302 Clouds 20 1016 37 10000 4.1 160 04:22 16.12.2019
2303 Clouds 22 1016 28 10000 6.2 190 02:31 16.12.2019
2304 Clouds 22 1017 28 10000 1.5 230 01:45 16.12.2019
2305 Clouds 22 1017 28 10000 1.5 230 01:45 16.12.2019
2306 Clouds 25 1017 29 10000 3.1 230 00:43 16.12.2019
2307 Clouds 25 1017 29 10000 3.1 230 00:25 16.12.2019
2308 Clouds 26 1016 26 10000 5.1 230 23:59 15.12.2019
2309 Clouds 26 1016 26 10000 5.1 230 23:59 15.12.2019
2310 Clouds 26 1016 26 10000 5.1 230 23:39 15.12.2019
2311 Clouds 26 1016 26 10000 5.1 230 23:20 15.12.2019
2312 Clouds 27 1015 24 10000 4.6 210 22:56 15.12.2019
2313 Clouds 27 1015 24 10000 4.6 210 22:56 15.12.2019
2314 Clouds 27 1015 24 10000 4.6 210 22:37 15.12.2019
2315 Clouds 28 1015 24 10000 4.6 210 22:18 15.12.2019
2316 Clouds 27 1016 24 10000 4.1 240 21:56 15.12.2019
2317 Clouds 28 1016 24 10000 4.1 240 21:37 15.12.2019
2318 Clouds 28 1016 24 10000 4.1 240 21:19 15.12.2019
2319 Clouds 28 1016 24 10000 4.6 240 20:56 15.12.2019
2320 Clouds 28 1016 24 10000 4.6 240 20:37 15.12.2019
2321 Clouds 28 1016 24 10000 4.6 240 20:19 15.12.2019
2322 Clouds 28 1016 26 10000 3.1 180 19:57 15.12.2019
2323 Clouds 28 1016 26 10000 3.1 180 19:57 15.12.2019
2324 Clouds 28 1016 26 10000 3.1 180 19:38 15.12.2019
2325 Clouds 27 1016 26 10000 3.1 180 19:18 15.12.2019
2326 Clouds 27 1016 26 10000 3.1 180 19:18 15.12.2019
2327 Clear 27 1017 31 10000 2.1 260 18:56 15.12.2019
2328 Clear 27 1017 31 10000 2.1 260 18:56 15.12.2019
2329 Clear 28 1017 31 10000 2.1 260 18:38 15.12.2019
2330 Clear 27 1017 31 10000 2.1 260 18:18 15.12.2019
2331 Clear 27 1017 31 10000 2.1 260 18:18 15.12.2019
2332 Clear 26 1017 31 10000 2.1 190 17:56 15.12.2019
2333 Clear 26 1017 31 10000 2.1 190 17:37 15.12.2019
2334 Clear 26 1017 31 10000 2.1 190 17:18 15.12.2019
2335 Clear 25 1018 33 10000 2.6 240 16:54 15.12.2019
2336 Clear 24 1018 33 10000 2.6 240 16:36 15.12.2019
2337 Clouds 24 1018 33 10000 2.6 240 16:18 15.12.2019
2338 Clear 23 1019 35 10000 3.3 259 15:54 15.12.2019
2339 Clear 23 1019 35 10000 3.3 259 15:36 15.12.2019
2340 Clear 23 1019 35 10000 3.3 259 15:18 15.12.2019
2341 Clouds 21 1019 39 10000 3.65 262 14:54 15.12.2019
2342 Clear 20 1019 39 10000 3.3 259 14:36 15.12.2019
2343 Clouds 20 1019 39 10000 2.38 258 14:18 15.12.2019
2344 Clouds 20 1019 39 10000 2.38 258 14:18 15.12.2019
2345 Clouds 17 1019 44 10000 2.38 258 13:54 15.12.2019
2346 Clouds 19 1019 44 10000 2.31 264 13:36 15.12.2019
2347 Clouds 17 1019 44 10000 2.31 264 13:18 15.12.2019
2348 Clouds 18 1019 58 10000 2.31 264 12:55 15.12.2019
2349 Clouds 18 1019 58 10000 2.31 264 12:36 15.12.2019
2350 Clouds 18 1019 58 10000 2.31 264 12:18 15.12.2019
2351 Clouds 19 1018 54 10000 1.5 210 11:38 15.12.2019
2352 Clouds 19 1018 54 10000 1.5 210 11:38 15.12.2019
2353 Clouds 19 1018 54 10000 1.5 210 11:38 15.12.2019
2354 Clouds 14 1018 54 10000 1.5 210 11:19 15.12.2019
2355 Clouds 14 1018 50 10000 3.1 150 10:56 15.12.2019
2356 Clouds 14 1018 50 10000 3.1 150 10:38 15.12.2019
2357 Clouds 14 1018 50 10000 3.1 150 10:38 15.12.2019
2358 Clouds 14 1018 50 10000 3.1 150 10:19 15.12.2019
2359 Clouds 14 1017 47 10000 3.1 160 09:57 15.12.2019
2360 Clouds 14 1017 47 10000 3.1 160 09:37 15.12.2019
2361 Clouds 14 1017 47 10000 3.1 160 09:19 15.12.2019
2362 Clouds 14 1017 44 10000 2.1 180 08:42 15.12.2019
2363 Clouds 14 1017 44 10000 2.1 180 08:23 15.12.2019
2364 Clear 15 1018 36 10000 2.1 160 07:59 15.12.2019
2365 Clear 16 1018 36 10000 2.1 160 07:38 15.12.2019
2366 Clear 15 1018 36 10000 2.1 160 07:19 15.12.2019
2367 Clear 16 1018 58 10000 4.1 150 06:24 15.12.2019
2368 Clear 17 1018 27 10000 3.6 130 05:42 15.12.2019
2369 Rain 17 1018 27 10000 3.6 130 05:20 15.12.2019
2370 Rain 18 1018 31 10000 3.6 140 04:20 15.12.2019
2371 Rain 20 1017 37 10000 5.1 210 02:50 15.12.2019
2372 Rain 21 1017 37 10000 5.1 210 02:31 15.12.2019
2373 Clouds 21 1019 33 10000 2.78 238 01:40 15.12.2019
2374 Clouds 21 1019 33 10000 2.32 235 01:18 15.12.2019
2375 Clouds 24 1019 28 10000 2.1 220 00:49 15.12.2019
2376 Clouds 24 1019 28 10000 2.1 220 00:31 15.12.2019
2377 Clouds 24 1018 31 10000 2.1 190 23:41 14.12.2019
2378 Clouds 24 1018 31 10000 2.1 190 23:22 14.12.2019
2379 Clouds 23 1018 33 10000 2.1 180 22:59 14.12.2019
2380 Clouds 23 1018 33 10000 2.1 180 22:41 14.12.2019
2381 Clouds 24 1018 33 10000 2.1 180 22:22 14.12.2019
2382 Clouds 23 1019 33 8000 3.6 240 21:58 14.12.2019
2383 Clouds 22 1019 33 8000 3.6 240 21:39 14.12.2019
2384 Clouds 23 1019 33 8000 3.6 240 21:19 14.12.2019
2385 Clouds 23 1019 35 7000 3.6 210 20:59 14.12.2019
2386 Clouds 23 1019 35 7000 3.6 210 20:41 14.12.2019
2387 Clouds 24 1019 35 7000 3.6 210 20:20 14.12.2019
2388 Clouds 24 1019 35 7000 2.1 210 19:57 14.12.2019
2389 Clouds 24 1019 35 7000 2.1 210 19:38 14.12.2019
2390 Clouds 24 1019 35 7000 2.1 210 19:20 14.12.2019
2391 Clouds 24 1019 37 7000 3.6 210 18:56 14.12.2019
2392 Clouds 23 1019 37 7000 3.6 210 18:38 14.12.2019
2393 Clouds 23 1019 37 7000 3.6 210 18:38 14.12.2019
2394 Clouds 24 1019 37 7000 3.6 210 18:19 14.12.2019
2395 Clouds 24 1018 27 8000 1.5 240 17:44 14.12.2019
2396 Clouds 24 1018 27 8000 1.5 240 17:24 14.12.2019
2397 Clouds 24 1017 35 8000 1.5 330 16:58 14.12.2019
2398 Clouds 24 1017 35 8000 1.5 330 16:40 14.12.2019
2399 Clouds 24 1017 35 8000 1.5 330 16:19 14.12.2019
2400 Clouds 24 1017 35 8000 1.5 330 16:19 14.12.2019
2401 Clouds 22 1017 34 8000 2.1 210 15:43 14.12.2019
2402 Clouds 22 1017 34 8000 2.1 210 15:24 14.12.2019
2403 Clouds 20 1017 32 8000 3.61 262 14:59 14.12.2019
2404 Clouds 21 1017 32 8000 3.61 262 14:39 14.12.2019
2405 Clouds 20 1017 32 8000 1.96 258 14:20 14.12.2019
2406 Clouds 19 1016 39 8000 0.5 240 13:57 14.12.2019
2407 Clouds 20 1016 39 8000 0.5 240 13:39 14.12.2019
2408 Clouds 19 1016 39 8000 0.5 240 13:19 14.12.2019
2409 Clouds 19 1016 39 8000 0.5 240 13:19 14.12.2019
2410 Clouds 18 1017 42 8000 2.17 257 12:55 14.12.2019
2411 Clouds 19 1017 42 8000 1.86 254 12:37 14.12.2019
2412 Clouds 19 1017 42 8000 2.17 257 12:18 14.12.2019
2413 Clouds 20 1015 54 10000 1.5 250 11:55 14.12.2019
2414 Clouds 20 1015 54 10000 1.5 250 11:37 14.12.2019
2415 Clouds 15 1015 54 10000 1.5 250 11:18 14.12.2019
2416 Clouds 17 1014 48 10000 1 0 10:55 14.12.2019
2417 Clouds 16 1014 48 10000 1 0 10:37 14.12.2019
2418 Clouds 16 1014 48 10000 1 0 10:18 14.12.2019
2419 Clouds 15 1014 51 10000 1 0 09:40 14.12.2019
2420 Clouds 15 1014 51 10000 1 0 09:21 14.12.2019
2421 Clouds 16 1014 48 10000 2.1 270 08:45 14.12.2019
2422 Clouds 16 1014 48 10000 2.1 270 08:20 14.12.2019
2423 Clouds 17 1015 45 10000 1.5 170 07:57 14.12.2019
2424 Clouds 17 1015 45 10000 1.5 170 07:38 14.12.2019
2425 Clouds 17 1015 45 10000 1.5 170 07:19 14.12.2019
2426 Clouds 17 1015 42 10000 2.6 170 06:41 14.12.2019
2427 Clouds 17 1015 42 10000 2.6 170 06:22 14.12.2019
2428 Clouds 18 1015 39 10000 4.1 150 05:22 14.12.2019
2429 Clouds 22 1015 18 10000 5.7 140 02:49 14.12.2019
2430 Clouds 22 1015 18 10000 5.7 140 02:22 14.12.2019
2431 Clouds 23 1017 20 10000 2.1 240 01:43 14.12.2019
2432 Clear 24 1016 16 9000 3.6 230 00:54 14.12.2019
2433 Clear 24 1016 16 9000 3.6 230 00:54 14.12.2019
2434 Clear 25 1016 16 9000 3.6 230 00:36 14.12.2019
2435 Clear 25 1016 16 9000 3.6 230 00:18 14.12.2019
2436 Clear 26 1016 22 8000 4.1 220 23:39 13.12.2019
2437 Clear 27 1016 16 8000 4.1 220 23:19 13.12.2019
2438 Clear 28 1015 12 10000 5.7 260 22:55 13.12.2019
2439 Clear 28 1015 12 10000 5.7 260 22:36 13.12.2019
2440 Clear 29 1015 12 10000 5.7 260 22:18 13.12.2019
2441 Clear 29 1015 13 10000 4.6 240 21:40 13.12.2019
2442 Clear 29 1015 13 10000 4.6 240 21:21 13.12.2019
2443 Clear 31 1015 16 10000 4.6 240 20:57 13.12.2019
2444 Clear 30 1011 19 0 4.92 245 20:38 13.12.2019
2445 Clouds 30 1015 12 10000 3.6 240 20:19 13.12.2019
2446 Clouds 30 1015 12 10000 3.6 240 19:56 13.12.2019
2447 Clouds 30 1015 12 10000 3.6 240 19:56 13.12.2019
2448 Clouds 30 1015 12 10000 3.6 240 19:37 13.12.2019
2449 Clouds 30 1015 12 10000 3.6 240 19:18 13.12.2019
2450 Clouds 31 1015 11 7000 3.1 260 18:42 13.12.2019
2451 Clouds 31 1015 11 7000 3.1 260 18:20 13.12.2019
2452 Clouds 31 1015 11 7000 3.1 260 18:20 13.12.2019
2453 Clouds 30 1016 11 7000 2.1 270 17:59 13.12.2019
2454 Clouds 29 1016 11 7000 2.1 270 17:39 13.12.2019
2455 Clouds 28 1016 21 7000 1 210 17:18 13.12.2019
2456 Clouds 28 1016 21 7000 1 210 16:56 13.12.2019
2457 Clouds 28 1016 21 7000 1 210 16:38 13.12.2019
2458 Clouds 27 1016 21 7000 1 210 16:19 13.12.2019
2459 Clouds 27 1016 24 8000 1.5 190 15:42 13.12.2019
2460 Clouds 26 1016 24 8000 1.5 190 15:21 13.12.2019
2461 Clouds 25 1016 22 8000 3.1 240 14:57 13.12.2019
2462 Clouds 25 1016 22 8000 3.1 240 14:37 13.12.2019
2463 Clouds 24 1016 22 8000 3.1 240 14:18 13.12.2019
2464 Clouds 23 1015 19 7000 2.1 120 13:43 13.12.2019
2465 Clouds 21 1015 19 7000 2.1 120 13:24 13.12.2019
2466 Clouds 18 1022 44 7000 2.07 268 12:55 13.12.2019
2467 Clouds 21 1022 44 7000 2.07 268 12:37 13.12.2019
2468 Clouds 21 1022 44 7000 2.07 268 12:18 13.12.2019
2469 Clouds 21 1013 41 10000 1.5 50 11:43 13.12.2019
2470 Clouds 14 1013 41 10000 1.5 50 11:24 13.12.2019
2471 Clear 14 1013 44 10000 2.1 290 10:56 13.12.2019
2472 Clear 14 1013 44 10000 2.1 290 10:38 13.12.2019
2473 Clear 14 1013 44 10000 2.1 290 10:19 13.12.2019
2474 Clear 17 1013 33 10000 1.5 170 09:42 13.12.2019
2475 Clear 17 1013 33 10000 1.5 170 09:21 13.12.2019
2476 Clear 17 1013 33 10000 1.5 0 08:45 13.12.2019
2477 Clear 17 1013 33 10000 1.5 0 08:26 13.12.2019
2478 Clear 18 1013 31 10000 0.24 296 07:48 13.12.2019
2479 Clear 18 1013 31 10000 0.24 296 07:25 13.12.2019
2480 Clear 18 1014 23 0 0.24 296 06:57 13.12.2019
2481 Clear 21 1013 23 10000 3.1 0 06:31 13.12.2019
2482 Clear 21 1013 23 10000 3.1 0 05:51 13.12.2019
2483 Clear 21 1013 23 10000 3.1 0 05:31 13.12.2019
2484 Clouds 24 1013 19 10000 4.6 190 04:53 13.12.2019
2485 Clouds 25 1013 17 10000 6.7 160 03:50 13.12.2019
2486 Clouds 26 1011 16 10000 8.2 220 02:35 13.12.2019
2487 Clouds 27 1013 14 10000 3.1 240 01:51 13.12.2019
2488 Clouds 27 1013 14 10000 3.1 240 01:25 13.12.2019
2489 Clouds 30 1012 10 10000 3.6 250 00:46 13.12.2019
2490 Clouds 30 1012 10 10000 3.6 250 00:24 13.12.2019
2491 Clouds 31 1011 14 10000 3.1 210 23:42 12.12.2019
2492 Clouds 32 1011 14 10000 3.1 210 23:24 12.12.2019
2493 Clouds 33 1012 8 10000 3.1 250 22:56 12.12.2019
2494 Clouds 33 1012 8 10000 3.1 250 22:38 12.12.2019
2495 Clouds 33 1012 8 10000 3.1 250 22:38 12.12.2019
2496 Clouds 33 1012 8 10000 3.1 250 22:19 12.12.2019
2497 Clouds 32 1012 8 10000 2.6 240 21:55 12.12.2019
2498 Clouds 32 1012 8 10000 2.6 240 21:37 12.12.2019
2499 Clouds 32 1012 8 10000 2.6 240 21:19 12.12.2019
2500 Clouds 32 1013 14 10000 3.6 240 20:58 12.12.2019
2501 Clouds 32 1013 14 10000 3.6 240 20:39 12.12.2019
2502 Clear 34 1013 14 10000 3.6 240 20:21 12.12.2019
2503 Clear 33 1013 13 10000 3.1 220 19:55 12.12.2019
2504 Clear 33 1013 13 10000 3.1 220 19:37 12.12.2019
2505 Clear 32 1013 13 10000 3.1 220 19:18 12.12.2019
2506 Clear 31 1014 15 10000 2.1 180 18:55 12.12.2019
2507 Clear 31 1014 15 10000 2.1 180 18:37 12.12.2019
2508 Clear 31 1014 15 10000 2.1 180 18:18 12.12.2019
2509 Clear 30 1014 21 10000 2.1 280 17:55 12.12.2019
2510 Clear 29 1014 21 10000 2.1 280 17:37 12.12.2019
2511 Clear 29 1014 21 10000 2.1 280 17:19 12.12.2019
2512 Clear 28 1014 26 10000 1.5 240 16:54 12.12.2019
2513 Clear 28 1014 26 10000 1.5 240 16:36 12.12.2019
2514 Clear 28 1014 26 10000 1.5 240 16:18 12.12.2019
2515 Clear 26 1015 31 10000 2.1 280 15:42 12.12.2019
2516 Clear 26 1015 31 10000 2.1 280 15:19 12.12.2019
2517 Clear 26 1015 31 10000 2.1 280 15:19 12.12.2019
2518 Clear 24 1015 33 10000 1.5 190 14:57 12.12.2019
2519 Clear 24 1015 33 10000 1.5 190 14:37 12.12.2019
2520 Clouds 23 1015 33 10000 1.5 190 14:19 12.12.2019
2521 Clouds 22 1015 42 10000 1.86 262 13:55 12.12.2019
2522 Clouds 22 1015 42 10000 1.86 262 13:36 12.12.2019
2523 Clouds 21 1015 42 10000 1.97 263 13:18 12.12.2019
2524 Clouds 19 1015 62 10000 1.97 263 12:42 12.12.2019
2525 Clouds 19 1015 62 10000 1.97 263 12:23 12.12.2019
2526 Clouds 21 1014 54 10000 1.5 0 11:59 12.12.2019
2527 Clouds 21 1014 54 10000 1.5 0 11:40 12.12.2019
2528 Clouds 14 1014 54 10000 1.5 0 11:22 12.12.2019
2529 Clouds 16 1014 48 10000 0.57 353 10:59 12.12.2019
2530 Clouds 16 1014 48 10000 0.57 353 10:40 12.12.2019
2531 Clouds 16 1014 48 10000 0.57 353 10:22 12.12.2019
2532 Clouds 16 1014 48 10000 0.57 353 09:56 12.12.2019
2533 Clouds 16 1014 48 10000 0.57 353 09:38 12.12.2019
2534 Clouds 16 1014 48 10000 0.57 353 09:20 12.12.2019
2535 Clouds 17 1014 45 10000 0.57 353 08:48 12.12.2019
2536 Clouds 17 1014 45 10000 0.57 353 08:29 12.12.2019
2537 Clear 18 1015 39 10000 0.6 294 07:56 12.12.2019
2538 Clear 18 1015 39 10000 0.6 294 07:56 12.12.2019
2539 Clear 18 1015 39 10000 0.6 294 07:37 12.12.2019
2540 Clear 18 1015 39 10000 0.6 294 07:19 12.12.2019
2541 Clear 19 1015 37 10000 0.6 294 06:41 12.12.2019
2542 Clear 19 1015 37 10000 0.6 294 06:22 12.12.2019
2543 Clear 21 1016 32 10000 2.6 190 05:32 12.12.2019
2544 Clear 22 1016 37 10000 1.5 0 04:47 12.12.2019
2545 Clear 24 1016 31 10000 5.7 210 02:43 12.12.2019
2546 Clear 24 1016 31 10000 5.7 210 02:24 12.12.2019
2547 Clear 24 1017 33 10000 2.6 230 01:59 12.12.2019
2548 Clear 24 1017 33 10000 2.6 230 01:36 12.12.2019
2549 Clear 25 1017 29 10000 2.6 240 00:50 12.12.2019
2550 Clear 25 1017 29 10000 2.6 240 00:22 12.12.2019
2551 Clear 27 1017 30 10000 4.1 240 23:58 11.12.2019
2552 Clear 27 1017 30 10000 4.1 240 23:38 11.12.2019
2553 Clouds 27 1017 30 10000 4.1 240 23:18 11.12.2019
2554 Clouds 28 1016 30 10000 4.6 250 22:56 11.12.2019
2555 Clouds 28 1016 30 10000 4.6 250 22:38 11.12.2019
2556 Clouds 28 1016 30 10000 4.6 250 22:19 11.12.2019
2557 Clouds 29 1016 22 10000 4.1 240 21:54 11.12.2019
2558 Clouds 29 1016 22 10000 4.1 240 21:36 11.12.2019
2559 Clouds 29 1016 22 10000 4.1 240 21:18 11.12.2019
2560 Clouds 29 1016 26 10000 3.6 240 20:55 11.12.2019
2561 Clouds 29 1016 26 10000 3.6 240 20:36 11.12.2019
2562 Clouds 29 1016 26 10000 3.6 240 20:18 11.12.2019
2563 Clouds 29 1017 30 10000 3.1 240 19:42 11.12.2019
2564 Clouds 28 1017 30 10000 3.1 240 19:23 11.12.2019
2565 Clouds 28 1017 30 10000 3.1 240 19:23 11.12.2019
2566 Clouds 28 1017 34 10000 3.6 210 18:59 11.12.2019
2567 Clouds 28 1017 34 10000 3.6 210 18:40 11.12.2019
2568 Clouds 28 1017 34 10000 3.6 210 18:19 11.12.2019
2569 Clouds 27 1017 36 10000 1.5 190 17:56 11.12.2019
2570 Clouds 27 1017 36 10000 1.5 190 17:38 11.12.2019
2571 Clouds 26 1017 36 10000 1.5 190 17:18 11.12.2019
2572 Clouds 24 1017 43 10000 2.1 330 16:55 11.12.2019
2573 Clouds 24 1017 43 10000 2.1 330 16:37 11.12.2019
2574 Clouds 24 1017 43 10000 2.1 330 16:18 11.12.2019
2575 Clouds 23 1017 49 10000 2.1 290 15:56 11.12.2019
2576 Clouds 23 1017 49 10000 2.1 290 15:37 11.12.2019
2577 Clouds 22 1017 49 10000 2.1 290 15:18 11.12.2019
2578 Clouds 21 1017 55 10000 1.5 270 14:54 11.12.2019
2579 Clouds 21 1017 55 10000 1.5 270 14:36 11.12.2019
2580 Clouds 21 1017 55 10000 1.5 270 14:36 11.12.2019
2581 Clouds 20 1017 55 10000 1.5 270 14:18 11.12.2019
2582 Clouds 18 1017 67 10000 1 240 13:42 11.12.2019
2583 Clouds 18 1017 67 10000 1 240 13:42 11.12.2019
2584 Clouds 18 1017 67 10000 1 240 13:22 11.12.2019
2585 Clouds 17 1018 67 10000 1.83 259 12:58 11.12.2019
2586 Clouds 18 1018 67 10000 1.83 259 12:39 11.12.2019
2587 Clouds 17 1018 67 10000 1.83 259 12:21 11.12.2019
2588 Clouds 17 1016 81 10000 1.5 130 11:58 11.12.2019
2589 Clouds 17 1016 81 10000 1.5 130 11:39 11.12.2019
2590 Clouds 12 1016 81 10000 1.5 130 11:19 11.12.2019
2591 Clouds 13 1015 81 10000 3.6 180 10:59 11.12.2019
2592 Clouds 13 1015 81 10000 3.6 180 10:39 11.12.2019
2593 Clouds 13 1015 81 10000 3.6 180 10:20 11.12.2019
2594 Clouds 12 1015 87 10000 4.1 160 09:55 11.12.2019
2595 Clouds 12 1015 87 10000 4.1 160 09:37 11.12.2019
2596 Clouds 12 1015 87 10000 4.1 160 09:19 11.12.2019
2597 Clouds 13 1015 82 10000 4.1 160 08:55 11.12.2019
2598 Clouds 13 1015 82 10000 4.1 160 08:36 11.12.2019
2599 Clouds 13 1015 82 10000 4.1 160 08:18 11.12.2019
2600 Clouds 13 1015 76 10000 3.1 180 07:42 11.12.2019
2601 Clouds 13 1015 76 10000 3.1 180 07:22 11.12.2019
2602 Clouds 14 1015 76 10000 2.6 130 06:45 11.12.2019
2603 Clouds 14 1015 76 10000 2.6 130 06:24 11.12.2019
2604 Clouds 15 1015 72 10000 4.1 160 05:52 11.12.2019
2605 Clouds 15 1015 72 10000 4.1 160 05:27 11.12.2019
2606 Clouds 16 1015 72 10000 6.2 150 04:47 11.12.2019
2607 Clouds 18 1014 59 10000 6.2 160 02:50 11.12.2019
2608 Clouds 21 1016 49 10000 2.1 230 01:30 11.12.2019
2609 Clouds 23 1016 41 10000 3.1 260 00:56 11.12.2019
2610 Clouds 23 1016 41 10000 3.1 260 00:36 11.12.2019
2611 Clouds 23 1016 41 10000 3.1 260 00:18 11.12.2019
2612 Clouds 25 1015 36 10000 3.6 270 23:41 10.12.2019
2613 Clear 25 1015 36 10000 3.6 270 23:21 10.12.2019
2614 Clear 27 1015 30 10000 3.6 240 22:42 10.12.2019
2615 Clear 27 1015 30 10000 3.6 240 22:24 10.12.2019
2616 Clear 28 1015 28 10000 4.6 240 21:58 10.12.2019
2617 Clear 28 1015 28 10000 4.6 240 21:39 10.12.2019
2618 Clear 29 1015 28 10000 4.6 240 21:21 10.12.2019
2619 Clear 29 1016 28 10000 4.1 240 20:57 10.12.2019
2620 Clear 29 1016 28 10000 4.1 240 20:38 10.12.2019
2621 Clear 29 1016 28 10000 4.1 240 20:19 10.12.2019
2622 Clear 29 1016 28 10000 4.1 240 20:19 10.12.2019
2623 Clear 29 1016 28 10000 4.1 240 20:19 10.12.2019
2624 Clear 29 1016 28 10000 4.1 240 20:19 10.12.2019
2625 Clear 29 1016 30 10000 4.1 250 19:56 10.12.2019
2626 Clear 29 1016 30 10000 4.1 250 19:37 10.12.2019
2627 Clear 29 1016 30 10000 4.1 250 19:19 10.12.2019
2628 Clear 29 1017 30 10000 3.6 200 18:42 10.12.2019
2629 Clear 28 1017 30 10000 3.6 200 18:21 10.12.2019
2630 Clear 28 1017 30 10000 3.1 220 17:59 10.12.2019
2631 Clear 28 1017 30 10000 3.1 220 17:41 10.12.2019
2632 Clear 27 1017 30 10000 3.1 220 17:22 10.12.2019
2633 Clear 26 1017 33 10000 1.5 250 16:57 10.12.2019
2634 Clear 24 1017 33 10000 1.5 250 16:39 10.12.2019
2635 Clear 25 1017 33 10000 1.5 250 16:19 10.12.2019
2636 Clear 23 1017 40 10000 1.5 190 15:39 10.12.2019
2637 Clear 23 1017 40 10000 1.5 190 15:18 10.12.2019
2638 Clear 22 1017 42 10000 2.1 200 14:56 10.12.2019
2639 Clear 22 1017 42 10000 2.1 200 14:38 10.12.2019
2640 Clouds 19 1017 42 10000 2.1 200 14:20 10.12.2019
2641 Clouds 19 1017 42 10000 2.1 200 14:20 10.12.2019
2642 Clouds 17 1017 51 10000 2.21 263 13:58 10.12.2019
2643 Clouds 17 1017 51 10000 2.21 263 13:40 10.12.2019
2644 Clouds 17 1017 51 10000 2.33 262 13:20 10.12.2019
2645 Clouds 16 1017 67 10000 1.5 150 12:48 10.12.2019
2646 Clouds 16 1017 67 10000 1.5 150 12:48 10.12.2019
2647 Clouds 17 1017 67 10000 1.5 150 12:28 10.12.2019
2648 Clouds 17 1016 81 10000 2.6 150 11:56 10.12.2019
2649 Clouds 15 1016 81 10000 2.6 150 11:38 10.12.2019
2650 Clear 12 1016 81 10000 2.6 150 11:19 10.12.2019
2651 Clear 12 1016 81 10000 2.6 150 11:19 10.12.2019
2652 Clear 14 1015 71 10000 4.1 160 10:43 10.12.2019
2653 Clear 14 1015 71 10000 4.1 160 10:24 10.12.2019
2654 Clear 14 1014 76 10000 4.1 160 09:57 10.12.2019
2655 Clear 14 1014 76 10000 4.1 160 09:39 10.12.2019
2656 Clear 14 1014 76 10000 4.1 160 09:20 10.12.2019
2657 Clear 14 1014 71 10000 1.5 160 08:58 10.12.2019
2658 Clear 14 1014 71 10000 1.5 160 08:39 10.12.2019
2659 Clear 14 1014 71 10000 1.5 160 08:20 10.12.2019
2660 Clear 14 1015 71 10000 2.1 170 07:45 10.12.2019
2661 Clear 13 1015 71 10000 2.1 170 07:27 10.12.2019
2662 Clear 15 1016 62 10000 3.1 150 06:50 10.12.2019
2663 Clear 15 1016 62 10000 3.1 150 06:25 10.12.2019
2664 Clear 15 1016 67 10000 4.6 170 05:57 10.12.2019
2665 Clear 15 1016 67 10000 4.6 170 05:38 10.12.2019
2666 Clear 17 1016 59 10000 7.2 150 03:55 10.12.2019
2667 Clear 17 1016 59 10000 7.2 150 03:24 10.12.2019
2668 Clear 20 1016 46 10000 2.6 250 01:56 10.12.2019
2669 Clear 21 1016 46 10000 2.6 250 01:28 10.12.2019
2670 Clear 21 1016 46 10000 2.6 250 01:28 10.12.2019
2671 Clear 23 1015 36 10000 2.6 240 00:58 10.12.2019
2672 Clear 23 1015 36 10000 2.6 240 00:26 10.12.2019
2673 Clouds 26 1015 30 10000 3.6 240 23:57 09.12.2019
2674 Clouds 26 1015 30 10000 3.6 240 23:37 09.12.2019
2675 Clouds 27 1015 30 10000 3.6 240 23:18 09.12.2019
2676 Clouds 28 1015 25 10000 4.1 240 22:55 09.12.2019
2677 Clouds 29 1015 25 10000 4.1 240 22:37 09.12.2019
2678 Clouds 29 1015 25 10000 4.1 240 22:18 09.12.2019
2679 Clouds 29 1015 26 10000 3.6 220 21:54 09.12.2019
2680 Clouds 29 1015 26 10000 3.6 220 21:36 09.12.2019
2681 Clouds 29 1015 26 10000 3.6 220 21:18 09.12.2019
2682 Clouds 29 1015 28 10000 4.1 0 20:55 09.12.2019
2683 Clouds 29 1015 28 10000 4.1 0 20:37 09.12.2019
2684 Clouds 29 1015 28 10000 4.1 0 20:37 09.12.2019
2685 Clouds 29 1015 28 10000 4.1 0 20:18 09.12.2019
2686 Clouds 29 1015 28 10000 4.1 230 19:54 09.12.2019
2687 Clouds 29 1015 28 10000 4.1 230 19:36 09.12.2019
2688 Clouds 29 1015 28 10000 4.1 230 19:18 09.12.2019
2689 Clouds 29 1016 30 10000 2.6 0 18:54 09.12.2019
2690 Clouds 29 1016 30 10000 2.6 0 18:54 09.12.2019
2691 Clouds 28 1016 30 10000 2.6 0 18:36 09.12.2019
2692 Clouds 28 1016 30 10000 2.6 0 18:18 09.12.2019
2693 Clouds 28 1016 34 10000 3.6 240 17:54 09.12.2019
2694 Clouds 28 1016 34 10000 3.6 240 17:54 09.12.2019
2695 Clouds 28 1016 34 10000 3.6 240 17:36 09.12.2019
2696 Clouds 27 1016 34 10000 3.6 240 17:18 09.12.2019
2697 Clear 26 1016 36 10000 1.5 280 16:54 09.12.2019
2698 Clear 26 1016 36 10000 1.5 280 16:36 09.12.2019
2699 Clear 25 1016 36 10000 1.5 280 16:18 09.12.2019
2700 Clear 23 1016 43 10000 2.1 0 15:54 09.12.2019
2701 Clear 23 1016 43 10000 2.1 0 15:36 09.12.2019
2702 Clear 23 1016 43 10000 2.1 0 15:18 09.12.2019
2703 Clear 21 1016 49 10000 1.5 0 14:41 09.12.2019
2704 Clear 19 1016 49 10000 1.5 0 14:18 09.12.2019
2705 Clear 16 1016 59 10000 1 260 13:56 09.12.2019
2706 Clear 16 1016 59 10000 1 260 13:37 09.12.2019
2707 Clear 16 1016 59 10000 1 260 13:19 09.12.2019
2708 Clear 14 1016 71 10000 2.03 265 12:55 09.12.2019
2709 Clear 14 1016 71 10000 2.03 265 12:37 09.12.2019
2710 Clear 14 1016 71 10000 2.03 265 12:18 09.12.2019
2711 Clear 20 1015 81 8000 2.03 265 11:55 09.12.2019
2712 Clear 20 1015 81 8000 2.03 265 11:36 09.12.2019
2713 Clear 12 1015 81 8000 0.38 282 11:18 09.12.2019
2714 Clear 12 1015 81 8000 1.5 260 10:39 09.12.2019
2715 Clear 12 1015 81 8000 1.5 260 10:39 09.12.2019
2716 Clear 12 1015 81 8000 1.5 260 10:20 09.12.2019
2717 Clear 13 1015 82 10000 2.6 170 09:56 09.12.2019
2718 Clear 13 1015 82 10000 2.6 170 09:37 09.12.2019
2719 Clear 13 1015 82 10000 2.6 170 09:19 09.12.2019
2720 Clear 13 1015 82 10000 3.1 150 08:40 09.12.2019
2721 Clear 13 1015 82 10000 3.1 150 08:22 09.12.2019
2722 Clear 14 1015 76 10000 3.1 170 07:53 09.12.2019
2723 Clear 14 1015 76 10000 3.1 170 07:34 09.12.2019
2724 Clear 14 1016 76 10000 3.6 160 06:59 09.12.2019
2725 Clear 14 1016 76 10000 3.6 160 06:37 09.12.2019
2726 Clear 14 1016 76 10000 3.6 160 06:19 09.12.2019
2727 Clear 15 1016 72 10000 4.6 160 05:25 09.12.2019
2728 Clear 16 1015 67 10000 5.7 160 04:28 09.12.2019
2729 Clear 18 1015 55 10000 6.7 150 03:18 09.12.2019
2730 Clear 22 1015 40 10000 2.1 240 01:48 09.12.2019
2731 Clear 22 1015 40 10000 2.1 240 01:28 09.12.2019
2732 Clear 26 1015 33 10000 3.6 240 00:39 09.12.2019
2733 Clear 26 1015 33 10000 3.6 240 00:19 09.12.2019
2734 Clouds 27 1014 30 10000 4.1 340 23:39 08.12.2019
2735 Clouds 27 1014 30 10000 4.1 340 23:20 08.12.2019
2736 Clouds 28 1014 26 10000 4.6 240 22:56 08.12.2019
2737 Clouds 28 1014 26 10000 4.6 240 22:38 08.12.2019
2738 Clouds 29 1014 26 10000 4.6 240 22:18 08.12.2019
2739 Clouds 28 1014 23 10000 4.6 240 21:57 08.12.2019
2740 Clouds 29 1014 23 10000 4.6 240 21:38 08.12.2019
2741 Clouds 29 1014 23 10000 4.6 240 21:19 08.12.2019
2742 Clear 30 1014 20 10000 3.6 240 20:56 08.12.2019
2743 Clear 29 1014 20 10000 3.6 240 20:37 08.12.2019
2744 Clear 29 1014 20 10000 3.6 240 20:19 08.12.2019
2745 Clear 29 1015 28 10000 3.1 270 19:56 08.12.2019
2746 Clear 29 1015 28 10000 3.1 270 19:38 08.12.2019
2747 Clear 29 1015 28 10000 3.1 270 19:20 08.12.2019
2748 Clear 27 1015 24 10000 2.6 180 18:55 08.12.2019
2749 Clear 27 1015 24 10000 2.6 180 18:36 08.12.2019
2750 Clear 27 1015 24 10000 2.6 180 18:36 08.12.2019
2751 Clear 27 1015 24 10000 2.6 180 18:18 08.12.2019
2752 Clear 26 1015 29 10000 1.5 270 17:55 08.12.2019
2753 Clear 26 1015 29 10000 1.5 270 17:36 08.12.2019
2754 Clear 25 1015 29 10000 1.5 270 17:18 08.12.2019
2755 Clear 24 1016 38 10000 1.5 240 16:55 08.12.2019
2756 Clear 24 1016 38 10000 1.5 240 16:37 08.12.2019
2757 Clear 24 1016 38 10000 1.5 240 16:18 08.12.2019
2758 Clear 23 1016 43 10000 1 220 15:38 08.12.2019
2759 Clear 23 1016 43 10000 1 220 15:19 08.12.2019
2760 Clear 20 1016 52 10000 1.5 180 14:58 08.12.2019
2761 Clear 20 1016 52 10000 1.5 180 14:38 08.12.2019
2762 Clear 18 1016 52 10000 1.5 180 14:20 08.12.2019
2763 Clear 18 1016 62 10000 1 190 13:42 08.12.2019
2764 Clear 18 1016 62 10000 1 190 13:42 08.12.2019
2765 Clear 15 1016 62 10000 1 190 13:23 08.12.2019
2766 Clear 13 1016 71 10000 2.15 260 12:59 08.12.2019
2767 Clear 13 1016 71 10000 2.15 260 12:41 08.12.2019
2768 Clear 13 1016 71 10000 2.15 260 12:23 08.12.2019
2769 Clear 16 1015 81 10000 1 0 11:59 08.12.2019
2770 Clear 16 1015 81 10000 1 0 11:38 08.12.2019
2771 Clear 11 1015 81 10000 1 0 11:19 08.12.2019
2772 Clear 11 1014 81 10000 0.68 278 10:57 08.12.2019
2773 Clear 11 1014 81 10000 0.68 278 10:38 08.12.2019
2774 Clear 11 1014 81 10000 0.68 278 10:19 08.12.2019
2775 Clear 11 1014 81 10000 0.68 278 10:19 08.12.2019
2776 Clear 11 1015 81 10000 1.5 160 09:56 08.12.2019
2777 Clear 11 1015 81 10000 1.5 160 09:37 08.12.2019
2778 Clear 11 1015 81 10000 1.5 160 09:19 08.12.2019
2779 Clear 11 1015 81 10000 2.6 160 08:57 08.12.2019
2780 Clear 11 1015 81 10000 2.6 160 08:36 08.12.2019
2781 Clear 11 1015 81 10000 2.6 160 08:18 08.12.2019
2782 Clear 12 1015 76 10000 3.1 170 07:41 08.12.2019
2783 Clear 12 1015 76 10000 3.1 170 07:19 08.12.2019
2784 Clear 13 1015 76 10000 4.1 160 06:43 08.12.2019
2785 Clear 13 1015 76 10000 4.1 160 06:21 08.12.2019
2786 Clear 14 1016 67 10000 4.6 150 05:30 08.12.2019
2787 Clear 15 1016 62 10000 6.7 160 04:57 08.12.2019
2788 Clear 16 1015 59 10000 5.1 160 03:41 08.12.2019
2789 Clear 18 1015 55 10000 5.1 160 02:52 08.12.2019
2790 Clear 20 1015 55 10000 5.1 160 02:28 08.12.2019
2791 Clear 20 1015 46 10000 1.5 230 01:48 08.12.2019
2792 Clear 22 1015 33 10000 3.1 230 00:59 08.12.2019
2793 Clear 22 1015 33 10000 3.1 230 00:38 08.12.2019
2794 Clear 24 1015 33 10000 3.1 230 00:19 08.12.2019
2795 Clear 26 1014 31 10000 3.6 240 23:40 07.12.2019
2796 Clear 26 1014 31 10000 3.6 240 23:40 07.12.2019
2797 Clear 26 1014 31 10000 3.6 240 23:20 07.12.2019
2798 Clouds 26 1014 26 10000 4.1 240 22:56 07.12.2019
2799 Clouds 26 1014 26 10000 4.1 240 22:38 07.12.2019
2800 Clouds 27 1014 26 10000 4.1 240 22:19 07.12.2019
2801 Clouds 27 1014 26 10000 4.1 240 22:19 07.12.2019
2802 Clouds 27 1015 26 10000 5.1 230 21:56 07.12.2019
2803 Clouds 27 1015 26 10000 5.1 230 21:38 07.12.2019
2804 Clouds 28 1015 26 10000 5.1 230 21:19 07.12.2019
2805 Clouds 27 1015 26 10000 5.1 240 20:54 07.12.2019
2806 Clouds 28 1015 26 10000 5.1 240 20:36 07.12.2019
2807 Clouds 28 1015 26 10000 5.1 240 20:18 07.12.2019
2808 Clear 27 1015 27 10000 3.1 0 19:55 07.12.2019
2809 Clear 27 1015 27 10000 3.1 0 19:36 07.12.2019
2810 Clear 27 1015 27 10000 3.1 0 19:18 07.12.2019
2811 Clear 26 1016 29 10000 3.1 0 18:43 07.12.2019
2812 Clear 26 1016 29 10000 3.1 0 18:19 07.12.2019
2813 Clear 25 1016 35 8000 2.6 0 17:57 07.12.2019
2814 Clear 24 1016 35 8000 2.6 0 17:38 07.12.2019
2815 Clear 24 1016 35 8000 2.6 0 17:20 07.12.2019
2816 Clear 22 1017 37 8000 2.6 0 16:56 07.12.2019
2817 Clear 22 1017 37 8000 2.6 0 16:37 07.12.2019
2818 Clear 22 1017 37 8000 2.6 0 16:18 07.12.2019
2819 Clear 21 1017 45 10000 1.5 170 15:41 07.12.2019
2820 Clear 21 1017 45 10000 1.5 170 15:23 07.12.2019
2821 Clear 19 1017 55 10000 1.5 230 14:57 07.12.2019
2822 Clear 18 1017 55 10000 1.5 230 14:39 07.12.2019
2823 Clouds 15 1017 55 10000 1.5 230 14:18 07.12.2019
2824 Clouds 16 1017 62 10000 2.52 254 13:41 07.12.2019
2825 Clouds 15 1017 62 10000 2.52 254 13:21 07.12.2019
2826 Clouds 15 1017 62 10000 1 220 12:56 07.12.2019
2827 Clouds 14 1017 62 10000 1 220 12:38 07.12.2019
2828 Clouds 16 1017 62 10000 1 220 12:20 07.12.2019
2829 Clouds 15 1016 93 8000 3.6 170 11:56 07.12.2019
2830 Clouds 16 1016 93 8000 3.6 170 11:37 07.12.2019
2831 Clouds 11 1016 93 8000 3.6 170 11:19 07.12.2019
2832 Clouds 11 1016 87 10000 3.6 170 10:37 07.12.2019
2833 Clouds 12 1016 87 10000 3.6 170 10:19 07.12.2019
2834 Clouds 12 1016 81 10000 3.6 180 09:41 07.12.2019
2835 Clouds 12 1016 81 10000 3.6 180 09:22 07.12.2019
2836 Clouds 12 1015 81 10000 3.6 160 08:47 07.12.2019
2837 Clouds 13 1015 81 10000 3.6 160 08:27 07.12.2019
2838 Clear 13 1016 76 10000 3.6 160 07:58 07.12.2019
2839 Clear 13 1016 76 10000 3.6 160 07:39 07.12.2019
2840 Clear 13 1016 76 10000 3.6 160 07:21 07.12.2019
2841 Clear 13 1016 76 10000 3.6 160 07:21 07.12.2019
2842 Clear 14 1016 66 10000 4.1 160 06:45 07.12.2019
2843 Clear 14 1016 66 10000 4.1 160 06:24 07.12.2019
2844 Clear 15 1017 62 10000 5.1 160 04:52 07.12.2019
2845 Clear 16 1017 51 10000 5.1 150 03:54 07.12.2019
2846 Clear 17 1016 51 10000 6.2 160 02:56 07.12.2019
2847 Clouds 20 1016 51 10000 6.2 160 02:21 07.12.2019
2848 Clouds 19 1017 37 10000 2.6 230 01:31 07.12.2019
2849 Clouds 21 1017 30 10000 2.6 240 00:43 07.12.2019
2850 Clouds 22 1017 30 10000 2.6 240 00:19 07.12.2019
2851 Clouds 23 1016 29 8000 4.6 240 23:47 06.12.2019
2852 Clouds 23 1016 29 8000 4.6 240 23:47 06.12.2019
2853 Clouds 23 1016 29 8000 4.6 240 23:24 06.12.2019
2854 Clouds 26 1016 27 7000 5.1 240 22:58 06.12.2019
2855 Clouds 26 1016 27 7000 5.1 240 22:37 06.12.2019
2856 Clouds 26 1016 27 7000 5.1 240 22:18 06.12.2019
2857 Clouds 27 1016 24 7000 5.1 250 21:56 06.12.2019
2858 Clouds 27 1016 24 7000 5.1 250 21:38 06.12.2019
2859 Clouds 26 1016 24 7000 5.1 250 21:19 06.12.2019
2860 Clouds 28 1016 23 10000 5.1 240 20:42 06.12.2019
2861 Clouds 28 1016 23 10000 5.1 240 20:22 06.12.2019
2862 Clouds 28 1016 23 7000 4.1 230 19:57 06.12.2019
2863 Clouds 28 1016 23 7000 4.1 230 19:57 06.12.2019
2864 Clouds 28 1016 23 7000 4.1 230 19:39 06.12.2019
2865 Clouds 28 1016 23 7000 4.1 230 19:21 06.12.2019
2866 Clouds 28 1016 23 7000 3.6 210 18:45 06.12.2019
2867 Clouds 28 1016 23 7000 3.6 210 18:23 06.12.2019
2868 Clouds 28 1017 20 10000 2.1 230 17:58 06.12.2019
2869 Clouds 28 1017 20 10000 2.1 230 17:40 06.12.2019
2870 Clear 28 1017 20 10000 2.1 230 17:22 06.12.2019
2871 Clear 26 1016 24 7000 1.5 270 16:59 06.12.2019
2872 Clear 26 1016 24 7000 1.5 270 16:40 06.12.2019
2873 Clear 26 1016 24 7000 1.5 270 16:21 06.12.2019
2874 Clear 24 1017 27 8000 1.5 230 15:56 06.12.2019
2875 Clear 24 1017 27 8000 1.5 230 15:38 06.12.2019
2876 Clear 24 1017 27 8000 1.5 230 15:38 06.12.2019
2877 Clear 24 1017 27 8000 1.5 230 15:18 06.12.2019
2878 Clear 24 1017 27 8000 1.5 230 15:18 06.12.2019
2879 Clear 22 1017 28 10000 1.5 270 14:41 06.12.2019
2880 Clear 22 1017 28 10000 1.5 270 14:20 06.12.2019
2881 Clear 20 1017 37 10000 1.99 264 13:58 06.12.2019
2882 Clear 20 1017 37 10000 1.99 264 13:40 06.12.2019
2883 Clear 20 1017 37 10000 2.05 263 13:22 06.12.2019
2884 Clear 18 1017 55 10000 1 30 12:41 06.12.2019
2885 Clear 19 1017 55 10000 1 30 12:22 06.12.2019
2886 Clear 20 1015 58 6000 1 0 11:55 06.12.2019
2887 Clear 20 1015 58 6000 1 0 11:37 06.12.2019
2888 Clear 13 1015 58 6000 1 0 11:19 06.12.2019
2889 Clear 16 1015 51 10000 0.5 0 10:42 06.12.2019
2890 Clear 16 1015 51 10000 0.5 0 10:21 06.12.2019
2891 Clear 17 1015 48 10000 3.1 150 09:57 06.12.2019
2892 Clear 17 1015 48 10000 3.1 150 09:37 06.12.2019
2893 Clear 17 1015 48 10000 3.1 150 09:19 06.12.2019
2894 Clear 17 1015 48 10000 2.6 160 08:44 06.12.2019
2895 Clear 17 1015 48 10000 2.6 160 08:26 06.12.2019
2896 Clear 18 1015 42 8000 2.6 170 07:44 06.12.2019
2897 Clear 18 1015 42 8000 2.6 170 07:23 06.12.2019
2898 Clear 19 1015 39 10000 4.1 160 06:57 06.12.2019
2899 Clear 19 1015 39 10000 4.1 160 06:26 06.12.2019
2900 Clear 20 1016 34 10000 4.1 150 05:52 06.12.2019
2901 Clear 21 1016 30 10000 4.1 160 04:52 06.12.2019
2902 Clear 21 1016 30 10000 4.1 160 04:52 06.12.2019
2903 Clear 26 1017 21 10000 2.1 210 01:49 06.12.2019
2904 Clear 26 1017 21 10000 2.1 210 01:22 06.12.2019
2905 Clear 28 1016 14 10000 3.1 220 00:39 06.12.2019
2906 Clear 28 1016 14 10000 3.1 220 00:20 06.12.2019
2907 Clear 30 1016 23 10000 4.6 250 23:38 05.12.2019
2908 Clear 29 1016 9 10000 4.6 250 23:18 05.12.2019
2909 Clear 30 1015 15 10000 4.1 250 22:55 05.12.2019
2910 Clear 29 1015 15 10000 4.1 250 22:37 05.12.2019
2911 Clear 30 1015 15 10000 4.1 250 22:18 05.12.2019
2912 Clear 32 1015 9 10000 5.1 230 21:42 05.12.2019
2913 Clear 32 1015 9 10000 5.1 230 21:24 05.12.2019
2914 Clear 32 1016 10 10000 3.1 230 20:59 05.12.2019
2915 Clear 32 1016 10 10000 3.1 230 20:40 05.12.2019
2916 Clear 31 1016 10 10000 3.1 230 20:20 05.12.2019
2917 Clear 30 1016 11 10000 3.1 230 19:55 05.12.2019
2918 Clear 31 1016 11 10000 3.1 230 19:36 05.12.2019
2919 Clear 31 1016 11 10000 3.1 230 19:36 05.12.2019
2920 Clear 31 1016 11 10000 3.1 230 19:18 05.12.2019
2921 Clear 32 1016 14 10000 2.6 270 18:40 05.12.2019
2922 Clear 32 1016 14 10000 2.6 270 18:21 05.12.2019
2923 Clear 31 1017 7 10000 2.6 260 17:59 05.12.2019
2924 -273 0 0 0 0 0 17:39 05.12.2019
2925 Clear 31 1017 7 10000 2.6 260 17:39 05.12.2019
2926 Clear 29 1017 12 10000 2.6 260 17:19 05.12.2019
2927 Clear 27 1017 20 10000 1.5 330 16:55 05.12.2019
2928 Clear 27 1017 20 10000 1.5 330 16:37 05.12.2019
2929 Clear 27 1017 20 10000 1.5 330 16:19 05.12.2019
2930 Clear 26 1017 20 10000 2.1 240 15:56 05.12.2019
2931 Clear 26 1017 20 10000 2.1 240 15:37 05.12.2019
2932 Clear 27 1017 20 10000 2.1 240 15:18 05.12.2019
2933 Clear 23 1018 23 10000 1.5 90 14:55 05.12.2019
2934 Clear 23 1018 23 10000 1.5 90 14:36 05.12.2019
2935 Clear 23 1018 23 10000 1.5 90 14:18 05.12.2019
2936 Clear 19 1018 14 10000 1.6 259 13:55 05.12.2019
2937 Clear 19 1018 14 10000 1.6 259 13:37 05.12.2019
2938 Clear 19 1018 13 10000 1.58 259 13:18 05.12.2019
2939 Clear 19 1018 54 10000 1 100 12:43 05.12.2019
2940 Clear 19 1018 54 10000 1 100 12:24 05.12.2019
2941 Clear 20 1016 54 8000 0.5 0 11:56 05.12.2019
2942 Clear 20 1016 54 8000 0.5 0 11:38 05.12.2019
2943 Clear 12 1016 54 8000 0.5 0 11:20 05.12.2019
2944 Clear 14 1016 44 10000 1 0 10:56 05.12.2019
2945 Clear 14 1016 44 10000 1 0 10:38 05.12.2019
2946 Clear 14 1016 44 10000 1 0 10:18 05.12.2019
2947 Clear 13 1015 50 10000 1.5 320 09:45 05.12.2019
2948 Clear 13 1015 50 10000 1.5 320 09:23 05.12.2019
2949 Clear 14 1015 50 10000 1.5 320 08:59 05.12.2019
2950 Clear 14 1015 50 10000 1.5 320 08:38 05.12.2019
2951 Clear 14 1015 50 10000 1.5 320 08:20 05.12.2019
2952 Clear 17 1016 42 10000 0.5 104 07:50 05.12.2019
2953 Clear 17 1016 42 10000 0.5 104 07:32 05.12.2019
2954 Clear 18 1016 39 10000 2.1 160 06:58 05.12.2019
2955 Clear 18 1016 39 10000 2.1 160 06:40 05.12.2019
2956 Clear 18 1016 39 10000 2.1 160 06:19 05.12.2019
2957 Clear 20 1017 32 10000 1 190 05:47 05.12.2019
2958 Clear 20 1017 32 10000 1 190 05:23 05.12.2019
2959 Clear 21 1016 30 10000 3.1 140 04:20 05.12.2019
2960 Clear 23 1015 25 10000 6.2 200 02:43 05.12.2019
2961 Clear 24 1015 25 10000 6.2 200 02:24 05.12.2019
2962 Clear 24 1017 15 10000 1.84 236 01:52 05.12.2019
2963 Clear 24 1017 15 10000 1.84 236 01:24 05.12.2019
2964 Clouds 27 1016 14 10000 3.6 240 00:51 05.12.2019
2965 Clouds 27 1016 14 10000 3.6 240 00:31 05.12.2019
2966 Clouds 29 1015 12 10000 3.1 230 23:57 04.12.2019
2967 Clouds 29 1015 12 10000 3.1 230 23:39 04.12.2019
2968 Clouds 28 1015 12 10000 3.1 230 23:21 04.12.2019
2969 Clouds 29 1015 12 10000 2.6 180 22:55 04.12.2019
2970 Clouds 28 1015 12 10000 2.6 180 22:36 04.12.2019
2971 Clouds 28 1015 12 10000 2.6 180 22:18 04.12.2019
2972 Clouds 29 1015 12 10000 2.6 240 21:54 04.12.2019
2973 Clouds 29 1015 12 10000 2.6 240 21:36 04.12.2019
2974 Clouds 29 1015 12 10000 2.6 240 21:18 04.12.2019
2975 Clouds 28 1015 12 10000 3.6 240 20:55 04.12.2019
2976 Clouds 28 1015 12 10000 3.6 240 20:37 04.12.2019
2977 Clouds 30 1015 12 10000 3.6 240 20:19 04.12.2019
2978 Clouds 30 1015 13 10000 3.6 170 19:40 04.12.2019
2979 Clouds 30 1015 13 10000 3.6 170 19:21 04.12.2019
2980 Clouds 30 1015 13 10000 3.6 170 19:21 04.12.2019
2981 Clear 29 1015 10 10000 2.6 240 18:58 04.12.2019
2982 Clear 28 1015 10 10000 2.6 240 18:40 04.12.2019
2983 Clear 28 1015 10 10000 2.6 240 18:21 04.12.2019
2984 Clear 27 1015 21 10000 3.1 240 17:55 04.12.2019
2985 Clear 27 1015 21 10000 3.1 240 17:36 04.12.2019
2986 Clear 27 1015 21 10000 3.1 240 17:18 04.12.2019
2987 Clear 26 1015 25 10000 2.6 240 16:40 04.12.2019
2988 Clear 26 1015 25 10000 2.6 240 16:20 04.12.2019
2989 Clear 26 1015 25 10000 2.6 240 16:20 04.12.2019
2990 Clear 24 1015 30 10000 2.6 200 15:57 04.12.2019
2991 Clear 25 1015 30 10000 2.6 200 15:38 04.12.2019
2992 Clear 24 1015 30 10000 2.6 200 15:19 04.12.2019
2993 Clear 20 1015 34 10000 1.5 210 14:57 04.12.2019
2994 Clear 20 1015 34 10000 1.5 210 14:39 04.12.2019
2995 Clear 21 1015 34 10000 1.5 210 14:20 04.12.2019
2996 Clear 20 1015 42 10000 1.95 258 13:39 04.12.2019
2997 Clear 20 1015 42 10000 1.85 262 13:20 04.12.2019
2998 Clear 18 1015 48 10000 1.85 262 12:58 04.12.2019
2999 Clear 17 1015 48 10000 1.85 262 12:40 04.12.2019
3000 Clear 17 1015 48 10000 1.85 262 12:22 04.12.2019
3001 Clear 19 1014 58 10000 1.5 330 11:41 04.12.2019
3002 Clear 12 1014 58 10000 1.5 330 11:23 04.12.2019
3003 Clear 16 1013 54 10000 1 0 10:44 04.12.2019
3004 Clear 14 1013 54 10000 1 0 10:24 04.12.2019
3005 Clear 16 1013 54 10000 2.6 150 09:58 04.12.2019
3006 Clear 15 1013 54 10000 2.6 150 09:39 04.12.2019
3007 Clear 15 1013 54 10000 2.6 150 09:21 04.12.2019
3008 Clear 15 1012 51 10000 2.6 140 08:43 04.12.2019
3009 Clear 15 1012 51 10000 2.6 140 08:25 04.12.2019
3010 Clear 18 1012 48 8000 0.5 0 07:51 04.12.2019
3011 Clear 16 1012 48 8000 0.5 0 07:31 04.12.2019
3012 Clear 17 1012 42 10000 1.5 180 06:57 04.12.2019
3013 Clear 18 1012 42 10000 1.5 180 06:31 04.12.2019
3014 Clear 18 1013 42 10000 2.6 130 05:43 04.12.2019
3015 Clear 19 1013 37 10000 3.6 170 04:34 04.12.2019
3016 Clear 20 1012 34 10000 3.1 150 03:29 04.12.2019
3017 Clear 24 1013 27 10000 2.1 220 01:34 04.12.2019
3018 Clouds 25 1013 16 10000 3.6 240 00:47 04.12.2019
3019 Clouds 25 1013 16 10000 3.6 240 00:21 04.12.2019
3020 Clouds 28 1012 13 10000 4.1 240 23:43 03.12.2019
3021 Clouds 28 1012 13 10000 4.1 240 23:20 03.12.2019
3022 Clouds 28 1011 12 10000 4.1 250 22:59 03.12.2019
3023 Clouds 29 1011 12 10000 4.1 250 22:38 03.12.2019
3024 Clouds 28 1011 12 10000 4.1 250 22:18 03.12.2019
3025 Clouds 29 1012 18 10000 3.6 250 21:56 03.12.2019
3026 Clouds 29 1012 18 10000 3.6 250 21:37 03.12.2019
3027 Clouds 29 1012 18 10000 3.6 250 21:18 03.12.2019
3028 Clouds 29 1012 20 10000 3.6 0 20:41 03.12.2019
3029 Clouds 29 1012 20 10000 3.6 0 20:20 03.12.2019
3030 Clouds 28 1012 20 10000 4.1 240 19:57 03.12.2019
3031 Clouds 28 1012 20 10000 4.1 240 19:38 03.12.2019
3032 Clouds 28 1012 20 10000 4.1 240 19:20 03.12.2019
3033 Clouds 29 1012 28 10000 2.6 0 18:59 03.12.2019
3034 Clouds 29 1012 28 10000 2.6 0 18:41 03.12.2019
3035 Clouds 29 1012 28 10000 2.6 0 18:21 03.12.2019
3036 Clouds 27 1013 34 10000 3.1 240 17:58 03.12.2019
3037 Clouds 27 1013 34 10000 3.1 240 17:38 03.12.2019
3038 Clouds 27 1013 34 10000 3.1 240 17:18 03.12.2019
3039 Clouds 26 1013 34 10000 2.1 250 16:57 03.12.2019
3040 Clouds 27 1013 34 10000 2.1 250 16:39 03.12.2019
3041 Clouds 26 1013 34 10000 2.1 250 16:20 03.12.2019
3042 Clouds 25 1013 41 10000 1.5 0 15:56 03.12.2019
3043 Clouds 23 1013 41 10000 1.5 0 15:38 03.12.2019
3044 Clouds 23 1013 41 10000 1.5 0 15:19 03.12.2019
3045 Clear 21 1014 49 10000 3.52 260 14:42 03.12.2019
3046 Clouds 21 1014 49 10000 2.29 261 14:20 03.12.2019
3047 Clouds 20 1014 55 10000 1 180 13:56 03.12.2019
3048 Clouds 21 1014 55 10000 1 180 13:37 03.12.2019
3049 Clouds 20 1014 55 10000 1 180 13:19 03.12.2019
3050 Clouds 19 1014 63 10000 2.11 267 12:41 03.12.2019
3051 Clouds 19 1014 63 10000 2.11 267 12:19 03.12.2019
3052 Clouds 21 1013 63 10000 1 0 11:58 03.12.2019
3053 Clouds 21 1013 63 10000 1 0 11:39 03.12.2019
3054 Clouds 16 1013 63 10000 1 0 11:21 03.12.2019
3055 Clouds 16 1012 67 10000 1 0 10:59 03.12.2019
3056 Clouds 16 1012 67 10000 1 0 10:41 03.12.2019
3057 Clouds 16 1012 67 10000 1 0 10:19 03.12.2019
3058 Clouds 16 1012 67 10000 1.5 280 09:46 03.12.2019
3059 Clouds 16 1012 67 10000 1.5 280 09:25 03.12.2019
3060 Clouds 18 1013 55 10000 4.1 180 08:59 03.12.2019
3061 Clouds 18 1013 55 10000 4.1 180 08:59 03.12.2019
3062 Clouds 18 1013 55 10000 4.1 180 08:40 03.12.2019
3063 Clouds 18 1013 55 10000 4.1 180 08:22 03.12.2019
3064 Clouds 18 1013 59 10000 1 0 07:54 03.12.2019
3065 Clouds 18 1013 59 10000 1 0 07:30 03.12.2019
3066 Clouds 19 1013 55 10000 1 0 06:59 03.12.2019
3067 Clouds 19 1013 55 10000 1 0 06:21 03.12.2019
3068 Clouds 19 1014 55 10000 3.1 130 05:56 03.12.2019
3069 Clouds 21 1014 49 10000 3.1 170 04:48 03.12.2019
3070 Clouds 21 1014 49 10000 2.1 170 03:24 03.12.2019
3071 Clouds 22 1014 46 10000 3.6 130 02:58 03.12.2019
3072 Clouds 22 1014 46 10000 3.6 130 02:40 03.12.2019
3073 Clouds 23 1014 46 10000 3.6 130 02:21 03.12.2019
3074 Clouds 24 1015 46 10000 1.5 240 01:41 03.12.2019
3075 Clouds 24 1015 46 10000 1.5 240 01:21 03.12.2019
3076 Clouds 24 1015 44 8000 2.1 240 00:44 03.12.2019
3077 Clouds 24 1015 44 8000 2.1 240 00:44 03.12.2019
3078 Clouds 24 1015 44 8000 2.1 240 00:26 03.12.2019
3079 Clouds 25 1014 39 8000 2.6 240 23:44 02.12.2019
3080 Clouds 26 1014 39 8000 2.6 240 23:23 02.12.2019
3081 Clouds 27 1014 34 10000 3.6 240 22:59 02.12.2019
3082 Clouds 27 1014 34 10000 3.6 240 22:39 02.12.2019
3083 Clouds 27 1014 34 10000 3.6 240 22:21 02.12.2019
3084 Clouds 28 1015 32 8000 3.6 240 21:57 02.12.2019
3085 Clouds 28 1015 32 8000 3.6 240 21:36 02.12.2019
3086 Clouds 28 1015 32 8000 3.6 240 21:36 02.12.2019
3087 Clouds 28 1015 32 8000 3.6 240 21:18 02.12.2019
3088 Clouds 28 1015 28 8000 3.6 240 20:55 02.12.2019
3089 Clouds 28 1015 28 8000 3.6 240 20:55 02.12.2019
3090 Clouds 28 1015 28 8000 3.6 240 20:37 02.12.2019
3091 Clouds 28 1015 28 8000 3.6 240 20:18 02.12.2019
3092 Clouds 29 1015 28 8000 3.6 210 19:42 02.12.2019
3093 Clouds 29 1015 28 8000 3.6 210 19:21 02.12.2019
3094 Clouds 29 1016 32 8000 3.6 230 18:57 02.12.2019
3095 Clouds 29 1016 32 8000 3.6 230 18:57 02.12.2019
3096 Clouds 29 1016 32 8000 3.6 230 18:57 02.12.2019
3097 Clouds 28 1016 32 8000 3.6 230 18:38 02.12.2019
3098 Clouds 28 1016 32 8000 3.6 230 18:18 02.12.2019
3099 Clouds 27 1017 31 10000 1.5 280 17:57 02.12.2019
3100 Clouds 27 1017 31 10000 1.5 280 17:38 02.12.2019
3101 Clouds 26 1017 31 10000 1.5 280 17:19 02.12.2019
3102 Clouds 26 1017 33 10000 2.1 270 16:40 02.12.2019
3103 Clouds 25 1017 33 10000 2.1 270 16:19 02.12.2019
3104 Clouds 25 1017 33 10000 2.1 270 16:19 02.12.2019
3105 Clouds 24 1017 40 8000 1.5 240 15:58 02.12.2019
3106 Clouds 24 1017 40 8000 1.5 240 15:39 02.12.2019
3107 Clouds 24 1017 40 8000 1.5 240 15:21 02.12.2019
3108 Clouds 22 1018 45 10000 1.5 240 14:59 02.12.2019
3109 Clouds 22 1018 45 10000 1.5 240 14:59 02.12.2019
3110 Clouds 19 1018 45 10000 1.5 240 14:38 02.12.2019
3111 Clear 19 1018 45 10000 1.5 240 14:19 02.12.2019
3112 Clear 16 1018 51 10000 0.5 80 13:57 02.12.2019
3113 Clear 16 1018 51 10000 0.5 80 13:39 02.12.2019
3114 Clear 16 1018 51 10000 0.5 80 13:19 02.12.2019
3115 Clear 18 1017 59 10000 1.28 258 12:54 02.12.2019
3116 Clear 18 1017 59 10000 1.28 258 12:54 02.12.2019
3117 Clear 18 1017 59 10000 1.28 258 12:36 02.12.2019
3118 Clear 18 1017 59 10000 1.28 258 12:18 02.12.2019
3119 Clear 19 1017 76 10000 3.1 170 11:38 02.12.2019
3120 Clear 13 1017 76 10000 3.1 170 11:20 02.12.2019
3121 Clear 13 1017 76 10000 3.1 170 11:20 02.12.2019
3122 Clear 14 1016 76 10000 2.6 170 10:58 02.12.2019
3123 Clear 14 1016 76 10000 2.6 170 10:40 02.12.2019
3124 Clear 14 1016 76 10000 2.6 170 10:21 02.12.2019
3125 Clear 14 1016 67 10000 1.5 210 09:56 02.12.2019
3126 Clear 15 1016 67 10000 1.5 210 09:38 02.12.2019
3127 Clear 15 1016 67 10000 1.5 210 09:18 02.12.2019
3128 Clear 14 1016 71 10000 3.1 160 08:55 02.12.2019
3129 Clear 14 1016 71 10000 3.1 160 08:36 02.12.2019
3130 Clear 15 1016 71 10000 3.1 160 08:18 02.12.2019
3131 Clear 15 1016 67 10000 3.6 150 07:39 02.12.2019
3132 Clear 16 1016 67 10000 3.6 150 07:20 02.12.2019
3133 Clear 16 1017 59 10000 3.6 160 06:42 02.12.2019
3134 Clear 17 1017 55 10000 4.1 150 05:49 02.12.2019
3135 Clear 17 1017 55 10000 4.1 150 05:19 02.12.2019
3136 Clear 19 1017 48 10000 4.6 150 03:35 02.12.2019
3137 Clear 20 1016 49 10000 6.7 160 02:50 02.12.2019
3138 Clouds 22 1018 35 10000 2.1 240 01:49 02.12.2019
3139 Clouds 22 1018 35 10000 2.1 240 01:21 02.12.2019
3140 Clouds 24 1017 27 10000 3.1 240 00:39 02.12.2019
3141 Clouds 24 1017 27 10000 3.1 240 00:21 02.12.2019
3142 Clouds 26 1017 26 10000 3.6 240 23:43 01.12.2019
3143 Clouds 26 1017 26 10000 3.6 240 23:22 01.12.2019
3144 Clouds 27 1017 26 10000 3.6 250 22:56 01.12.2019
3145 Clouds 27 1017 26 10000 3.6 250 22:38 01.12.2019
3146 Clouds 28 1017 26 10000 3.6 250 22:19 01.12.2019
3147 Clouds 28 1017 23 10000 4.1 240 21:56 01.12.2019
3148 Clouds 28 1017 23 10000 4.1 240 21:38 01.12.2019
3149 Clouds 28 1017 23 10000 4.1 240 21:20 01.12.2019
3150 Clouds 28 1017 23 10000 4.6 240 20:58 01.12.2019
3151 Clouds 29 1017 23 10000 4.6 240 20:39 01.12.2019
3152 Clouds 29 1017 23 10000 4.6 240 20:21 01.12.2019
3153 Clouds 29 1017 19 10000 5.1 240 19:57 01.12.2019
3154 Clouds 29 1017 19 10000 5.1 240 19:39 01.12.2019
3155 Clouds 29 1017 19 10000 5.1 240 19:20 01.12.2019
3156 Clouds 30 1017 16 10000 4.1 240 18:56 01.12.2019
3157 Clouds 30 1017 16 10000 4.1 240 18:38 01.12.2019
3158 Clouds 30 1017 16 10000 4.1 240 18:18 01.12.2019
3159 Clouds 30 1017 18 10000 3.1 210 17:56 01.12.2019
3160 Clouds 30 1017 18 10000 3.1 210 17:38 01.12.2019
3161 Clouds 29 1017 18 10000 3.1 210 17:20 01.12.2019
3162 Clouds 29 1017 18 10000 3.1 240 16:45 01.12.2019
3163 Clouds 29 1017 18 10000 3.1 240 16:25 01.12.2019
3164 Clouds 27 1016 21 10000 1.5 270 15:59 01.12.2019
3165 Clouds 28 1016 21 10000 1.5 270 15:41 01.12.2019
3166 Clouds 27 1016 21 10000 1.5 270 15:22 01.12.2019
3167 Clouds 26 1016 25 10000 1.5 240 14:38 01.12.2019
3168 Clouds 24 1016 25 10000 1.5 240 14:19 01.12.2019
3169 Clouds 23 1016 32 10000 1.83 276 13:41 01.12.2019
3170 Clouds 23 1016 32 10000 1.93 277 13:23 01.12.2019
3171 Clouds 16 1016 48 10000 1.93 277 12:59 01.12.2019
3172 Clouds 20 1016 48 10000 1.93 277 12:40 01.12.2019
3173 Clouds 20 1016 48 10000 1.93 277 12:40 01.12.2019
3174 Clouds 21 1014 51 10000 0.5 0 11:54 01.12.2019
3175 Clouds 21 1014 51 10000 0.5 0 11:36 01.12.2019
3176 Clouds 19 1014 51 10000 0.5 0 11:18 01.12.2019
3177 Clouds 19 1014 51 10000 0.5 0 11:18 01.12.2019
3178 Clouds 18 1014 47 10000 0.33 352 10:42 01.12.2019
3179 Clouds 15 1014 47 10000 0.33 352 10:20 01.12.2019
3180 Clouds 16 1013 44 10000 0.5 0 09:42 01.12.2019
3181 Clouds 16 1013 44 10000 0.5 0 09:23 01.12.2019
3182 Clouds 17 1012 42 10000 1 0 08:57 01.12.2019
3183 Clouds 20 1012 42 10000 1 0 08:37 01.12.2019
3184 Clear 17 1012 42 10000 1 0 08:18 01.12.2019
3185 Clear 18 1012 42 10000 2.6 150 07:47 01.12.2019
3186 Clear 18 1012 42 10000 2.6 150 07:28 01.12.2019
3187 Clear 20 1012 37 10000 1.5 130 06:52 01.12.2019
3188 Clear 21 1013 32 10000 2.6 170 05:58 01.12.2019
3189 Clear 21 1013 32 10000 2.6 170 05:34 01.12.2019
3190 Clear 23 1013 27 10000 3.1 140 04:29 01.12.2019
3191 Clear 26 1012 24 10000 5.7 180 02:46 01.12.2019
3192 Clear 26 1012 24 10000 5.7 180 02:27 01.12.2019
3193 Clear 26 1013 19 10000 1.5 240 01:54 01.12.2019
3194 Clear 26 1013 19 10000 1.5 240 01:31 01.12.2019
3195 Clear 26 1013 19 10000 1.5 240 01:31 01.12.2019
3196 Clear 27 1012 16 10000 3.6 240 00:50 01.12.2019
3197 Clear 27 1012 16 10000 3.6 240 00:27 01.12.2019
3198 Clear 30 1011 15 10000 3.6 240 23:57 30.11.2019
3199 Clear 30 1011 15 10000 3.6 240 23:37 30.11.2019
3200 Clear 31 1011 15 10000 3.6 240 23:19 30.11.2019
3201 Clear 32 1011 11 10000 3.1 0 22:42 30.11.2019
3202 Clear 32 1011 11 10000 3.1 0 22:23 30.11.2019
3203 Clear 32 1011 13 10000 3.1 230 21:48 30.11.2019
3204 Clear 32 1011 13 10000 3.1 230 21:29 30.11.2019
3205 Clear 33 1011 11 10000 3.6 250 20:58 30.11.2019
3206 Clear 33 1011 11 10000 3.6 250 20:40 30.11.2019
3207 Clear 33 1011 11 10000 3.6 250 20:20 30.11.2019
3208 Clear 32 1012 12 10000 2.6 0 19:57 30.11.2019
3209 Clear 32 1012 12 10000 2.6 0 19:39 30.11.2019
3210 Clear 32 1012 12 10000 2.6 0 19:21 30.11.2019
3211 Clear 31 1012 17 10000 3.1 240 18:59 30.11.2019
3212 Clear 28 1012 17 10000 3.1 240 18:39 30.11.2019
3213 Clear 28 1012 17 10000 3.1 240 18:21 30.11.2019
3214 Clear 27 1013 24 10000 2.1 160 17:59 30.11.2019
3215 Clear 27 1013 24 10000 2.1 160 17:41 30.11.2019
3216 Clear 28 1013 24 10000 2.1 160 17:22 30.11.2019
3217 Clear 27 1014 26 10000 2.1 200 16:59 30.11.2019
3218 Clear 27 1014 26 10000 2.1 200 16:59 30.11.2019
3219 Clear 27 1014 26 10000 2.1 200 16:40 30.11.2019
3220 Clear 27 1014 26 10000 2.1 200 16:21 30.11.2019
3221 Clear 24 1014 31 10000 1 0 15:54 30.11.2019
3222 Clear 24 1014 31 10000 1 0 15:36 30.11.2019
3223 Clear 24 1014 31 10000 1 0 15:18 30.11.2019
3224 Clear 23 1015 40 10000 1.5 200 14:54 30.11.2019
3225 Clear 23 1015 40 10000 1.5 200 14:36 30.11.2019
3226 Clear 21 1015 40 10000 1.5 200 14:18 30.11.2019
3227 Clear 20 1015 48 10000 1 190 13:42 30.11.2019
3228 Clear 20 1015 48 10000 1 190 13:24 30.11.2019
3229 Clear 18 1015 51 10000 1 70 12:47 30.11.2019
3230 Clear 19 1015 51 10000 1 70 12:29 30.11.2019
3231 Clear 20 1014 58 10000 1 0 11:59 30.11.2019
3232 Clear 19 1014 58 10000 1 0 11:41 30.11.2019
3233 Clear 13 1014 58 10000 1 0 11:19 30.11.2019
3234 Clear 14 1013 58 10000 1.5 360 10:54 30.11.2019
3235 Clear 13 1013 58 10000 1.5 360 10:36 30.11.2019
3236 Clear 14 1013 58 10000 1.5 360 10:18 30.11.2019
3237 Clear 14 1013 58 10000 1.5 40 09:42 30.11.2019
3238 Clear 14 1013 58 10000 1.5 40 09:20 30.11.2019
3239 Clear 15 1014 51 10000 1.5 10 08:42 30.11.2019
3240 Clear 15 1014 51 10000 1.5 10 08:19 30.11.2019
3241 Clear 15 1014 54 10000 1.5 340 07:44 30.11.2019
3242 Clear 15 1014 54 10000 1.5 340 07:26 30.11.2019
3243 Clear 19 1015 45 10000 3.6 200 06:49 30.11.2019
3244 Clear 19 1015 45 10000 3.6 200 06:28 30.11.2019
3245 Clear 19 1015 45 10000 3.6 200 06:28 30.11.2019
3246 Clear 18 1015 45 10000 2.6 160 05:33 30.11.2019
3247 Clear 21 1015 40 10000 4.6 200 03:42 30.11.2019
3248 Clear 22 1015 37 10000 5.7 200 02:39 30.11.2019
3249 Clear 22 1015 37 10000 5.7 200 02:20 30.11.2019
3250 Clear 23 1017 22 10000 2.1 240 01:25 30.11.2019
3251 Clear 25 1016 24 10000 3.1 240 00:48 30.11.2019
3252 Clear 25 1016 24 10000 3.1 240 00:30 30.11.2019
3253 Clear 25 1016 12 10000 4.1 220 23:57 29.11.2019
3254 Clear 26 1016 12 10000 4.1 220 23:38 29.11.2019
3255 Clear 26 1016 12 10000 4.1 220 23:18 29.11.2019
3256 Clear 27 1016 11 10000 3.6 240 22:40 29.11.2019
3257 Clear 28 1016 11 10000 3.6 240 22:21 29.11.2019
3258 Clear 27 1017 13 10000 3.6 210 21:43 29.11.2019
3259 Clear 27 1017 13 10000 3.6 210 21:23 29.11.2019
3260 Clear 28 1017 15 10000 4.1 240 20:57 29.11.2019
3261 Clear 28 1017 15 10000 4.1 240 20:38 29.11.2019
3262 Clouds 28 1017 15 10000 4.1 240 20:19 29.11.2019
3263 Clouds 28 1017 18 10000 2.1 210 19:56 29.11.2019
3264 Clouds 28 1017 18 10000 2.1 210 19:38 29.11.2019
3265 Clouds 28 1017 18 10000 2.1 210 19:19 29.11.2019
3266 Clouds 27 1017 15 10000 1.5 210 18:55 29.11.2019
3267 Clouds 26 1017 15 10000 1.5 210 18:37 29.11.2019
3268 Clouds 26 1017 15 10000 1.5 210 18:19 29.11.2019
3269 Clouds 25 1018 22 10000 2.6 210 17:43 29.11.2019
3270 Clouds 25 1018 22 10000 2.6 210 17:23 29.11.2019
3271 Clouds 24 1019 24 10000 2.1 260 16:56 29.11.2019
3272 Clouds 24 1019 24 10000 2.1 260 16:37 29.11.2019
3273 Clouds 23 1019 24 10000 2.1 260 16:18 29.11.2019
3274 Clouds 22 1019 34 10000 1.5 250 15:40 29.11.2019
3275 Clouds 22 1019 34 10000 1.5 250 15:21 29.11.2019
3276 Clouds 20 1019 44 10000 1 130 14:42 29.11.2019
3277 Clouds 18 1019 44 10000 1 130 14:22 29.11.2019
3278 Clouds 18 1019 47 10000 1.5 250 13:59 29.11.2019
3279 Clouds 18 1019 47 10000 1.5 250 13:39 29.11.2019
3280 Clouds 17 1019 47 10000 1.5 250 13:20 29.11.2019
3281 Clouds 16 1019 47 10000 1.5 190 12:45 29.11.2019
3282 Clouds 16 1019 47 10000 1.5 190 12:25 29.11.2019
3283 Clouds 15 1017 62 10000 4.1 150 11:59 29.11.2019
3284 Clouds 15 1017 62 10000 4.1 150 11:41 29.11.2019
3285 Clouds 13 1017 62 10000 4.1 150 11:19 29.11.2019
3286 Clouds 12 1017 62 10000 4.1 160 10:59 29.11.2019
3287 Clouds 13 1017 62 10000 4.1 160 10:39 29.11.2019
3288 Clouds 13 1017 62 10000 4.1 160 10:21 29.11.2019
3289 Clouds 14 1016 54 10000 6.2 170 09:59 29.11.2019
3290 Clouds 14 1016 54 10000 6.2 170 09:40 29.11.2019
3291 Clouds 14 1016 54 10000 6.2 170 09:22 29.11.2019
3292 Clouds 15 1016 47 10000 3.1 150 08:58 29.11.2019
3293 Clouds 15 1016 47 10000 3.1 150 08:38 29.11.2019
3294 Clouds 15 1016 47 10000 3.1 150 08:20 29.11.2019
3295 Clouds 15 1016 44 10000 3.6 150 07:47 29.11.2019
3296 Clouds 15 1016 44 10000 3.6 150 07:23 29.11.2019
3297 Clouds 15 1016 38 10000 4.6 160 06:55 29.11.2019
3298 Clouds 15 1016 38 10000 4.6 160 06:36 29.11.2019
3299 Clouds 16 1016 29 10000 4.6 150 05:47 29.11.2019
3300 Clouds 16 1016 29 10000 4.6 150 05:23 29.11.2019
3301 Clouds 20 1015 19 10000 5.7 180 03:58 29.11.2019
3302 Clouds 20 1015 19 10000 5.7 180 03:58 29.11.2019
3303 Clouds 20 1015 19 10000 5.7 180 03:19 29.11.2019
3304 Clouds 23 1014 18 8000 5.1 160 02:28 29.11.2019
3305 Smoke 22 1015 20 9000 2.1 250 01:51 29.11.2019
3306 Smoke 22 1015 20 9000 2.1 250 01:25 29.11.2019
3307 Clouds 24 1014 23 10000 1.5 230 00:42 29.11.2019
3308 Clouds 24 1014 23 10000 1.5 230 00:20 29.11.2019
3309 Clouds 25 1014 19 10000 4.1 220 23:44 28.11.2019
3310 Clouds 25 1014 19 10000 4.1 220 23:44 28.11.2019
3311 Clouds 26 1014 19 10000 4.1 220 23:21 28.11.2019
3312 Clouds 27 1013 18 10000 5.1 230 22:58 28.11.2019
3313 Clouds 27 1013 18 10000 5.1 230 22:38 28.11.2019
3314 Clouds 27 1013 18 10000 5.1 230 22:38 28.11.2019
3315 Clouds 28 1013 18 10000 5.1 230 22:20 28.11.2019
3316 Clouds 28 1013 16 10000 5.1 230 21:56 28.11.2019
3317 Clouds 29 1013 16 10000 5.1 230 21:37 28.11.2019
3318 Clouds 28 1013 16 10000 5.1 230 21:18 28.11.2019
3319 Clouds 29 1013 20 10000 4.6 240 20:54 28.11.2019
3320 Clouds 29 1013 20 10000 4.6 240 20:36 28.11.2019
3321 Clear 29 1013 14 10000 4.6 240 20:18 28.11.2019
3322 Clear 30 1014 14 10000 3.1 0 19:41 28.11.2019
3323 Clear 31 1014 14 10000 3.1 0 19:22 28.11.2019
3324 Clear 30 1014 16 10000 3.6 0 18:59 28.11.2019
3325 Clear 30 1014 16 10000 3.6 0 18:39 28.11.2019
3326 Clear 30 1014 16 10000 3.6 0 18:18 28.11.2019
3327 Clear 28 1015 18 10000 2.6 0 17:59 28.11.2019
3328 Clear 28 1015 18 10000 2.6 0 17:59 28.11.2019
3329 -273 0 0 0 0 0 17:41 28.11.2019
3330 Clear 28 1015 18 10000 2.6 0 17:22 28.11.2019
3331 Clear 27 1014 19 10000 1.5 170 16:57 28.11.2019
3332 Clear 27 1014 19 10000 1.5 170 16:38 28.11.2019
3333 Clear 27 1014 19 10000 1.5 170 16:18 28.11.2019
3334 Clear 24 1015 25 10000 1.5 220 15:42 28.11.2019
3335 Clear 24 1015 25 10000 1.5 220 15:20 28.11.2019
3336 Clear 22 1015 34 10000 1 160 14:59 28.11.2019
3337 Clear 22 1015 34 10000 1 160 14:41 28.11.2019
3338 Clear 21 1015 34 10000 1 160 14:22 28.11.2019
3339 Clear 18 1015 48 10000 1 140 13:57 28.11.2019
3340 Clear 18 1015 48 10000 1 140 13:39 28.11.2019
3341 Clear 18 1015 48 10000 1 140 13:21 28.11.2019
3342 Clear 17 1015 87 10000 1 30 12:43 28.11.2019
3343 Clear 16 1015 87 10000 1 30 12:24 28.11.2019
3344 Clear 18 1013 54 10000 1.34 276 11:58 28.11.2019
3345 Clear 18 1013 54 10000 1.34 276 11:39 28.11.2019
3346 Clear 12 1013 54 10000 0.38 331 11:20 28.11.2019
3347 Clear 12 1013 54 10000 0.38 331 11:20 28.11.2019
3348 Clear 14 1013 50 10000 0.38 331 10:55 28.11.2019
3349 Clear 14 1013 50 10000 0.38 331 10:37 28.11.2019
3350 Clear 13 1013 50 10000 0.38 331 10:18 28.11.2019
3351 Clear 14 1013 50 10000 1.5 340 09:40 28.11.2019
3352 Clear 14 1013 50 10000 1.5 340 09:21 28.11.2019
3353 Clear 15 1013 47 10000 0.38 331 08:56 28.11.2019
3354 Clear 15 1013 47 10000 0.38 331 08:37 28.11.2019
3355 Clouds 15 1013 47 10000 0.98 265 08:18 28.11.2019
3356 Clouds 16 1014 41 10000 3.6 170 07:41 28.11.2019
3357 -273 0 0 0 0 0 07:23 28.11.2019
3358 Clouds 17 1014 39 10000 3.1 150 06:44 28.11.2019
3359 Clouds 17 1014 39 10000 3.1 150 06:44 28.11.2019
3360 Clouds 17 1014 39 10000 3.1 150 06:22 28.11.2019
3361 Clouds 18 1014 36 10000 2.6 150 05:46 28.11.2019
3362 Clouds 20 1014 32 10000 4.1 140 04:58 28.11.2019
3363 Clouds 23 1013 27 10000 6.2 200 02:37 28.11.2019
3364 Clear 25 1014 17 10000 2.1 240 01:35 28.11.2019
3365 Clear 27 1013 14 10000 3.6 240 00:43 28.11.2019
3366 Clear 27 1013 14 10000 3.6 240 00:20 28.11.2019
3367 Clear 28 1012 13 10000 3.6 240 23:41 27.11.2019
3368 Clear 29 1012 13 10000 3.6 240 23:22 27.11.2019
3369 Clear 30 1013 9 10000 3.6 230 22:59 27.11.2019
3370 Clear 30 1013 9 10000 3.6 230 22:38 27.11.2019
3371 Clear 30 1013 9 10000 3.6 230 22:20 27.11.2019
3372 Clear 31 1013 9 10000 2.6 220 21:56 27.11.2019
3373 Clear 31 1013 9 10000 2.6 220 21:37 27.11.2019
3374 Clear 31 1013 9 10000 2.6 220 21:19 27.11.2019
3375 Clear 30 1013 11 10000 3.1 210 20:57 27.11.2019
3376 Clear 30 1013 11 10000 3.1 210 20:38 27.11.2019
3377 Clear 30 1013 11 10000 3.1 210 20:19 27.11.2019
3378 Clear 29 1014 15 10000 3.1 230 19:57 27.11.2019
3379 Clear 29 1014 15 10000 3.1 230 19:38 27.11.2019
3380 Clear 29 1014 15 10000 3.1 230 19:19 27.11.2019
3381 Clear 28 1015 12 10000 2.1 240 18:58 27.11.2019
3382 Clear 27 1015 12 10000 2.1 240 18:36 27.11.2019
3383 Clear 27 1015 12 10000 2.1 240 18:18 27.11.2019
3384 Clear 26 1015 12 10000 2.1 300 17:55 27.11.2019
3385 Clear 26 1015 12 10000 2.1 300 17:37 27.11.2019
3386 Clear 26 1015 15 10000 2.1 300 17:18 27.11.2019
3387 -273 0 0 0 0 0 16:56 27.11.2019
3388 Clear 24 1016 15 10000 2.1 220 16:36 27.11.2019
3389 Clear 24 1016 15 10000 2.1 220 16:18 27.11.2019
3390 Clear 22 1016 15 10000 1.5 160 15:56 27.11.2019
3391 Clear 22 1016 15 10000 1.5 160 15:56 27.11.2019
3392 Clear 22 1016 15 10000 1.5 160 15:38 27.11.2019
3393 Clear 22 1016 15 10000 1.5 160 15:20 27.11.2019
3394 Clear 20 1017 15 10000 1 310 14:56 27.11.2019
3395 Clear 20 1017 15 10000 1 310 14:56 27.11.2019
3396 Clear 20 1017 15 10000 1 310 14:38 27.11.2019
3397 Clouds 18 1017 22 10000 1 310 14:19 27.11.2019
3398 Clouds 17 1018 22 10000 1 240 13:55 27.11.2019
3399 Clouds 15 1018 22 10000 1 240 13:37 27.11.2019
3400 Clouds 17 1018 21 10000 1 240 13:18 27.11.2019
3401 Clouds 17 1018 21 10000 1 240 13:18 27.11.2019
3402 Clouds 15 1018 47 10000 1.93 266 12:41 27.11.2019
3403 Clouds 15 1018 47 10000 1.93 266 12:22 27.11.2019
3404 Clouds 16 1017 46 8000 2.1 30 11:56 27.11.2019
3405 Clouds 15 1017 57 8000 2.1 330 11:37 27.11.2019
3406 Clouds 12 1017 30 0 0.25 130 11:18 27.11.2019
3407 Clouds 12 932 62 0 0.25 130 10:46 27.11.2019
3408 Clouds 11 1017 46 10000 1 0 10:24 27.11.2019
3409 Clouds 11 1017 46 10000 1 0 09:57 27.11.2019
3410 Clouds 12 1017 46 10000 1 0 09:39 27.11.2019
3411 Clouds 12 1017 46 10000 1 0 09:18 27.11.2019
3412 Clouds 13 1018 37 10000 2.6 180 08:42 27.11.2019
3413 Clouds 13 1018 37 10000 2.6 180 08:23 27.11.2019
3414 Clouds 13 1017 41 10000 1.5 0 07:49 27.11.2019
3415 Clouds 13 1017 41 10000 1.5 0 07:29 27.11.2019
3416 Clouds 14 1018 33 10000 3.6 160 06:55 27.11.2019
3417 Clouds 14 1018 33 10000 3.6 160 06:36 27.11.2019
3418 Clouds 16 1018 36 10000 5.1 160 05:49 27.11.2019
3419 Clouds 16 1018 36 10000 5.1 160 05:26 27.11.2019
3420 Clouds 17 1018 36 10000 3.1 180 04:49 27.11.2019
3421 Clouds 17 1018 36 10000 3.1 180 04:31 27.11.2019
3422 Clouds 18 1018 31 10000 3.6 200 03:43 27.11.2019
3423 Clouds 18 1018 31 10000 3.6 200 03:20 27.11.2019
3424 Clouds 20 1017 29 10000 5.7 210 02:32 27.11.2019
3425 Clear 22 1018 25 10000 3.6 250 00:50 27.11.2019
3426 Clear 22 1018 25 10000 3.6 250 00:31 27.11.2019
3427 Clear 23 1017 15 10000 3.1 210 23:56 26.11.2019
3428 Clear 23 1017 15 10000 3.1 210 23:38 26.11.2019
3429 Clear 24 1017 15 10000 3.1 210 23:19 26.11.2019
3430 Clouds 25 1017 16 10000 2.6 170 22:40 26.11.2019
3431 Clouds 25 1017 16 10000 2.6 170 22:40 26.11.2019
3432 Clouds 25 1017 16 10000 2.6 170 22:20 26.11.2019
3433 Clear 25 1018 17 10000 3.1 240 21:59 26.11.2019
3434 Clear 25 1018 17 10000 3.1 240 21:38 26.11.2019
3435 Clear 25 1018 17 10000 3.1 240 21:20 26.11.2019
3436 Clear 24 1018 17 10000 3.1 210 20:57 26.11.2019
3437 Clear 24 1018 17 10000 3.1 210 20:37 26.11.2019
3438 Clear 24 1018 17 10000 3.1 210 20:19 26.11.2019
3439 Clear 24 1019 24 10000 3.6 240 19:55 26.11.2019
3440 Clear 24 1019 24 10000 3.6 240 19:55 26.11.2019
3441 Clear 24 1019 24 10000 3.6 240 19:37 26.11.2019
3442 Clear 24 1019 24 10000 3.6 240 19:19 26.11.2019
3443 Clear 22 1019 28 10000 2.6 250 18:57 26.11.2019
3444 Clear 22 1019 28 10000 2.6 250 18:39 26.11.2019
3445 Clear 21 1018 28 10000 4.1 150 18:20 26.11.2019
3446 Clear 21 1018 28 10000 4.1 150 17:57 26.11.2019
3447 Clear 21 1020 34 10000 2.6 240 17:39 26.11.2019
3448 Clear 21 1020 34 10000 2.6 240 17:39 26.11.2019
3449 Clear 21 1020 34 10000 2.6 240 17:20 26.11.2019
3450 Clear 18 1021 42 10000 2.6 240 16:57 26.11.2019
3451 Clear 18 1021 42 10000 2.6 240 16:37 26.11.2019
3452 Clear 18 1021 42 10000 2.6 240 16:18 26.11.2019
3453 Clear 18 1021 42 10000 2.6 240 16:18 26.11.2019
3454 Clear 16 1021 44 10000 1.5 300 15:58 26.11.2019
3455 Clear 16 1021 44 10000 1.5 300 15:37 26.11.2019
3456 Clear 16 1021 44 10000 1.5 300 15:19 26.11.2019
3457 Clear 15 1019 39 0 3.45 250 14:47 26.11.2019
3458 Clear 12 1021 57 10000 3.45 250 14:25 26.11.2019
3459 Clear 12 1021 57 10000 2.03 255 13:56 26.11.2019
3460 Clear 12 1021 57 10000 2.03 255 13:38 26.11.2019
3461 Clear 12 1021 57 10000 1.96 260 13:18 26.11.2019
3462 Clear 10 1021 66 10000 1.96 260 12:38 26.11.2019
3463 Clear 12 1021 66 10000 1.96 260 12:20 26.11.2019
3464 Clear 12 1020 61 10000 1 0 11:58 26.11.2019
3465 Clear 12 1020 61 10000 1 0 11:38 26.11.2019
3466 Clear 9 1020 61 10000 1 0 11:20 26.11.2019
3467 Clear 10 1019 57 10000 2.6 20 10:57 26.11.2019
3468 Clear 10 1019 57 10000 2.6 20 10:39 26.11.2019
3469 Clear 10 1019 57 10000 2.6 20 10:20 26.11.2019
3470 Clear 10 1019 57 10000 4.6 180 09:55 26.11.2019
3471 Clear 10 1019 57 10000 4.6 180 09:37 26.11.2019
3472 Clear 10 1019 57 10000 4.6 180 09:18 26.11.2019
3473 Clear 10 1018 61 10000 3.6 160 08:42 26.11.2019
3474 Clouds 10 1018 61 10000 3.6 160 08:22 26.11.2019
3475 Clouds 10 1018 61 10000 2.6 160 07:44 26.11.2019
3476 Clouds 10 1018 61 10000 2.6 160 07:25 26.11.2019
3477 Clouds 11 1019 57 10000 3.1 170 06:54 26.11.2019
3478 Clouds 11 1019 57 10000 3.1 170 06:23 26.11.2019
3479 Clouds 13 1019 50 10000 2.6 150 05:39 26.11.2019
3480 Clouds 14 1019 47 10000 6.2 190 03:58 26.11.2019
3481 Clouds 14 1018 44 10000 8.2 210 02:24 26.11.2019
3482 Clouds 16 1017 44 10000 9.3 220 01:32 26.11.2019
3483 Clouds 17 1018 42 10000 4.1 230 00:50 26.11.2019
3484 Clouds 17 1018 42 10000 4.1 230 00:25 26.11.2019
3485 Clouds 18 1018 45 10000 3.1 180 23:40 25.11.2019
3486 Clouds 19 1018 45 10000 3.1 180 23:20 25.11.2019
3487 Clouds 20 1018 45 10000 3.1 220 22:58 25.11.2019
3488 Clouds 20 1018 45 10000 3.1 220 22:38 25.11.2019
3489 Clouds 20 1018 45 10000 3.1 220 22:18 25.11.2019
3490 Clouds 20 1018 52 7000 2.6 220 21:58 25.11.2019
3491 Clouds 20 1018 52 7000 2.6 220 21:39 25.11.2019
3492 Clouds 20 1018 52 7000 2.6 220 21:19 25.11.2019
3493 Clouds 20 1019 55 7000 2.6 190 20:56 25.11.2019
3494 Clouds 20 1019 55 7000 2.6 190 20:37 25.11.2019
3495 Clouds 20 1019 55 7000 2.6 190 20:19 25.11.2019
3496 Clouds 19 1020 63 7000 3.1 210 19:55 25.11.2019
3497 Clouds 19 1020 63 7000 3.1 210 19:37 25.11.2019
3498 Clouds 19 1020 63 7000 3.1 210 19:18 25.11.2019
3499 Clouds 19 1020 63 7000 3.1 210 19:18 25.11.2019
3500 Clouds 19 1020 59 6000 2.1 200 18:56 25.11.2019
3501 Clouds 19 1020 59 6000 2.1 200 18:38 25.11.2019
3502 Clouds 19 1020 59 6000 2.1 200 18:38 25.11.2019
3503 Clouds 18 1018 52 10000 6.7 170 18:19 25.11.2019
3504 Clouds 18 1018 52 10000 6.7 170 17:56 25.11.2019
3505 Clouds 18 1020 67 7000 2.1 170 17:37 25.11.2019
3506 Clouds 17 1020 71 7000 2.1 250 17:18 25.11.2019
3507 Clouds 17 1020 71 7000 2.1 250 16:55 25.11.2019
3508 Clouds 17 1020 71 7000 2.1 250 16:37 25.11.2019
3509 Clouds 17 1020 71 7000 2.1 250 16:18 25.11.2019
3510 Clouds 16 1019 76 10000 2.1 230 15:41 25.11.2019
3511 Clouds 15 1019 76 10000 2.1 230 15:21 25.11.2019
3512 Clouds 15 1019 76 10000 2.1 260 14:57 25.11.2019
3513 Clouds 15 1019 76 10000 2.1 260 14:39 25.11.2019
3514 Clouds 15 1019 76 10000 2.1 260 14:20 25.11.2019
3515 Clouds 15 1019 76 10000 1.5 220 13:40 25.11.2019
3516 Clouds 14 1019 76 10000 1.5 220 13:21 25.11.2019
3517 Clouds 15 1019 72 10000 2.1 250 12:59 25.11.2019
3518 Clouds 15 1019 72 10000 2.1 250 12:59 25.11.2019
3519 Clouds 15 1019 72 10000 2.1 250 12:40 25.11.2019
3520 Clouds 14 1019 72 10000 2.1 250 12:21 25.11.2019
3521 Clouds 14 1017 76 10000 3.1 180 11:57 25.11.2019
3522 Clouds 14 1017 76 10000 3.1 180 11:38 25.11.2019
3523 Clouds 14 1017 71 10000 4.1 160 11:19 25.11.2019
3524 Clouds 14 1017 71 10000 4.1 160 10:45 25.11.2019
3525 Clouds 14 1017 71 10000 4.1 160 10:27 25.11.2019
3526 Clouds 14 1016 71 10000 3.1 150 09:58 25.11.2019
3527 Clouds 14 1016 71 10000 3.1 150 09:39 25.11.2019
3528 Clouds 14 1016 71 10000 3.1 150 09:21 25.11.2019
3529 Clouds 14 1016 71 10000 3.1 150 08:41 25.11.2019
3530 Clouds 14 1016 71 10000 3.1 150 08:21 25.11.2019
3531 Clouds 14 1016 76 10000 3.1 140 07:43 25.11.2019
3532 Clouds 14 1016 76 10000 3.1 140 07:24 25.11.2019
3533 Clouds 14 1016 76 10000 3.1 140 07:24 25.11.2019
3534 Clouds 15 1017 67 10000 3.1 170 06:49 25.11.2019
3535 Clouds 15 1017 67 10000 3.1 170 06:21 25.11.2019
3536 Clouds 14 1017 76 10000 7.2 190 05:39 25.11.2019
3537 Clouds 14 1017 71 10000 4.6 190 04:52 25.11.2019
3538 Clouds 15 1016 59 10000 6.7 190 03:18 25.11.2019
3539 Clouds 16 1016 67 10000 5.1 200 02:26 25.11.2019
3540 Clouds 17 1015 59 10000 7.2 210 01:40 25.11.2019
3541 Clouds 18 1015 59 10000 7.2 210 01:21 25.11.2019
3542 Clouds 19 1016 45 10000 3.6 210 00:24 25.11.2019
3543 Clouds 21 1016 43 10000 4.1 240 23:59 24.11.2019
3544 Clouds 21 1016 43 10000 4.1 240 23:41 24.11.2019
3545 Clouds 21 1016 43 10000 4.1 240 23:19 24.11.2019
3546 Clouds 22 1016 40 10000 2.1 0 22:56 24.11.2019
3547 Clouds 23 1016 40 10000 2.1 0 22:37 24.11.2019
3548 Clouds 23 1016 40 10000 2.1 0 22:18 24.11.2019
3549 Clouds 23 1017 40 10000 3.1 170 21:42 24.11.2019
3550 Clouds 23 1017 40 10000 3.1 170 21:22 24.11.2019
3551 Clouds 22 1017 46 10000 3.1 240 20:59 24.11.2019
3552 Clouds 22 1017 46 10000 3.1 240 20:40 24.11.2019
3553 Clouds 22 1017 46 10000 3.1 240 20:20 24.11.2019
3554 Clouds 21 1017 46 10000 3.6 220 19:58 24.11.2019
3555 Clouds 21 1017 46 10000 3.6 220 19:40 24.11.2019
3556 Clouds 21 1017 46 10000 3.6 220 19:21 24.11.2019
3557 Clouds 20 1017 52 10000 4.1 0 19:00 24.11.2019
3558 Clouds 21 1017 52 10000 4.1 0 18:38 24.11.2019
3559 Clouds 21 1016 49 10000 7.7 210 18:20 24.11.2019
3560 Clouds 21 1016 49 10000 7.7 210 17:59 24.11.2019
3561 Clouds 21 1016 49 10000 7.7 210 17:59 24.11.2019
3562 Clouds 21 1017 49 10000 4.1 240 17:41 24.11.2019
3563 Clouds 21 1017 49 10000 4.1 240 17:22 24.11.2019
3564 Clouds 20 1017 52 10000 3.6 240 16:59 24.11.2019
3565 Clouds 20 1017 52 10000 3.6 240 16:40 24.11.2019
3566 Clouds 21 1017 52 10000 3.6 240 16:22 24.11.2019
3567 Clouds 20 1017 52 10000 2.1 240 15:56 24.11.2019
3568 Clouds 20 1017 52 10000 2.1 240 15:37 24.11.2019
3569 Clouds 20 1017 52 10000 2.1 240 15:37 24.11.2019
3570 Clouds 20 1017 52 10000 2.1 240 15:37 24.11.2019
3571 Clouds 20 1017 52 10000 2.1 240 15:37 24.11.2019
3572 Clouds 19 1017 52 10000 2.1 240 15:19 24.11.2019
3573 Clouds 18 1017 51 8000 2.1 190 14:39 24.11.2019
3574 Clouds 18 1017 51 8000 2.1 190 14:19 24.11.2019
3575 Clouds 17 1015 59 10000 2.6 170 13:59 24.11.2019
3576 Clouds 17 1016 62 10000 1.5 250 13:38 24.11.2019
3577 Clouds 16 1016 62 10000 1.5 250 13:19 24.11.2019
3578 Clouds 15 1016 58 10000 1 360 12:56 24.11.2019
3579 Clouds 16 1016 58 10000 1 360 12:37 24.11.2019
3580 Clouds 16 1014 62 10000 0.5 0 12:18 24.11.2019
3581 Clouds 15 1014 62 10000 0.5 0 11:38 24.11.2019
3582 Clouds 14 1014 62 10000 0.5 0 11:19 24.11.2019
3583 Clouds 14 1014 62 10000 1 0 10:57 24.11.2019
3584 Clouds 14 1014 62 10000 1 0 10:38 24.11.2019
3585 Clouds 14 1014 62 10000 1 0 10:20 24.11.2019
3586 Clouds 14 1014 62 10000 1.5 120 09:39 24.11.2019
3587 Clouds 14 1014 62 10000 1.5 120 09:20 24.11.2019
3588 Clouds 14 1014 62 10000 2.6 140 08:57 24.11.2019
3589 Clouds 14 1014 62 10000 2.6 140 08:57 24.11.2019
3590 Clouds 14 1014 62 10000 2.6 140 08:39 24.11.2019
3591 Clouds 14 1014 62 10000 2.6 140 08:20 24.11.2019
3592 Clouds 13 1014 66 10000 3.1 160 07:47 24.11.2019
3593 Clouds 13 1014 66 10000 3.1 160 07:21 24.11.2019
3594 Clear 14 1014 62 10000 3.1 150 06:51 24.11.2019
3595 Clear 14 1015 62 10000 3.6 150 05:24 24.11.2019
3596 Clear 14 1015 62 10000 3.1 190 04:40 24.11.2019
3597 Clear 16 1015 59 10000 6.2 190 02:42 24.11.2019
3598 Clear 18 1014 55 10000 8.2 210 01:56 24.11.2019
3599 Clear 18 1014 55 10000 8.2 210 01:34 24.11.2019
3600 Clear 20 1015 49 10000 3.1 250 00:52 24.11.2019
3601 Clear 21 1015 49 10000 3.1 250 00:25 24.11.2019
3602 Clear 22 1015 41 10000 3.1 260 23:57 23.11.2019
3603 Clear 23 1015 41 10000 3.1 260 23:38 23.11.2019
3604 Clear 23 1015 41 10000 3.1 260 23:20 23.11.2019
3605 Clear 23 1015 43 10000 4.1 260 22:55 23.11.2019
3606 Clear 24 1015 43 10000 4.1 260 22:37 23.11.2019
3607 Clear 24 1015 43 10000 4.1 260 22:19 23.11.2019
3608 Clear 24 1016 43 10000 4.1 250 21:55 23.11.2019
3609 Clear 24 1016 43 10000 4.1 250 21:36 23.11.2019
3610 Clear 24 1016 43 10000 4.1 250 21:18 23.11.2019
3611 Clouds 25 1016 41 10000 4.6 240 20:38 23.11.2019
3612 Clouds 25 1016 41 10000 4.6 240 20:20 23.11.2019
3613 Clouds 25 1016 41 10000 4.6 240 20:20 23.11.2019
3614 Clouds 25 1016 44 10000 3.6 260 19:56 23.11.2019
3615 Clouds 25 1016 44 10000 3.6 260 19:38 23.11.2019
3616 Clouds 25 1016 44 10000 3.6 260 19:18 23.11.2019
3617 Clouds 25 1016 44 10000 3.6 260 19:18 23.11.2019
3618 Clouds 25 1017 44 7000 3.1 240 18:55 23.11.2019
3619 Clouds 25 1017 44 7000 3.1 240 18:36 23.11.2019
3620 Clear 24 1015 44 10000 6.7 200 18:18 23.11.2019
3621 Clear 23 1017 49 7000 3.1 230 17:42 23.11.2019
3622 Clear 22 1017 49 7000 3.1 230 17:21 23.11.2019
3623 Clear 22 1017 52 7000 1.5 340 16:57 23.11.2019
3624 Clear 22 1017 52 7000 1.5 340 16:38 23.11.2019
3625 Clear 22 1017 52 7000 1.5 340 16:38 23.11.2019
3626 Clear 22 1017 52 7000 1.5 340 16:20 23.11.2019
3627 Clouds 20 1017 59 10000 1.5 140 15:58 23.11.2019
3628 Clouds 20 1017 59 10000 1.5 140 15:39 23.11.2019
3629 Clouds 20 1017 59 10000 1.5 140 15:19 23.11.2019
3630 Clouds 19 1017 63 7000 1.5 160 14:56 23.11.2019
3631 Clouds 19 1017 63 7000 1.5 160 14:38 23.11.2019
3632 Clouds 19 1017 63 7000 1.5 160 14:38 23.11.2019
3633 Clouds 19 1017 63 7000 1.5 160 14:20 23.11.2019
3634 Clouds 17 1016 76 7000 2.44 262 13:43 23.11.2019
3635 Clouds 16 1016 76 7000 2.36 262 13:20 23.11.2019
3636 Clear 16 1016 72 7000 2.36 262 12:58 23.11.2019
3637 Clear 16 1016 72 7000 2.36 262 12:40 23.11.2019
3638 Clear 16 1016 72 7000 2.36 262 12:22 23.11.2019
3639 Clear 16 1014 82 10000 3.1 150 11:43 23.11.2019
3640 Clear 14 1014 82 10000 3.1 150 11:20 23.11.2019
3641 Clear 13 1013 82 10000 3.1 160 10:45 23.11.2019
3642 Clear 14 1013 82 10000 3.1 160 10:22 23.11.2019
3643 Clear 13 1013 82 10000 4.1 160 09:43 23.11.2019
3644 Clear 14 1013 82 10000 4.1 160 09:21 23.11.2019
3645 Clear 14 1013 76 10000 3.1 150 08:55 23.11.2019
3646 Clear 14 1013 76 10000 3.1 150 08:36 23.11.2019
3647 Clouds 15 1013 76 10000 3.1 150 08:18 23.11.2019
3648 Clouds 15 1014 76 10000 3.1 150 07:39 23.11.2019
3649 Clouds 15 1014 72 10000 3.6 160 06:48 23.11.2019
3650 Clouds 16 1014 72 10000 3.6 160 06:21 23.11.2019
3651 Clouds 16 1014 72 10000 3.6 160 05:53 23.11.2019
3652 Clouds 16 1015 72 10000 4.6 160 05:30 23.11.2019
3653 Clouds 17 1015 72 10000 4.1 160 04:50 23.11.2019
3654 Clouds 17 1015 72 10000 4.1 160 04:28 23.11.2019
3655 Clouds 18 1015 67 10000 5.1 160 03:20 23.11.2019
3656 Clouds 19 1015 63 10000 4.1 160 02:24 23.11.2019
3657 Clouds 19 1015 59 10000 4.6 170 01:38 23.11.2019
3658 Clouds 21 1016 46 10000 2.6 200 00:45 23.11.2019
3659 Clouds 22 1014 49 10000 6.2 200 00:19 23.11.2019
3660 Clouds 23 1015 46 9000 5.1 240 23:42 22.11.2019
3661 Clouds 23 1015 46 9000 5.1 240 23:21 22.11.2019
3662 Clouds 26 1015 41 9000 4.6 240 22:58 22.11.2019
3663 Clouds 26 1015 41 9000 4.6 240 22:39 22.11.2019
3664 Clouds 26 1015 41 9000 4.6 240 22:20 22.11.2019
3665 Clouds 27 1013 41 8000 9.8 210 21:59 22.11.2019
3666 Clouds 27 1013 41 8000 9.8 210 21:39 22.11.2019
3667 Clouds 28 1013 41 8000 9.8 210 21:20 22.11.2019
3668 Clouds 29 1014 32 8000 4.6 240 20:44 22.11.2019
3669 Clouds 29 1014 32 8000 4.6 240 20:22 22.11.2019
3670 Clear 30 1014 32 10000 4.1 230 19:58 22.11.2019
3671 Clear 30 1014 32 10000 4.1 230 19:38 22.11.2019
3672 Clear 30 1014 32 10000 4.1 230 19:19 22.11.2019
3673 Clear 30 1015 32 10000 2.6 220 18:58 22.11.2019
3674 Clear 29 1015 32 10000 2.6 220 18:36 22.11.2019
3675 Clear 29 1015 32 10000 2.6 220 18:18 22.11.2019
3676 Clear 29 1015 32 10000 2.6 220 18:18 22.11.2019
3677 Clear 28 1015 36 10000 3.1 240 17:40 22.11.2019
3678 Clear 27 1015 36 10000 3.1 240 17:22 22.11.2019
3679 Clear 26 1015 41 8000 2.6 210 16:48 22.11.2019
3680 Clear 26 1015 41 8000 2.6 210 16:29 22.11.2019
3681 Clear 24 1015 46 8000 2.1 240 15:47 22.11.2019
3682 Clear 24 1015 46 8000 2.1 240 15:25 22.11.2019
3683 Clear 22 1015 56 10000 2.1 230 14:58 22.11.2019
3684 Clear 22 1015 56 10000 2.1 230 14:39 22.11.2019
3685 Clear 21 1015 56 10000 2.1 230 14:21 22.11.2019
3686 Clear 21 1014 67 10000 0.5 0 13:59 22.11.2019
3687 Clear 21 1014 67 10000 0.5 0 13:37 22.11.2019
3688 Clear 18 1014 67 10000 0.5 0 13:19 22.11.2019
3689 Clear 17 1015 77 10000 2.19 263 12:57 22.11.2019
3690 Clear 17 1015 77 10000 2.19 263 12:39 22.11.2019
3691 Clear 15 1015 77 10000 2.19 263 12:19 22.11.2019
3692 Clear 16 1014 82 8000 2.19 263 11:56 22.11.2019
3693 Clear 16 1014 82 8000 2.19 263 11:56 22.11.2019
3694 Clear 16 1014 82 8000 2.19 263 11:36 22.11.2019
3695 Clear 17 1014 82 8000 0.33 326 11:18 22.11.2019
3696 Clear 16 1014 82 10000 2.1 350 10:42 22.11.2019
3697 Clear 16 1014 82 10000 2.1 350 10:22 22.11.2019
3698 Clear 16 1014 82 10000 1 0 09:59 22.11.2019
3699 Clear 17 1014 82 10000 1 0 09:40 22.11.2019
3700 Clear 17 1014 82 10000 1 0 09:21 22.11.2019
3701 Clear 17 1015 82 10000 3.1 160 08:57 22.11.2019
3702 Clear 17 1015 82 10000 3.1 160 08:37 22.11.2019
3703 Clear 17 1015 82 10000 3.1 160 08:19 22.11.2019
3704 Clear 18 1015 77 10000 2.6 200 07:40 22.11.2019
3705 Clear 18 1015 77 10000 2.6 200 07:19 22.11.2019
3706 Clear 18 1015 77 10000 3.6 170 06:42 22.11.2019
3707 Clear 18 1015 77 10000 3.6 170 06:18 22.11.2019
3708 Clear 19 1016 67 10000 5.1 160 04:55 22.11.2019
3709 Clear 19 1015 67 10000 4.6 160 03:25 22.11.2019
3710 Clear 20 1015 59 10000 5.7 150 02:39 22.11.2019
3711 Clouds 20 1015 59 10000 5.7 150 02:19 22.11.2019
3712 Clouds 21 1014 52 10000 5.1 170 01:42 22.11.2019
3713 Clouds 21 1014 52 10000 5.1 170 01:18 22.11.2019
3714 Clouds 22 1015 49 10000 2.1 200 00:26 22.11.2019
3715 Clouds 24 1015 44 10000 2.6 230 23:59 21.11.2019
3716 Clouds 24 1015 44 10000 2.6 230 23:41 21.11.2019
3717 Clouds 24 1015 44 10000 2.6 230 23:23 21.11.2019
3718 Clouds 26 1015 32 10000 3.1 240 22:54 21.11.2019
3719 Clouds 26 1015 32 10000 3.1 240 22:36 21.11.2019
3720 Clouds 27 1015 32 10000 3.1 240 22:18 21.11.2019
3721 Clouds 28 1015 30 10000 4.1 260 21:54 21.11.2019
3722 Clouds 29 1015 30 10000 4.1 260 21:36 21.11.2019
3723 Clouds 29 1015 30 10000 4.1 260 21:18 21.11.2019
3724 Clouds 29 1015 28 10000 3.6 240 20:55 21.11.2019
3725 Clouds 29 1015 28 10000 3.6 240 20:36 21.11.2019
3726 Clouds 29 1015 28 10000 3.6 240 20:18 21.11.2019
3727 Clouds 29 1013 30 10000 8.2 210 19:41 21.11.2019
3728 Clouds 28 1013 30 10000 8.2 210 19:23 21.11.2019
3729 Clouds 28 1015 28 10000 4.1 240 18:59 21.11.2019
3730 Clouds 28 1015 28 10000 4.1 240 18:40 21.11.2019
3731 Clouds 28 1015 28 10000 4.1 240 18:21 21.11.2019
3732 Clouds 28 1015 28 10000 3.6 250 17:58 21.11.2019
3733 Clouds 28 1015 28 10000 3.6 250 17:39 21.11.2019
3734 Clouds 28 1015 28 10000 3.6 250 17:21 21.11.2019
3735 Clouds 28 1015 24 10000 2.6 250 16:57 21.11.2019
3736 Clouds 28 1015 24 10000 2.6 250 16:39 21.11.2019
3737 Clouds 28 1015 24 10000 2.6 250 16:20 21.11.2019
3738 Clouds 26 1015 25 10000 1 240 15:43 21.11.2019
3739 Clouds 26 1015 25 10000 1 240 15:21 21.11.2019
3740 Clouds 25 1015 33 10000 1.5 180 14:57 21.11.2019
3741 Clouds 25 1015 33 10000 1.5 180 14:57 21.11.2019
3742 Clouds 25 1015 33 10000 1.5 180 14:38 21.11.2019
3743 Clear 24 1015 33 10000 1.5 180 14:19 21.11.2019
3744 Clear 24 1013 43 10000 1.5 0 13:57 21.11.2019
3745 Clear 24 1013 43 10000 1.5 0 13:37 21.11.2019
3746 Clouds 19 1013 43 10000 1.5 0 13:18 21.11.2019
3747 Clouds 21 1014 52 10000 1.77 279 12:40 21.11.2019
3748 Clouds 21 1014 52 10000 1.77 279 12:22 21.11.2019
3749 Clouds 23 1013 55 10000 0.5 0 11:56 21.11.2019
3750 Clouds 22 1013 55 10000 0.5 0 11:37 21.11.2019
3751 Clear 20 1013 55 10000 0.5 0 11:19 21.11.2019
3752 Clear 19 1012 55 10000 1.5 180 10:42 21.11.2019
3753 Clear 19 1012 55 10000 1.5 180 10:24 21.11.2019
3754 Clear 18 1012 51 10000 0.36 311 09:59 21.11.2019
3755 Clear 18 1012 51 10000 0.36 311 09:40 21.11.2019
3756 Clear 19 1012 51 10000 0.36 311 09:22 21.11.2019
3757 Clear 19 1012 48 10000 2.1 0 08:44 21.11.2019
3758 Clear 19 1012 48 10000 2.1 0 08:24 21.11.2019
3759 Clear 19 1012 51 10000 0.5 0 07:46 21.11.2019
3760 Clear 19 1012 51 10000 0.5 0 07:20 21.11.2019
3761 Clear 20 1013 48 10000 1.5 150 06:58 21.11.2019
3762 Clear 20 1013 48 10000 1.5 150 06:37 21.11.2019
3763 Clear 20 1013 48 10000 1.5 150 06:19 21.11.2019
3764 Clear 22 1013 37 10000 4.1 160 04:34 21.11.2019
3765 Clear 24 1013 29 10000 3.6 140 02:42 21.11.2019
3766 Clear 25 1013 29 10000 3.6 140 02:24 21.11.2019
3767 Clear 25 1013 29 10000 3.6 140 02:24 21.11.2019
3768 Clear 27 1013 21 10000 5.1 190 01:52 21.11.2019
3769 Clear 27 1013 21 10000 5.1 190 01:20 21.11.2019
3770 Clear 27 1015 20 10000 2.6 240 00:38 21.11.2019
3771 Clear 27 1015 20 10000 2.6 240 00:20 21.11.2019
3772 Clear 29 1014 15 10000 3.6 220 23:48 20.11.2019
3773 Clear 29 1014 15 10000 3.6 220 23:22 20.11.2019
3774 Clear 30 1014 15 10000 5.1 250 22:58 20.11.2019
3775 Clear 31 1014 15 10000 5.1 250 22:40 20.11.2019
3776 Clear 31 1014 15 10000 5.1 250 22:20 20.11.2019
3777 Clear 32 1014 15 10000 4.1 190 21:58 20.11.2019
3778 Clear 32 1014 15 10000 4.1 190 21:39 20.11.2019
3779 Clear 32 1014 15 10000 4.1 190 21:20 20.11.2019
3780 Clear 32 1014 14 10000 4.1 230 20:57 20.11.2019
3781 Clear 33 1014 14 10000 4.1 230 20:39 20.11.2019
3782 Clear 33 1014 14 10000 4.1 230 20:21 20.11.2019
3783 Clear 32 1012 12 10000 6.7 200 19:56 20.11.2019
3784 Clear 32 1012 12 10000 6.7 200 19:37 20.11.2019
3785 Clear 32 1012 12 10000 6.7 200 19:19 20.11.2019
3786 Clear 32 1015 12 10000 4.1 210 18:58 20.11.2019
3787 Clear 33 1015 12 10000 4.1 210 18:39 20.11.2019
3788 Clear 33 1015 12 10000 4.1 210 18:21 20.11.2019
3789 Clear 32 1015 17 10000 2.6 240 17:56 20.11.2019
3790 Clear 32 1015 17 10000 2.6 240 17:38 20.11.2019
3791 Clear 32 1015 17 10000 2.6 240 17:38 20.11.2019
3792 Clear 32 1015 17 10000 2.6 240 17:38 20.11.2019
3793 Clear 31 1015 17 10000 2.6 240 17:20 20.11.2019
3794 Clear 29 1015 21 10000 2.1 260 16:56 20.11.2019
3795 Clear 29 1015 21 10000 2.1 260 16:37 20.11.2019
3796 Clear 29 1015 21 10000 2.1 260 16:18 20.11.2019
3797 Clear 28 1016 27 10000 1.5 240 15:42 20.11.2019
3798 Clear 27 1016 27 10000 1.5 240 15:22 20.11.2019
3799 Clear 26 1016 29 10000 1.5 240 14:59 20.11.2019
3800 Clear 26 1016 29 10000 1.5 240 14:40 20.11.2019
3801 Clear 25 1016 29 10000 1.5 240 14:22 20.11.2019
3802 Clear 20 1015 40 8000 0.5 0 13:58 20.11.2019
3803 Clear 24 1015 40 8000 0.5 0 13:39 20.11.2019
3804 Clear 20 1015 40 8000 0.5 0 13:20 20.11.2019
3805 Clear 20 1016 67 10000 1 30 12:55 20.11.2019
3806 Clear 20 1016 67 10000 1 30 12:36 20.11.2019
3807 Clear 20 1016 67 10000 1 30 12:18 20.11.2019
3808 Clear 21 1014 58 8000 0.5 40 11:45 20.11.2019
3809 Clear 17 1014 58 8000 0.5 40 11:22 20.11.2019
3810 Clear 18 1014 48 10000 1 0 10:56 20.11.2019
3811 Clear 18 1014 48 10000 1 0 10:38 20.11.2019
3812 Clear 18 1014 48 10000 1 0 10:19 20.11.2019
3813 Clear 18 1014 54 10000 0.37 4 09:44 20.11.2019
3814 Clear 18 1014 54 10000 0.37 4 09:23 20.11.2019
3815 Clear 18 1014 54 8000 1.5 0 08:59 20.11.2019
3816 Clear 18 1014 54 8000 1.5 0 08:39 20.11.2019
3817 Clear 18 1014 54 8000 1.5 0 08:21 20.11.2019
3818 Clear 19 1014 51 10000 2.1 40 07:48 20.11.2019
3819 Clear 19 1014 51 10000 2.1 40 07:28 20.11.2019
3820 Clear 19 1014 51 10000 1 0 06:50 20.11.2019
3821 Clear 19 1014 51 10000 1 0 06:22 20.11.2019
3822 Clear 20 1015 45 10000 2.6 170 05:51 20.11.2019
3823 Clear 21 1014 37 10000 4.1 150 03:52 20.11.2019
3824 Clear 23 1014 33 10000 4.6 140 02:22 20.11.2019
3825 Clear 24 1013 27 10000 5.1 150 01:33 20.11.2019
3826 Clear 26 1015 22 10000 2.6 250 00:42 20.11.2019
3827 Clear 27 1015 21 10000 4.1 240 23:59 19.11.2019
3828 Clear 27 1015 21 10000 4.1 240 23:36 19.11.2019
3829 Clear 27 1015 21 10000 4.1 240 23:18 19.11.2019
3830 Clear 29 1015 21 10000 4.1 250 22:42 19.11.2019
3831 Clear 30 1015 21 10000 4.1 250 22:19 19.11.2019
3832 Clear 31 1015 18 10000 5.1 230 21:57 19.11.2019
3833 Clear 31 1015 18 10000 5.1 230 21:38 19.11.2019
3834 Clear 31 1015 18 10000 5.1 230 21:20 19.11.2019
3835 Clear 32 1014 15 10000 4.6 240 20:57 19.11.2019
3836 Clear 32 1014 15 10000 4.6 240 20:57 19.11.2019
3837 Clear 32 1014 15 10000 4.6 240 20:39 19.11.2019
3838 Clear 32 1014 15 10000 4.6 240 20:20 19.11.2019
3839 Clear 32 1013 17 10000 8.7 210 19:59 19.11.2019
3840 Clear 32 1013 17 10000 8.7 210 19:41 19.11.2019
3841 Clear 33 1013 17 10000 8.7 210 19:19 19.11.2019
3842 Clear 33 1013 17 10000 8.7 210 19:19 19.11.2019
3843 Clear 33 1015 15 10000 3.6 270 18:56 19.11.2019
3844 Clear 34 1015 15 10000 3.6 270 18:38 19.11.2019
3845 Clear 32 1015 15 10000 3.6 270 18:18 19.11.2019
3846 Clear 32 1015 15 10000 3.1 220 17:56 19.11.2019
3847 Clear 31 1015 15 10000 3.1 220 17:37 19.11.2019
3848 Clouds 31 1015 15 10000 3.1 220 17:18 19.11.2019
3849 Clouds 30 1015 16 10000 2.6 240 16:55 19.11.2019
3850 Clouds 31 1015 16 10000 2.6 240 16:37 19.11.2019
3851 Clouds 31 1015 16 10000 2.6 240 16:18 19.11.2019
3852 Clouds 29 1014 18 10000 1.5 180 15:41 19.11.2019
3853 Clouds 30 1014 18 10000 1.5 180 15:23 19.11.2019
3854 Clouds 27 1014 22 10000 3.29 256 14:56 19.11.2019
3855 Clouds 27 1014 22 10000 3.29 256 14:37 19.11.2019
3856 Clouds 25 1014 22 10000 1.68 302 14:19 19.11.2019
3857 Clouds 21 1012 32 7000 1.5 310 13:41 19.11.2019
3858 Clouds 21 1012 32 7000 1.5 310 13:41 19.11.2019
3859 Clouds 18 1012 32 7000 1.5 310 13:20 19.11.2019
3860 Clouds 21 1013 44 10000 1 80 12:42 19.11.2019
3861 Clouds 21 1013 44 10000 1 80 12:23 19.11.2019
3862 Smoke 23 1011 41 5000 2.1 350 11:59 19.11.2019
3863 Smoke 22 1011 41 5000 2.1 350 11:39 19.11.2019
3864 Smoke 19 1011 41 5000 2.1 350 11:20 19.11.2019
3865 Clouds 18 1010 38 8000 0.13 51 10:48 19.11.2019
3866 Clouds 19 1010 38 8000 0.13 51 10:23 19.11.2019
3867 Clouds 19 1010 38 8000 0.13 51 10:23 19.11.2019
3868 Clouds 18 1010 41 8000 1.5 30 09:59 19.11.2019
3869 Clouds 18 1010 41 8000 1.5 30 09:41 19.11.2019
3870 Clouds 19 1010 41 8000 1.5 30 09:19 19.11.2019
3871 Clouds 19 1010 39 10000 1 0 08:42 19.11.2019
3872 Clouds 19 1010 39 10000 1 0 08:24 19.11.2019
3873 Clouds 20 1010 32 10000 2.6 40 07:59 19.11.2019
3874 Clouds 20 1010 32 10000 2.6 40 07:41 19.11.2019
3875 Clouds 20 1010 32 10000 2.6 40 07:22 19.11.2019
3876 Clouds 20 1011 34 10000 0.5 0 06:52 19.11.2019
3877 Clouds 21 1011 34 10000 0.5 0 06:33 19.11.2019
3878 Clouds 22 1011 27 10000 2.6 170 05:44 19.11.2019
3879 Clouds 24 1011 22 10000 4.6 190 04:26 19.11.2019
3880 Clouds 27 1012 20 10000 5.7 180 03:35 19.11.2019
3881 Clouds 27 1011 18 10000 3.6 160 02:57 19.11.2019
3882 Clouds 27 1011 18 10000 3.6 160 02:33 19.11.2019
3883 Clouds 28 1011 17 10000 4.1 190 01:45 19.11.2019
3884 Clouds 30 1013 15 10000 2.1 230 00:22 19.11.2019
3885 Clouds 31 1013 16 10000 2.6 200 23:59 18.11.2019
3886 Clouds 32 1013 16 10000 2.6 200 23:37 18.11.2019
3887 Clouds 31 1013 16 10000 2.6 200 23:18 18.11.2019
3888 Clouds 32 1013 13 10000 3.1 210 22:46 18.11.2019
3889 Clouds 32 1013 13 10000 3.1 210 22:24 18.11.2019
3890 Clouds 33 1013 13 10000 3.1 220 21:57 18.11.2019
3891 Clouds 33 1013 13 10000 3.1 220 21:38 18.11.2019
3892 Clouds 33 1013 13 10000 3.1 220 21:20 18.11.2019
3893 Clouds 32 1014 13 10000 2.6 200 20:57 18.11.2019
3894 Clouds 33 1014 13 10000 2.6 200 20:39 18.11.2019
3895 Clouds 33 1014 15 10000 2.6 200 20:18 18.11.2019
3896 Clouds 31 1013 15 10000 4.1 150 19:56 18.11.2019
3897 Clouds 31 1013 15 10000 4.1 150 19:37 18.11.2019
3898 Clouds 32 1013 15 10000 4.1 150 19:19 18.11.2019
3899 Clouds 31 1015 20 10000 2.6 250 18:55 18.11.2019
3900 Clouds 31 1015 20 10000 2.6 250 18:37 18.11.2019
3901 Clouds 30 1015 20 10000 2.6 250 18:19 18.11.2019
3902 Clouds 29 1015 23 10000 1 260 17:39 18.11.2019
3903 Clouds 29 1015 23 10000 1 260 17:39 18.11.2019
3904 Clouds 29 1015 23 10000 1 260 17:20 18.11.2019
3905 Clouds 27 1016 27 10000 2.1 270 16:57 18.11.2019
3906 Clouds 27 1016 27 10000 2.1 270 16:39 18.11.2019
3907 Clouds 27 1016 27 10000 2.1 270 16:21 18.11.2019
3908 Clouds 26 1016 31 10000 3.13 257 15:56 18.11.2019
3909 Clouds 26 1016 31 10000 3.13 257 15:37 18.11.2019
3910 Clouds 25 1016 31 10000 3.13 257 15:19 18.11.2019
3911 Clouds 24 1016 37 10000 3.13 257 14:42 18.11.2019
3912 Clouds 23 1016 37 10000 3.13 257 14:24 18.11.2019
3913 Clouds 23 1015 39 8000 2.6 30 13:56 18.11.2019
3914 Clouds 21 1015 39 8000 2.6 30 13:37 18.11.2019
3915 Clouds 21 1015 39 8000 2.6 30 13:19 18.11.2019
3916 Clouds 19 1016 55 10000 1 70 12:39 18.11.2019
3917 Clouds 19 1016 55 10000 1 70 12:19 18.11.2019
3918 Clouds 21 1015 54 8000 1 0 11:45 18.11.2019
3919 Clouds 16 1015 54 8000 1 0 11:27 18.11.2019
3920 Clouds 16 1015 54 8000 1 0 11:27 18.11.2019
3921 Clouds 15 1014 58 10000 2.1 340 10:59 18.11.2019
3922 Clouds 15 1014 58 10000 2.1 340 10:40 18.11.2019
3923 Clouds 14 1014 58 10000 2.1 340 10:22 18.11.2019
3924 Clouds 15 1015 54 10000 2.1 360 09:56 18.11.2019
3925 Clouds 15 1015 54 10000 2.1 360 09:37 18.11.2019
3926 Clouds 17 1015 54 10000 2.1 360 09:18 18.11.2019
3927 Clouds 17 1015 54 10000 2.1 360 09:18 18.11.2019
3928 Clouds 17 1015 51 10000 0.5 300 08:44 18.11.2019
3929 Clouds 16 1015 51 10000 0.5 300 08:21 18.11.2019
3930 Clouds 18 1015 51 10000 0.66 305 07:48 18.11.2019
3931 Clouds 18 1015 51 10000 0.66 305 07:29 18.11.2019
3932 Clouds 17 1015 45 10000 3.6 160 06:56 18.11.2019
3933 Clouds 18 1015 45 10000 3.6 160 06:37 18.11.2019
3934 Clouds 19 1015 45 10000 3.6 160 06:18 18.11.2019
3935 Clouds 19 1016 42 10000 3.6 170 04:58 18.11.2019
3936 Clouds 22 1016 33 10000 2.6 140 02:59 18.11.2019
3937 Clouds 23 1015 31 10000 6.2 190 01:31 18.11.2019
3938 Clouds 24 1017 25 10000 2.6 240 00:39 18.11.2019
3939 Clouds 26 1016 21 10000 4.6 240 23:45 17.11.2019
3940 Clouds 26 1016 21 10000 4.6 240 23:25 17.11.2019
3941 Clouds 28 1015 16 10000 3.6 230 22:59 17.11.2019
3942 Clouds 28 1015 16 10000 3.6 230 22:41 17.11.2019
3943 Clouds 28 1015 16 10000 3.6 230 22:23 17.11.2019
3944 Clouds 29 1015 17 10000 4.6 220 21:59 17.11.2019
3945 Clouds 29 1015 17 10000 4.6 220 21:41 17.11.2019
3946 Clouds 29 1015 17 10000 4.6 220 21:19 17.11.2019
3947 Clouds 29 1016 24 10000 3.1 230 20:57 17.11.2019
3948 Clouds 29 1016 24 10000 3.1 230 20:38 17.11.2019
3949 Clouds 29 1016 24 10000 3.1 230 20:19 17.11.2019
3950 Clouds 29 1016 24 10000 3.1 230 20:19 17.11.2019
3951 Clouds 29 1015 18 10000 7.2 200 19:56 17.11.2019
3952 Clouds 29 1015 18 10000 7.2 200 19:38 17.11.2019
3953 Clouds 28 1015 18 10000 7.2 200 19:20 17.11.2019
3954 Clouds 29 1017 22 10000 3.1 180 18:55 17.11.2019
3955 Clouds 29 1017 22 10000 3.1 180 18:37 17.11.2019
3956 Clouds 29 1017 22 10000 3.1 180 18:19 17.11.2019
3957 Clouds 27 1017 22 10000 2.6 230 17:57 17.11.2019
3958 Clouds 27 1017 22 10000 2.6 230 17:57 17.11.2019
3959 Clouds 27 1017 22 10000 2.6 230 17:39 17.11.2019
3960 Clouds 27 1017 22 10000 2.6 230 17:20 17.11.2019
3961 Clouds 25 1017 27 10000 2.1 210 16:57 17.11.2019
3962 Clouds 25 1017 27 10000 2.1 210 16:39 17.11.2019
3963 Clouds 25 1017 27 10000 2.1 210 16:21 17.11.2019
3964 Clouds 24 1017 35 10000 3.66 254 15:55 17.11.2019
3965 Clouds 23 1017 35 10000 3.66 254 15:36 17.11.2019
3966 Clouds 23 1017 35 10000 3.66 254 15:36 17.11.2019
3967 Clouds 23 1017 35 10000 3.66 254 15:18 17.11.2019
3968 Clouds 21 1018 37 10000 1.5 230 14:55 17.11.2019
3969 Clouds 21 1018 37 10000 1.5 230 14:37 17.11.2019
3970 Clouds 18 1018 37 10000 1.5 230 14:18 17.11.2019
3971 Clouds 20 1017 51 10000 3.1 170 13:54 17.11.2019
3972 Clouds 20 1017 51 10000 3.1 170 13:36 17.11.2019
3973 Clouds 19 1017 51 10000 3.1 170 13:18 17.11.2019
3974 Clouds 17 1018 36 10000 1.5 140 12:39 17.11.2019
3975 Clouds 16 1018 36 10000 1.5 140 12:21 17.11.2019
3976 Clouds 16 1018 36 10000 1.5 140 12:21 17.11.2019
3977 Clouds 17 1016 71 10000 2.1 170 11:56 17.11.2019
3978 Clouds 17 1016 71 10000 2.1 170 11:38 17.11.2019
3979 Clear 14 1016 71 10000 2.1 170 11:19 17.11.2019
3980 Clear 14 1016 71 10000 2.1 170 11:19 17.11.2019
3981 Clear 13 1015 66 10000 3.1 160 10:43 17.11.2019
3982 Clear 14 1015 66 10000 3.1 160 10:23 17.11.2019
3983 Clear 13 1015 62 10000 3.1 170 09:57 17.11.2019
3984 Clear 14 1015 62 10000 3.1 170 09:39 17.11.2019
3985 Clear 14 1015 62 10000 3.1 170 09:19 17.11.2019
3986 Clear 14 1015 58 10000 3.1 150 08:38 17.11.2019
3987 Clear 15 1015 58 10000 3.1 150 08:19 17.11.2019
3988 Clear 15 1015 54 10000 4.1 160 07:46 17.11.2019
3989 Clear 15 1015 54 10000 4.1 160 07:22 17.11.2019
3990 Clear 16 1015 44 10000 4.1 150 06:57 17.11.2019
3991 Clear 16 1015 44 10000 4.1 150 06:31 17.11.2019
3992 Clear 17 1015 39 10000 4.6 150 05:39 17.11.2019
3993 Clear 19 1015 36 10000 4.1 160 04:20 17.11.2019
3994 Clear 21 1015 18 10000 3.1 150 03:42 17.11.2019
3995 Clear 21 1015 18 10000 3.1 150 03:23 17.11.2019
3996 Clear 21 1015 18 10000 3.1 160 02:19 17.11.2019
3997 Clear 23 1014 17 10000 8.7 180 01:25 17.11.2019
3998 Clear 25 1016 33 10000 2.6 270 00:49 17.11.2019
3999 Clear 24 1016 33 10000 2.6 270 00:22 17.11.2019
4000 Clouds 27 1016 26 10000 3.1 230 23:43 16.11.2019
4001 Clouds 27 1016 26 10000 3.1 230 23:43 16.11.2019
4002 Clouds 27 1016 26 10000 3.1 230 23:19 16.11.2019
4003 Clouds 28 1016 21 10000 5.7 240 22:58 16.11.2019
4004 Clouds 29 1016 21 10000 5.7 240 22:40 16.11.2019
4005 Clouds 29 1016 21 10000 5.7 240 22:18 16.11.2019
4006 Clouds 30 1015 20 10000 5.7 250 21:41 16.11.2019
4007 Clouds 31 1015 20 10000 5.7 250 21:23 16.11.2019
4008 Clouds 31 1015 20 10000 4.6 240 20:59 16.11.2019
4009 Clouds 31 1015 20 10000 4.6 240 20:41 16.11.2019
4010 Clouds 31 1015 20 10000 4.6 240 20:20 16.11.2019
4011 Clear 31 1014 22 10000 8.7 210 19:57 16.11.2019
4012 Clear 30 1014 22 10000 8.7 210 19:38 16.11.2019
4013 Clear 30 1014 22 10000 8.7 210 19:20 16.11.2019
4014 Clouds 31 1015 23 10000 3.1 270 18:45 16.11.2019
4015 Clouds 31 1015 23 10000 3.1 270 18:27 16.11.2019
4016 Clouds 30 1016 28 10000 2.6 240 17:56 16.11.2019
4017 Clouds 30 1016 28 10000 2.6 240 17:56 16.11.2019
4018 Clouds 30 1016 28 10000 2.6 240 17:37 16.11.2019
4019 Clouds 29 1016 28 10000 2.6 240 17:18 16.11.2019
4020 Clear 27 1016 34 10000 1 10 16:47 16.11.2019
4021 Clear 27 1016 34 10000 1 10 16:28 16.11.2019
4022 Clear 26 1016 38 10000 2.6 240 15:57 16.11.2019
4023 Clear 26 1016 38 10000 2.6 240 15:38 16.11.2019
4024 Clear 26 1016 38 10000 2.6 240 15:20 16.11.2019
4025 Clear 24 1017 41 10000 2.6 230 14:42 16.11.2019
4026 Clouds 24 1017 41 10000 2.6 230 14:22 16.11.2019
4027 Clouds 24 1017 41 10000 2.6 230 14:22 16.11.2019
4028 Clouds 23 1016 53 10000 2.1 330 13:58 16.11.2019
4029 Clouds 23 1016 53 10000 2.1 330 13:39 16.11.2019
4030 Clouds 23 1016 53 10000 2.1 330 13:39 16.11.2019
4031 Clear 21 1016 53 10000 2.1 330 13:19 16.11.2019
4032 Clear 20 1017 59 10000 1.5 30 12:59 16.11.2019
4033 Clear 20 1017 59 10000 1.5 30 12:41 16.11.2019
4034 Clear 20 1017 59 10000 1.5 30 12:20 16.11.2019
4035 Clear 19 1016 67 10000 2.6 140 11:46 16.11.2019
4036 Clear 19 1016 67 10000 2.6 140 11:28 16.11.2019
4037 Clouds 19 1015 63 10000 1.5 270 10:58 16.11.2019
4038 Clouds 20 1015 63 10000 1.5 270 10:40 16.11.2019
4039 Clouds 17 1015 63 10000 1.5 270 10:21 16.11.2019
4040 Clouds 20 1015 56 10000 1.5 140 09:56 16.11.2019
4041 Clouds 20 1015 56 10000 1.5 140 09:36 16.11.2019
4042 Clouds 20 1015 56 10000 1.5 140 09:18 16.11.2019
4043 Clouds 19 1015 59 10000 0.45 351 08:40 16.11.2019
4044 Clear 19 1015 59 10000 0.83 262 08:20 16.11.2019
4045 Clear 20 1015 56 10000 3.1 150 07:43 16.11.2019
4046 Clear 20 1015 56 10000 3.1 150 07:22 16.11.2019
4047 Clear 21 1016 52 10000 2.1 140 06:56 16.11.2019
4048 Clear 21 1016 52 10000 2.1 140 06:35 16.11.2019
4049 Clear 23 1016 46 10000 2.1 130 05:59 16.11.2019
4050 Clear 25 1016 38 10000 5.1 220 04:21 16.11.2019
4051 Clear 25 1016 38 10000 5.1 220 04:21 16.11.2019
4052 Clear 26 1015 36 10000 7.2 210 03:26 16.11.2019
4053 Clear 27 1015 36 10000 6.2 220 02:35 16.11.2019
4054 Clear 30 1014 30 10000 5.7 220 01:32 16.11.2019
4055 Clear 31 1015 22 10000 2.6 210 00:47 16.11.2019
4056 Clear 31 1015 22 10000 2.6 210 00:28 16.11.2019
4057 Clear 32 1015 19 10000 2.6 200 23:44 15.11.2019
4058 Clear 31 1015 19 10000 2.6 200 23:23 15.11.2019
4059 Clear 32 1015 19 10000 3.6 220 22:59 15.11.2019
4060 Clear 32 1015 19 10000 3.6 220 22:39 15.11.2019
4061 Clear 32 1015 19 10000 3.6 220 22:19 15.11.2019
4062 Clear 32 1015 17 10000 4.6 250 21:55 15.11.2019
4063 Clear 32 1015 17 10000 4.6 250 21:37 15.11.2019
4064 Clear 32 1015 17 10000 4.6 250 21:19 15.11.2019
4065 Clear 32 1016 17 10000 4.1 180 20:56 15.11.2019
4066 Clear 32 1016 17 10000 4.1 180 20:38 15.11.2019
4067 Clear 32 1016 17 10000 4.1 180 20:19 15.11.2019
4068 Clear 31 1014 18 10000 6.7 170 19:56 15.11.2019
4069 Clear 32 1014 18 10000 6.7 170 19:37 15.11.2019
4070 Clear 31 1014 18 10000 6.7 170 19:19 15.11.2019
4071 Clear 31 1017 19 10000 2.6 190 18:42 15.11.2019
4072 Clear 31 1017 19 10000 2.6 190 18:24 15.11.2019
4073 Clear 30 1017 23 10000 1.5 270 17:58 15.11.2019
4074 Clear 30 1017 23 10000 1.5 270 17:39 15.11.2019
4075 Clear 30 1017 23 10000 1.5 270 17:39 15.11.2019
4076 Clear 30 1017 23 10000 1.5 270 17:20 15.11.2019
4077 Clear 28 1018 26 10000 3.1 210 16:54 15.11.2019
4078 Clear 28 1018 26 10000 3.1 210 16:36 15.11.2019
4079 Clear 28 1018 26 10000 3.1 210 16:18 15.11.2019
4080 Clear 27 1018 27 10000 1.5 300 15:37 15.11.2019
4081 Clear 26 1018 27 10000 1.5 300 15:19 15.11.2019
4082 Clear 24 1018 33 10000 0.5 90 14:56 15.11.2019
4083 Clear 24 1018 33 10000 0.5 90 14:37 15.11.2019
4084 Clear 23 1018 33 10000 0.5 90 14:19 15.11.2019
4085 Clear 23 1017 42 10000 1.5 270 13:56 15.11.2019
4086 Clear 23 1017 42 10000 1.5 270 13:38 15.11.2019
4087 Clear 21 1017 42 10000 1.5 270 13:20 15.11.2019
4088 Clear 21 1018 45 10000 1 30 12:57 15.11.2019
4089 Clear 21 1018 45 10000 1 30 12:37 15.11.2019
4090 Clear 20 1018 45 10000 1 30 12:18 15.11.2019
4091 Clear 22 1016 54 10000 1 0 11:55 15.11.2019
4092 Clear 21 1016 54 10000 1 0 11:37 15.11.2019
4093 Clear 18 1016 54 10000 1 0 11:19 15.11.2019
4094 Clear 18 1016 54 8000 0.7 246 10:39 15.11.2019
4095 Clear 16 1016 54 8000 0.7 246 10:21 15.11.2019
4096 Clear 18 1016 48 10000 1 0 09:58 15.11.2019
4097 Clear 18 1016 48 10000 1 0 09:58 15.11.2019
4098 Clear 18 1016 48 10000 1 0 09:39 15.11.2019
4099 Clear 18 1016 48 10000 1 0 09:18 15.11.2019
4100 Clear 18 1016 48 8000 2.1 140 08:42 15.11.2019
4101 Clear 19 1016 48 8000 2.1 140 08:21 15.11.2019
4102 Clear 19 1016 48 8000 2.1 140 08:21 15.11.2019
4103 Clear 19 1016 48 10000 2.1 100 07:46 15.11.2019
4104 Clear 20 1016 48 10000 2.1 100 07:26 15.11.2019
4105 Clear 20 1016 45 10000 0.57 286 06:36 15.11.2019
4106 Clear 22 1016 37 10000 2.6 170 05:57 15.11.2019
4107 Clear 21 1016 37 10000 2.6 170 05:39 15.11.2019
4108 Clear 22 1016 40 10000 2.6 110 04:58 15.11.2019
4109 Clear 24 1016 35 10000 3.1 210 03:46 15.11.2019
4110 Clear 24 1015 33 10000 2.6 160 02:44 15.11.2019
4111 Clear 25 1014 31 10000 7.7 210 01:58 15.11.2019
4112 Clear 25 1014 31 10000 7.7 210 01:32 15.11.2019
4113 Clear 26 1014 26 10000 7.2 210 00:46 15.11.2019
4114 Clear 27 1014 26 10000 7.2 210 00:27 15.11.2019
4115 Clear 27 1014 26 10000 7.2 210 23:49 14.11.2019
4116 Clear 29 1014 21 10000 7.2 220 23:27 14.11.2019
4117 Clear 31 1015 23 10000 3.1 210 22:57 14.11.2019
4118 Clear 30 1015 23 10000 3.1 210 22:39 14.11.2019
4119 Clear 31 1015 23 10000 3.1 210 22:19 14.11.2019
4120 Clear 31 1015 23 10000 3.1 190 21:42 14.11.2019
4121 Clear 31 1015 23 10000 3.1 190 21:23 14.11.2019
4122 Clear 30 1016 25 10000 3.1 190 20:56 14.11.2019
4123 Clear 30 1016 25 10000 3.1 190 20:37 14.11.2019
4124 Clouds 30 1016 25 10000 3.1 190 20:19 14.11.2019
4125 Clouds 30 1015 24 10000 6.2 0 19:58 14.11.2019
4126 Clouds 30 1015 24 10000 6.2 0 19:40 14.11.2019
4127 Clouds 30 1015 24 10000 6.2 0 19:18 14.11.2019
4128 Clouds 30 1015 28 10000 5.1 140 18:43 14.11.2019
4129 Clouds 29 1015 28 10000 5.1 140 18:24 14.11.2019
4130 Clouds 28 1015 28 10000 5.1 140 17:58 14.11.2019
4131 Clouds 28 1017 32 8000 3.1 260 17:38 14.11.2019
4132 Clouds 27 1017 36 8000 2.6 200 17:20 14.11.2019
4133 Clouds 26 1017 36 8000 2.6 200 16:58 14.11.2019
4134 Clouds 26 1017 36 8000 2.6 200 16:39 14.11.2019
4135 Clouds 26 1017 36 8000 2.6 200 16:20 14.11.2019
4136 Clouds 25 1015 38 10000 1.5 260 15:58 14.11.2019
4137 Clouds 26 1015 38 10000 1.5 260 15:39 14.11.2019
4138 Clouds 25 1015 38 10000 1.5 260 15:20 14.11.2019
4139 Clouds 25 1015 38 10000 1.5 260 15:20 14.11.2019
4140 Clouds 23 1018 46 10000 3.04 255 14:58 14.11.2019
4141 Clouds 23 1018 46 10000 3.04 255 14:39 14.11.2019
4142 Clouds 23 1018 46 10000 3.04 255 14:39 14.11.2019
4143 Clouds 23 1018 46 10000 2.54 252 14:21 14.11.2019
4144 Clouds 22 1017 49 10000 1.5 60 13:42 14.11.2019
4145 Clouds 22 1017 49 10000 1.5 60 13:23 14.11.2019
4146 Clouds 20 1017 55 10000 1.5 200 12:59 14.11.2019
4147 Clouds 20 1017 55 10000 1.5 200 12:40 14.11.2019
4148 Clouds 20 1017 55 10000 1.5 200 12:21 14.11.2019
4149 Clouds 19 1017 59 10000 1.5 160 11:55 14.11.2019
4150 Clouds 19 1017 59 10000 1.5 160 11:37 14.11.2019
4151 Clouds 19 1017 59 10000 1.5 160 11:19 14.11.2019
4152 Clouds 18 1016 67 10000 1.5 10 10:56 14.11.2019
4153 Clouds 18 1016 67 10000 1.5 10 10:37 14.11.2019
4154 Clouds 17 1016 67 10000 1.5 10 10:19 14.11.2019
4155 Clouds 17 1016 67 10000 1.5 10 10:19 14.11.2019
4156 Clouds 18 1016 45 0 0.41 281 09:42 14.11.2019
4157 Clouds 17 1017 55 10000 3.6 150 09:24 14.11.2019
4158 Clouds 17 1017 55 10000 3.6 150 08:58 14.11.2019
4159 Clouds 17 1017 55 10000 3.6 150 08:39 14.11.2019
4160 Clear 17 1017 55 10000 3.6 150 08:21 14.11.2019
4161 Clear 17 1017 55 10000 3.6 150 07:42 14.11.2019
4162 Clear 17 1017 55 10000 3.6 150 07:23 14.11.2019
4163 Clear 17 1017 59 10000 4.6 160 06:46 14.11.2019
4164 Clear 17 1017 59 10000 4.6 160 06:20 14.11.2019
4165 Clear 20 1017 49 10000 1.5 130 05:27 14.11.2019
4166 Clear 18 1018 56 0 1.05 241 04:35 14.11.2019
4167 Clear 23 1017 40 10000 7.7 180 02:51 14.11.2019
4168 Clear 23 1017 40 10000 7.7 180 02:29 14.11.2019
4169 Clear 23 1015 40 10000 7.2 190 01:40 14.11.2019
4170 Clear 24 1017 36 10000 3.1 230 00:56 14.11.2019
4171 Clear 24 1017 36 10000 3.1 230 00:36 14.11.2019
4172 Clear 24 1017 36 10000 3.1 230 00:18 14.11.2019
4173 Clear 27 1016 28 10000 4.1 230 23:38 13.11.2019
4174 Clear 27 1016 28 10000 4.1 230 23:38 13.11.2019
4175 Clear 27 1016 28 10000 4.1 230 23:19 13.11.2019
4176 Clear 28 1016 26 10000 4.1 240 22:42 13.11.2019
4177 Clear 29 1016 26 10000 4.1 240 22:23 13.11.2019
4178 Clear 30 1016 27 10000 4.6 230 21:57 13.11.2019
4179 Clear 30 1016 27 10000 4.6 230 21:39 13.11.2019
4180 Clear 30 1016 27 10000 4.6 230 21:21 13.11.2019
4181 Clear 30 1016 23 10000 4.1 220 20:58 13.11.2019
4182 Clear 30 1016 23 10000 4.1 220 20:58 13.11.2019
4183 Clear 30 1016 23 10000 4.1 220 20:38 13.11.2019
4184 Clear 30 1016 23 10000 4.1 220 20:38 13.11.2019
4185 Clouds 30 1016 23 10000 4.1 220 20:20 13.11.2019
4186 Clouds 29 1015 30 10000 4.6 170 19:59 13.11.2019
4187 Clouds 29 1015 30 10000 4.6 170 19:40 13.11.2019
4188 Clouds 29 1015 30 10000 4.6 170 19:18 13.11.2019
4189 Clouds 29 1017 32 10000 3.6 200 18:55 13.11.2019
4190 Clouds 29 1017 32 10000 3.6 200 18:37 13.11.2019
4191 Clouds 29 1017 32 10000 3.6 200 18:18 13.11.2019
4192 Clouds 28 1017 34 10000 2.1 260 17:56 13.11.2019
4193 Clouds 28 1017 34 10000 2.1 260 17:56 13.11.2019
4194 Clouds 28 1017 34 10000 2.1 260 17:37 13.11.2019
4195 Clouds 28 1017 34 10000 2.1 260 17:19 13.11.2019
4196 Clouds 26 1018 38 10000 2.1 260 16:56 13.11.2019
4197 Clouds 26 1018 38 10000 2.1 260 16:37 13.11.2019
4198 Clouds 25 1018 38 10000 2.1 260 16:19 13.11.2019
4199 Clouds 23 1018 49 10000 3.62 254 15:57 13.11.2019
4200 Clouds 23 1018 49 10000 3.62 254 15:37 13.11.2019
4201 Clouds 23 1018 49 10000 3.4 253 15:18 13.11.2019
4202 Clouds 23 1017 43 0 3.62 254 14:41 13.11.2019
4203 Clear 19 1017 72 7000 1 0 14:21 13.11.2019
4204 Clear 19 1017 72 7000 1 0 13:39 13.11.2019
4205 Clear 19 1017 72 7000 1 0 13:39 13.11.2019
4206 Clear 16 1017 72 7000 1 0 13:20 13.11.2019
4207 Clear 14 1017 67 10000 2.12 263 12:59 13.11.2019
4208 Clear 17 1017 67 10000 2.12 263 12:41 13.11.2019
4209 Clear 16 1017 67 10000 2.12 263 12:23 13.11.2019
4210 Clouds 16 1017 87 6000 1.5 260 11:57 13.11.2019
4211 Fog 15 1017 93 6000 2.6 260 11:38 13.11.2019
4212 Fog 15 1017 93 6000 2.6 260 11:38 13.11.2019
4213 Fog 11 1017 93 6000 2.6 260 11:19 13.11.2019
4214 Clear 14 1017 71 0 1.46 241 10:55 13.11.2019
4215 Clouds 13 1017 82 7000 1.5 170 10:37 13.11.2019
4216 Clouds 13 1017 82 7000 1.5 170 10:19 13.11.2019
4217 Clear 13 1016 82 8000 2.6 150 09:42 13.11.2019
4218 Clear 13 1016 82 8000 2.6 150 09:21 13.11.2019
4219 Clouds 12 1016 87 8000 3.1 160 08:42 13.11.2019
4220 Clouds 12 1016 87 8000 3.1 160 08:23 13.11.2019
4221 Clear 13 1016 87 10000 4.6 160 07:59 13.11.2019
4222 Clear 13 1016 87 10000 4.6 160 07:39 13.11.2019
4223 Clear 13 1016 87 10000 4.6 160 07:18 13.11.2019
4224 Clear 13 1016 87 10000 4.6 160 07:18 13.11.2019
4225 Clear 15 1016 77 10000 4.1 160 06:42 13.11.2019
4226 Clear 15 1016 77 10000 4.1 160 06:19 13.11.2019
4227 Clear 16 1016 72 10000 4.6 140 05:47 13.11.2019
4228 Clear 16 1016 72 10000 4.6 140 05:19 13.11.2019
4229 Clear 18 1016 63 10000 6.2 160 03:56 13.11.2019
4230 Rain 20 1014 56 10000 6.7 150 01:52 13.11.2019
4231 Rain 20 1014 56 10000 6.7 150 01:27 13.11.2019
4232 Rain 22 1013 53 10000 6.2 190 00:43 13.11.2019
4233 Rain 24 1013 47 10000 6.7 210 23:56 12.11.2019
4234 Rain 24 1013 47 10000 6.7 210 23:38 12.11.2019
4235 Clear 25 1013 47 10000 6.7 210 23:18 12.11.2019
4236 Clear 26 1014 36 10000 5.1 240 22:42 12.11.2019
4237 Clear 26 1014 36 10000 5.1 240 22:19 12.11.2019
4238 Clear 27 1012 39 10000 9.3 220 21:56 12.11.2019
4239 Clear 28 1012 39 10000 9.3 220 21:38 12.11.2019
4240 Clear 27 1012 39 10000 9.3 220 21:38 12.11.2019
4241 Clear 28 1012 39 10000 9.3 220 21:19 12.11.2019
4242 Clear 28 1014 28 10000 4.1 240 20:55 12.11.2019
4243 Clear 28 1014 28 10000 4.1 240 20:36 12.11.2019
4244 Clouds 29 1014 28 10000 4.1 240 20:18 12.11.2019
4245 Clouds 29 1013 34 10000 6.2 200 19:55 12.11.2019
4246 Clouds 29 1013 34 10000 6.2 200 19:55 12.11.2019
4247 Clouds 29 1013 34 10000 6.2 200 19:37 12.11.2019
4248 Clouds 29 1013 34 10000 6.2 200 19:18 12.11.2019
4249 Clouds 28 1015 30 10000 2.6 250 18:55 12.11.2019
4250 Clouds 28 1015 30 10000 2.6 250 18:55 12.11.2019
4251 Clouds 28 1015 30 10000 2.6 250 18:36 12.11.2019
4252 Clouds 28 1015 30 10000 2.6 250 18:18 12.11.2019
4253 Clouds 25 1014 44 10000 4.6 190 17:55 12.11.2019
4254 Clouds 25 1014 44 10000 4.6 190 17:36 12.11.2019
4255 Clouds 25 1014 44 10000 4.6 190 17:36 12.11.2019
4256 Clear 25 1014 44 10000 4.6 190 17:18 12.11.2019
4257 Clear 25 1014 49 10000 5.1 180 16:42 12.11.2019
4258 Clear 24 1014 49 10000 5.1 180 16:24 12.11.2019
4259 Clear 23 1016 52 9000 2.1 250 15:55 12.11.2019
4260 Clear 23 1016 52 9000 2.1 250 15:37 12.11.2019
4261 Clear 23 1016 52 9000 2.1 250 15:18 12.11.2019
4262 Clear 22 1015 59 10000 1.5 230 14:41 12.11.2019
4263 Clear 20 1015 59 10000 1.5 230 14:20 12.11.2019
4264 Clear 20 1015 72 10000 1.5 260 13:58 12.11.2019
4265 Clear 20 1015 72 10000 1.5 260 13:39 12.11.2019
4266 Clear 19 1015 72 10000 1.5 260 13:19 12.11.2019
4267 Clear 19 1014 82 10000 1.5 210 12:58 12.11.2019
4268 Clear 18 1014 82 10000 1.5 210 12:39 12.11.2019
4269 Clear 18 1014 82 10000 1.5 210 12:18 12.11.2019
4270 Clouds 16 1014 87 10000 1.5 250 11:43 12.11.2019
4271 Clouds 16 1014 87 10000 1.5 250 11:23 12.11.2019
4272 Clear 15 1013 82 10000 1 0 10:58 12.11.2019
4273 Clear 15 1013 82 10000 1 0 10:40 12.11.2019
4274 Clear 15 1013 82 10000 1 0 10:21 12.11.2019
4275 Clouds 16 1013 82 10000 3.1 170 09:59 12.11.2019
4276 Clouds 16 1013 82 10000 3.1 170 09:38 12.11.2019
4277 Clouds 15 1013 82 10000 3.1 170 09:18 12.11.2019
4278 Clouds 14 1013 82 10000 3.6 170 08:47 12.11.2019
4279 Clouds 14 1013 82 10000 4.1 160 08:28 12.11.2019
4280 Clouds 15 1013 82 10000 4.1 160 07:42 12.11.2019
4281 Clouds 15 1014 82 10000 4.6 160 07:24 12.11.2019
4282 Clouds 15 1014 82 10000 4.6 160 06:51 12.11.2019
4283 Clouds 16 1014 82 10000 4.6 160 06:24 12.11.2019
4284 Clouds 16 1014 72 10000 3.1 150 05:52 12.11.2019
4285 Clouds 17 1013 72 10000 2.6 160 04:51 12.11.2019
4286 Clouds 17 1013 72 10000 2.6 160 04:20 12.11.2019
4287 Clouds 20 1013 60 10000 6.2 170 01:53 12.11.2019
4288 Clouds 20 1013 60 10000 6.2 170 01:26 12.11.2019
4289 Clouds 21 1013 56 10000 5.1 210 00:53 12.11.2019
4290 Clouds 21 1013 56 10000 5.1 210 00:32 12.11.2019
4291 Clouds 23 1012 46 10000 5.7 190 23:55 11.11.2019
4292 Clouds 23 1012 46 10000 5.7 190 23:36 11.11.2019
4293 Clouds 24 1012 46 10000 5.7 190 23:18 11.11.2019
4294 Clouds 25 1014 44 7000 3.6 260 22:38 11.11.2019
4295 Clouds 25 1014 44 7000 3.6 260 22:19 11.11.2019
4296 Clouds 26 1012 41 10000 7.7 210 21:58 11.11.2019
4297 Clouds 26 1012 41 10000 7.7 210 21:39 11.11.2019
4298 Clouds 26 1012 41 10000 7.7 210 21:20 11.11.2019
4299 Clouds 27 1012 39 10000 7.7 210 20:55 11.11.2019
4300 Clouds 27 1012 39 10000 7.7 210 20:37 11.11.2019
4301 Clouds 27 1012 39 10000 7.7 210 20:19 11.11.2019
4302 Clouds 28 1013 41 10000 6.7 210 19:42 11.11.2019
4303 Clouds 26 1013 41 10000 6.7 210 19:19 11.11.2019
4304 Clouds 26 1015 38 7000 3.1 240 18:57 11.11.2019
4305 Clouds 26 1015 38 7000 3.1 240 18:39 11.11.2019
4306 Clouds 26 1015 38 7000 3.1 240 18:20 11.11.2019
4307 Clouds 26 1014 43 10000 5.7 160 17:44 11.11.2019
4308 Clouds 25 1014 43 10000 5.7 160 17:26 11.11.2019
4309 Clouds 24 1015 43 7000 3.1 250 16:55 11.11.2019
4310 Clouds 24 1015 43 7000 3.1 250 16:37 11.11.2019
4311 Clouds 24 1015 43 7000 3.1 250 16:37 11.11.2019
4312 Clouds 24 1015 43 7000 3.1 250 16:37 11.11.2019
4313 Clouds 24 1015 43 7000 3.1 250 16:19 11.11.2019
4314 Clouds 23 1015 46 8000 2.6 260 15:41 11.11.2019
4315 Clouds 23 1015 46 8000 2.6 260 15:20 11.11.2019
4316 Clouds 22 1015 45 8000 1.5 210 14:54 11.11.2019
4317 Clouds 22 1015 45 8000 1.5 210 14:54 11.11.2019
4318 Clouds 22 1015 45 8000 1.5 210 14:36 11.11.2019
4319 Clouds 22 1015 45 8000 1.5 210 14:18 11.11.2019
4320 Clouds 21 1014 63 10000 3.1 0 13:39 11.11.2019
4321 Clouds 19 1014 63 10000 3.1 0 13:21 11.11.2019
4322 Clouds 19 1015 55 10000 1.76 267 12:58 11.11.2019
4323 Clouds 19 1015 55 10000 1.76 267 12:58 11.11.2019
4324 Clouds 19 1015 55 10000 1.76 267 12:40 11.11.2019
4325 Clouds 19 1015 55 10000 1.76 267 12:22 11.11.2019
4326 Clouds 19 1013 67 10000 2.6 170 11:57 11.11.2019
4327 Clouds 19 1013 67 10000 2.6 170 11:57 11.11.2019
4328 Clouds 19 1013 67 10000 2.6 170 11:38 11.11.2019
4329 Clouds 18 1013 67 10000 2.6 170 11:20 11.11.2019
4330 Clouds 18 1011 67 10000 2.1 150 10:42 11.11.2019
4331 Clouds 16 1011 67 10000 2.1 150 10:18 11.11.2019
4332 Clouds 17 1010 71 10000 0.27 269 09:58 11.11.2019
4333 Clouds 18 1010 71 10000 0.27 269 09:39 11.11.2019
4334 Clouds 18 1010 71 10000 0.27 269 09:19 11.11.2019
4335 Clouds 18 1010 67 10000 0.5 0 08:41 11.11.2019
4336 Clouds 18 1010 67 10000 0.5 0 08:22 11.11.2019
4337 Clouds 19 1010 63 10000 2.1 10 07:57 11.11.2019
4338 Clouds 19 1010 63 10000 2.1 10 07:37 11.11.2019
4339 Clouds 19 1010 63 10000 2.1 10 07:19 11.11.2019
4340 Clouds 19 1010 59 10000 2.1 190 06:48 11.11.2019
4341 Clouds 17 1010 59 10000 2.1 190 06:23 11.11.2019
4342 Clouds 17 1011 55 10000 3.1 170 05:51 11.11.2019
4343 Clouds 19 1011 52 10000 4.1 160 04:36 11.11.2019
4344 Clouds 20 1011 52 10000 4.1 150 03:23 11.11.2019
4345 Clouds 23 1011 46 10000 6.2 160 02:26 11.11.2019
4346 Clear 23 1011 43 10000 6.7 150 01:56 11.11.2019
4347 Clear 22 1011 43 10000 6.7 150 01:34 11.11.2019
4348 Clear 24 1011 36 10000 5.1 160 00:49 11.11.2019
4349 Clear 24 1011 36 10000 5.1 160 00:49 11.11.2019
4350 Clear 24 1011 36 10000 5.1 160 00:21 11.11.2019
4351 Clear 27 1010 30 10000 5.7 200 23:40 10.11.2019
4352 Clear 28 1010 30 10000 5.7 200 23:20 10.11.2019
4353 Clear 28 1010 30 10000 5.7 200 23:20 10.11.2019
4354 Clear 29 1010 30 10000 8.2 200 22:58 10.11.2019
4355 Clear 29 1010 30 10000 8.2 200 22:39 10.11.2019
4356 Clear 29 1010 30 10000 8.2 200 22:20 10.11.2019
4357 Clear 29 1012 19 10000 4.6 240 21:59 10.11.2019
4358 Clear 29 1012 19 10000 4.6 240 21:40 10.11.2019
4359 Clear 30 1012 19 10000 4.6 240 21:21 10.11.2019
4360 Clear 31 1012 18 10000 4.6 240 20:58 10.11.2019
4361 Clear 31 1012 18 10000 4.6 240 20:38 10.11.2019
4362 Clear 31 1012 18 10000 4.6 240 20:20 10.11.2019
4363 Clear 31 1012 18 10000 4.6 240 20:20 10.11.2019
4364 Clear 31 1010 23 10000 9.8 210 19:55 10.11.2019
4365 Clear 32 1010 23 10000 9.8 210 19:37 10.11.2019
4366 Clear 32 1010 23 10000 9.8 210 19:18 10.11.2019
4367 Clear 33 1012 17 10000 2.6 210 18:54 10.11.2019
4368 Clear 33 1012 17 10000 2.6 210 18:36 10.11.2019
4369 Clear 33 1012 17 10000 2.6 210 18:18 10.11.2019
4370 Clear 32 1012 15 10000 2.6 260 17:55 10.11.2019
4371 Clear 32 1012 15 10000 2.6 260 17:55 10.11.2019
4372 Clear 32 1012 15 10000 2.6 260 17:37 10.11.2019
4373 Clear 31 1012 15 10000 2.6 260 17:18 10.11.2019
4374 Clear 29 1012 18 10000 1.5 260 16:43 10.11.2019
4375 Clear 30 1012 18 10000 1.5 260 16:25 10.11.2019
4376 Clear 27 1012 21 10000 1.5 240 15:56 10.11.2019
4377 Clear 29 1012 21 10000 1.5 240 15:38 10.11.2019
4378 Clear 28 1012 21 10000 1.5 240 15:19 10.11.2019
4379 Clear 26 1013 27 10000 3.05 263 14:58 10.11.2019
4380 Clear 26 1013 27 10000 3.05 263 14:38 10.11.2019
4381 Clouds 24 1013 27 10000 1.21 256 14:20 10.11.2019
4382 Clouds 23 1011 32 10000 1 0 13:55 10.11.2019
4383 Clouds 24 1011 32 10000 1 0 13:36 10.11.2019
4384 Clear 22 1011 32 10000 1 0 13:18 10.11.2019
4385 Clear 19 1013 42 10000 1.25 251 12:41 10.11.2019
4386 -273 0 0 0 0 0 12:19 10.11.2019
4387 Clear 22 1011 50 8000 1.5 350 11:56 10.11.2019
4388 Clear 21 1011 50 8000 1.5 350 11:38 10.11.2019
4389 Clouds 18 1011 50 8000 1.5 350 11:19 10.11.2019
4390 Clouds 17 1011 50 10000 1 0 10:42 10.11.2019
4391 Clouds 18 1011 50 10000 1 0 10:22 10.11.2019
4392 Clouds 18 1011 47 10000 0.5 0 09:57 10.11.2019
4393 Clouds 18 1011 47 10000 0.5 0 09:39 10.11.2019
4394 Clouds 18 1011 47 10000 0.5 0 09:19 10.11.2019
4395 Clouds 18 1011 47 10000 1 0 08:39 10.11.2019
4396 Clear 18 1011 47 10000 1 0 08:20 10.11.2019
4397 Clear 19 1011 45 10000 1 270 07:46 10.11.2019
4398 Clear 19 1011 45 10000 1 270 07:27 10.11.2019
4399 Clear 20 1012 39 10000 1.5 200 06:59 10.11.2019
4400 Clear 21 1012 35 10000 1.5 140 05:57 10.11.2019
4401 Clear 24 1012 27 10000 4.1 140 03:33 10.11.2019
4402 Clear 26 1012 22 10000 7.2 200 02:28 10.11.2019
4403 Clear 28 1011 18 10000 6.2 210 01:36 10.11.2019
4404 Clear 29 1011 18 10000 6.2 210 01:18 10.11.2019
4405 Clear 29 1013 22 10000 3.1 240 00:23 10.11.2019
4406 Clear 29 1013 22 10000 3.1 240 00:23 10.11.2019
4407 Clear 31 1012 14 10000 4.1 250 23:40 09.11.2019
4408 Clear 31 1012 14 10000 4.1 250 23:19 09.11.2019
4409 Clear 31 1010 14 10000 6.7 220 22:42 09.11.2019
4410 Clear 32 1010 14 10000 6.7 220 22:22 09.11.2019
4411 Clear 32 1012 13 10000 3.1 220 21:58 09.11.2019
4412 Clear 32 1012 13 10000 3.1 220 21:39 09.11.2019
4413 Clear 32 1012 13 10000 3.1 220 21:21 09.11.2019
4414 Clear 33 1012 11 10000 3.6 240 20:56 09.11.2019
4415 Clear 32 1012 11 10000 3.6 240 20:37 09.11.2019
4416 Clear 33 1012 11 10000 3.6 240 20:18 09.11.2019
4417 Clear 32 1011 12 10000 5.1 180 19:41 09.11.2019
4418 Clear 32 1011 12 10000 5.1 180 19:23 09.11.2019
4419 Clear 31 1013 14 10000 2.1 230 18:59 09.11.2019
4420 Clear 31 1013 14 10000 2.1 230 18:39 09.11.2019
4421 Clear 31 1013 14 10000 2.1 230 18:19 09.11.2019
4422 Clear 30 1014 17 10000 2.1 270 17:43 09.11.2019
4423 Clear 29 1014 17 10000 2.1 270 17:23 09.11.2019
4424 Clear 28 1014 26 10000 1.5 270 16:59 09.11.2019
4425 Clear 28 1014 26 10000 1.5 270 16:40 09.11.2019
4426 Clear 27 1014 26 10000 1.5 270 16:19 09.11.2019
4427 Clear 26 1014 29 10000 2.1 270 15:42 09.11.2019
4428 Clear 26 1014 29 10000 2.1 270 15:24 09.11.2019
4429 Clear 24 1014 35 10000 1 190 14:57 09.11.2019
4430 Clear 24 1014 35 10000 1 190 14:39 09.11.2019
4431 Clear 24 1014 35 10000 1 190 14:18 09.11.2019
4432 Clear 22 1014 51 10000 1.5 20 13:55 09.11.2019
4433 Clear 22 1014 51 10000 1.5 20 13:36 09.11.2019
4434 Clear 19 1014 51 10000 1.5 20 13:18 09.11.2019
4435 Clear 18 1015 67 10000 1.5 40 12:41 09.11.2019
4436 Clear 18 1015 67 10000 1.5 40 12:22 09.11.2019
4437 Clear 20 1013 66 8000 0.8 257 11:55 09.11.2019
4438 Clear 19 1013 66 8000 0.8 257 11:37 09.11.2019
4439 Clear 16 1013 66 8000 0.98 76 11:18 09.11.2019
4440 Clear 15 1013 71 8000 1 0 10:40 09.11.2019
4441 Clear 15 1013 71 8000 1 0 10:19 09.11.2019
4442 Clear 16 1012 62 10000 1 0 09:48 09.11.2019
4443 Clear 17 1012 62 10000 1 0 09:28 09.11.2019
4444 Clear 16 1012 62 10000 2.1 10 08:59 09.11.2019
4445 Clear 16 1012 62 10000 2.1 10 08:40 09.11.2019
4446 Clouds 16 1012 62 10000 2.1 10 08:21 09.11.2019
4447 Clouds 17 1013 58 10000 0.29 84 07:46 09.11.2019
4448 Clouds 17 1013 58 10000 0.29 84 07:23 09.11.2019
4449 Clouds 18 1013 59 10000 2.6 150 06:49 09.11.2019
4450 Clouds 18 1013 59 10000 2.6 150 06:31 09.11.2019
4451 Clouds 18 1013 55 10000 1.5 150 05:45 09.11.2019
4452 Clouds 19 1013 52 10000 3.6 170 04:58 09.11.2019
4453 Clouds 21 1014 45 10000 2.1 140 03:52 09.11.2019
4454 Clouds 21 1013 40 10000 2.6 200 02:43 09.11.2019
4455 Clouds 22 1013 37 10000 3.6 150 01:55 09.11.2019
4456 Clouds 23 1014 35 10000 2.1 230 00:53 09.11.2019
4457 Clouds 23 1014 35 10000 2.1 230 00:31 09.11.2019
4458 Clouds 23 1014 35 10000 2.1 230 00:31 09.11.2019
4459 Clouds 25 1013 31 10000 2.6 200 23:58 08.11.2019
4460 Clouds 25 1013 31 10000 2.6 200 23:39 08.11.2019
4461 Clouds 25 1013 31 10000 2.6 200 23:19 08.11.2019
4462 Clouds 25 1013 31 10000 2.6 200 23:19 08.11.2019
4463 Clouds 26 1013 26 10000 3.1 220 22:48 08.11.2019
4464 Clouds 26 1013 26 10000 3.1 220 22:22 08.11.2019
4465 Clouds 27 1013 26 10000 3.1 240 21:57 08.11.2019
4466 Clouds 27 1013 26 10000 3.1 240 21:39 08.11.2019
4467 Clouds 27 1013 26 10000 3.1 240 21:19 08.11.2019
4468 Clouds 28 1013 20 10000 2.1 0 20:43 08.11.2019
4469 Clouds 28 1013 20 10000 2.1 0 20:22 08.11.2019
4470 Clouds 28 1013 21 10000 2.6 210 19:59 08.11.2019
4471 Clouds 28 1013 21 10000 2.6 210 19:39 08.11.2019
4472 Clouds 28 1013 21 10000 2.6 210 19:18 08.11.2019
4473 Clouds 28 1013 22 10000 3.6 240 18:56 08.11.2019
4474 Clouds 28 1013 22 10000 3.6 240 18:56 08.11.2019
4475 Clouds 28 1013 22 10000 3.6 240 18:56 08.11.2019
4476 Clouds 28 1013 22 10000 3.6 240 18:38 08.11.2019
4477 Clouds 28 1013 22 10000 3.6 240 18:38 08.11.2019
4478 Clouds 28 1013 22 10000 3.6 240 18:19 08.11.2019
4479 Clouds 28 1012 21 10000 2.6 210 17:55 08.11.2019
4480 Clouds 28 1012 21 10000 2.6 210 17:37 08.11.2019
4481 Clouds 27 1012 21 10000 2.6 210 17:19 08.11.2019
4482 Clouds 25 1012 23 10000 1.5 0 16:58 08.11.2019
4483 Clouds 26 1012 23 10000 1.5 0 16:39 08.11.2019
4484 Clouds 25 1012 23 10000 1.5 0 16:19 08.11.2019
4485 Clouds 25 1012 23 10000 1.5 0 16:19 08.11.2019
4486 Clouds 25 1012 28 10000 1 240 15:57 08.11.2019
4487 Clouds 25 1012 28 10000 1 240 15:38 08.11.2019
4488 Clouds 25 1012 28 10000 1 240 15:20 08.11.2019
4489 Clouds 24 1012 30 10000 1 310 14:55 08.11.2019
4490 Clouds 23 1012 30 10000 1 310 14:36 08.11.2019
4491 Clouds 21 1012 30 10000 1 310 14:18 08.11.2019
4492 Clouds 21 1012 39 10000 1 280 13:57 08.11.2019
4493 Clouds 21 1012 39 10000 1 280 13:38 08.11.2019
4494 Clouds 19 1012 39 10000 1 280 13:19 08.11.2019
4495 Clouds 19 1012 51 10000 1 330 12:42 08.11.2019
4496 Clouds 19 1012 51 10000 1 330 12:24 08.11.2019
4497 Clouds 19 1010 51 10000 1.5 260 11:57 08.11.2019
4498 Clouds 19 1010 51 10000 1.5 260 11:38 08.11.2019
4499 Clouds 19 1010 51 10000 1.5 260 11:38 08.11.2019
4500 Clouds 17 1010 51 10000 1.5 260 11:19 08.11.2019
4501 Clouds 17 1009 42 10000 1.5 90 10:56 08.11.2019
4502 Clouds 18 1009 42 10000 1.5 90 10:38 08.11.2019
4503 Clouds 19 1009 42 10000 1.5 90 10:20 08.11.2019
4504 Clouds 16 1009 44 10000 0.38 60 09:41 08.11.2019
4505 Clouds 16 1009 44 10000 0.38 60 09:20 08.11.2019
4506 Clouds 17 1009 42 10000 1.5 290 08:58 08.11.2019
4507 Clouds 17 1009 42 10000 1.5 290 08:37 08.11.2019
4508 Clouds 17 1009 42 10000 1.5 290 08:18 08.11.2019
4509 Clouds 18 1009 42 10000 3.6 140 07:40 08.11.2019
4510 Clouds 18 1009 42 10000 3.6 140 07:22 08.11.2019
4511 Clouds 20 1010 32 10000 3.1 140 06:41 08.11.2019
4512 Clouds 20 1010 32 10000 3.1 140 06:21 08.11.2019
4513 Clouds 21 1010 28 10000 1.5 130 05:55 08.11.2019
4514 Clouds 21 1010 28 10000 1.5 130 05:21 08.11.2019
4515 Clouds 23 1010 25 10000 2.6 150 03:44 08.11.2019
4516 Clouds 23 1010 25 10000 2.6 150 03:21 08.11.2019
4517 Clouds 19 1013 33 0 0.88 257 02:42 08.11.2019
4518 Clouds 21 1013 27 0 1.35 231 01:47 08.11.2019
4519 Clouds 21 1013 27 0 1.35 231 01:24 08.11.2019
4520 Clouds 28 1007 27 0 1.28 243 00:24 08.11.2019
4521 Clouds 28 1007 27 0 1.28 243 23:58 07.11.2019
4522 Clouds 28 1007 27 0 1.28 243 23:40 07.11.2019
4523 Clear 28 1007 27 0 3.74 240 23:22 07.11.2019
4524 Clear 29 1007 26 0 3.74 240 22:42 07.11.2019
4525 Clear 29 1007 26 0 3.74 240 22:42 07.11.2019
4526 Clear 29 1005 32 0 3.74 240 22:21 07.11.2019
4527 Clear 30 1007 26 0 3.74 240 21:56 07.11.2019
4528 Clear 30 1007 24 0 3.74 240 21:37 07.11.2019
4529 Clear 30 1005 31 0 3.74 240 21:19 07.11.2019
4530 Clear 32 1006 31 0 3.74 240 20:57 07.11.2019
4531 Clear 32 1006 21 0 3.74 240 20:39 07.11.2019
4532 Clear 32 1006 29 0 3.64 252 20:21 07.11.2019
4533 Clear 32 1007 24 0 3.64 252 19:55 07.11.2019
4534 Clear 31 1006 31 0 3.64 252 19:36 07.11.2019
4535 Clear 30 1007 24 0 3.64 252 19:18 07.11.2019
4536 Clear 32 1007 24 0 3.64 252 18:55 07.11.2019
4537 Clear 31 1007 25 0 3.64 252 18:37 07.11.2019
4538 Clear 33 924 23 0 1.34 225 18:19 07.11.2019
4539 Clear 32 924 25 0 1.34 180 17:40 07.11.2019
4540 Clear 30 1007 29 0 3.16 263 17:21 07.11.2019
4541 Clear 30 1008 29 0 3.16 263 16:58 07.11.2019
4542 Clear 30 1007 32 0 3.16 263 16:40 07.11.2019
4543 Clear 29 1008 35 0 3.16 263 16:20 07.11.2019
4544 Clear 29 1008 36 0 3.16 263 15:57 07.11.2019
4545 Clear 30 925 32 0 3.16 263 15:39 07.11.2019
4546 Clear 29 926 33 0 3.16 263 15:19 07.11.2019
4547 Clear 28 926 36 0 3.16 263 14:45 07.11.2019
4548 Clear 27 926 37 0 3.16 263 14:27 07.11.2019
4549 Clear 27 926 37 0 3.16 263 14:27 07.11.2019
4550 Clear 24 697 41 0 0.81 240 13:57 07.11.2019
4551 Clear 23 697 41 0 0.81 240 13:38 07.11.2019
4552 Clear 19 1014 44 10000 0.56 215 13:20 07.11.2019
4553 Clear 19 1014 44 10000 0.56 215 12:58 07.11.2019
4554 Clear 19 1014 44 10000 0.56 215 12:40 07.11.2019
4555 Clear 19 1014 44 10000 0.56 215 12:21 07.11.2019
4556 Clear 20 1013 54 10000 1 0 11:58 07.11.2019
4557 Clear 20 1013 54 10000 1 0 11:39 07.11.2019
4558 Clear 12 1013 54 10000 1 0 11:20 07.11.2019
4559 Clear 14 1012 47 10000 3.1 30 10:40 07.11.2019
4560 Clear 14 1012 47 10000 3.1 30 10:19 07.11.2019
4561 Clear 14 1013 50 10000 2.6 280 09:43 07.11.2019
4562 Clear 14 1013 50 10000 2.6 280 09:22 07.11.2019
4563 Clear 15 1013 41 10000 2.3 88 08:57 07.11.2019
4564 Clear 15 1013 41 10000 2.3 88 08:38 07.11.2019
4565 Clear 16 1013 41 10000 1.73 96 08:20 07.11.2019
4566 Clear 16 1013 41 10000 1 0 07:42 07.11.2019
4567 Clear 18 1013 41 10000 1 0 07:22 07.11.2019
4568 Clear 19 1014 28 10000 3.6 150 07:00 07.11.2019
4569 Clear 19 1014 28 10000 3.6 150 06:41 07.11.2019
4570 Clear 20 1014 28 10000 3.6 150 06:22 07.11.2019
4571 Clear 21 1015 26 10000 4.6 190 05:47 07.11.2019
4572 Clear 21 1015 26 10000 4.6 190 05:29 07.11.2019
4573 Clear 22 1015 28 10000 1.5 240 04:49 07.11.2019
4574 Clear 22 1015 28 10000 1.5 240 04:28 07.11.2019
4575 Clear 26 1015 25 10000 5.7 210 01:18 07.11.2019
4576 Clear 26 1016 22 10000 2.6 230 00:26 07.11.2019
4577 Clear 27 1016 18 10000 3.6 240 23:50 06.11.2019
4578 Clear 28 1016 18 10000 3.6 240 23:23 06.11.2019
4579 Clear 29 1015 20 10000 4.1 230 22:59 06.11.2019
4580 Clear 29 1015 20 10000 4.1 230 22:39 06.11.2019
4581 Clear 29 1015 20 10000 4.1 230 22:20 06.11.2019
4582 Clear 29 1016 20 10000 3.6 250 21:57 06.11.2019
4583 Clear 29 1016 20 10000 3.6 250 21:39 06.11.2019
4584 Clear 30 1016 20 10000 3.6 250 21:19 06.11.2019
4585 Clear 29 1016 15 10000 3.1 240 20:56 06.11.2019
4586 Clear 29 1016 15 10000 3.1 240 20:38 06.11.2019
4587 Clear 29 1016 15 10000 3.1 240 20:19 06.11.2019
4588 Clear 29 1016 17 10000 2.6 210 19:55 06.11.2019
4589 Clear 29 1016 17 10000 2.6 210 19:36 06.11.2019
4590 Clear 30 1016 17 10000 2.6 210 19:18 06.11.2019
4591 Clear 29 1017 20 10000 2.1 180 18:40 06.11.2019
4592 Clear 29 1017 20 10000 2.1 180 18:20 06.11.2019
4593 Clear 27 1017 24 10000 1 220 17:59 06.11.2019
4594 Clear 27 1017 24 10000 1 220 17:41 06.11.2019
4595 Clear 27 1017 24 10000 1 220 17:41 06.11.2019
4596 Clear 27 1017 24 10000 1 220 17:23 06.11.2019
4597 Clear 27 1017 24 10000 1 220 17:23 06.11.2019
4598 Clear 26 1018 29 10000 3.1 220 16:57 06.11.2019
4599 Clear 25 1018 29 10000 3.1 220 16:38 06.11.2019
4600 Clear 25 1018 29 10000 3.1 220 16:20 06.11.2019
4601 Clear 23 1018 35 10000 2.1 150 15:57 06.11.2019
4602 Clear 23 1018 35 10000 2.1 150 15:37 06.11.2019
4603 Clear 23 1018 35 10000 2.1 150 15:19 06.11.2019
4604 Clear 21 1018 39 10000 1 40 14:57 06.11.2019
4605 Clear 21 1018 39 10000 1 40 14:38 06.11.2019
4606 Clear 20 1018 39 10000 1 40 14:20 06.11.2019
4607 Clear 19 1018 48 10000 1 320 13:57 06.11.2019
4608 Clear 19 1018 48 10000 1 320 13:37 06.11.2019
4609 Clear 19 1018 48 10000 1 320 13:18 06.11.2019
4610 Clear 16 1018 66 10000 1 30 12:54 06.11.2019
4611 Clear 16 1018 66 10000 1 30 12:36 06.11.2019
4612 Clear 17 1018 66 10000 1 30 12:18 06.11.2019
4613 Clear 19 1016 61 8000 1.5 10 11:54 06.11.2019
4614 Clear 18 1016 61 8000 1.5 10 11:36 06.11.2019
4615 Clear 12 1016 61 8000 1.5 10 11:18 06.11.2019
4616 Clear 12 1016 66 10000 1 0 10:42 06.11.2019
4617 Clear 12 1016 66 10000 1 0 10:24 06.11.2019
4618 Clear 12 1016 66 10000 1 0 10:24 06.11.2019
4619 Clear 14 1015 58 10000 2.6 160 09:58 06.11.2019
4620 Clear 14 1015 58 10000 2.6 160 09:38 06.11.2019
4621 Clear 14 1015 58 10000 2.6 160 09:20 06.11.2019
4622 Clear 14 1015 54 10000 2.1 160 08:55 06.11.2019
4623 Clear 14 1015 54 10000 2.1 160 08:37 06.11.2019
4624 Clear 14 1015 54 10000 2.1 160 08:37 06.11.2019
4625 Clear 14 1015 54 10000 2.1 160 08:37 06.11.2019
4626 Clear 15 1015 54 10000 2.1 160 08:18 06.11.2019
4627 Clear 14 1015 58 10000 0.47 249 07:43 06.11.2019
4628 Clear 14 1015 58 10000 0.47 249 07:24 06.11.2019
4629 Clear 15 1015 44 10000 3.1 160 06:48 06.11.2019
4630 Clear 16 1015 44 10000 3.1 160 06:28 06.11.2019
4631 Clear 17 1015 45 10000 2.1 140 05:32 06.11.2019
4632 Clear 20 1015 37 10000 4.1 150 02:54 06.11.2019
4633 Clouds 21 1014 35 10000 8.2 200 01:41 06.11.2019
4634 Clouds 23 1015 23 10000 2.6 230 00:46 06.11.2019
4635 Clouds 23 1015 23 10000 2.6 230 00:46 06.11.2019
4636 Clouds 24 1014 38 10000 4.1 240 23:59 05.11.2019
4637 Clouds 25 1014 38 10000 4.1 240 23:40 05.11.2019
4638 Clouds 25 1014 28 10000 4.1 240 23:21 05.11.2019
4639 Clouds 27 1013 15 10000 2.6 220 22:55 05.11.2019
4640 Clouds 27 1013 15 10000 2.6 220 22:37 05.11.2019
4641 Clouds 27 1013 15 10000 2.6 220 22:18 05.11.2019
4642 Clouds 27 1014 28 10000 2.1 240 21:42 05.11.2019
4643 Clouds 27 1014 28 10000 2.1 240 21:21 05.11.2019
4644 Clouds 28 1014 18 10000 3.6 190 20:59 05.11.2019
4645 Clouds 28 1014 18 10000 3.6 190 20:39 05.11.2019
4646 Clouds 28 1014 18 10000 3.6 190 20:20 05.11.2019
4647 Clouds 27 1014 24 10000 3.6 0 19:58 05.11.2019
4648 Clouds 27 1014 24 10000 3.6 0 19:38 05.11.2019
4649 Clouds 27 1014 24 10000 3.6 0 19:20 05.11.2019
4650 Clouds 26 1015 27 10000 2.6 190 18:57 05.11.2019
4651 Clouds 27 1015 27 10000 2.6 190 18:39 05.11.2019
4652 Clouds 27 1015 27 10000 2.6 190 18:39 05.11.2019
4653 Clouds 27 1015 27 10000 2.6 190 18:20 05.11.2019
4654 Clouds 25 1015 33 10000 2.1 260 17:58 05.11.2019
4655 Clouds 24 1015 33 10000 2.1 260 17:39 05.11.2019
4656 Clouds 24 1015 33 10000 2.1 260 17:19 05.11.2019
4657 Clouds 23 1015 35 10000 1.5 240 16:55 05.11.2019
4658 Clouds 22 1015 35 10000 1.5 240 16:37 05.11.2019
4659 Clouds 22 1015 35 10000 1.5 240 16:18 05.11.2019
4660 Clouds 21 1015 55 10000 1.5 240 15:38 05.11.2019
4661 Clouds 20 1015 55 10000 1.5 240 15:19 05.11.2019
4662 Clouds 20 1016 51 10000 1.5 270 14:58 05.11.2019
4663 Clouds 20 1016 51 10000 1.5 270 14:39 05.11.2019
4664 Clouds 19 1016 51 10000 1.5 270 14:21 05.11.2019
4665 Clouds 16 1016 66 10000 1.31 241 13:44 05.11.2019
4666 Clouds 16 1016 66 10000 1.43 244 13:25 05.11.2019
4667 Clouds 14 1016 71 10000 1.43 244 12:59 05.11.2019
4668 Clouds 13 1016 71 10000 1.43 244 12:39 05.11.2019
4669 Clouds 13 1016 71 10000 1.43 244 12:20 05.11.2019
4670 Clouds 13 1016 71 10000 1.43 244 12:20 05.11.2019
4671 Clouds 17 1015 71 8000 1.43 244 11:55 05.11.2019
4672 Clouds 17 1015 71 8000 1.43 244 11:37 05.11.2019
4673 Clouds 11 1015 71 8000 0.16 220 11:18 05.11.2019
4674 Clouds 11 1014 76 8000 0.16 220 10:42 05.11.2019
4675 Clouds 11 1014 76 8000 0.16 220 10:24 05.11.2019
4676 Clouds 11 1014 76 10000 1 0 09:58 05.11.2019
4677 Clouds 11 1014 76 10000 1 0 09:39 05.11.2019
4678 Clouds 11 1014 76 10000 1 0 09:19 05.11.2019
4679 Clouds 12 1014 71 10000 1 0 08:55 05.11.2019
4680 Clouds 12 1014 71 10000 1 0 08:36 05.11.2019
4681 Clouds 12 1014 71 10000 1 0 08:18 05.11.2019
4682 Clouds 13 1015 66 10000 3.6 170 07:42 05.11.2019
4683 Clouds 13 1015 66 10000 3.6 170 07:23 05.11.2019
4684 Clouds 13 1015 66 10000 0.36 228 06:51 05.11.2019
4685 Clouds 15 1016 58 10000 1 0 05:54 05.11.2019
4686 Clouds 15 1016 58 10000 1 0 05:36 05.11.2019
4687 Clouds 14 1016 58 10000 1 0 05:18 05.11.2019
4688 Clouds 15 1017 55 10000 0.78 216 04:18 05.11.2019
4689 Clouds 16 1017 55 10000 2.6 160 03:23 05.11.2019
4690 Clouds 18 1017 52 10000 3.1 150 02:41 05.11.2019
4691 Clouds 17 1017 52 10000 5.1 210 01:48 05.11.2019
4692 Clouds 20 1018 42 10000 2.1 180 00:39 05.11.2019
4693 Clouds 20 1018 42 10000 2.1 180 00:18 05.11.2019
4694 Clouds 21 1017 35 10000 2.6 210 23:41 04.11.2019
4695 Clouds 21 1017 35 10000 2.6 210 23:19 04.11.2019
4696 Clouds 21 1017 37 10000 2.1 0 22:55 04.11.2019
4697 Clouds 21 1017 37 10000 2.1 0 22:36 04.11.2019
4698 Clouds 21 1017 37 10000 2.1 0 22:18 04.11.2019
4699 Clouds 21 1018 37 10000 2.1 0 21:54 04.11.2019
4700 Clouds 21 1018 37 10000 2.1 0 21:36 04.11.2019
4701 Clouds 21 1018 37 10000 2.1 0 21:18 04.11.2019
4702 Clouds 21 1018 45 10000 3.1 230 20:54 04.11.2019
4703 Clouds 20 1018 45 10000 3.1 230 20:36 04.11.2019
4704 Clouds 20 1018 45 10000 3.1 230 20:18 04.11.2019
4705 Clouds 23 1015 36 0 3.7 253 19:42 04.11.2019
4706 Clouds 23 1015 36 0 3.7 253 19:23 04.11.2019
4707 Clouds 23 1015 36 0 3.7 253 18:58 04.11.2019
4708 Clouds 23 1014 38 0 3.7 253 18:39 04.11.2019
4709 Clouds 23 1014 37 0 3.7 253 18:21 04.11.2019
4710 Clouds 23 1014 36 0 3.7 253 17:56 04.11.2019
4711 Clouds 21 1016 37 0 3.7 253 17:36 04.11.2019
4712 Clouds 19 931 98 0 0.89 180 17:18 04.11.2019
4713 Clouds 19 931 98 0 0.89 180 16:42 04.11.2019
4714 Clouds 20 1018 41 0 2.92 253 16:24 04.11.2019
4715 Clouds 19 1018 43 0 2.92 253 15:58 04.11.2019
4716 Clouds 19 1018 43 0 2.92 253 15:40 04.11.2019
4717 Clouds 16 1018 66 10000 1 300 15:21 04.11.2019
4718 Clouds 15 1018 66 10000 1 300 14:58 04.11.2019
4719 Clouds 14 1018 66 10000 1 300 14:39 04.11.2019
4720 Clouds 12 1018 66 10000 1 300 14:20 04.11.2019
4721 Clouds 10 1018 71 10000 1.79 255 13:57 04.11.2019
4722 Clouds 10 1018 71 10000 1.79 255 13:39 04.11.2019
4723 Clouds 10 1018 71 10000 1.8 253 13:20 04.11.2019
4724 Clouds 9 1018 93 10000 1.5 210 12:49 04.11.2019
4725 Clouds 9 1018 93 10000 1.5 210 12:29 04.11.2019
4726 Clouds 10 1017 87 8000 2.6 160 11:59 04.11.2019
4727 Clouds 11 1017 87 8000 2.6 160 11:41 04.11.2019
4728 Clouds 11 1017 87 8000 2.6 160 11:22 04.11.2019
4729 Clouds 11 1017 87 10000 4.1 160 10:54 04.11.2019
4730 Clouds 11 1017 87 10000 4.1 160 10:36 04.11.2019
4731 Clouds 11 1017 87 10000 4.1 160 10:18 04.11.2019
4732 Clouds 11 1016 87 10000 3.1 160 09:40 04.11.2019
4733 Clouds 11 1016 87 10000 3.1 160 09:19 04.11.2019
4734 Clouds 11 1016 87 10000 4.1 150 08:42 04.11.2019
4735 Clear 11 1016 93 8000 4.6 160 08:23 04.11.2019
4736 Clear 11 1015 81 10000 2.1 170 07:59 04.11.2019
4737 Clear 11 1015 81 10000 2.1 170 07:41 04.11.2019
4738 Clear 12 1015 81 10000 2.1 170 07:19 04.11.2019
4739 Clear 11 1016 87 10000 3.1 140 06:49 04.11.2019
4740 Clear 12 1016 87 10000 3.1 140 06:18 04.11.2019
4741 Clear 12 1016 81 10000 5.1 160 05:32 04.11.2019
4742 Clear 11 1015 76 10000 5.7 160 04:37 04.11.2019
4743 Clear 13 1015 71 10000 5.7 150 03:42 04.11.2019
4744 Clear 15 1013 62 10000 5.1 160 01:38 04.11.2019
4745 Clear 17 1013 62 10000 5.1 160 01:18 04.11.2019
4746 Clear 18 1014 45 10000 3.1 250 00:22 04.11.2019
4747 Clouds 20 1013 37 10000 4.1 230 23:59 03.11.2019
4748 Clouds 21 1013 37 10000 4.1 230 23:39 03.11.2019
4749 Clouds 21 1013 37 10000 4.1 230 23:19 03.11.2019
4750 Clear 23 1013 33 10000 4.1 240 22:56 03.11.2019
4751 Clear 24 1013 33 10000 4.1 240 22:38 03.11.2019
4752 Clear 24 1013 33 10000 4.1 240 22:19 03.11.2019
4753 Clear 25 1013 31 10000 3.6 240 21:43 03.11.2019
4754 Clear 25 1013 31 10000 3.6 240 21:22 03.11.2019
4755 Clear 26 1013 26 10000 3.6 210 20:58 03.11.2019
4756 Clear 26 1013 26 10000 3.6 210 20:38 03.11.2019
4757 Clear 26 1013 26 10000 3.6 210 20:19 03.11.2019
4758 Clear 26 1013 23 10000 3.1 210 19:57 03.11.2019
4759 Clear 26 1013 23 10000 3.1 210 19:39 03.11.2019
4760 Clear 26 1013 23 10000 3.1 210 19:20 03.11.2019
4761 Clear 25 1013 27 10000 3.1 220 18:57 03.11.2019
4762 Clear 26 1013 27 10000 3.1 220 18:37 03.11.2019
4763 Clear 25 1013 27 10000 3.1 220 18:18 03.11.2019
4764 Clear 25 1013 27 10000 3.1 240 17:42 03.11.2019
4765 Clear 24 1013 27 10000 3.1 240 17:22 03.11.2019
4766 Clear 23 1014 33 10000 2.1 180 16:59 03.11.2019
4767 Clear 23 1014 33 10000 2.1 180 16:41 03.11.2019
4768 Clear 23 1014 33 10000 2.1 180 16:22 03.11.2019
4769 Clear 22 1014 34 10000 2.1 170 15:58 03.11.2019
4770 Clear 22 1014 34 10000 2.1 170 15:40 03.11.2019
4771 Clear 22 1014 34 10000 2.1 170 15:22 03.11.2019
4772 Clear 21 1014 42 10000 1.5 210 14:54 03.11.2019
4773 Clear 21 1014 42 10000 1.5 210 14:36 03.11.2019
4774 Clouds 19 1014 42 10000 1.5 210 14:18 03.11.2019
4775 Clouds 17 1013 48 10000 1 280 13:41 03.11.2019
4776 Clouds 16 1013 48 10000 1 280 13:18 03.11.2019
4777 Clouds 16 1013 66 10000 1.52 263 12:55 03.11.2019
4778 Clouds 16 1013 66 10000 1.52 263 12:36 03.11.2019
4779 Clouds 16 1013 66 10000 1.52 263 12:18 03.11.2019
4780 Clouds 16 1012 62 10000 1.5 170 11:42 03.11.2019
4781 Clear 14 1012 62 10000 1.5 170 11:22 03.11.2019
4782 Clear 15 1011 54 10000 2.1 140 10:55 03.11.2019
4783 Clear 15 1011 54 10000 2.1 140 10:37 03.11.2019
4784 Clear 15 1011 54 10000 2.1 140 10:19 03.11.2019
4785 Clear 15 1011 54 10000 2.1 140 10:19 03.11.2019
4786 Clear 15 1011 54 8000 2.6 160 09:43 03.11.2019
4787 Clear 15 1011 54 8000 2.6 160 09:25 03.11.2019
4788 Clear 15 1010 54 10000 3.1 180 08:56 03.11.2019
4789 Clear 16 1010 54 10000 3.1 180 08:37 03.11.2019
4790 Clear 16 1010 54 10000 3.1 180 08:19 03.11.2019
4791 Clear 17 1010 51 8000 0.5 0 07:45 03.11.2019
4792 Clear 17 1010 51 8000 0.5 0 07:22 03.11.2019
4793 Clear 17 1010 48 10000 3.6 150 06:39 03.11.2019
4794 Clear 19 1011 39 10000 3.1 140 05:55 03.11.2019
4795 Clear 19 1011 39 10000 3.1 140 05:37 03.11.2019
4796 Clear 19 1011 36 10000 2.1 170 04:55 03.11.2019
4797 Clear 19 1011 36 10000 2.1 170 04:26 03.11.2019
4798 Clear 19 1011 32 10000 3.6 150 03:27 03.11.2019
4799 Clear 22 1011 30 10000 3.6 150 02:29 03.11.2019
4800 Clouds 23 1011 25 10000 5.1 200 01:57 03.11.2019
4801 Clouds 23 1011 25 10000 5.1 200 01:36 03.11.2019
4802 Clouds 25 1011 25 10000 5.1 200 01:18 03.11.2019
4803 Clear 25 1012 27 10000 3.1 230 00:40 03.11.2019
4804 Clear 25 1012 27 10000 3.1 230 00:21 03.11.2019
4805 Clear 27 1012 15 10000 2.6 240 23:56 02.11.2019
4806 Clear 27 1012 15 10000 2.6 240 23:36 02.11.2019
4807 Clear 27 1012 15 10000 2.6 240 23:18 02.11.2019
4808 Clear 28 1012 14 10000 2.6 180 22:54 02.11.2019
4809 Clear 28 1012 14 10000 2.6 180 22:36 02.11.2019
4810 Clear 28 1012 14 10000 2.6 180 22:18 02.11.2019
4811 Clear 28 1012 14 10000 2.6 180 22:18 02.11.2019
4812 Clear 28 1013 12 10000 2.6 240 21:55 02.11.2019
4813 Clear 28 1013 12 10000 2.6 240 21:36 02.11.2019
4814 Clear 28 1013 12 10000 2.6 240 21:18 02.11.2019
4815 Clear 28 1013 12 10000 2.6 240 21:18 02.11.2019
4816 Clear 28 1013 12 10000 2.6 240 21:18 02.11.2019
4817 Clear 28 1013 12 10000 2.6 240 21:18 02.11.2019
4818 Clear 28 1014 15 10000 3.1 270 20:55 02.11.2019
4819 Clear 28 1014 15 10000 3.1 270 20:37 02.11.2019
4820 Clear 28 1014 15 10000 3.1 270 20:18 02.11.2019
4821 Clear 27 1015 22 10000 2.6 210 19:39 02.11.2019
4822 Clear 26 1015 22 10000 2.6 210 19:20 02.11.2019
4823 Clear 25 1015 23 10000 2.6 240 18:55 02.11.2019
4824 Clear 25 1015 23 10000 2.6 240 18:55 02.11.2019
4825 Clear 26 1015 23 10000 2.6 240 18:37 02.11.2019
4826 Clear 25 1015 23 10000 2.6 240 18:18 02.11.2019
4827 Clear 24 1016 27 10000 2.1 190 17:56 02.11.2019
4828 Clear 24 1016 27 10000 2.1 190 17:56 02.11.2019
4829 Clear 24 1016 27 10000 2.1 190 17:37 02.11.2019
4830 Clear 24 1016 27 10000 2.1 190 17:18 02.11.2019
4831 Clear 22 1016 34 10000 2.1 270 16:40 02.11.2019
4832 Clear 22 1016 34 10000 2.1 270 16:40 02.11.2019
4833 Clear 22 1016 34 10000 2.1 270 16:21 02.11.2019
4834 Clear 20 1017 42 10000 1.5 210 15:56 02.11.2019
4835 Clear 20 1017 42 10000 1.5 210 15:37 02.11.2019
4836 Clear 20 1017 42 10000 1.5 210 15:19 02.11.2019
4837 Clear 18 1017 54 10000 1 180 14:42 02.11.2019
4838 Clear 16 1017 54 10000 1 180 14:22 02.11.2019
4839 Clear 15 1017 76 10000 1.49 245 13:56 02.11.2019
4840 Clear 15 1017 76 10000 1.49 245 13:37 02.11.2019
4841 Clear 14 1017 76 10000 1.59 244 13:18 02.11.2019
4842 Clear 12 1018 75 10000 0.5 360 12:40 02.11.2019
4843 Clear 12 1018 75 10000 0.5 360 12:22 02.11.2019
4844 Clear 12 1017 75 8000 1.5 340 11:57 02.11.2019
4845 Clear 12 1017 75 8000 1.5 340 11:38 02.11.2019
4846 Clear 11 1017 75 8000 1.5 340 11:19 02.11.2019
4847 Clear 11 1016 76 10000 1 0 10:44 02.11.2019
4848 Clear 11 1016 76 10000 1 0 10:25 02.11.2019
4849 Clear 11 1017 76 8000 0.16 265 09:56 02.11.2019
4850 Clear 11 1017 76 8000 0.16 265 09:38 02.11.2019
4851 Clear 12 1017 76 8000 0.16 265 09:18 02.11.2019
4852 Clear 12 1017 71 10000 2.6 350 08:42 02.11.2019
4853 Clouds 12 1017 71 10000 2.6 350 08:20 02.11.2019
4854 Clouds 12 1017 71 10000 0.75 249 07:47 02.11.2019
4855 Clouds 12 1017 71 10000 0.75 249 07:27 02.11.2019
4856 Clouds 13 1018 71 10000 2.1 170 06:54 02.11.2019
4857 Clouds 13 1018 71 10000 2.1 170 06:26 02.11.2019
4858 Clouds 14 1019 62 10000 2.6 170 05:55 02.11.2019
4859 Clouds 14 1020 62 10000 2.6 150 04:51 02.11.2019
4860 Clouds 14 1020 62 10000 2.6 150 04:19 02.11.2019
4861 Clouds 16 1020 54 10000 2.6 150 03:46 02.11.2019
4862 Clouds 16 1020 51 10000 4.1 200 02:38 02.11.2019
4863 Clouds 17 1020 45 10000 4.6 210 01:42 02.11.2019
4864 Clouds 17 1020 45 10000 4.6 210 01:20 02.11.2019
4865 Clouds 18 1021 29 10000 3.1 240 00:42 02.11.2019
4866 Clouds 18 1021 29 10000 3.1 240 00:24 02.11.2019
4867 Clouds 20 1021 21 10000 2.6 210 23:44 01.11.2019
4868 Clouds 20 1021 21 10000 2.6 210 23:20 01.11.2019
4869 Clouds 21 1021 21 10000 2.6 200 22:55 01.11.2019
4870 Clouds 21 1021 21 10000 2.6 200 22:37 01.11.2019
4871 Clouds 22 1021 21 10000 2.6 200 22:18 01.11.2019
4872 Clouds 22 1022 20 10000 2.6 210 21:38 01.11.2019
4873 Clouds 22 1022 20 10000 2.6 210 21:20 01.11.2019
4874 Clouds 22 1022 20 10000 3.6 210 20:55 01.11.2019
4875 Clouds 22 1022 20 10000 3.6 210 20:36 01.11.2019
4876 Clouds 22 1022 20 10000 3.6 210 20:18 01.11.2019
4877 Clouds 22 1022 28 10000 3.6 170 19:41 01.11.2019
4878 Clouds 22 1022 28 10000 3.6 170 19:22 01.11.2019
4879 Clouds 21 1022 29 10000 4.6 230 18:58 01.11.2019
4880 Clouds 21 1022 29 10000 4.6 230 18:39 01.11.2019
4881 Clouds 22 1022 29 10000 4.6 230 18:18 01.11.2019
4882 Clouds 21 1022 28 10000 3.1 200 17:41 01.11.2019
4883 Clouds 21 1022 28 10000 3.1 200 17:23 01.11.2019
4884 Clouds 20 1022 35 10000 2.1 190 16:58 01.11.2019
4885 Clouds 20 1022 35 10000 2.1 190 16:36 01.11.2019
4886 Clouds 19 1022 35 10000 2.1 190 16:18 01.11.2019
4887 Clouds 18 1021 35 10000 1.5 190 15:40 01.11.2019
4888 Clouds 18 1021 35 10000 1.5 190 15:22 01.11.2019
4889 Clouds 16 1021 43 10000 1 260 14:56 01.11.2019
4890 Clouds 16 1021 43 10000 1 260 14:56 01.11.2019
4891 Clouds 16 1021 43 10000 1 260 14:38 01.11.2019
4892 Clear 15 1021 43 10000 1 260 14:19 01.11.2019
4893 Clear 14 1021 50 10000 1.5 190 13:55 01.11.2019
4894 Clear 14 1021 50 10000 1.5 190 13:36 01.11.2019
4895 Clear 12 1021 50 10000 1.5 190 13:18 01.11.2019
4896 Clear 12 1020 75 10000 1.91 274 12:42 01.11.2019
4897 Clear 11 1020 75 10000 1.91 274 12:24 01.11.2019
4898 Clear 12 1019 75 10000 2.1 160 11:43 01.11.2019
4899 Clear 10 1019 75 10000 2.1 160 11:24 01.11.2019
4900 Clear 10 1018 75 10000 2.6 170 10:56 01.11.2019
4901 Clear 10 1018 75 10000 2.6 170 10:38 01.11.2019
4902 Clear 10 1018 75 10000 2.6 170 10:19 01.11.2019
4903 Clear 10 1018 66 10000 3.6 160 09:42 01.11.2019
4904 Clear 11 1018 66 10000 3.6 160 09:23 01.11.2019
4905 Clear 10 1018 66 10000 5.1 160 08:57 01.11.2019
4906 Clear 10 1018 66 10000 5.1 160 08:39 01.11.2019
4907 Clouds 10 1018 66 10000 5.1 160 08:20 01.11.2019
4908 Clouds 10 1018 66 10000 5.1 160 08:20 01.11.2019
4909 Clouds 11 1017 50 10000 2.1 170 07:46 01.11.2019
4910 Clouds 13 1017 50 10000 2.1 170 07:23 01.11.2019
4911 Clouds 11 1017 53 10000 3.6 140 06:56 01.11.2019
4912 Clouds 11 1017 53 10000 3.6 140 06:23 01.11.2019
4913 Clouds 12 1017 54 10000 3.6 160 05:58 01.11.2019
4914 Clouds 13 1017 54 10000 3.6 160 05:38 01.11.2019
4915 Clouds 14 1017 47 10000 5.1 170 03:32 01.11.2019
4916 Clouds 17 1016 42 10000 5.7 190 01:49 01.11.2019
4917 Clouds 18 1016 42 10000 5.7 190 01:22 01.11.2019
4918 Clouds 19 1017 34 10000 3.1 230 00:20 01.11.2019
4919 Clouds 21 1016 33 10000 4.1 240 23:45 31.10.2019
4920 Clouds 21 1016 33 10000 4.1 240 23:27 31.10.2019
4921 Clouds 23 1016 31 10000 4.1 220 22:59 31.10.2019
4922 Clouds 23 1016 31 10000 4.1 220 22:59 31.10.2019
4923 Clouds 23 1016 31 10000 4.1 220 22:59 31.10.2019
4924 Clouds 23 1016 31 10000 4.1 220 22:40 31.10.2019
4925 Clouds 24 1016 31 10000 4.1 220 22:22 31.10.2019
4926 Clouds 25 1016 20 10000 5.1 230 21:56 31.10.2019
4927 Clouds 24 1016 20 10000 5.1 230 21:38 31.10.2019
4928 Clouds 25 1016 20 10000 5.1 230 21:18 31.10.2019
4929 Clouds 26 1016 21 10000 4.1 230 20:41 31.10.2019
4930 Clouds 25 1016 21 10000 4.1 230 20:41 31.10.2019
4931 Clouds 26 1016 21 10000 4.1 230 20:22 31.10.2019
4932 Clouds 25 1016 27 10000 5.1 230 19:56 31.10.2019
4933 Clouds 26 1016 27 10000 5.1 230 19:38 31.10.2019
4934 Clouds 26 1016 27 10000 5.1 230 19:18 31.10.2019
4935 Clouds 25 1015 29 10000 4.1 250 18:43 31.10.2019
4936 Clouds 25 1015 29 10000 4.1 250 18:25 31.10.2019
4937 Clouds 24 1015 31 10000 2.6 270 17:58 31.10.2019
4938 Clouds 24 1015 31 10000 2.6 270 17:39 31.10.2019
4939 Clouds 23 1015 31 10000 2.6 270 17:19 31.10.2019
4940 Clouds 23 1015 32 10000 2.1 320 16:54 31.10.2019
4941 Clouds 22 1015 32 10000 2.1 320 16:36 31.10.2019
4942 Clouds 21 1015 32 10000 2.1 320 16:18 31.10.2019
4943 Clouds 21 1015 37 10000 2.1 0 15:40 31.10.2019
4944 Clouds 21 1015 37 10000 2.1 0 15:21 31.10.2019
4945 Clouds 19 1015 39 10000 1 270 14:58 31.10.2019
4946 Clouds 19 1015 39 10000 1 270 14:40 31.10.2019
4947 Clouds 16 1015 39 10000 1 270 14:21 31.10.2019
4948 Clouds 16 1015 39 10000 1 270 14:21 31.10.2019
4949 Clouds 15 1015 50 10000 1 270 13:59 31.10.2019
4950 Clouds 15 1015 50 10000 1 270 13:59 31.10.2019
4951 Clouds 17 1015 50 10000 1 270 13:38 31.10.2019
4952 Clouds 14 1015 50 10000 1 270 13:19 31.10.2019
4953 Clouds 15 1015 58 10000 1 20 12:55 31.10.2019
4954 Clouds 15 1015 58 10000 1 20 12:37 31.10.2019
4955 Clouds 15 1015 58 10000 1 20 12:18 31.10.2019
4956 Clouds 14 1013 66 10000 1.5 150 11:45 31.10.2019
4957 Clouds 13 1013 66 10000 1.5 150 11:20 31.10.2019
4958 Clouds 13 1013 62 10000 2.6 170 10:57 31.10.2019
4959 Clouds 13 1013 62 10000 2.6 170 10:57 31.10.2019
4960 Clouds 13 1013 62 10000 2.6 170 10:38 31.10.2019
4961 Clouds 13 1013 62 10000 2.6 170 10:20 31.10.2019
4962 Clouds 14 1013 58 10000 3.1 160 09:44 31.10.2019
4963 Clouds 14 1013 58 10000 3.1 160 09:20 31.10.2019
4964 Clouds 14 1012 58 10000 2.6 150 08:57 31.10.2019
4965 Clouds 15 1012 58 10000 2.6 150 08:39 31.10.2019
4966 Clouds 15 1012 58 10000 2.6 150 08:20 31.10.2019
4967 Clouds 15 1013 54 10000 3.1 150 07:45 31.10.2019
4968 Clouds 15 1013 54 10000 3.1 150 07:24 31.10.2019
4969 Clouds 16 1013 51 10000 3.1 150 06:51 31.10.2019
4970 Clouds 15 1013 51 10000 3.1 150 06:30 31.10.2019
4971 Clouds 17 1013 42 10000 2.1 150 05:19 31.10.2019
4972 Clouds 20 1013 32 10000 4.6 180 02:47 31.10.2019
4973 Clouds 20 1013 32 10000 4.6 180 02:22 31.10.2019
4974 Clouds 23 1013 27 10000 5.7 220 00:51 31.10.2019
4975 Clouds 25 1013 27 10000 5.7 220 00:25 31.10.2019
4976 Clouds 25 1014 15 10000 3.1 230 23:41 30.10.2019
4977 Clouds 25 1014 15 10000 3.1 230 23:22 30.10.2019
4978 Clouds 26 1014 12 10000 4.1 210 22:41 30.10.2019
4979 Clouds 26 1014 12 10000 4.1 210 22:19 30.10.2019
4980 Clouds 26 1015 12 10000 3.6 190 21:55 30.10.2019
4981 Clouds 27 1015 12 10000 3.6 190 21:37 30.10.2019
4982 Clouds 27 1015 12 10000 3.6 190 21:18 30.10.2019
4983 Clouds 26 1015 11 10000 2.6 180 20:57 30.10.2019
4984 Clouds 27 1015 11 10000 2.6 180 20:37 30.10.2019
4985 Clear 27 1015 11 10000 2.6 180 20:19 30.10.2019
4986 Clear 26 1016 22 10000 2.1 0 19:42 30.10.2019
4987 Clear 26 1016 22 10000 2.1 0 19:24 30.10.2019
4988 Clear 24 1017 23 10000 2.6 170 18:59 30.10.2019
4989 Clear 24 1017 23 10000 2.6 170 18:38 30.10.2019
4990 Clear 24 1017 23 10000 2.6 170 18:38 30.10.2019
4991 Clear 24 1017 23 10000 2.6 170 18:19 30.10.2019
4992 Clear 23 1017 30 10000 2.1 200 17:56 30.10.2019
4993 Clear 23 1017 30 10000 2.1 200 17:37 30.10.2019
4994 Clear 23 1017 30 10000 2.1 200 17:37 30.10.2019
4995 Clear 23 1017 30 10000 2.1 200 17:18 30.10.2019
4996 Clear 22 1018 37 10000 1.5 60 16:54 30.10.2019
4997 Clear 22 1018 37 10000 1.5 60 16:36 30.10.2019
4998 Clear 21 1018 37 10000 1.5 60 16:18 30.10.2019
4999 Clear 19 1018 42 10000 1 320 15:40 30.10.2019
5000 Clear 18 1018 42 10000 1 320 15:21 30.10.2019
5001 Clear 16 1018 50 10000 1 80 14:59 30.10.2019
5002 Clear 16 1018 50 10000 1 80 14:41 30.10.2019
5003 Clouds 15 1018 50 10000 1 80 14:22 30.10.2019
5004 Clouds 14 1018 61 10000 1.41 235 13:57 30.10.2019
5005 Clouds 14 1018 61 10000 1.41 235 13:39 30.10.2019
5006 Clouds 13 1018 61 10000 1.38 235 13:19 30.10.2019
5007 Clouds 12 1018 75 10000 1.38 235 12:46 30.10.2019
5008 Clouds 11 1018 75 10000 1.38 235 12:28 30.10.2019
5009 Clouds 11 1018 75 10000 1.38 235 12:28 30.10.2019
5010 Clouds 12 1017 65 8000 2.1 20 11:59 30.10.2019
5011 Clouds 11 1017 65 8000 2.1 20 11:41 30.10.2019
5012 Clouds 8 1017 65 8000 2.1 20 11:21 30.10.2019
5013 Clouds 7 1016 70 10000 1.5 40 10:43 30.10.2019
5014 Clouds 8 1016 70 10000 1.5 40 10:23 30.10.2019
5015 Clouds 8 1016 65 10000 2.1 300 09:43 30.10.2019
5016 Clouds 8 1016 65 10000 2.1 300 09:24 30.10.2019
5017 Clouds 9 1016 66 10000 1 0 08:57 30.10.2019
5018 Clouds 9 1016 66 10000 1 0 08:39 30.10.2019
5019 Clouds 9 1016 66 10000 1 0 08:20 30.10.2019
5020 Clouds 10 1016 54 10000 2.1 200 07:46 30.10.2019
5021 Clouds 11 1016 54 10000 2.1 200 07:24 30.10.2019
5022 Clouds 10 1017 57 10000 2.6 160 06:42 30.10.2019
5023 Clouds 10 1017 57 10000 2.6 160 06:21 30.10.2019
5024 Clouds 12 1017 54 10000 3.1 170 05:42 30.10.2019
5025 Clouds 12 1017 54 10000 3.1 170 05:19 30.10.2019
5026 Clouds 13 1017 50 10000 7.2 200 03:43 30.10.2019
5027 Clouds 14 1017 47 10000 7.2 200 02:55 30.10.2019
5028 Clouds 14 1017 47 10000 7.2 200 02:19 30.10.2019
5029 Clouds 15 1017 44 10000 8.2 200 01:32 30.10.2019
5030 Clouds 18 1016 48 10000 7.2 220 00:31 30.10.2019
5031 Clouds 18 1017 39 10000 4.1 240 23:46 29.10.2019
5032 Clouds 19 1017 39 10000 4.1 240 23:25 29.10.2019
5033 Clouds 20 1017 28 10000 4.1 210 22:55 29.10.2019
5034 Clouds 20 1017 28 10000 4.1 210 22:37 29.10.2019
5035 Clouds 20 1017 28 10000 4.1 210 22:18 29.10.2019
5036 Clouds 21 1016 34 10000 3.6 240 21:42 29.10.2019
5037 Clouds 22 1016 34 10000 3.6 240 21:21 29.10.2019
5038 Clouds 22 1017 21 10000 1.5 190 20:59 29.10.2019
5039 Clouds 22 1017 21 10000 1.5 190 20:40 29.10.2019
5040 Clouds 22 1017 21 10000 1.5 190 20:21 29.10.2019
5041 Clouds 22 1018 20 10000 1.5 160 19:57 29.10.2019
5042 Clouds 22 1018 20 10000 1.5 160 19:38 29.10.2019
5043 Clouds 22 1018 20 10000 1.5 160 19:20 29.10.2019
5044 Clouds 21 1018 25 10000 1.5 90 18:56 29.10.2019
5045 Clouds 21 1018 25 10000 1.5 90 18:56 29.10.2019
5046 Clouds 21 1018 25 10000 1.5 90 18:37 29.10.2019
5047 Clouds 21 1018 25 10000 1.5 90 18:19 29.10.2019
5048 Clouds 20 1018 27 10000 2.1 250 17:54 29.10.2019
5049 Clouds 20 1018 27 10000 2.1 250 17:36 29.10.2019
5050 Clouds 19 1018 27 10000 2.1 250 17:18 29.10.2019
5051 Clouds 17 1019 33 10000 1 110 16:40 29.10.2019
5052 Clouds 17 1019 33 10000 1 110 16:21 29.10.2019
5053 Clouds 15 1018 33 10000 0.5 60 15:57 29.10.2019
5054 Clouds 17 1018 33 10000 0.5 60 15:39 29.10.2019
5055 Clouds 17 1018 33 10000 0.5 60 15:20 29.10.2019
5056 Clouds 16 1018 33 10000 2.99 262 14:55 29.10.2019
5057 Clouds 16 1018 33 10000 2.99 262 14:37 29.10.2019
5058 Clouds 13 1018 40 10000 2.01 252 14:19 29.10.2019
5059 Clouds 13 1018 40 10000 2.01 252 14:18 29.10.2019
5060 Clouds 11 1018 53 10000 2.01 252 13:40 29.10.2019
5061 Clouds 11 1018 53 10000 1.85 254 13:22 29.10.2019
5062 Clouds 10 1018 53 10000 1.5 60 12:46 29.10.2019
5063 Clouds 10 1018 53 10000 1.5 60 12:27 29.10.2019
5064 Clouds 8 1017 40 10000 1 0 11:59 29.10.2019
5065 Clouds 8 1017 40 10000 1 0 11:41 29.10.2019
5066 Clouds 7 1017 48 10000 1 0 11:20 29.10.2019
5067 Clouds 7 1017 48 10000 1.5 0 10:57 29.10.2019
5068 Clouds 7 1017 48 10000 1.5 0 10:38 29.10.2019
5069 Clouds 7 1017 48 10000 1.5 0 10:20 29.10.2019
5070 Clouds 8 1017 61 10000 2.6 30 09:56 29.10.2019
5071 Clouds 8 1017 61 10000 2.6 30 09:37 29.10.2019
5072 Clouds 8 1017 61 10000 2.6 30 09:19 29.10.2019
5073 Clouds 7 1017 48 10000 1 0 08:44 29.10.2019
5074 Clouds 7 1017 50 10000 1 0 08:25 29.10.2019
5075 Clouds 8 1018 57 10000 1.5 260 07:55 29.10.2019
5076 Clouds 8 1018 57 10000 1.5 260 07:36 29.10.2019
5077 Clouds 8 1018 57 10000 1.5 260 07:18 29.10.2019
5078 Clouds 9 1019 57 10000 2.1 250 06:44 29.10.2019
5079 Clouds 9 1019 57 10000 2.1 250 06:21 29.10.2019
5080 Clouds 10 1019 51 10000 2.6 150 05:50 29.10.2019
5081 Clouds 10 1019 51 10000 2.6 150 05:26 29.10.2019
5082 Clouds 10 1019 52 10000 3.6 160 04:30 29.10.2019
5083 Clouds 12 1019 47 10000 5.1 150 02:32 29.10.2019
5084 Clouds 13 1018 44 10000 5.7 150 01:46 29.10.2019
5085 Clouds 15 1018 44 10000 5.7 150 01:18 29.10.2019
5086 Clouds 16 1019 41 10000 3.6 200 00:32 29.10.2019
5087 Clouds 18 1018 32 10000 3.6 210 23:43 28.10.2019
5088 Clouds 19 1018 32 10000 3.6 210 23:21 28.10.2019
5089 Clouds 21 1017 30 10000 3.1 240 22:58 28.10.2019
5090 Clouds 21 1017 30 10000 3.1 240 22:37 28.10.2019
5091 Clouds 21 1017 30 10000 3.1 240 22:18 28.10.2019
5092 Clouds 22 1017 28 10000 4.1 210 21:56 28.10.2019
5093 Clouds 22 1017 28 10000 4.1 210 21:38 28.10.2019
5094 Clouds 22 1017 28 10000 4.1 210 21:19 28.10.2019
5095 Clouds 22 1016 32 10000 3.6 210 20:44 28.10.2019
5096 Clouds 22 1016 32 10000 3.6 210 20:24 28.10.2019
5097 Clouds 22 1016 32 10000 3.1 210 19:59 28.10.2019
5098 Clouds 22 1016 32 10000 3.1 210 19:39 28.10.2019
5099 Clouds 22 1016 32 10000 3.1 210 19:21 28.10.2019
5100 Clouds 20 1016 37 10000 3.1 230 18:59 28.10.2019
5101 Clouds 22 1016 37 10000 3.1 230 18:39 28.10.2019
5102 Clouds 22 1016 37 10000 3.1 230 18:21 28.10.2019
5103 Clouds 22 1016 39 10000 2.6 210 17:56 28.10.2019
5104 Clouds 21 1016 39 10000 2.6 210 17:38 28.10.2019
5105 Clouds 18 1016 39 10000 2.6 210 17:19 28.10.2019
5106 Clouds 19 1016 45 10000 2.6 240 16:57 28.10.2019
5107 Clouds 19 1016 45 10000 2.6 240 16:39 28.10.2019
5108 Clouds 17 1016 45 10000 2.6 240 16:20 28.10.2019
5109 Clouds 16 1016 51 10000 2.6 180 15:56 28.10.2019
5110 Clouds 19 1016 51 10000 2.6 180 15:38 28.10.2019
5111 Clouds 19 1016 51 10000 2.6 180 15:20 28.10.2019
5112 Clouds 17 1016 62 10000 1 150 14:56 28.10.2019
5113 Clouds 17 1016 62 10000 1 150 14:38 28.10.2019
5114 Clouds 13 1016 62 10000 1 150 14:18 28.10.2019
5115 Clouds 13 1016 66 10000 0.5 240 13:54 28.10.2019
5116 Clouds 13 1016 66 10000 0.5 240 13:36 28.10.2019
5117 Clouds 12 1016 66 10000 0.5 240 13:18 28.10.2019
5118 Clouds 11 1016 57 10000 2.01 252 12:41 28.10.2019
5119 Clouds 11 1016 57 10000 2.01 252 12:41 28.10.2019
5120 Clouds 10 1016 57 10000 2.01 252 12:20 28.10.2019
5121 Clouds 10 1015 66 10000 5.1 170 11:40 28.10.2019
5122 Clouds 10 1015 66 10000 5.1 170 11:21 28.10.2019
5123 Clouds 12 1014 62 10000 7.2 160 10:57 28.10.2019
5124 Clouds 12 1014 62 10000 7.2 160 10:38 28.10.2019
5125 Clouds 13 1014 62 10000 7.2 160 10:20 28.10.2019
5126 Clouds 13 1014 62 10000 5.1 140 09:55 28.10.2019
5127 Clouds 13 1014 62 10000 5.1 140 09:55 28.10.2019
5128 Clouds 13 1014 62 10000 5.1 140 09:37 28.10.2019
5129 Clouds 13 1014 62 10000 5.1 140 09:18 28.10.2019
5130 Clouds 13 1014 58 10000 1.5 210 08:56 28.10.2019
5131 Clouds 13 1014 58 10000 1.5 210 08:37 28.10.2019
5132 Clouds 13 1014 58 10000 1.5 210 08:18 28.10.2019
5133 Clouds 12 1014 66 10000 2.6 320 07:47 28.10.2019
5134 Clouds 13 1014 66 10000 2.6 320 07:23 28.10.2019
5135 Clouds 13 1017 62 10000 2.1 160 06:59 28.10.2019
5136 Clouds 13 1017 62 10000 2.1 160 06:39 28.10.2019
5137 Clouds 13 1017 58 10000 3.1 150 05:19 28.10.2019
5138 Clouds 14 1017 54 10000 5.7 170 03:44 28.10.2019
5139 Clouds 14 1016 62 10000 5.1 190 02:46 28.10.2019
5140 Clouds 14 1016 62 10000 7.2 190 01:52 28.10.2019
5141 Clouds 14 1016 62 10000 7.2 190 01:52 28.10.2019
5142 Clouds 16 1015 58 10000 6.2 190 00:47 28.10.2019
5143 Clouds 15 1015 58 10000 6.2 190 00:25 28.10.2019
5144 Clouds 16 1015 47 10000 2.1 200 23:44 27.10.2019
5145 Clouds 16 1015 47 10000 2.1 200 23:22 27.10.2019
5146 Clouds 18 1014 44 10000 1.5 200 22:56 27.10.2019
5147 Clouds 18 1014 44 10000 1.5 200 22:37 27.10.2019
5148 Clouds 18 1014 44 10000 1.5 200 22:19 27.10.2019
5149 Clouds 19 1015 55 10000 1.5 180 21:55 27.10.2019
5150 Clouds 19 1015 55 10000 1.5 180 21:37 27.10.2019
5151 Clouds 19 1015 55 10000 1.5 180 21:18 27.10.2019
5152 Clouds 20 1015 51 10000 2.1 200 20:41 27.10.2019
5153 Clouds 20 1015 51 10000 2.1 200 20:23 27.10.2019
5154 Clouds 19 1016 51 10000 1.5 0 19:58 27.10.2019
5155 Clouds 19 1016 51 10000 1.5 0 19:37 27.10.2019
5156 Clouds 20 1016 51 10000 1.5 0 19:19 27.10.2019
5157 Clouds 19 1016 51 10000 2.1 0 18:56 27.10.2019
5158 Clouds 21 1016 51 10000 2.1 0 18:38 27.10.2019
5159 Clouds 21 1016 51 10000 2.1 0 18:20 27.10.2019
5160 Clouds 20 1016 55 10000 1 240 17:55 27.10.2019
5161 Clouds 20 1016 55 10000 1 240 17:36 27.10.2019
5162 Clouds 19 1016 55 10000 1 240 17:18 27.10.2019
5163 Clouds 18 1017 55 10000 1.5 230 16:55 27.10.2019
5164 Clouds 18 1017 55 10000 1.5 230 16:55 27.10.2019
5165 Clouds 18 1017 55 10000 1.5 230 16:37 27.10.2019
5166 Clouds 18 1017 55 10000 1.5 230 16:18 27.10.2019
5167 Clouds 18 1016 62 10000 3.11 264 15:55 27.10.2019
5168 Clouds 19 1016 62 10000 3.11 264 15:36 27.10.2019
5169 Clouds 19 1016 62 10000 3.11 264 15:18 27.10.2019
5170 Clouds 17 1016 71 10000 1 180 14:41 27.10.2019
5171 Clouds 15 1016 71 10000 1 180 14:19 27.10.2019
5172 Clouds 13 1016 81 10000 1 220 13:55 27.10.2019
5173 Clouds 13 1016 81 10000 1 220 13:37 27.10.2019
5174 Clouds 13 1016 81 10000 1 220 13:18 27.10.2019
5175 Clouds 12 1016 76 10000 1.58 267 12:42 27.10.2019
5176 Clouds 11 1016 76 10000 1.58 267 12:23 27.10.2019
5177 Clouds 11 1014 93 8000 1 0 11:55 27.10.2019
5178 Clouds 11 1014 93 8000 1 0 11:37 27.10.2019
5179 Clouds 11 1014 93 8000 1 0 11:18 27.10.2019
5180 Clouds 11 1015 87 8000 3.1 160 10:42 27.10.2019
5181 Clouds 11 1015 87 8000 3.1 160 10:23 27.10.2019
5182 Clouds 11 1015 93 10000 4.6 160 09:44 27.10.2019
5183 Clouds 11 1015 93 10000 4.6 160 09:19 27.10.2019
5184 Clouds 11 1014 87 10000 3.1 150 08:59 27.10.2019
5185 Clouds 12 1014 87 10000 3.1 150 08:39 27.10.2019
5186 Clouds 12 1014 87 10000 3.1 150 08:19 27.10.2019
5187 Clouds 11 1015 87 10000 4.6 160 07:48 27.10.2019
5188 Clouds 11 1015 87 10000 4.6 160 07:28 27.10.2019
5189 Clouds 12 1016 76 10000 4.1 160 06:56 27.10.2019
5190 Clouds 12 1016 76 10000 4.1 160 06:31 27.10.2019
5191 Clouds 13 1016 66 10000 4.1 150 05:58 27.10.2019
5192 Clouds 13 1016 66 10000 4.1 150 05:37 27.10.2019
5193 Clouds 14 1015 62 10000 4.1 150 04:32 27.10.2019
5194 Clouds 18 1014 48 10000 4.6 210 02:42 27.10.2019
5195 Clouds 23 1014 43 10000 5.7 220 01:28 27.10.2019
5196 Clouds 24 1015 15 10000 1.5 240 00:56 27.10.2019
5197 Clouds 24 1015 15 10000 1.5 240 00:38 27.10.2019
5198 Clouds 25 1015 16 10000 3.6 250 23:59 26.10.2019
5199 Clouds 24 1015 16 10000 3.6 250 23:40 26.10.2019
5200 Clouds 24 1015 16 10000 3.6 250 23:22 26.10.2019
5201 Clouds 24 1015 15 10000 2.6 210 22:59 26.10.2019
5202 Clouds 24 1015 15 10000 2.6 210 22:39 26.10.2019
5203 Clouds 24 1015 15 10000 2.6 210 22:20 26.10.2019
5204 Clouds 23 1016 18 10000 2.6 210 21:59 26.10.2019
5205 Clouds 24 1016 18 10000 2.6 210 21:40 26.10.2019
5206 Clouds 24 1016 18 10000 2.6 210 21:19 26.10.2019
5207 Clouds 23 1016 29 10000 3.6 210 20:45 26.10.2019
5208 Clouds 23 1016 29 10000 3.6 210 20:20 26.10.2019
5209 Clouds 22 1016 29 10000 4.1 210 19:56 26.10.2019
5210 Clouds 21 1016 29 10000 4.1 210 19:38 26.10.2019
5211 Clouds 21 1016 29 10000 4.1 210 19:19 26.10.2019
5212 Clouds 20 1016 36 10000 2.1 250 18:55 26.10.2019
5213 Clouds 20 1016 36 10000 2.1 250 18:37 26.10.2019
5214 Clouds 18 1016 36 10000 2.1 250 18:18 26.10.2019
5215 Clouds 19 1016 34 10000 2.1 230 17:39 26.10.2019
5216 Clouds 19 1016 34 10000 2.1 230 17:21 26.10.2019
5217 Clouds 19 1016 31 10000 1 0 16:59 26.10.2019
5218 Clouds 21 1016 31 10000 1 0 16:41 26.10.2019
5219 Clouds 20 1016 31 10000 1 0 16:22 26.10.2019
5220 Clouds 19 1016 34 10000 0.5 0 15:41 26.10.2019
5221 Clouds 17 1016 44 10000 0.5 0 15:20 26.10.2019
5222 Clouds 16 1016 43 10000 1 0 14:41 26.10.2019
5223 Clouds 16 1016 43 10000 1 0 14:22 26.10.2019
5224 Clouds 12 1015 54 10000 0.5 0 13:59 26.10.2019
5225 Clouds 14 1015 54 10000 0.5 0 13:41 26.10.2019
5226 Clouds 13 1015 54 10000 0.5 0 13:21 26.10.2019
5227 Clouds 13 928 58 0 0.45 90 12:46 26.10.2019
5228 Clouds 13 1013 37 10000 1.5 150 12:24 26.10.2019
5229 Clouds 13 1013 37 10000 1.5 150 12:24 26.10.2019
5230 Clouds 13 1013 37 10000 1.5 150 11:50 26.10.2019
5231 Clouds 13 1013 37 10000 1.5 150 11:29 26.10.2019
5232 Clouds 13 1013 43 10000 2.1 40 10:55 26.10.2019
5233 Clouds 13 1013 43 10000 2.1 40 10:36 26.10.2019
5234 Clouds 13 1013 43 10000 2.1 40 10:18 26.10.2019
5235 Clouds 13 1013 37 10000 2.1 260 09:43 26.10.2019
5236 Clouds 13 1013 37 10000 2.1 260 09:25 26.10.2019
5237 Clouds 15 1013 28 10000 1 230 08:43 26.10.2019
5238 Clouds 15 1013 28 10000 1 230 08:25 26.10.2019
5239 Clouds 16 1014 25 10000 3.6 140 07:54 26.10.2019
5240 Clouds 16 1014 25 10000 3.6 140 07:28 26.10.2019
5241 Clouds 16 1014 31 10000 4.1 170 06:45 26.10.2019
5242 Clouds 16 1014 31 10000 4.1 170 06:26 26.10.2019
5243 Clouds 18 1014 52 10000 3.6 140 05:21 26.10.2019
5244 Clouds 19 1014 32 10000 4.6 160 04:24 26.10.2019
5245 Clouds 21 1012 30 10000 4.6 140 02:47 26.10.2019
5246 Clouds 24 1012 25 10000 5.7 190 01:55 26.10.2019
5247 Clouds 25 1012 25 10000 5.7 190 01:29 26.10.2019
5248 Clouds 26 1013 20 10000 3.1 240 00:25 26.10.2019
5249 Clouds 27 1013 14 10000 3.1 190 23:44 25.10.2019
5250 Clouds 27 1013 14 10000 3.1 190 23:44 25.10.2019
5251 Clouds 27 1013 14 10000 3.1 190 23:20 25.10.2019
5252 Clouds 28 1013 13 10000 2.6 210 22:41 25.10.2019
5253 Clouds 28 1013 13 10000 2.6 210 22:23 25.10.2019
5254 Clouds 28 1013 13 10000 3.1 230 21:58 25.10.2019
5255 Clouds 28 1013 13 10000 3.1 230 21:40 25.10.2019
5256 Clouds 28 1013 13 10000 3.1 230 21:21 25.10.2019
5257 Clouds 28 1013 20 10000 2.6 0 20:56 25.10.2019
5258 Clouds 28 1013 20 10000 2.6 0 20:38 25.10.2019
5259 Clouds 28 1013 20 10000 2.6 0 20:18 25.10.2019
5260 Clouds 28 1012 20 10000 4.6 170 19:43 25.10.2019
5261 Clouds 27 1014 19 10000 2.1 0 19:25 25.10.2019
5262 Clouds 26 1015 23 10000 2.1 0 18:45 25.10.2019
5263 Clouds 25 1015 23 10000 2.1 0 18:23 25.10.2019
5264 Clouds 24 1016 30 10000 1.5 0 17:42 25.10.2019
5265 Clouds 23 1016 30 10000 1.5 0 17:22 25.10.2019
5266 Clouds 22 1016 34 10000 1 220 16:56 25.10.2019
5267 Clouds 22 1016 34 10000 1 220 16:37 25.10.2019
5268 Clouds 21 1016 34 10000 1 220 16:19 25.10.2019
5269 Clouds 21 1016 39 10000 1 240 15:40 25.10.2019
5270 Clouds 16 1016 39 10000 1 240 15:22 25.10.2019
5271 Clouds 16 1017 47 10000 0.94 239 14:58 25.10.2019
5272 Clouds 16 1017 47 10000 0.94 239 14:58 25.10.2019
5273 Clouds 16 1017 47 10000 0.94 239 14:58 25.10.2019
5274 Clouds 16 1017 47 10000 0.94 239 14:39 25.10.2019
5275 Clouds 13 1017 47 10000 1.05 242 14:20 25.10.2019
5276 Clouds 13 1017 62 10000 1.05 242 13:42 25.10.2019
5277 Clouds 12 1017 62 10000 1.05 242 13:24 25.10.2019
5278 Clouds 13 1016 70 8000 1 300 12:56 25.10.2019
5279 Clouds 12 1016 70 8000 1 300 12:38 25.10.2019
5280 Clouds 11 1016 70 8000 1 300 12:19 25.10.2019
5281 Clouds 11 1016 75 8000 0.51 123 11:41 25.10.2019
5282 Clouds 11 1016 75 8000 0.51 123 11:22 25.10.2019
5283 Clouds 11 1017 71 8000 0.51 123 10:59 25.10.2019
5284 Clouds 11 1017 71 8000 0.51 123 10:39 25.10.2019
5285 Clouds 12 1017 71 8000 0.51 123 10:19 25.10.2019
5286 Smoke 12 1017 71 10000 0.51 123 09:54 25.10.2019
5287 Smoke 12 1017 71 10000 0.04 162 09:36 25.10.2019
5288 Smoke 12 1017 71 10000 0.99 232 09:18 25.10.2019
5289 Clouds 12 1018 66 10000 0.99 232 08:42 25.10.2019
5290 Clouds 12 1018 66 10000 0.99 232 08:23 25.10.2019
5291 Clouds 12 1018 66 10000 1.5 270 07:49 25.10.2019
5292 Clouds 12 1018 66 10000 1.5 270 07:49 25.10.2019
5293 Clouds 12 1018 66 10000 1.5 270 07:49 25.10.2019
5294 Clouds 12 1018 66 10000 1.5 270 07:30 25.10.2019
5295 Clouds 14 1019 62 10000 3.1 180 06:38 25.10.2019
5296 Clear 15 1019 54 10000 2.6 140 05:50 25.10.2019
5297 Clear 15 1019 54 10000 2.6 140 05:32 25.10.2019
5298 Clear 15 1019 54 10000 3.6 150 04:38 25.10.2019
5299 Clear 19 1018 37 10000 3.6 160 02:44 25.10.2019
5300 Clear 21 1018 35 10000 5.1 210 01:53 25.10.2019
5301 Clear 23 1020 27 10000 2.6 190 00:39 25.10.2019
5302 Clear 24 1018 38 10000 3.1 200 23:57 24.10.2019
5303 Clear 25 1018 38 10000 3.1 200 23:37 24.10.2019
5304 Clear 25 1018 38 10000 3.1 200 23:37 24.10.2019
5305 Clear 25 1018 38 10000 3.1 200 23:19 24.10.2019
5306 Clear 24 1018 33 10000 5.1 230 22:54 24.10.2019
5307 Clear 24 1018 33 10000 5.1 230 22:36 24.10.2019
5308 Clear 25 1018 33 10000 5.1 230 22:18 24.10.2019
5309 Clear 25 1018 20 10000 4.1 210 21:54 24.10.2019
5310 Clear 25 1018 20 10000 4.1 210 21:54 24.10.2019
5311 Clear 25 1018 20 10000 4.1 210 21:54 24.10.2019
5312 -273 0 0 0 0 0 21:54 24.10.2019
5313 Clear 25 1018 20 10000 4.1 210 21:36 24.10.2019
5314 Clouds 26 1018 20 10000 4.1 210 21:18 24.10.2019
5315 Clouds 25 1018 29 10000 4.6 240 20:54 24.10.2019
5316 Clouds 26 1018 29 10000 4.6 240 20:36 24.10.2019
5317 Clouds 25 1018 29 10000 4.6 240 20:18 24.10.2019
5318 Clouds 26 1018 22 10000 2.6 270 19:41 24.10.2019
5319 Clouds 26 1018 22 10000 2.6 270 19:22 24.10.2019
5320 Clouds 25 1018 26 10000 1 260 18:58 24.10.2019
5321 Clouds 25 1018 26 10000 1 260 18:58 24.10.2019
5322 Clouds 24 1018 26 10000 1 260 18:38 24.10.2019
5323 Clouds 23 1018 26 10000 1 260 18:20 24.10.2019
5324 Clouds 23 1018 32 10000 2.1 240 17:42 24.10.2019
5325 Clouds 22 1018 32 10000 2.1 240 17:21 24.10.2019
5326 Clouds 20 1019 34 10000 1 30 16:58 24.10.2019
5327 Clouds 21 1019 34 10000 1 30 16:40 24.10.2019
5328 Clouds 21 1019 34 10000 1 30 16:22 24.10.2019
5329 Clouds 19 1019 54 10000 0.5 30 15:59 24.10.2019
5330 Clouds 18 1019 54 10000 0.5 30 15:40 24.10.2019
5331 Clouds 16 1019 54 10000 0.5 30 15:22 24.10.2019
5332 Clouds 14 1019 62 10000 1 300 14:59 24.10.2019
5333 Clouds 13 1019 62 10000 1 300 14:40 24.10.2019
5334 Clouds 14 1019 62 10000 1 300 14:20 24.10.2019
5335 Clouds 12 1018 71 10000 2.1 250 13:42 24.10.2019
5336 Clouds 12 1018 71 10000 2.1 250 13:20 24.10.2019
5337 Clouds 13 1016 76 8000 3.6 150 12:58 24.10.2019
5338 Clouds 13 1016 76 8000 3.6 150 12:40 24.10.2019
5339 Clouds 13 1016 76 8000 3.6 150 12:20 24.10.2019
5340 Clouds 12 1015 76 10000 3.6 160 11:57 24.10.2019
5341 Clouds 13 1015 76 10000 3.6 160 11:38 24.10.2019
5342 Clouds 13 1015 76 10000 3.6 160 11:20 24.10.2019
5343 Clouds 13 1015 66 10000 2.1 0 10:59 24.10.2019
5344 Clouds 14 1015 66 10000 2.1 0 10:39 24.10.2019
5345 Clouds 14 1015 66 10000 2.1 0 10:20 24.10.2019
5346 Clouds 14 1015 62 10000 1.5 150 09:38 24.10.2019
5347 Clouds 14 1015 62 10000 1.5 150 09:19 24.10.2019
5348 Clouds 14 1016 66 10000 3.1 150 08:55 24.10.2019
5349 Clouds 14 1016 66 10000 3.1 150 08:37 24.10.2019
5350 Clouds 14 1016 66 10000 3.1 150 08:18 24.10.2019
5351 Clouds 14 1016 62 10000 2.6 170 07:45 24.10.2019
5352 Clouds 14 1016 62 10000 2.6 170 07:22 24.10.2019
5353 Clouds 16 1017 62 10000 4.1 170 06:46 24.10.2019
5354 Clouds 16 1017 62 10000 4.1 170 06:23 24.10.2019
5355 Clouds 16 1017 58 10000 5.1 160 05:49 24.10.2019
5356 Clouds 16 1017 58 10000 5.1 160 05:28 24.10.2019
5357 Clouds 18 1016 51 10000 4.1 160 03:38 24.10.2019
5358 Clouds 18 1016 42 10000 6.2 150 02:56 24.10.2019
5359 Clouds 19 1016 42 10000 6.2 150 02:25 24.10.2019
5360 Clouds 20 1015 37 10000 4.6 170 01:51 24.10.2019
5361 Clouds 20 1015 37 10000 4.6 170 01:27 24.10.2019
5362 Clouds 21 1014 40 10000 7.2 200 00:41 24.10.2019
5363 Clouds 23 1014 40 10000 7.2 200 00:23 24.10.2019
5364 Clouds 24 1015 16 10000 3.6 220 23:43 23.10.2019
5365 Clouds 24 1015 16 10000 3.6 220 23:23 23.10.2019
5366 Clouds 25 1015 11 10000 3.1 200 22:57 23.10.2019
5367 Clouds 26 1015 11 10000 3.1 200 22:38 23.10.2019
5368 Clouds 26 1015 11 10000 3.1 200 22:19 23.10.2019
5369 Clouds 26 1015 12 10000 3.1 0 21:57 23.10.2019
5370 Clouds 27 1015 12 10000 3.1 0 21:38 23.10.2019
5371 Clouds 27 1015 12 10000 3.1 0 21:20 23.10.2019
5372 Clouds 26 1016 24 10000 4.1 230 20:57 23.10.2019
5373 Clouds 26 1016 24 10000 4.1 230 20:39 23.10.2019
5374 Clouds 27 1016 24 10000 4.1 230 20:20 23.10.2019
5375 Clouds 26 1016 16 10000 2.6 0 19:57 23.10.2019
5376 Clouds 26 1016 16 10000 2.6 0 19:38 23.10.2019
5377 Clouds 27 1016 16 10000 2.6 0 19:18 23.10.2019
5378 Clouds 26 1017 19 10000 2.6 0 18:54 23.10.2019
5379 Clouds 26 1017 19 10000 2.6 0 18:36 23.10.2019
5380 Clouds 26 1017 19 10000 2.6 0 18:36 23.10.2019
5381 Clouds 26 1017 19 10000 2.6 0 18:18 23.10.2019
5382 Clouds 24 1017 20 8000 2.1 0 17:41 23.10.2019
5383 Clouds 24 1017 20 8000 2.1 0 17:20 23.10.2019
5384 Clouds 23 1017 27 10000 2.1 0 16:56 23.10.2019
5385 Clouds 23 1017 27 10000 2.1 0 16:37 23.10.2019
5386 Clouds 23 1017 27 10000 2.1 0 16:19 23.10.2019
5387 Clouds 21 1017 27 10000 1 280 15:41 23.10.2019
5388 Clouds 18 1017 28 10000 1 280 15:22 23.10.2019
5389 Clouds 14 1018 44 10000 1.1 256 14:58 23.10.2019
5390 Clouds 14 1018 44 10000 1.3 255 14:38 23.10.2019
5391 Clouds 14 1018 44 10000 1.3 255 14:19 23.10.2019
5392 Clouds 16 1017 28 10000 1.3 255 13:57 23.10.2019
5393 Clouds 15 1017 28 10000 1.3 255 13:38 23.10.2019
5394 Clouds 15 1017 28 10000 1.3 255 13:20 23.10.2019
5395 Clouds 12 1016 28 10000 1.3 255 12:54 23.10.2019
5396 Clouds 12 1016 28 10000 1.3 255 12:54 23.10.2019
5397 Clouds 12 1016 28 10000 1.3 255 12:36 23.10.2019
5398 Clouds 12 1016 35 10000 0.46 121 12:18 23.10.2019
5399 Clouds 11 1016 49 10000 0.46 121 11:54 23.10.2019
5400 Clouds 11 1016 49 10000 0.46 121 11:36 23.10.2019
5401 Clouds 11 1016 49 10000 0.46 121 11:18 23.10.2019
5402 Clouds 12 1015 46 10000 1 0 10:42 23.10.2019
5403 Clouds 13 1015 46 10000 1 0 10:23 23.10.2019
5404 Clouds 13 1015 43 10000 0.33 112 09:41 23.10.2019
5405 Clouds 14 1015 43 10000 0.06 93 09:23 23.10.2019
5406 Clouds 14 1015 43 10000 0.06 93 09:23 23.10.2019
5407 Clouds 14 1016 41 10000 2.6 150 08:59 23.10.2019
5408 Clouds 15 1016 41 10000 2.6 150 08:41 23.10.2019
5409 Clouds 15 1016 41 10000 2.6 150 08:22 23.10.2019
5410 Clouds 15 1016 41 10000 2.6 170 07:45 23.10.2019
5411 Clouds 15 1016 41 10000 2.6 170 07:21 23.10.2019
5412 Clouds 16 1016 26 10000 3.1 160 06:46 23.10.2019
5413 Clouds 16 1016 26 10000 3.1 160 06:20 23.10.2019
5414 Clouds 17 1016 23 10000 2.6 160 05:23 23.10.2019
5415 Clouds 18 1016 24 10000 3.1 150 04:34 23.10.2019
5416 Clouds 21 1015 21 10000 5.7 20 02:45 23.10.2019
5417 Clouds 22 1015 21 10000 5.7 20 02:25 23.10.2019
5418 Clouds 24 1014 32 10000 6.7 210 01:26 23.10.2019
5419 Clouds 26 1013 14 10000 7.7 220 00:38 23.10.2019
5420 Clouds 26 1013 14 10000 7.7 220 00:38 23.10.2019
5421 Clouds 25 1013 14 10000 7.7 220 00:19 23.10.2019
5422 Clouds 26 1013 14 10000 8.7 210 23:39 22.10.2019
5423 Clouds 28 1013 14 10000 8.7 210 23:18 22.10.2019
5424 Clouds 27 1013 14 10000 8.7 210 23:18 22.10.2019
5425 Clouds 28 1014 9 10000 3.1 260 22:55 22.10.2019
5426 Clouds 28 1014 9 10000 3.1 260 22:37 22.10.2019
5427 Clouds 28 1014 9 10000 3.1 260 22:19 22.10.2019
5428 Clouds 28 1015 10 10000 2.1 230 21:56 22.10.2019
5429 Clouds 28 1015 10 10000 2.1 230 21:56 22.10.2019
5430 Clouds 28 1015 10 10000 2.1 230 21:36 22.10.2019
5431 Clouds 28 1015 10 10000 2.1 230 21:36 22.10.2019
5432 Clouds 28 1015 10 10000 2.1 230 21:18 22.10.2019
5433 Clouds 28 1015 11 10000 2.6 200 20:55 22.10.2019
5434 Clouds 28 1015 11 10000 2.6 200 20:37 22.10.2019
5435 Clouds 27 1015 11 10000 2.6 200 20:18 22.10.2019
5436 Clouds 27 1015 15 10000 3.1 260 19:42 22.10.2019
5437 Clouds 27 1015 15 10000 3.1 260 19:24 22.10.2019
5438 Clouds 25 1016 18 10000 1.5 210 18:57 22.10.2019
5439 Clouds 26 1016 18 10000 1.5 210 18:39 22.10.2019
5440 Clouds 25 1016 21 10000 1.5 210 18:21 22.10.2019
5441 Clouds 24 1016 26 10000 1.5 230 17:56 22.10.2019
5442 Clouds 24 1016 26 10000 1.5 230 17:56 22.10.2019
5443 Clouds 24 1016 26 10000 1.5 230 17:38 22.10.2019
5444 Clouds 24 1016 26 10000 1.5 230 17:19 22.10.2019
5445 Clouds 23 1016 28 10000 1.5 250 16:56 22.10.2019
5446 Clouds 23 1016 28 10000 1.5 250 16:37 22.10.2019
5447 Clouds 23 1016 28 10000 1.5 250 16:18 22.10.2019
5448 Clouds 21 1016 36 10000 1.5 230 15:43 22.10.2019
5449 Clouds 18 1016 36 10000 1.5 230 15:20 22.10.2019
5450 Clouds 17 1017 47 10000 0.5 190 14:50 22.10.2019
5451 Clouds 16 1017 47 10000 0.5 190 14:23 22.10.2019
5452 Clouds 13 1016 76 10000 1 30 13:59 22.10.2019
5453 Clouds 15 1016 76 10000 1 30 13:41 22.10.2019
5454 Clouds 15 1016 76 10000 1 30 13:41 22.10.2019
5455 Clouds 16 1016 76 10000 1 30 13:19 22.10.2019
5456 Clouds 17 1015 61 6000 0.72 245 12:56 22.10.2019
5457 Clouds 16 1015 61 6000 0.72 245 12:38 22.10.2019
5458 Clouds 10 1015 61 6000 0.68 71 12:19 22.10.2019
5459 Clouds 9 1015 66 8000 0.68 71 11:41 22.10.2019
5460 Clouds 11 1015 66 8000 0.68 71 11:22 22.10.2019
5461 Clouds 12 1015 61 10000 0.68 71 10:59 22.10.2019
5462 Clouds 12 1015 61 10000 0.68 71 10:38 22.10.2019
5463 Clouds 12 1015 61 10000 0.68 71 10:19 22.10.2019
5464 Clouds 12 1015 61 10000 0.68 71 10:19 22.10.2019
5465 Clouds 12 1015 61 10000 0.68 71 10:19 22.10.2019
5466 Clouds 13 1015 54 10000 0.5 0 09:58 22.10.2019
5467 Clouds 13 1015 54 10000 0.5 0 09:40 22.10.2019
5468 Clouds 13 1015 54 10000 0.5 0 09:40 22.10.2019
5469 Clouds 13 1015 54 10000 0.5 0 09:21 22.10.2019
5470 Clouds 13 1015 58 10000 0.16 127 08:55 22.10.2019
5471 Clouds 13 1015 58 10000 0.16 127 08:36 22.10.2019
5472 Clouds 14 1015 58 10000 0.16 127 08:18 22.10.2019
5473 Clouds 14 1015 58 10000 0.16 127 08:18 22.10.2019
5474 Clouds 15 1016 44 10000 2.1 160 07:41 22.10.2019
5475 Clouds 15 1016 44 10000 2.1 160 07:22 22.10.2019
5476 Clouds 17 1016 42 10000 3.1 140 06:40 22.10.2019
5477 Clouds 17 1016 42 10000 3.1 140 06:20 22.10.2019
5478 Clouds 17 1016 45 10000 2.6 180 05:27 22.10.2019
5479 Clouds 19 1016 37 10000 3.1 160 04:19 22.10.2019
5480 Clouds 22 1015 28 10000 5.7 210 02:30 22.10.2019
5481 Clouds 23 1015 25 10000 5.7 220 01:37 22.10.2019
5482 Clouds 23 1015 25 10000 5.7 220 01:18 22.10.2019
5483 Clouds 24 1015 37 10000 7.2 210 00:42 22.10.2019
5484 Clouds 24 1015 25 10000 7.2 210 00:24 22.10.2019
5485 Clouds 25 1015 15 10000 7.2 230 23:58 21.10.2019
5486 Clouds 25 1015 15 10000 7.2 230 23:38 21.10.2019
5487 Clouds 26 1015 15 10000 7.2 230 23:19 21.10.2019
5488 Clouds 26 1016 16 10000 3.6 260 22:57 21.10.2019
5489 Clouds 25 1016 16 10000 3.6 260 22:38 21.10.2019
5490 Clouds 26 1016 16 10000 3.6 260 22:20 21.10.2019
5491 Clouds 26 1017 14 10000 3.1 180 21:56 21.10.2019
5492 Clouds 26 1017 14 10000 3.1 180 21:37 21.10.2019
5493 Clouds 26 1017 14 10000 3.1 180 21:37 21.10.2019
5494 Clouds 26 1017 14 10000 3.1 180 21:19 21.10.2019
5495 Clouds 26 1018 15 10000 3.1 240 20:57 21.10.2019
5496 Clouds 26 1018 15 10000 3.1 240 20:57 21.10.2019
5497 Clouds 26 1018 15 10000 3.1 240 20:37 21.10.2019
5498 Clouds 25 1018 15 10000 3.1 240 20:19 21.10.2019
5499 Clouds 24 1018 20 8000 3.1 240 19:55 21.10.2019
5500 Clouds 24 1018 20 8000 3.1 240 19:36 21.10.2019
5501 Clouds 24 1018 20 8000 3.1 240 19:18 21.10.2019
5502 Clouds 23 1019 28 10000 2.1 210 18:54 21.10.2019
5503 Clouds 23 1019 28 10000 2.1 210 18:36 21.10.2019
5504 Clouds 23 1019 28 10000 2.1 210 18:36 21.10.2019
5505 Clear 22 1019 28 10000 2.1 210 18:18 21.10.2019
5506 Clear 21 1020 37 10000 1.5 290 17:39 21.10.2019
5507 Clear 21 1020 37 10000 1.5 290 17:19 21.10.2019
5508 Clear 20 1021 45 10000 1.5 290 16:58 21.10.2019
5509 Clear 20 1021 45 10000 1.5 290 16:40 21.10.2019
5510 Clear 19 1021 45 10000 1.5 290 16:21 21.10.2019
5511 Clear 16 1022 50 7000 1.5 200 15:57 21.10.2019
5512 Clear 17 1022 50 7000 1.5 200 15:38 21.10.2019
5513 Clouds 16 1022 50 7000 1.5 200 15:18 21.10.2019
5514 Clouds 13 1022 66 7000 0.76 231 14:40 21.10.2019
5515 Clouds 12 1022 66 7000 0.43 223 14:21 21.10.2019
5516 Clouds 12 1022 66 7000 0.43 223 14:21 21.10.2019
5517 Clouds 13 1022 70 10000 0.43 223 13:58 21.10.2019
5518 Clouds 13 1022 70 10000 0.43 223 13:40 21.10.2019
5519 Clouds 10 1022 70 10000 0.43 223 13:20 21.10.2019
5520 Smoke 9 1021 75 5000 0.5 0 12:57 21.10.2019
5521 Smoke 8 1021 75 5000 0.5 0 12:39 21.10.2019
5522 Smoke 8 1021 75 5000 0.5 0 12:20 21.10.2019
5523 Clouds 7 1022 81 8000 1 0 11:42 21.10.2019
5524 Clouds 7 1022 81 8000 1 0 11:23 21.10.2019
5525 Clouds 8 1022 75 8000 1.5 320 10:58 21.10.2019
5526 Clouds 8 1022 75 8000 1.5 320 10:40 21.10.2019
5527 Clouds 8 1022 75 8000 1.5 320 10:20 21.10.2019
5528 Clear 8 1022 70 10000 2.1 40 09:57 21.10.2019
5529 Clear 8 1022 70 10000 2.1 40 09:38 21.10.2019
5530 Clear 9 1022 70 10000 2.1 40 09:19 21.10.2019
5531 Clear 9 1023 70 10000 1.5 270 08:41 21.10.2019
5532 Clear 10 1023 70 10000 1.5 270 08:23 21.10.2019
5533 Clear 11 1023 62 10000 1 170 07:45 21.10.2019
5534 Clear 11 1023 62 10000 1 170 07:23 21.10.2019
5535 Clear 11 1023 62 10000 2.6 170 06:59 21.10.2019
5536 Clear 11 1023 62 10000 2.6 170 06:41 21.10.2019
5537 Clear 11 1023 62 10000 2.6 170 06:18 21.10.2019
5538 Clear 13 1023 54 10000 4.1 160 05:22 21.10.2019
5539 Clear 14 1023 47 10000 3.1 170 03:41 21.10.2019
5540 Clear 16 1023 44 10000 4.6 210 02:40 21.10.2019
5541 Clear 16 1023 44 10000 4.6 210 02:20 21.10.2019
5542 Clear 16 1023 44 10000 4.6 210 02:20 21.10.2019
5543 Clear 17 1022 42 10000 5.7 220 01:45 21.10.2019
5544 Clear 18 1022 39 10000 6.7 230 00:54 21.10.2019
5545 Clear 19 1022 39 10000 6.7 230 00:28 21.10.2019
5546 Clear 20 1022 37 10000 6.7 220 23:58 20.10.2019
5547 Clear 20 1022 37 10000 6.7 220 23:39 20.10.2019
5548 Clear 20 1022 37 10000 6.7 220 23:21 20.10.2019
5549 Clear 22 1023 45 10000 3.6 270 22:43 20.10.2019
5550 Clear 21 1023 45 10000 3.6 270 22:24 20.10.2019
5551 Clear 21 1023 30 10000 3.1 240 21:59 20.10.2019
5552 Clear 21 1023 30 10000 3.1 240 21:40 20.10.2019
5553 Clear 21 1023 30 10000 3.1 240 21:22 20.10.2019
5554 Clear 21 1023 30 10000 3.1 240 21:22 20.10.2019
5555 Clear 21 1024 39 10000 2.1 210 20:57 20.10.2019
5556 Clear 21 1024 39 10000 2.1 210 20:38 20.10.2019
5557 Clear 21 1024 39 10000 2.1 210 20:18 20.10.2019
5558 Clear 20 1024 45 10000 1.5 270 19:55 20.10.2019
5559 Clear 20 1024 45 10000 1.5 270 19:37 20.10.2019
5560 Clear 20 1024 45 10000 1.5 270 19:19 20.10.2019
5561 Clear 18 1025 54 8000 1.5 90 18:40 20.10.2019
5562 Clear 18 1025 54 8000 1.5 90 18:22 20.10.2019
5563 Clouds 17 1026 62 7000 2.1 250 17:57 20.10.2019
5564 Clouds 16 1026 62 7000 2.1 250 17:39 20.10.2019
5565 Clouds 15 1026 62 7000 2.1 250 17:20 20.10.2019
5566 Clouds 15 1026 71 7000 1.5 220 16:55 20.10.2019
5567 Clouds 15 1026 71 7000 1.5 220 16:36 20.10.2019
5568 Clouds 15 1026 71 7000 1.5 220 16:18 20.10.2019
5569 Haze 15 1026 71 5000 1 260 15:41 20.10.2019
5570 Haze 11 1026 71 5000 1 260 15:23 20.10.2019
5571 Mist 10 1026 81 4000 0.87 200.995 14:59 20.10.2019
5572 Mist 10 1026 81 4000 0.87 200.995 14:38 20.10.2019
5573 Mist 10 1026 81 4000 0.87 200.995 14:19 20.10.2019
5574 Mist 10 1025 81 4000 1.5 210 13:56 20.10.2019
5575 Mist 10 1025 81 4000 1.5 210 13:37 20.10.2019
5576 Mist 9 1025 81 4000 1.5 210 13:19 20.10.2019
5577 Clouds 10 1024 81 10000 4.1 150 12:57 20.10.2019
5578 Clouds 10 1024 81 10000 4.1 150 12:39 20.10.2019
5579 Clouds 9 1024 81 10000 4.1 150 12:21 20.10.2019
5580 Clouds 9 1023 87 10000 4.1 160 11:57 20.10.2019
5581 Clouds 9 1023 87 10000 4.1 160 11:39 20.10.2019
5582 Clouds 9 1023 87 10000 4.1 160 11:21 20.10.2019
5583 Clouds 9 1022 87 8000 4.1 160 10:54 20.10.2019
5584 Clouds 9 1022 87 8000 4.1 160 10:54 20.10.2019
5585 Clouds 9 1022 87 8000 4.1 160 10:36 20.10.2019
5586 Clouds 10 1022 87 8000 4.1 160 10:18 20.10.2019
5587 Clouds 10 1022 81 8000 4.6 160 09:42 20.10.2019
5588 Clouds 10 1022 81 8000 4.6 160 09:22 20.10.2019
5589 Clouds 10 1021 81 10000 4.6 160 08:49 20.10.2019
5590 Clouds 10 1021 81 10000 4.6 160 08:28 20.10.2019
5591 Clouds 11 1021 76 10000 3.6 150 07:57 20.10.2019
5592 Clouds 11 1021 76 10000 3.6 150 07:39 20.10.2019
5593 Clouds 11 1021 76 10000 3.6 150 07:20 20.10.2019
5594 Clouds 11 1021 71 10000 4.1 170 06:23 20.10.2019
5595 Clouds 11 1021 71 10000 4.1 160 04:28 20.10.2019
5596 Clouds 11 1021 71 10000 4.1 160 04:28 20.10.2019
5597 Clouds 11 1020 76 10000 4.1 170 03:48 20.10.2019
5598 Clouds 11 1020 76 10000 4.1 170 03:21 20.10.2019
5599 Clouds 11 1019 71 10000 8.2 210 02:44 20.10.2019
5600 Clouds 13 1019 58 10000 3.1 230 01:59 20.10.2019
5601 Clouds 13 1019 58 10000 3.1 230 01:24 20.10.2019
5602 Clouds 15 1018 59 10000 1.5 280 00:58 20.10.2019
5603 Clouds 16 1018 59 10000 1.5 280 00:39 20.10.2019
5604 Clouds 17 1018 59 10000 1.5 280 00:20 20.10.2019
5605 Clear 18 1018 48 10000 4.1 270 23:42 19.10.2019
5606 Clear 18 1018 48 10000 4.1 270 23:23 19.10.2019
5607 Clouds 18 1018 48 8000 4.1 250 22:57 19.10.2019
5608 Clouds 18 1018 48 8000 4.1 250 22:38 19.10.2019
5609 Clouds 18 1018 48 8000 4.1 250 22:20 19.10.2019
5610 Clouds 19 1018 48 8000 3.1 0 21:46 19.10.2019
5611 Clouds 19 1018 48 8000 3.1 0 21:24 19.10.2019
5612 Clouds 19 1018 45 8000 4.1 0 20:54 19.10.2019
5613 Clouds 20 1018 45 8000 4.1 0 20:36 19.10.2019
5614 Clouds 20 1018 45 8000 4.1 0 20:18 19.10.2019
5615 Clouds 20 1018 48 8000 2.6 0 19:41 19.10.2019
5616 Clouds 20 1018 48 8000 2.6 0 19:23 19.10.2019
5617 Clouds 19 1018 55 8000 2.6 200 18:43 19.10.2019
5618 Clouds 18 1018 55 8000 2.6 200 18:24 19.10.2019
5619 Clouds 18 1018 55 8000 2.6 200 18:24 19.10.2019
5620 Clouds 17 1018 54 8000 2.6 260 17:59 19.10.2019
5621 Clouds 17 1018 54 8000 2.6 260 17:37 19.10.2019
5622 Clouds 17 1018 54 8000 2.6 260 17:19 19.10.2019
5623 Clouds 18 1018 54 8000 2.1 240 16:39 19.10.2019
5624 Clouds 18 1018 54 8000 2.1 240 16:39 19.10.2019
5625 Clouds 18 1018 54 8000 2.1 240 16:20 19.10.2019
5626 Clouds 15 1017 58 8000 1 240 15:57 19.10.2019
5627 Clouds 17 1017 58 8000 1 240 15:39 19.10.2019
5628 Clouds 15 1017 58 8000 1 240 15:20 19.10.2019
5629 Clouds 13 1017 66 9000 1.39 236.07 14:38 19.10.2019
5630 Clouds 13 1017 66 9000 1.39 236.07 14:20 19.10.2019
5631 Clouds 12 1016 66 9000 1.39 236.07 13:56 19.10.2019
5632 Clouds 12 1016 66 9000 1.39 236.07 13:37 19.10.2019
5633 Clouds 12 1016 66 9000 1.09 240.131 13:18 19.10.2019
5634 Clouds 12 1016 66 9000 1.09 240.131 13:18 19.10.2019
5635 Clouds 11 1014 71 10000 2.6 180 12:40 19.10.2019
5636 Clouds 11 1014 71 10000 2.6 180 12:22 19.10.2019
5637 Clear 11 1014 66 10000 3.6 150 11:59 19.10.2019
5638 Clear 11 1014 66 10000 3.6 150 11:40 19.10.2019
5639 Clear 11 1014 66 10000 3.6 150 11:40 19.10.2019
5640 Clear 11 1014 66 10000 3.6 150 11:22 19.10.2019
5641 Clear 12 1014 66 10000 3.1 160 10:42 19.10.2019
5642 Clear 11 1014 66 10000 3.1 160 10:23 19.10.2019
5643 Clear 12 1014 62 10000 2.6 160 09:59 19.10.2019
5644 Clear 11 1014 62 10000 2.6 160 09:41 19.10.2019
5645 Clear 11 1014 62 10000 2.6 160 09:41 19.10.2019
5646 Clear 12 1014 62 10000 2.6 160 09:22 19.10.2019
5647 Clear 12 1014 62 10000 2.6 160 09:22 19.10.2019
5648 Clear 12 1014 62 10000 1.5 200 08:57 19.10.2019
5649 Clear 12 1014 62 10000 1.5 200 08:39 19.10.2019
5650 Clear 12 1014 62 10000 1.5 200 08:39 19.10.2019
5651 Clear 12 1014 62 10000 1.5 200 08:19 19.10.2019
5652 Clear 13 1014 58 10000 2.1 150 07:41 19.10.2019
5653 Clear 13 1014 58 10000 2.1 150 07:23 19.10.2019
5654 Clear 14 1014 54 10000 2.1 140 06:39 19.10.2019
5655 Clear 14 1015 54 10000 3.6 160 05:51 19.10.2019
5656 Clear 15 1015 51 10000 4.1 170 04:54 19.10.2019
5657 Clear 16 1014 48 10000 3.6 150 03:22 19.10.2019
5658 Clear 19 1014 39 10000 4.1 180 02:34 19.10.2019
5659 Clear 20 1015 37 10000 3.1 240 01:50 19.10.2019
5660 Clear 22 1015 31 10000 3.6 240 00:57 19.10.2019
5661 Clear 22 1015 31 10000 3.6 240 00:37 19.10.2019
5662 Clear 23 1015 31 10000 3.6 240 00:19 19.10.2019
5663 Clear 24 1015 56 10000 2.6 230 23:38 18.10.2019
5664 Clear 24 1015 56 10000 2.6 230 23:20 18.10.2019
5665 Clear 24 1015 23 10000 3.6 230 22:55 18.10.2019
5666 Clear 24 1015 23 10000 3.6 230 22:36 18.10.2019
5667 Clear 24 1015 23 10000 3.6 230 22:18 18.10.2019
5668 Clear 24 1016 25 10000 3.1 240 21:55 18.10.2019
5669 Clear 24 1016 25 10000 3.1 240 21:36 18.10.2019
5670 Clear 24 1016 25 10000 3.1 240 21:18 18.10.2019
5671 Clear 24 1016 25 10000 3.1 240 21:18 18.10.2019
5672 Clear 24 1015 29 10000 4.1 160 20:43 18.10.2019
5673 Clear 24 1015 29 10000 4.1 160 20:23 18.10.2019
5674 Clear 23 1016 30 10000 3.1 190 19:58 18.10.2019
5675 Clear 23 1016 30 10000 3.1 190 19:40 18.10.2019
5676 Clear 23 1016 30 10000 3.1 190 19:22 18.10.2019
5677 Clear 22 1017 37 8000 2.1 240 18:59 18.10.2019
5678 Clear 22 1017 37 8000 2.1 240 18:59 18.10.2019
5679 Clear 22 1017 37 8000 2.1 240 18:41 18.10.2019
5680 Clear 21 1017 37 8000 2.1 240 18:22 18.10.2019
5681 Clear 20 1017 45 8000 1.5 260 17:56 18.10.2019
5682 Clear 20 1017 45 8000 1.5 260 17:37 18.10.2019
5683 Clear 20 1017 45 8000 1.5 260 17:19 18.10.2019
5684 Clear 19 1017 48 10000 2.1 200 16:39 18.10.2019
5685 Clear 19 1017 48 10000 2.1 200 16:21 18.10.2019
5686 Clear 17 1017 58 10000 2.41 226.078 15:57 18.10.2019
5687 Clear 17 1017 58 10000 2.41 226.078 15:38 18.10.2019
5688 Clear 14 1017 58 10000 0.54 155.791 15:19 18.10.2019
5689 Clouds 14 1018 66 10000 0.54 155.791 14:56 18.10.2019
5690 Clouds 13 1018 66 10000 0.54 155.791 14:38 18.10.2019
5691 Clouds 12 1018 66 10000 0.54 155.791 14:19 18.10.2019
5692 Clouds 12 1017 54 10000 0.54 155.791 13:55 18.10.2019
5693 Clouds 12 1017 54 10000 0.54 155.791 13:36 18.10.2019
5694 Clouds 12 1017 54 10000 0.7 134.126 13:18 18.10.2019
5695 -273 0 0 0 0 0 12:54 18.10.2019
5696 Clear 10 1017 70 10000 0.7 134.126 12:54 18.10.2019
5697 Clear 10 1017 70 10000 0.7 134.126 12:36 18.10.2019
5698 Clear 10 1017 70 10000 0.22 117.502 12:18 18.10.2019
5699 Clear 10 1016 71 10000 0.22 117.502 11:41 18.10.2019
5700 Clear 10 1016 71 10000 0.22 117.502 11:20 18.10.2019
5701 Clear 10 1016 71 10000 1 0 10:57 18.10.2019
5702 Clear 10 1016 71 10000 1 0 10:39 18.10.2019
5703 Clear 10 1016 71 10000 1 0 10:19 18.10.2019
5704 Clear 11 1017 66 10000 0.22 117.502 09:57 18.10.2019
5705 Clear 11 1017 66 10000 0.22 117.502 09:39 18.10.2019
5706 Clear 11 1017 66 10000 0.19 129.31 09:18 18.10.2019
5707 Clear 11 1017 66 10000 0.19 129.31 08:43 18.10.2019
5708 Clear 11 1017 66 10000 0.19 129.31 08:24 18.10.2019
5709 Clouds 11 1018 66 10000 0.19 129.31 07:51 18.10.2019
5710 Clouds 11 1018 66 10000 0.19 129.31 07:33 18.10.2019
5711 Clear 12 1018 62 10000 2.1 160 06:48 18.10.2019
5712 Clear 12 1018 62 10000 2.1 160 06:30 18.10.2019
5713 Clear 13 1018 58 10000 2.6 160 05:59 18.10.2019
5714 Clear 13 1018 58 10000 2.6 160 05:41 18.10.2019
5715 Clear 13 1018 58 10000 2.6 160 05:18 18.10.2019
5716 Clear 15 1019 51 10000 4.6 190 03:35 18.10.2019
5717 Clouds 15 1018 51 10000 6.2 200 02:51 18.10.2019
5718 Clouds 15 1018 51 10000 6.2 200 02:32 18.10.2019
5719 Clear 16 1020 48 10000 3.1 230 01:39 18.10.2019
5720 Clear 16 1020 48 10000 3.1 230 01:18 18.10.2019
5721 Clear 19 1019 45 10000 5.1 250 00:40 18.10.2019
5722 Clear 18 1019 45 10000 5.1 250 00:19 18.10.2019
5723 Clear 18 1019 45 10000 5.1 250 00:19 18.10.2019
5724 Clouds 20 1019 28 10000 4.1 220 23:38 17.10.2019
5725 Clouds 20 1019 28 10000 4.1 220 23:20 17.10.2019
5726 Clouds 21 1019 32 8000 4.1 230 22:56 17.10.2019
5727 Clouds 21 1019 32 8000 4.1 230 22:56 17.10.2019
5728 Clouds 21 1019 32 8000 4.1 230 22:38 17.10.2019
5729 Clouds 21 1019 32 8000 4.1 230 22:19 17.10.2019
5730 Clouds 21 1019 30 8000 3.6 220 21:56 17.10.2019
5731 Clouds 21 1019 30 8000 3.6 220 21:38 17.10.2019
5732 Clouds 22 1019 30 8000 3.6 220 21:20 17.10.2019
5733 Clouds 22 1019 30 8000 3.6 220 21:20 17.10.2019
5734 Clouds 21 1020 34 7000 3.1 250 20:57 17.10.2019
5735 Clouds 22 1020 34 7000 3.1 250 20:38 17.10.2019
5736 Clouds 22 1020 34 7000 3.1 250 20:19 17.10.2019
5737 Clouds 21 1020 39 7000 2.1 200 19:56 17.10.2019
5738 Clouds 21 1020 39 7000 2.1 200 19:38 17.10.2019
5739 Clouds 21 1020 39 7000 2.1 200 19:18 17.10.2019
5740 Clear 19 1020 48 10000 2.1 180 18:42 17.10.2019
5741 Clear 18 1020 48 10000 2.1 180 18:21 17.10.2019
5742 Clear 16 1021 51 10000 2.1 230 17:55 17.10.2019
5743 Clear 17 1021 51 10000 2.1 230 17:37 17.10.2019
5744 Clear 17 1021 51 10000 2.1 230 17:19 17.10.2019
5745 Clouds 17 1021 58 10000 3.054 256 16:55 17.10.2019
5746 Clouds 16 1021 58 10000 3.054 256 16:36 17.10.2019
5747 Clouds 16 1021 58 10000 3.054 256 16:18 17.10.2019
5748 Clouds 15 1021 66 6000 3.054 256 15:41 17.10.2019
5749 Clouds 12 1021 66 6000 1.751 247 15:21 17.10.2019
5750 Clouds 11 1021 76 7000 1.751 247 14:59 17.10.2019
5751 Clouds 11 1021 76 7000 1.751 247 14:59 17.10.2019
5752 Clouds 12 1021 76 7000 1.751 247 14:41 17.10.2019
5753 Clouds 11 1021 76 7000 1.61 249 14:23 17.10.2019
5754 Clouds 12 1021 66 6000 1.61 249 13:54 17.10.2019
5755 Clouds 11 1021 66 6000 1.61 249 13:36 17.10.2019
5756 Clouds 11 1021 66 6000 1.61 249 13:18 17.10.2019
5757 Clouds 11 1020 76 10000 2.6 150 12:41 17.10.2019
5758 Clouds 10 1020 76 10000 2.6 150 12:20 17.10.2019
5759 Clouds 10 1020 76 10000 2.6 140 11:58 17.10.2019
5760 Clouds 10 1020 76 10000 2.6 140 11:40 17.10.2019
5761 Clouds 10 1020 76 10000 2.6 140 11:19 17.10.2019
5762 Clouds 11 1020 71 10000 2.6 150 10:54 17.10.2019
5763 Clouds 11 1020 71 10000 2.6 150 10:54 17.10.2019
5764 Clouds 11 1020 71 10000 2.6 150 10:54 17.10.2019
5765 Clouds 10 1020 71 10000 2.6 150 10:36 17.10.2019
5766 Clouds 10 1020 71 10000 2.6 150 10:18 17.10.2019
5767 Clouds 10 1020 71 10000 2.6 150 10:18 17.10.2019
5768 Clouds 10 1020 71 10000 2.6 150 10:18 17.10.2019
5769 Clouds 11 1020 71 10000 2.1 220 09:41 17.10.2019
5770 Clouds 11 1020 71 10000 2.1 220 09:21 17.10.2019
5771 -273 0 0 0 0 0 08:58 17.10.2019
5772 Clouds 11 1021 71 10000 3.1 160 08:58 17.10.2019
5773 Clouds 11 1021 71 10000 3.1 160 08:39 17.10.2019
5774 Clouds 11 1021 71 10000 3.1 160 08:20 17.10.2019
5775 -273 0 0 0 0 0 07:54 17.10.2019
5776 Clouds 11 1021 71 10000 2.6 150 07:54 17.10.2019
5777 Clouds 11 1021 71 10000 2.6 150 07:36 17.10.2019
5778 Clouds 11 1021 71 10000 2.6 150 07:18 17.10.2019
5779 Clouds 10 1021 71 10000 2.1 150 06:39 17.10.2019
5780 Clouds 11 1021 71 10000 2.1 150 06:20 17.10.2019
5781 Clouds 11 1021 71 10000 3.6 160 05:49 17.10.2019
5782 Clouds 10 1021 71 10000 3.6 160 05:30 17.10.2019
5783 Clouds 10 1021 76 10000 3.1 140 04:51 17.10.2019
5784 Clouds 10 1020 76 10000 4.6 160 03:52 17.10.2019
5785 Clouds 11 1020 71 10000 4.6 180 02:36 17.10.2019
5786 Clouds 14 1020 54 10000 5.1 250 00:56 17.10.2019
5787 Clouds 14 1020 54 10000 5.1 250 00:38 17.10.2019
5788 Clouds 14 1020 54 10000 5.1 250 00:18 17.10.2019
5789 Clouds 17 1019 48 10000 3.1 200 23:42 16.10.2019
5790 Clouds 17 1019 48 10000 3.1 200 23:20 16.10.2019
5791 Clouds 17 1019 51 10000 3.1 190 22:55 16.10.2019
5792 Clouds 17 1019 51 10000 3.1 190 22:36 16.10.2019
5793 Clouds 18 1019 51 10000 3.1 190 22:18 16.10.2019
5794 Clouds 18 1019 51 10000 3.6 220 21:55 16.10.2019
5795 Clouds 18 1019 51 10000 3.6 220 21:37 16.10.2019
5796 Clouds 18 1019 51 10000 3.6 220 21:37 16.10.2019
5797 Clouds 18 1019 51 10000 3.6 220 21:18 16.10.2019
5798 Clouds 18 1019 48 10000 3.6 240 20:56 16.10.2019
5799 Clouds 18 1019 48 10000 3.6 240 20:56 16.10.2019
5800 Clouds 18 1019 48 10000 3.6 240 20:56 16.10.2019
5801 Clouds 18 1019 48 10000 3.6 240 20:38 16.10.2019
5802 Clouds 18 1019 48 10000 3.6 240 20:20 16.10.2019
5803 Clouds 18 1019 48 10000 3.6 240 19:56 16.10.2019
5804 Clouds 18 1019 48 10000 3.6 240 19:38 16.10.2019
5805 Clouds 18 1019 48 10000 3.6 240 19:19 16.10.2019
5806 Clouds 19 1018 51 10000 1.5 240 18:39 16.10.2019
5807 Clouds 18 1018 51 10000 1.5 240 18:19 16.10.2019
5808 Clouds 18 1018 55 10000 3.1 240 17:56 16.10.2019
5809 Clouds 18 1018 55 10000 3.1 240 17:38 16.10.2019
5810 Clouds 18 1018 55 10000 3.1 240 17:38 16.10.2019
5811 Clouds 18 1018 55 10000 3.1 240 17:19 16.10.2019
5812 Clouds 18 1018 55 10000 3.1 240 17:19 16.10.2019
5813 Clouds 17 1018 58 10000 1 330 16:58 16.10.2019
5814 Clouds 18 1018 58 10000 1 330 16:39 16.10.2019
5815 Clouds 18 1018 58 10000 1 330 16:20 16.10.2019
5816 Clouds 16 1017 62 10000 1 120 15:55 16.10.2019
5817 Rain 19 1015 46 0 3.78 255 15:36 16.10.2019
5818 Clouds 14 1017 62 10000 1.5 250 15:18 16.10.2019
5819 Clouds 14 1017 62 10000 1.5 250 15:18 16.10.2019
5820 Clouds 14 1017 62 10000 1.5 250 14:55 16.10.2019
5821 Clouds 13 1017 62 10000 1.5 250 14:37 16.10.2019
5822 Clouds 14 1017 62 10000 1.5 250 14:18 16.10.2019
5823 Clouds 13 1016 71 10000 1.713 258 13:55 16.10.2019
5824 Clouds 13 1016 71 10000 1.713 258 13:55 16.10.2019
5825 Clouds 12 1016 71 10000 1.713 258 13:36 16.10.2019
5826 Clouds 12 1016 71 10000 1.713 258 13:18 16.10.2019
5827 Clouds 11 1015 71 10000 2.6 150 12:40 16.10.2019
5828 Clouds 11 1015 71 10000 2.6 150 12:18 16.10.2019
5829 Clouds 11 1014 66 10000 2.6 170 11:42 16.10.2019
5830 Clouds 11 1014 66 10000 2.6 170 11:18 16.10.2019
5831 Clouds 11 1014 66 10000 1.5 200 10:39 16.10.2019
5832 Clouds 11 1014 66 10000 1.5 200 10:20 16.10.2019
5833 Clouds 12 1015 62 10000 3.1 150 09:56 16.10.2019
5834 Clouds 12 1015 62 10000 3.1 150 09:38 16.10.2019
5835 Clouds 12 1015 62 10000 3.1 150 09:19 16.10.2019
5836 Clouds 12 1015 66 10000 2.6 160 08:43 16.10.2019
5837 -273 0 0 0 0 0 08:24 16.10.2019
5838 Clouds 12 1016 66 10000 3.1 150 07:45 16.10.2019
5839 Clouds 13 1016 66 10000 3.1 150 07:25 16.10.2019
5840 Clouds 12 1016 66 10000 3.1 150 06:59 16.10.2019
5841 Clouds 10 1017 74 0 0.814 298 06:39 16.10.2019
5842 Clouds 14 930 99 0 1.05 237 05:48 16.10.2019
5843 Clouds 16 1015 55 10000 4.1 170 03:24 16.10.2019
5844 Clouds 18 1015 48 10000 4.1 200 02:47 16.10.2019
5845 Clouds 19 1016 45 10000 2.1 240 01:19 16.10.2019
5846 Clouds 21 1016 40 10000 3.1 250 00:49 16.10.2019
5847 Clouds 21 1016 40 10000 3.1 250 00:28 16.10.2019
5848 Clouds 23 1016 31 10000 3.1 210 23:41 15.10.2019
5849 Clouds 23 1016 31 10000 3.1 210 23:22 15.10.2019
5850 Clouds 23 1016 27 10000 3.1 240 22:56 15.10.2019
5851 Clouds 23 1016 27 10000 3.1 240 22:38 15.10.2019
5852 Clouds 23 1016 27 10000 3.1 240 22:20 15.10.2019
5853 Clouds 23 1017 27 10000 3.1 270 21:56 15.10.2019
5854 Clouds 23 1017 27 10000 3.1 270 21:56 15.10.2019
5855 Clouds 23 1017 27 10000 3.1 270 21:38 15.10.2019
5856 Clouds 23 1017 27 10000 3.1 270 21:20 15.10.2019
5857 Clouds 23 1017 27 10000 3.1 270 20:57 15.10.2019
5858 Clouds 23 1017 31 10000 3.1 240 20:39 15.10.2019
5859 Clouds 23 1017 31 10000 3.1 240 20:39 15.10.2019
5860 Clouds 23 1017 31 10000 3.1 240 20:39 15.10.2019
5861 Clouds 23 1017 31 10000 3.1 240 20:20 15.10.2019
5862 Clouds 23 1017 31 10000 3.1 240 20:20 15.10.2019
5863 Clouds 22 1017 35 8000 2.6 240 19:58 15.10.2019
5864 Clouds 23 1017 35 8000 2.6 240 19:40 15.10.2019
5865 Clouds 22 1017 35 8000 2.6 240 19:20 15.10.2019
5866 Clouds 21 1018 40 8000 2.1 210 18:47 15.10.2019
5867 Clouds 21 1018 40 8000 2.1 210 18:29 15.10.2019
5868 Clouds 21 1018 40 8000 2.1 210 17:59 15.10.2019
5869 Clouds 20 1018 48 10000 1 70 17:40 15.10.2019
5870 Clouds 20 1018 48 10000 1 70 17:40 15.10.2019
5871 Clouds 18 1018 48 10000 1 70 17:20 15.10.2019
5872 Clouds 16 1019 55 10000 1 60 16:55 15.10.2019
5873 Clouds 16 1019 55 10000 1 60 16:55 15.10.2019
5874 Clouds 19 1019 55 10000 1 60 16:37 15.10.2019
5875 Clouds 19 1019 55 10000 1 60 16:19 15.10.2019
5876 Clouds 16 1019 71 10000 1 170 15:42 15.10.2019
5877 Clear 14 1019 71 10000 1 170 15:21 15.10.2019
5878 Clear 14 1019 71 10000 1 170 14:58 15.10.2019
5879 Clear 14 1019 76 7000 1.5 60 14:38 15.10.2019
5880 Clear 14 1019 76 7000 1.5 60 14:38 15.10.2019
5881 Clear 14 1019 76 7000 1.5 60 14:38 15.10.2019
5882 Clear 11 1019 76 7000 1.5 60 14:20 15.10.2019
5883 Clear 10 1019 87 10000 0.616 235 13:55 15.10.2019
5884 Clear 10 1019 87 10000 0.616 235 13:37 15.10.2019
5885 Clear 9 1019 87 10000 0.616 235 13:18 15.10.2019
5886 Clear 8 1018 87 6000 1.5 0 12:41 15.10.2019
5887 Clear 8 1018 87 6000 1.5 0 12:21 15.10.2019
5888 Clear 8 1018 87 8000 1 0 11:56 15.10.2019
5889 Clear 8 1018 87 8000 1 0 11:37 15.10.2019
5890 Clear 9 1018 87 8000 1 0 11:19 15.10.2019
5891 Clear 9 1018 76 10000 1.5 100 10:44 15.10.2019
5892 Clear 9 1018 76 10000 1.5 100 10:44 15.10.2019
5893 Clear 9 1018 76 10000 1.5 100 10:21 15.10.2019
5894 Clear 9 1018 76 10000 1.5 100 09:58 15.10.2019
5895 Clear 9 1019 76 10000 0.55 266.535 09:38 15.10.2019
5896 Clear 9 1019 76 10000 0.7 52.411 09:19 15.10.2019
5897 Clouds 10 1019 76 10000 1 260 08:43 15.10.2019
5898 Clouds 10 1019 76 10000 1 260 08:22 15.10.2019
5899 Clouds 12 1019 62 10000 2.1 220 07:59 15.10.2019
5900 Clouds 11 1019 62 10000 2.1 220 07:41 15.10.2019
5901 Clouds 12 1019 62 10000 2.1 220 07:20 15.10.2019
5902 Clouds 12 1019 66 10000 2.6 160 06:45 15.10.2019
5903 Clouds 13 1019 66 10000 2.6 160 06:26 15.10.2019
5904 Clouds 14 1019 62 10000 3.6 160 05:43 15.10.2019
5905 -273 0 0 0 0 0 05:24 15.10.2019
5906 Clouds 14 1019 67 10000 3.6 150 04:33 15.10.2019
5907 Clouds 14 1019 67 10000 3.6 150 03:38 15.10.2019
5908 Clouds 14 1018 62 10000 2.6 150 02:42 15.10.2019
5909 Clouds 14 1019 71 10000 2.1 190 01:49 15.10.2019
5910 Clouds 14 1019 71 10000 2.1 190 01:22 15.10.2019
5911 Clouds 15 1018 67 10000 3.1 230 00:49 15.10.2019
5912 Clouds 15 1018 67 10000 3.1 230 00:22 15.10.2019
5913 Clouds 16 1018 62 10000 1 270 23:45 14.10.2019
5914 Clouds 16 1018 62 10000 1 270 23:21 14.10.2019
5915 Clouds 16 1018 62 10000 1 270 22:58 14.10.2019
5916 Clouds 16 1018 67 10000 2.1 130 22:38 14.10.2019
5917 Clouds 16 1018 67 10000 2.1 130 22:19 14.10.2019
5918 Clouds 16 1018 67 8000 1 150 21:56 14.10.2019
5919 Clouds 16 1018 67 8000 1 150 21:37 14.10.2019
5920 Clouds 16 1018 67 8000 1 150 21:19 14.10.2019
5921 Clouds 15 1018 82 6000 1 100 20:55 14.10.2019
5922 -273 0 0 0 0 0 20:55 14.10.2019
5923 -273 0 0 0 0 0 20:54 14.10.2019
5924 Clouds 15 1018 82 6000 1 100 20:54 14.10.2019
5925 Clouds 15 1018 82 6000 1 100 20:36 14.10.2019
5926 Clouds 15 1018 82 6000 1 100 20:36 14.10.2019
5927 Clouds 14 1018 82 6000 1 100 20:18 14.10.2019
5928 Clouds 15 1018 71 8000 1.5 180 19:41 14.10.2019
5929 Clouds 15 1018 71 8000 1.5 180 19:41 14.10.2019
5930 Clouds 15 1018 71 8000 1.5 180 19:23 14.10.2019
5931 Clouds 15 1018 71 8000 1.5 180 19:23 14.10.2019
5932 Clouds 14 1017 62 10000 3.1 180 18:58 14.10.2019
5933 Clouds 14 1018 76 8000 1.5 220 18:39 14.10.2019
5934 Clouds 14 1018 76 8000 1.5 220 18:19 14.10.2019
5935 Rain 13 1018 81 6000 1.07 205.771 17:57 14.10.2019
5936 Rain 13 1018 81 6000 1.07 205.771 17:57 14.10.2019
5937 Rain 13 1018 81 6000 1.07 205.771 17:38 14.10.2019
5938 Rain 13 1018 81 6000 1.07 205.771 17:38 14.10.2019
5939 Rain 13 1018 81 6000 1.07 205.771 17:19 14.10.2019
5940 Rain 13 1018 87 6000 1.5 350 16:44 14.10.2019
5941 Rain 13 1018 87 6000 1.5 350 16:21 14.10.2019
5942 Clouds 13 1018 81 6000 2.1 150 15:43 14.10.2019
5943 Clouds 13 1018 81 6000 2.1 150 15:24 14.10.2019
5944 Clouds 13 1017 76 8000 2.6 180 14:58 14.10.2019
5945 Clouds 13 1017 76 8000 2.6 180 14:39 14.10.2019
5946 Clouds 12 1017 76 8000 2.6 180 14:20 14.10.2019
5947 Clouds 12 1015 71 10000 3.1 270 13:44 14.10.2019
5948 Clouds 12 1015 71 10000 3.1 270 13:21 14.10.2019
5949 Clouds 12 1015 81 10000 3.6 180 12:55 14.10.2019
5950 Clouds 12 1015 81 8000 4.6 140 12:37 14.10.2019
5951 Clouds 12 1015 81 8000 4.6 140 12:18 14.10.2019
5952 Clouds 13 1012 81 10000 5.7 140 11:44 14.10.2019
5953 Clouds 13 1012 81 10000 5.7 140 11:26 14.10.2019
5954 Clouds 13 1011 71 10000 3.6 130 10:57 14.10.2019
5955 Clouds 13 1011 71 10000 3.6 130 10:38 14.10.2019
5956 Clouds 13 1011 71 10000 3.6 130 10:19 14.10.2019
5957 Clouds 13 1010 66 10000 3.1 170 09:42 14.10.2019
5958 Clouds 14 1010 66 10000 3.1 170 09:21 14.10.2019
5959 -273 0 0 0 0 0 08:52 14.10.2019
5960 Clouds 14 1011 58 10000 4.1 150 08:23 14.10.2019
5961 Clouds 14 1010 51 10000 4.6 140 07:59 14.10.2019
5962 Clouds 15 1010 51 10000 4.6 140 07:39 14.10.2019
5963 Clouds 15 1010 51 10000 4.6 140 07:18 14.10.2019
5964 Clouds 16 1010 54 10000 3.1 120 06:37 14.10.2019
5965 Clouds 16 1010 54 10000 3.1 120 06:18 14.10.2019
5966 Clouds 17 1009 51 10000 4.1 150 05:42 14.10.2019
5967 Clouds 18 1010 48 10000 5.1 180 04:42 14.10.2019
5968 Clouds 19 1010 42 10000 1.5 0 03:27 14.10.2019
5969 Clouds 20 1010 40 10000 2.1 140 02:36 14.10.2019
5970 Clouds 22 1011 35 10000 0.5 0 01:22 14.10.2019
5971 Clouds 22 1011 35 8000 2.1 210 00:45 14.10.2019
5972 Clouds 23 1011 35 8000 2.1 210 00:19 14.10.2019
5973 Clouds 23 1011 31 6000 2.1 240 23:44 13.10.2019
5974 Clouds 23 1011 31 6000 2.1 240 23:20 13.10.2019
5975 Clouds 24 1011 31 6000 2.1 210 22:58 13.10.2019
5976 Clouds 24 1011 31 6000 2.1 210 22:40 13.10.2019
5977 Clouds 25 1011 31 6000 2.1 210 22:21 13.10.2019
5978 Clouds 25 1011 31 6000 2.1 210 22:21 13.10.2019
5979 Clouds 25 1011 23 7000 2.1 270 21:58 13.10.2019
5980 Clouds 25 1011 23 7000 2.1 270 21:37 13.10.2019
5981 Clouds 26 1011 23 7000 2.1 270 21:18 13.10.2019
5982 Clouds 26 1011 23 7000 2.1 270 21:18 13.10.2019
5983 Clouds 26 1012 20 8000 2.1 210 20:57 13.10.2019
5984 Clouds 26 1012 20 8000 2.1 210 20:57 13.10.2019
5985 Clouds 26 1012 20 8000 2.1 210 20:57 13.10.2019
5986 Clouds 26 1012 20 8000 2.1 210 20:57 13.10.2019
5987 Clouds 26 1012 20 8000 2.1 210 20:38 13.10.2019
5988 Clouds 26 1012 20 8000 2.1 210 20:20 13.10.2019
5989 Clouds 25 1012 23 8000 1.5 180 19:58 13.10.2019
5990 Clouds 25 1012 23 8000 1.5 180 19:57 13.10.2019
5991 Clouds 25 1012 23 8000 1.5 180 19:57 13.10.2019
5992 Clouds 25 1012 23 8000 1.5 180 19:39 13.10.2019
5993 Clouds 25 1012 23 8000 1.5 180 19:39 13.10.2019
5994 Clouds 25 1012 23 8000 1.5 180 19:20 13.10.2019
5995 Clouds 24 1013 28 8000 1 330 18:55 13.10.2019
5996 Clouds 24 1013 28 8000 1 330 18:55 13.10.2019
5997 -273 0 0 0 0 0 18:54 13.10.2019
5998 Clouds 25 1013 28 8000 1 330 18:36 13.10.2019
5999 Clouds 23 1013 28 8000 1 330 18:18 13.10.2019
6000 Clouds 21 1013 42 8000 1 300 17:42 13.10.2019
6001 Clouds 21 1013 42 8000 1 300 17:24 13.10.2019
6002 Clouds 20 1013 45 7000 1.09 188.674 16:45 13.10.2019
6003 Clouds 20 1013 45 7000 1.09 188.674 16:45 13.10.2019
6004 Clouds 20 1013 45 7000 1.09 188.674 16:20 13.10.2019
6005 Clouds 19 1013 55 7000 1.09 188.674 15:59 13.10.2019
6006 Clouds 17 1013 55 7000 1.09 188.674 15:39 13.10.2019
6007 Clouds 19 1013 55 7000 0.34 304.896 15:21 13.10.2019
6008 Clouds 17 1013 58 7000 0.34 304.896 14:59 13.10.2019
6009 Clouds 17 1013 58 7000 0.34 304.896 14:40 13.10.2019
6010 Clouds 15 1013 58 7000 0.34 304.896 14:22 13.10.2019
6011 Clouds 14 1013 76 7000 0.34 304.896 13:59 13.10.2019
6012 Clouds 13 1013 76 7000 0.34 304.896 13:38 13.10.2019
6013 Clouds 13 1013 76 7000 0.75 266.044 13:20 13.10.2019
6014 Clouds 13 1011 76 7000 2.6 150 12:56 13.10.2019
6015 Clouds 13 1011 76 7000 2.6 150 12:38 13.10.2019
6016 Clouds 13 1011 76 7000 2.6 150 12:19 13.10.2019
6017 Clouds 13 1011 76 7000 4.1 150 11:56 13.10.2019
6018 Clouds 13 1011 76 7000 4.1 150 11:38 13.10.2019
6019 Clouds 14 1011 76 7000 4.1 150 11:18 13.10.2019
6020 Clouds 15 1010 76 6000 2.1 160 10:42 13.10.2019
6021 Clouds 14 1010 76 6000 2.1 160 10:23 13.10.2019
6022 Clouds 14 1010 76 6000 1.5 190 09:56 13.10.2019
6023 Clouds 14 1010 76 6000 1.5 190 09:37 13.10.2019
6024 Clouds 14 1010 76 6000 1.5 190 09:19 13.10.2019
6025 Clouds 14 1011 76 6000 2.1 10 08:42 13.10.2019
6026 Clouds 14 1011 76 6000 2.1 10 08:21 13.10.2019
6027 Clouds 13 1012 81 6000 3.1 30 07:46 13.10.2019
6028 Clouds 13 1012 81 6000 3.1 30 07:21 13.10.2019
6029 Clouds 14 1013 71 7000 1.5 0 06:42 13.10.2019
6030 Clouds 15 1014 71 8000 1.5 340 05:49 13.10.2019
6031 Clouds 15 1014 71 8000 2.1 120 04:49 13.10.2019
6032 Clouds 15 1014 71 8000 2.1 120 04:29 13.10.2019
6033 Clouds 16 1015 67 8000 2.1 170 02:42 13.10.2019
6034 Clouds 16 1015 67 8000 2.1 170 02:42 13.10.2019
6035 Clouds 17 1015 59 6000 0.5 0 01:59 13.10.2019
6036 Clouds 17 1015 59 6000 0.5 0 01:30 13.10.2019
6037 Clouds 18 1015 59 6000 1.5 240 00:49 13.10.2019
6038 Clouds 20 1015 59 6000 1.5 240 00:22 13.10.2019
6039 Haze 20 1015 55 5000 1 290 23:57 12.10.2019
6040 Haze 20 1015 55 5000 1 290 23:39 12.10.2019
6041 Haze 20 1015 55 5000 1 290 23:19 12.10.2019
6042 Haze 20 1015 52 5000 1.5 250 22:57 12.10.2019
6043 Haze 20 1015 52 5000 1.5 250 22:38 12.10.2019
6044 Haze 20 1015 52 5000 1.5 250 22:20 12.10.2019
6045 Haze 20 1015 48 5000 1 170 21:55 12.10.2019
6046 Haze 21 1015 48 5000 1 170 21:37 12.10.2019
6047 Haze 21 1015 48 5000 1 170 21:18 12.10.2019
6048 Haze 21 1015 48 5000 1 170 21:18 12.10.2019
6049 Haze 21 1016 48 5000 1.5 190 20:40 12.10.2019
6050 Haze 21 1016 48 5000 1.5 190 20:22 12.10.2019
6051 Haze 21 1016 48 5000 1 180 19:39 12.10.2019
6052 Haze 21 1016 48 5000 1 180 19:39 12.10.2019
6053 Haze 21 1016 48 5000 1 180 19:20 12.10.2019
6054 Clouds 20 1016 52 7000 1 210 18:59 12.10.2019
6055 Clouds 20 1016 52 7000 1 210 18:40 12.10.2019
6056 Clouds 20 1016 52 7000 1 210 18:40 12.10.2019
6057 Clouds 19 1016 52 7000 1 210 18:22 12.10.2019
6058 Clouds 19 1016 62 8000 1.1 150.905 17:43 12.10.2019
6059 Clouds 17 1016 62 8000 1.1 150.905 17:19 12.10.2019
6060 Haze 18 1016 67 9000 1.5 200 16:55 12.10.2019
6061 Haze 19 1016 67 9000 1.5 200 16:36 12.10.2019
6062 Haze 18 1016 67 9000 1.5 200 16:18 12.10.2019
6063 Haze 17 1016 71 10000 1 150 15:44 12.10.2019
6064 Haze 15 1016 71 10000 1 150 15:25 12.10.2019
6065 Haze 13 1015 71 10000 0.17 7.125 14:43 12.10.2019
6066 Haze 13 1015 71 10000 0.17 7.125 14:22 12.10.2019
6067 Clouds 13 1014 71 10000 1 240 13:59 12.10.2019
6068 Clouds 12 1014 71 10000 1 240 13:40 12.10.2019
6069 Clouds 12 1014 71 10000 1 240 13:21 12.10.2019
6070 Clouds 12 1013 87 8000 1 0 12:40 12.10.2019
6071 Clouds 12 1013 87 8000 1 0 12:21 12.10.2019
6072 Clouds 12 1013 87 8000 3.6 150 11:59 12.10.2019
6073 Clouds 12 1013 87 8000 3.6 150 11:39 12.10.2019
6074 Clouds 12 1013 87 8000 3.6 150 11:20 12.10.2019
6075 Clouds 12 1013 87 8000 4.1 160 10:44 12.10.2019
6076 Clouds 13 1013 87 8000 4.1 160 10:24 12.10.2019
6077 Clouds 13 1013 87 8000 2.6 230 09:58 12.10.2019
6078 Clouds 13 1013 87 8000 2.6 230 09:58 12.10.2019
6079 Clouds 13 1013 87 8000 2.6 230 09:58 12.10.2019
6080 Clouds 13 1013 87 8000 2.6 230 09:40 12.10.2019
6081 Clouds 13 1013 87 8000 2.6 230 09:22 12.10.2019
6082 Clouds 13 1013 81 8000 0.29 48.4 08:58 12.10.2019
6083 Clouds 13 1013 81 8000 0.29 48.4 08:38 12.10.2019
6084 Clouds 12 1013 81 8000 0.29 48.4 08:20 12.10.2019
6085 Clouds 12 1013 81 8000 0.29 48.4 08:20 12.10.2019
6086 Clouds 13 1013 81 8000 0.5 0 07:35 12.10.2019
6087 Clear 12 1014 87 10000 3.1 160 06:57 12.10.2019
6088 Clear 13 1014 81 10000 4.1 160 05:48 12.10.2019
6089 Clear 14 1014 81 10000 4.1 160 05:23 12.10.2019
6090 Clear 12 1014 76 10000 6.2 160 04:24 12.10.2019
6091 Clear 15 1014 71 10000 5.1 150 03:31 12.10.2019
6092 Clouds 18 1014 48 10000 1.89 273.123 01:50 12.10.2019
6093 Clouds 19 1014 48 10000 1.97 283.458 01:21 12.10.2019
6094 Clouds 21 1013 26 10000 1.5 210 00:42 12.10.2019
6095 Clouds 23 1013 20 10000 2.1 200 23:59 11.10.2019
6096 Clouds 23 1013 20 10000 2.1 200 23:40 11.10.2019
6097 Clouds 23 1013 20 10000 2.1 200 23:40 11.10.2019
6098 Clouds 24 1013 20 10000 2.1 200 23:20 11.10.2019
6099 Clouds 25 1013 44 10000 2.6 180 22:41 11.10.2019
6100 Clouds 25 1013 44 10000 2.6 180 22:41 11.10.2019
6101 Clouds 25 1013 44 10000 2.6 180 22:22 11.10.2019
6102 Clouds 25 1013 44 10000 2.1 200 21:58 11.10.2019
6103 Clouds 25 1013 44 10000 2.1 200 21:39 11.10.2019
6104 Clouds 25 1013 32 10000 2.1 200 21:21 11.10.2019
6105 Clouds 24 1014 31 10000 2.1 200 20:45 11.10.2019
6106 Clouds 24 1014 31 10000 2.1 200 20:27 11.10.2019
6107 Clouds 24 1014 31 10000 2.1 200 20:27 11.10.2019
6108 Clouds 24 1014 24 10000 1 220 19:58 11.10.2019
6109 Clouds 24 1014 24 10000 1 220 19:39 11.10.2019
6110 Clouds 24 1014 24 10000 1 220 19:39 11.10.2019
6111 Clouds 24 1014 24 10000 1 220 19:18 11.10.2019
6112 Clouds 24 1014 24 10000 1 220 19:18 11.10.2019
6113 Clouds 24 1014 24 10000 1 220 19:18 11.10.2019
6114 Clouds 24 1014 24 10000 1 220 19:18 11.10.2019
6115 Clouds 23 1014 24 10000 2.1 200 18:59 11.10.2019
6116 Clouds 23 1014 24 10000 2.1 200 18:59 11.10.2019
6117 Clouds 23 1014 24 10000 2.1 200 18:38 11.10.2019
6118 Clouds 23 1014 24 10000 2.1 200 18:19 11.10.2019
6119 Clouds 23 1014 35 10000 1 190 17:59 11.10.2019
6120 Clouds 23 1014 35 10000 1 190 17:38 11.10.2019
6121 Clouds 22 1014 35 10000 1 190 17:19 11.10.2019
6122 Clouds 21 1014 29 10000 1.88 224.31 16:58 11.10.2019
6123 Clouds 21 1014 29 10000 1.88 224.31 16:39 11.10.2019
6124 Clouds 21 1014 29 10000 1.88 224.31 16:19 11.10.2019
6125 Clouds 20 1013 36 10000 1.88 224.31 15:42 11.10.2019
6126 Clouds 19 1013 36 10000 0.43 222.649 15:21 11.10.2019
6127 Clouds 17 1013 44 10000 0.43 222.649 14:59 11.10.2019
6128 Clouds 16 1013 44 10000 0.43 222.649 14:40 11.10.2019
6129 Clouds 16 1013 44 10000 0.43 222.649 14:20 11.10.2019
6130 Clouds 15 1013 54 10000 1 80 13:45 11.10.2019
6131 Clouds 15 1013 54 10000 1 80 13:45 11.10.2019
6132 Clouds 15 1013 54 10000 1 80 13:25 11.10.2019
6133 Clear 14 1011 50 10000 0.5 0 12:57 11.10.2019
6134 Clear 14 1011 50 10000 0.5 0 12:39 11.10.2019
6135 Clear 14 1011 50 10000 0.5 0 12:20 11.10.2019
6136 Clear 14 1011 47 10000 1 0 11:58 11.10.2019
6137 Clear 14 1011 47 10000 1 0 11:38 11.10.2019
6138 Clear 14 1011 47 10000 1 0 11:20 11.10.2019
6139 Clear 15 1011 44 10000 0.67 34.641 10:54 11.10.2019
6140 Clear 15 1011 44 10000 0.67 34.641 10:36 11.10.2019
6141 Clear 15 1011 44 10000 0.67 34.641 10:18 11.10.2019
6142 Clear 14 1011 47 10000 1.5 340 09:41 11.10.2019
6143 Clear 14 1011 47 10000 1.5 340 09:20 11.10.2019
6144 Clear 15 1012 39 10000 1 160 08:56 11.10.2019
6145 Clear 16 1012 39 10000 1 160 08:38 11.10.2019
6146 Clear 16 1012 39 10000 1 160 08:20 11.10.2019
6147 Clear 16 1013 36 10000 2.6 140 07:51 11.10.2019
6148 Clear 16 1013 36 10000 2.6 140 07:33 11.10.2019
6149 Clear 16 1013 39 10000 3.6 160 06:49 11.10.2019
6150 Clear 17 1013 39 10000 3.6 160 06:25 11.10.2019
6151 Clear 18 1013 34 10000 4.6 180 05:46 11.10.2019
6152 Clear 19 1013 34 10000 4.6 180 05:27 11.10.2019
6153 Clear 20 1013 61 10000 4.1 140 04:47 11.10.2019
6154 Clear 22 1013 19 10000 3.6 170 02:59 11.10.2019
6155 Clouds 25 1014 16 10000 2.1 190 00:54 11.10.2019
6156 Clouds 25 1014 16 10000 2.1 190 00:31 11.10.2019
6157 Clouds 26 1013 19 10000 3.1 190 23:57 10.10.2019
6158 Clouds 26 1013 19 10000 3.1 190 23:39 10.10.2019
6159 Clouds 26 1013 19 10000 3.1 190 23:18 10.10.2019
6160 Clouds 26 1013 19 10000 2.6 200 22:54 10.10.2019
6161 Clouds 26 1013 19 10000 2.6 200 22:36 10.10.2019
6162 Clouds 26 1013 19 10000 2.6 200 22:18 10.10.2019
6163 Clouds 28 1012 18 6000 3.6 240 21:42 10.10.2019
6164 Clouds 28 1012 18 6000 3.6 240 21:22 10.10.2019
6165 Clouds 28 1012 18 6000 3.6 240 21:22 10.10.2019
6166 Clouds 27 1011 18 6000 2.04 217.111 20:58 10.10.2019
6167 Clouds 27 1011 18 6000 2.04 217.111 20:39 10.10.2019
6168 Clouds 27 1011 18 6000 2.04 217.111 20:39 10.10.2019
6169 Clouds 26 1011 18 6000 2.04 217.111 20:19 10.10.2019
6170 Clouds 27 1012 21 8000 2.04 217.111 19:55 10.10.2019
6171 Clouds 27 1012 21 8000 2.04 217.111 19:55 10.10.2019
6172 Clouds 28 1012 21 8000 2.04 217.111 19:37 10.10.2019
6173 Clouds 28 1012 21 8000 2.04 217.111 19:19 10.10.2019
6174 Clouds 26 1013 20 8000 2.1 250 18:42 10.10.2019
6175 Clouds 26 1013 20 8000 2.1 250 18:20 10.10.2019
6176 Clouds 26 1013 22 8000 2.88 238.36 17:57 10.10.2019
6177 Clouds 25 1013 22 8000 2.88 238.36 17:37 10.10.2019
6178 Clouds 24 1013 22 8000 2.88 238.36 17:18 10.10.2019
6179 Clouds 24 1013 25 8000 1.5 250 16:49 10.10.2019
6180 Clouds 24 1013 25 8000 1.5 250 16:27 10.10.2019
6181 Clouds 21 1013 32 10000 2.88 238.36 15:59 10.10.2019
6182 Clouds 22 1013 32 10000 2.88 238.36 15:39 10.10.2019
6183 Clouds 22 1013 32 10000 2.88 238.36 15:39 10.10.2019
6184 Clouds 22 1013 32 10000 0.29 93.39 15:20 10.10.2019
6185 Clouds 20 1012 48 10000 0.29 93.39 14:56 10.10.2019
6186 Clouds 20 1012 48 10000 0.29 93.39 14:37 10.10.2019
6187 Clouds 18 1012 48 10000 0.29 93.39 14:19 10.10.2019
6188 Clouds 17 1012 42 10000 0.29 93.39 13:55 10.10.2019
6189 Clouds 19 1012 42 10000 0.29 93.39 13:37 10.10.2019
6190 Clouds 19 1012 42 10000 0.07 335.624 13:18 10.10.2019
6191 Clear 18 1010 47 10000 0.07 335.624 12:41 10.10.2019
6192 Clear 15 1010 47 10000 0.3 302.896 12:20 10.10.2019
6193 Clear 15 1010 50 10000 2.1 50 11:58 10.10.2019
6194 Clear 15 1010 50 10000 2.1 50 11:39 10.10.2019
6195 Clear 15 1010 50 10000 2.1 50 11:19 10.10.2019
6196 Clear 14 1010 46 10000 1 0 10:45 10.10.2019
6197 Clear 15 1010 46 10000 1 0 10:27 10.10.2019
6198 Clear 16 1010 41 10000 0.3 302.896 09:58 10.10.2019
6199 Clear 16 1010 41 10000 0.3 302.896 09:39 10.10.2019
6200 Clear 17 1010 41 10000 0.69 49.739 09:21 10.10.2019
6201 Clear 16 1011 38 10000 1 0 08:58 10.10.2019
6202 Clear 16 1011 38 10000 1 0 08:38 10.10.2019
6203 Clear 16 1011 38 10000 1 0 08:19 10.10.2019
6204 Clear 16 1011 38 10000 1 0 08:19 10.10.2019
6205 Clear 19 1011 29 10000 1 0 07:45 10.10.2019
6206 Clear 19 1011 29 10000 1 0 07:23 10.10.2019
6207 Clear 17 1012 36 10000 2.6 0 06:49 10.10.2019
6208 Clear 17 1012 36 10000 2.6 0 06:49 10.10.2019
6209 Clear 17 1012 36 10000 2.6 0 06:29 10.10.2019
6210 Clear 20 1012 30 10000 1.5 0 05:28 10.10.2019
6211 Clear 20 1012 28 10000 1.5 280 04:54 10.10.2019
6212 Clear 20 1012 28 10000 1.5 280 04:33 10.10.2019
6213 Clouds 26 1014 22 10000 1 210 01:50 10.10.2019
6214 Clouds 26 1014 22 10000 1 210 01:30 10.10.2019
6215 Clouds 27 1013 18 10000 2.1 190 01:00 10.10.2019
6216 Clouds 27 1013 18 10000 2.1 190 00:24 10.10.2019
6217 Clouds 28 1014 11 10000 3.1 200 23:41 09.10.2019
6218 Clouds 28 1014 11 10000 3.1 200 23:23 09.10.2019
6219 Clear 29 1013 9 10000 3.1 240 22:59 09.10.2019
6220 Clear 29 1013 9 10000 3.1 240 22:40 09.10.2019
6221 Clear 29 1013 9 10000 3.1 240 22:22 09.10.2019
6222 Clouds 29 1013 10 10000 2.6 230 21:41 09.10.2019
6223 Clouds 30 1013 10 10000 2.6 230 21:21 09.10.2019
6224 Clouds 31 1014 8 10000 1.5 240 20:56 09.10.2019
6225 Clouds 31 1014 8 10000 1.5 240 20:38 09.10.2019
6226 Clouds 31 1014 8 10000 1.5 240 20:19 09.10.2019
6227 Clouds 30 1015 28 10000 1.5 220 19:59 09.10.2019
6228 Clouds 30 1015 28 10000 1.5 220 19:59 09.10.2019
6229 Clouds 30 1015 28 10000 1.5 220 19:40 09.10.2019
6230 Clouds 30 1015 28 10000 1.5 220 19:22 09.10.2019
6231 Clouds 29 1015 18 10000 1 240 18:38 09.10.2019
6232 Clouds 28 1015 18 10000 1 240 18:20 09.10.2019
6233 Clear 27 1016 21 10000 1 190 17:58 09.10.2019
6234 Clear 27 1016 21 10000 1 190 17:39 09.10.2019
6235 Clear 27 1016 21 10000 1 190 17:21 09.10.2019
6236 Clear 24 1016 20 10000 1 240 16:56 09.10.2019
6237 Clear 24 1016 20 10000 1 240 16:56 09.10.2019
6238 Clear 24 1016 20 10000 1 240 16:56 09.10.2019
6239 Clear 26 1016 20 10000 1 240 16:37 09.10.2019
6240 Clear 26 1016 20 10000 1 240 16:19 09.10.2019
6241 Clear 21 1016 28 10000 1.09 178.049 15:55 09.10.2019
6242 Clear 21 1016 28 10000 1.09 178.049 15:55 09.10.2019
6243 Clear 23 1016 28 10000 1.09 178.049 15:37 09.10.2019
6244 Clear 22 1016 28 10000 1.34 92.99 15:18 09.10.2019
6245 Clouds 20 1016 48 10000 1.5 60 14:44 09.10.2019
6246 Clouds 20 1016 48 10000 1.5 60 14:19 09.10.2019
6247 Clouds 19 1016 63 10000 1.5 60 13:59 09.10.2019
6248 Clouds 20 1016 63 10000 1.5 60 13:37 09.10.2019
6249 Clouds 19 1016 63 10000 1.5 60 13:18 09.10.2019
6250 Clouds 19 1015 47 10000 2.6 30 12:43 09.10.2019
6251 Clouds 16 1015 47 10000 2.6 30 12:22 09.10.2019
6252 Clear 17 1014 41 10000 1.5 270 11:58 09.10.2019
6253 Clear 18 1014 41 10000 1.5 270 11:39 09.10.2019
6254 Clear 18 1014 41 10000 1.5 270 11:20 09.10.2019
6255 Clear 18 1014 36 10000 1.5 190 10:58 09.10.2019
6256 Clear 18 1014 36 10000 1.5 190 10:40 09.10.2019
6257 Clear 18 1014 36 10000 1.5 190 10:18 09.10.2019
6258 Clear 18 1014 36 10000 2.1 140 09:43 09.10.2019
6259 Clear 18 1014 36 10000 2.1 140 09:20 09.10.2019
6260 Clear 19 1014 32 10000 1.22 67.712 08:57 09.10.2019
6261 Clear 19 1014 32 10000 0.99 71.895 08:37 09.10.2019
6262 Clear 19 1014 32 10000 0.99 71.895 08:19 09.10.2019
6263 Clear 19 1015 32 10000 0.99 71.895 07:47 09.10.2019
6264 Clear 19 1015 32 10000 0.99 71.895 07:24 09.10.2019
6265 Clear 21 1015 28 10000 1 0 06:56 09.10.2019
6266 Clear 21 1015 28 10000 1 0 06:34 09.10.2019
6267 Clear 22 1015 24 10000 2.6 160 05:51 09.10.2019
6268 Clear 23 1015 23 10000 2.6 160 04:41 09.10.2019
6269 Clear 25 1015 22 10000 4.1 150 03:43 09.10.2019
6270 Clear 27 1014 54 10000 5.7 190 02:27 09.10.2019
6271 Clouds 27 1015 15 10000 1.5 190 01:22 09.10.2019
6272 Clouds 27 1015 15 10000 1.5 190 01:22 09.10.2019
6273 Clouds 28 1015 11 10000 2.6 220 00:59 09.10.2019
6274 Clouds 28 1015 11 10000 2.6 220 00:40 09.10.2019
6275 Clouds 28 1015 11 10000 2.6 220 00:22 09.10.2019
6276 Clear 29 1015 10 10000 2.6 220 23:58 08.10.2019
6277 Clear 29 1015 10 10000 2.6 220 23:37 08.10.2019
6278 Clear 29 1015 10 10000 2.6 220 23:18 08.10.2019
6279 Clear 29 1015 10 10000 1 180 22:41 08.10.2019
6280 Clear 29 1015 10 10000 1 180 22:22 08.10.2019
6281 Clear 29 1015 10 10000 2.6 220 21:58 08.10.2019
6282 Clear 29 1015 10 10000 2.6 220 21:39 08.10.2019
6283 Clear 29 1015 10 10000 2.6 220 21:20 08.10.2019
6284 Clouds 31 1016 37 10000 2.6 170 20:58 08.10.2019
6285 Clouds 31 1016 37 10000 2.6 170 20:39 08.10.2019
6286 Clouds 31 1016 37 10000 2.6 170 20:21 08.10.2019
6287 Clear 30 1017 18 10000 1.5 180 19:59 08.10.2019
6288 Clear 29 1017 18 10000 1.5 180 19:41 08.10.2019
6289 Clear 29 1017 18 10000 1.5 180 19:23 08.10.2019
6290 Clear 27 1018 24 10000 1.5 210 18:57 08.10.2019
6291 Clear 28 1018 24 10000 1.5 210 18:39 08.10.2019
6292 Clear 25 1018 24 10000 1.5 210 18:19 08.10.2019
6293 Clear 24 1018 31 10000 1 280 17:55 08.10.2019
6294 Clear 25 1018 31 10000 1 280 17:36 08.10.2019
6295 Clear 25 1018 31 10000 1 280 17:18 08.10.2019
6296 Clear 23 1018 37 10000 1 290 16:41 08.10.2019
6297 Clear 22 1018 37 10000 1 290 16:22 08.10.2019
6298 Clear 20 1018 48 10000 1.5 360 15:57 08.10.2019
6299 Clear 22 1018 48 10000 1.5 360 15:38 08.10.2019
6300 Clear 16 1018 48 10000 1.5 360 15:19 08.10.2019
6301 Clear 17 1019 54 10000 1.85 86.32 14:42 08.10.2019
6302 Clear 17 1019 54 10000 1.85 86.32 14:42 08.10.2019
6303 Clear 17 1019 54 10000 1.85 86.32 14:21 08.10.2019
6304 Clear 15 1019 71 10000 1.85 86.32 13:59 08.10.2019
6305 Clear 16 1019 71 10000 1.85 86.32 13:39 08.10.2019
6306 Clear 16 1019 71 10000 1.85 86.32 13:21 08.10.2019
6307 Clouds 16 1018 71 10000 1.75 90.687 12:59 08.10.2019
6308 Clouds 16 1018 71 10000 1.75 90.687 12:40 08.10.2019
6309 Clouds 12 1018 71 10000 1.69 74.769 12:20 08.10.2019
6310 Clear 13 1018 66 10000 0.5 0 11:57 08.10.2019
6311 Clear 13 1018 66 10000 0.5 0 11:38 08.10.2019
6312 Clear 13 1018 66 10000 0.5 0 11:20 08.10.2019
6313 Clear 14 1017 62 10000 1.5 10 10:42 08.10.2019
6314 Clear 14 1017 62 10000 1.5 10 10:22 08.10.2019
6315 Clear 14 1017 62 10000 1.5 10 10:22 08.10.2019
6316 Clear 14 1018 62 10000 1.69 74.769 09:58 08.10.2019
6317 Clear 14 1018 62 10000 1.69 74.769 09:40 08.10.2019
6318 Clear 14 1018 62 10000 0.91 102.235 09:21 08.10.2019
6319 Clear 14 1018 58 10000 1.1 85.534 08:45 08.10.2019
6320 Clear 14 1018 58 10000 1.1 85.534 08:25 08.10.2019
6321 Clear 16 1019 55 10000 1.1 85.534 07:47 08.10.2019
6322 Clear 16 1019 55 10000 1.1 85.534 07:23 08.10.2019
6323 Clear 18 1019 45 10000 4.6 180 06:57 08.10.2019
6324 Clear 18 1019 45 10000 4.6 180 06:36 08.10.2019
6325 Clear 18 1019 45 10000 3.1 150 05:59 08.10.2019
6326 Clear 19 1019 45 10000 3.1 150 05:40 08.10.2019
6327 Clear 19 1019 45 10000 3.1 150 05:40 08.10.2019
6328 Clear 18 1019 45 10000 3.1 160 04:56 08.10.2019
6329 Clear 21 1018 40 10000 3.6 190 03:30 08.10.2019
6330 Clear 22 1018 37 10000 4.6 200 02:41 08.10.2019
6331 Clear 23 1019 33 10000 2.6 240 01:56 08.10.2019
6332 Clear 23 1019 33 10000 2.6 240 01:38 08.10.2019
6333 Clouds 24 1018 23 10000 2.6 230 00:55 08.10.2019
6334 Clouds 24 1018 23 10000 2.6 230 00:23 08.10.2019
6335 Clouds 26 1018 15 10000 2.6 230 23:46 07.10.2019
6336 Clouds 26 1018 15 10000 2.6 230 23:21 07.10.2019
6337 Clouds 26 1018 15 10000 2.6 230 23:21 07.10.2019
6338 Clouds 26 1018 15 10000 2.6 230 23:21 07.10.2019
6339 Clear 26 1018 18 10000 3.1 220 22:59 07.10.2019
6340 Clear 26 1018 18 10000 3.1 220 22:40 07.10.2019
6341 Clear 26 1018 18 10000 3.1 220 22:21 07.10.2019
6342 Clear 26 1019 19 10000 2.6 0 21:59 07.10.2019
6343 Clear 25 1019 19 10000 2.6 0 21:40 07.10.2019
6344 Clear 26 1019 19 10000 2.6 0 21:21 07.10.2019
6345 Clear 26 1019 23 10000 2.6 0 20:59 07.10.2019
6346 Clear 25 1019 23 10000 2.6 0 20:40 07.10.2019
6347 Clear 25 1019 23 10000 2.6 0 20:40 07.10.2019
6348 Clear 25 1019 23 10000 2.6 0 20:21 07.10.2019
6349 Clear 25 1020 25 10000 3.1 0 19:59 07.10.2019
6350 Clear 24 1020 25 10000 3.1 0 19:41 07.10.2019
6351 Clear 24 1020 25 10000 3.1 0 19:20 07.10.2019
6352 Clear 23 1020 28 10000 1.5 0 18:59 07.10.2019
6353 Clear 23 1020 28 10000 1.5 0 18:40 07.10.2019
6354 Clear 23 1020 28 10000 1.5 0 18:19 07.10.2019
6355 Clear 23 1020 28 10000 1.5 0 18:19 07.10.2019
6356 Clear 22 1021 32 10000 1.5 0 17:55 07.10.2019
6357 Clear 22 1021 32 10000 1.5 0 17:37 07.10.2019
6358 Clear 22 1021 32 10000 1.5 0 17:18 07.10.2019
6359 Clear 20 1021 39 10000 1.5 0 16:43 07.10.2019
6360 Clear 20 1021 39 10000 1.5 0 16:25 07.10.2019
6361 -273 0 0 0 0 0 15:46 07.10.2019
6362 Clouds 18 1021 47 10000 0.77 99.682 15:27 07.10.2019
6363 Clouds 15 1022 66 10000 0.77 99.682 14:59 07.10.2019
6364 Clouds 15 1022 66 10000 0.77 99.682 14:40 07.10.2019
6365 Clouds 12 1022 66 10000 0.77 99.682 14:22 07.10.2019
6366 Clouds 14 1021 61 10000 0.77 99.682 13:44 07.10.2019
6367 Clouds 14 1021 61 10000 0.64 110.934 13:21 07.10.2019
6368 Clouds 14 1020 61 10000 1 10 12:57 07.10.2019
6369 Clouds 14 1020 61 10000 1 10 12:39 07.10.2019
6370 Clouds 11 1020 61 10000 1 10 12:20 07.10.2019
6371 Clouds 11 1020 61 10000 1 10 12:20 07.10.2019
6372 Clear 11 1020 61 10000 2.1 0 11:59 07.10.2019
6373 Clear 11 1020 61 10000 2.1 0 11:39 07.10.2019
6374 Clear 11 1020 61 10000 2.1 0 11:20 07.10.2019
6375 Clear 12 1020 54 10000 1.5 170 10:42 07.10.2019
6376 Clear 12 1020 54 10000 1.5 170 10:23 07.10.2019
6377 Clear 13 1020 54 10000 0.5 0 09:57 07.10.2019
6378 Clear 13 1020 54 10000 0.5 0 09:38 07.10.2019
6379 Clear 13 1020 54 10000 0.5 0 09:20 07.10.2019
6380 Clear 11 1020 50 10000 0.43 228.903 08:43 07.10.2019
6381 Clear 13 1020 50 10000 0.43 228.903 08:20 07.10.2019
6382 Clear 13 1021 50 10000 0.43 228.903 07:47 07.10.2019
6383 Clear 13 1021 50 10000 0.43 228.903 07:27 07.10.2019
6384 Clear 14 1021 50 10000 1 0 06:57 07.10.2019
6385 Clear 14 1021 50 10000 1 0 06:38 07.10.2019
6386 Clear 17 1021 42 10000 0.82 257.768 05:56 07.10.2019
6387 Clear 17 1021 42 10000 0.82 257.768 05:25 07.10.2019
6388 Clear 18 1021 39 10000 1.5 20 04:47 07.10.2019
6389 Clear 20 1021 32 10000 3.1 170 03:46 07.10.2019
6390 Clear 20 1021 32 10000 3.1 170 03:27 07.10.2019
6391 Clear 21 1020 30 10000 5.7 210 02:37 07.10.2019
6392 Clear 21 1020 30 10000 5.7 210 02:18 07.10.2019
6393 Clear 22 1021 26 10000 2.1 240 01:23 07.10.2019
6394 Clear 24 1021 22 10000 3.6 240 00:49 07.10.2019
6395 Clear 23 1021 22 10000 3.6 240 00:23 07.10.2019
6396 Clear 24 1021 17 10000 3.1 230 23:59 06.10.2019
6397 Clear 24 1021 17 10000 3.1 230 23:39 06.10.2019
6398 Clear 24 1021 17 10000 3.1 230 23:18 06.10.2019
6399 -273 0 0 0 0 0 22:54 06.10.2019
6400 Clear 24 1021 15 10000 3.6 230 22:36 06.10.2019
6401 Clear 24 1021 15 10000 3.6 230 22:18 06.10.2019
6402 Clear 24 1021 15 10000 3.6 230 22:18 06.10.2019
6403 Clear 25 1021 11 10000 4.1 220 21:55 06.10.2019
6404 Clear 25 1021 11 10000 4.1 220 21:54 06.10.2019
6405 Clear 25 1021 11 10000 4.1 220 21:36 06.10.2019
6406 Clear 25 1021 11 10000 4.1 220 21:36 06.10.2019
6407 Clear 25 1021 11 10000 4.1 220 21:18 06.10.2019
6408 Clear 25 1021 11 10000 4.1 220 21:18 06.10.2019
6409 Clear 25 1021 16 10000 2.1 230 20:54 06.10.2019
6410 Clear 25 1021 16 10000 2.1 230 20:36 06.10.2019
6411 Clear 25 1021 16 10000 2.1 230 20:36 06.10.2019
6412 Clear 25 1021 16 10000 2.1 230 20:36 06.10.2019
6413 Clear 24 1021 16 10000 2.1 230 20:18 06.10.2019
6414 Clear 24 1022 36 10000 1.5 180 19:54 06.10.2019
6415 Clear 24 1022 36 10000 1.5 180 19:36 06.10.2019
6416 Clear 24 1022 36 10000 1.5 180 19:18 06.10.2019
6417 Clear 22 1023 36 10000 2.1 260 18:54 06.10.2019
6418 Clear 22 1023 36 10000 2.1 260 18:36 06.10.2019
6419 Clear 22 1023 40 10000 2.1 260 18:18 06.10.2019
6420 Clear 21 1023 29 10000 2.1 300 17:42 06.10.2019
6421 Clear 21 1023 29 10000 2.1 300 17:20 06.10.2019
6422 Clear 19 1023 36 10000 1.5 240 16:55 06.10.2019
6423 Clear 19 1023 36 10000 1.5 240 16:55 06.10.2019
6424 Clear 19 1023 36 10000 1.5 240 16:36 06.10.2019
6425 Clear 18 1023 36 10000 1.5 240 16:18 06.10.2019
6426 Clear 16 1024 41 10000 1 170 15:42 06.10.2019
6427 Clear 14 1024 41 10000 1 170 15:19 06.10.2019
6428 Clear 14 1024 41 10000 1 170 15:19 06.10.2019
6429 Clear 14 1024 41 10000 1 170 15:19 06.10.2019
6430 Clear 14 1024 41 10000 1 170 15:19 06.10.2019
6431 Clear 14 1024 41 10000 1 170 15:19 06.10.2019
6432 Clear 13 1024 59 10000 1 310 14:44 06.10.2019
6433 Clear 11 1024 59 10000 1 310 14:25 06.10.2019
6434 Clear 10 1024 65 10000 1.17 103.37 13:58 06.10.2019
6435 Clear 13 1024 65 10000 1.17 103.37 13:39 06.10.2019
6436 Clear 12 1024 65 10000 1.4 91.681 13:21 06.10.2019
6437 Clear 11 1023 58 10000 2.1 300 12:58 06.10.2019
6438 Clear 11 1023 58 10000 2.1 300 12:39 06.10.2019
6439 Clear 11 1023 58 10000 2.1 300 12:39 06.10.2019
6440 Clear 7 1023 78 10000 2.1 300 12:21 06.10.2019
6441 Clear 8 1023 78 10000 1.5 250 11:58 06.10.2019
6442 Clear 9 1023 78 10000 1.5 250 11:39 06.10.2019
6443 Clear 8 1023 78 10000 1.5 250 11:20 06.10.2019
6444 Clear 8 1023 78 10000 1.5 250 11:20 06.10.2019
6445 Clear 8 1023 78 10000 2.1 60 10:45 06.10.2019
6446 Clear 8 1023 78 10000 2.1 60 10:26 06.10.2019
6447 Clear 9 1023 78 10000 1.42 76.921 09:58 06.10.2019
6448 Clear 9 1023 78 10000 1.42 76.921 09:40 06.10.2019
6449 Clear 9 1023 81 10000 0.27 121.43 09:19 06.10.2019
6450 Clear 9 1023 81 10000 0.27 121.43 09:19 06.10.2019
6451 Clear 9 1023 57 10000 0.27 121.43 08:45 06.10.2019
6452 Clear 10 1023 57 10000 0.29 91.369 08:21 06.10.2019
6453 Clear 10 1023 53 10000 2.1 270 07:57 06.10.2019
6454 Clear 10 1023 53 10000 2.1 270 07:38 06.10.2019
6455 Clear 12 1023 47 10000 1 0 06:38 06.10.2019
6456 Clear 12 1023 50 10000 2.1 150 05:35 06.10.2019
6457 Clear 13 1023 43 10000 2.6 150 04:27 06.10.2019
6458 Clear 17 1022 29 10000 4.1 210 02:48 06.10.2019
6459 Clear 17 1022 29 10000 4.1 210 02:28 06.10.2019
6460 Clear 18 1023 33 10000 1.5 260 01:46 06.10.2019
6461 Clear 18 1023 33 10000 1.5 260 01:27 06.10.2019
6462 Clear 18 1023 33 10000 1.5 260 01:27 06.10.2019
6463 Clouds 19 1023 80 10000 3.6 230 00:59 06.10.2019
6464 Clouds 19 1023 80 10000 3.6 230 00:59 06.10.2019
6465 Clouds 19 1023 80 10000 3.6 230 00:31 06.10.2019
6466 Clouds 21 1022 16 10000 4.1 210 23:46 05.10.2019
6467 Clouds 21 1022 16 10000 4.1 210 23:24 05.10.2019
6468 Clear 22 1021 17 10000 3.6 210 22:59 05.10.2019
6469 Clear 22 1021 17 10000 3.6 210 22:59 05.10.2019
6470 Clear 22 1021 17 10000 3.6 210 22:40 05.10.2019
6471 Clear 22 1021 17 10000 3.6 210 22:21 05.10.2019
6472 Clear 22 1021 17 10000 3.6 210 22:21 05.10.2019
6473 Clear 22 1021 17 10000 3.1 240 21:59 05.10.2019
6474 Clear 22 1021 17 10000 3.1 240 21:40 05.10.2019
6475 Clear 22 1021 17 10000 3.1 240 21:21 05.10.2019
6476 Clear 22 1022 19 10000 3.1 210 20:56 05.10.2019
6477 Clear 22 1022 19 10000 3.1 210 20:38 05.10.2019
6478 Clear 22 1022 19 10000 3.1 210 20:19 05.10.2019
6479 Clear 21 1022 22 10000 2.1 280 19:39 05.10.2019
6480 Clear 21 1022 22 10000 2.1 280 19:21 05.10.2019
6481 Clear 19 1023 25 10000 1.5 190 18:57 05.10.2019
6482 Clear 19 1023 25 10000 1.5 190 18:39 05.10.2019
6483 Clear 19 1023 25 10000 1.5 190 18:20 05.10.2019
6484 -273 0 0 0 0 0 17:55 05.10.2019
6485 Clear 19 1023 29 10000 2.61 229.756 17:55 05.10.2019
6486 Clear 19 1023 29 10000 2.61 229.756 17:37 05.10.2019
6487 Clear 18 1023 29 10000 2.61 229.756 17:18 05.10.2019
6488 Clear 17 1023 45 10000 1.5 210 16:42 05.10.2019
6489 Clear 17 1023 45 10000 1.5 210 16:42 05.10.2019
6490 Clear 17 1023 45 10000 1.5 210 16:21 05.10.2019
6491 Clear 15 1023 45 10000 2.61 229.756 15:57 05.10.2019
6492 Clear 15 1023 45 10000 2.61 229.756 15:39 05.10.2019
6493 Clear 12 1023 64 10000 0.29 192.137 15:21 05.10.2019
6494 Clear 12 1023 64 10000 0.29 192.137 15:21 05.10.2019
6495 Clear 8 1023 64 10000 0.29 192.137 14:57 05.10.2019
6496 Clear 10 1023 64 10000 0.29 192.137 14:38 05.10.2019
6497 Clear 8 1023 64 10000 0.29 192.137 14:20 05.10.2019
6498 Clear 8 1022 64 10000 0.29 192.137 13:42 05.10.2019
6499 Clear 8 1022 65 10000 0.42 214.756 13:22 05.10.2019
6500 Clear 6 1022 65 10000 0.5 0 12:46 05.10.2019
6501 Clear 6 1022 65 10000 0.5 0 12:21 05.10.2019
6502 Clear 6 1021 79 10000 0.94 74.046 11:59 05.10.2019
6503 Clear 7 1021 79 10000 0.94 74.046 11:37 05.10.2019
6504 Clear 7 1021 79 10000 0.94 74.046 11:18 05.10.2019
6505 Clear 7 1021 79 10000 0.94 74.046 11:18 05.10.2019
6506 Clear 6 1021 65 10000 0.5 0 10:45 05.10.2019
6507 Clear 7 1021 65 10000 0.5 0 10:26 05.10.2019
6508 Clear 7 1021 79 10000 0.94 74.046 09:59 05.10.2019
6509 Clear 7 1021 79 10000 0.94 74.046 09:39 05.10.2019
6510 Clear 7 1021 79 10000 0.85 53.983 09:20 05.10.2019
6511 Clear 9 1022 57 10000 2.1 190 08:40 05.10.2019
6512 Clear 9 1022 57 10000 2.1 190 08:20 05.10.2019
6513 Clear 9 1022 78 10000 3.6 170 07:57 05.10.2019
6514 Clear 9 1022 78 10000 3.6 170 07:35 05.10.2019
6515 Clear 11 1022 78 10000 1 0 06:59 05.10.2019
6516 Clear 11 1022 78 10000 1 0 06:28 05.10.2019
6517 Clear 11 1022 78 10000 1 0 06:28 05.10.2019
6518 Clear 11 1022 78 10000 2.1 0 05:51 05.10.2019
6519 Clear 12 1022 43 10000 2.6 150 04:21 05.10.2019
6520 Clear 14 1022 78 10000 3.1 180 03:28 05.10.2019
6521 Clear 16 1022 29 10000 2.1 230 01:42 05.10.2019
6522 Clear 16 1022 29 10000 2.1 230 01:20 05.10.2019
6523 Clear 19 1022 20 10000 2.6 230 00:43 05.10.2019
6524 Clear 19 1022 20 10000 2.6 230 00:25 05.10.2019
6525 Clear 19 1022 20 10000 1.5 240 23:44 04.10.2019
6526 Clear 20 1022 20 10000 1.5 240 23:26 04.10.2019
6527 Clear 20 1022 20 10000 1.5 240 23:26 04.10.2019
6528 Clear 20 1022 25 10000 2.6 270 22:59 04.10.2019
6529 Clear 20 1022 25 10000 2.6 270 22:39 04.10.2019
6530 Clear 20 1022 25 10000 2.6 270 22:20 04.10.2019
6531 Clear 20 1022 23 10000 2.6 240 21:57 04.10.2019
6532 Clear 19 1022 23 10000 2.6 240 21:38 04.10.2019
6533 Clear 19 1022 23 10000 2.6 240 21:19 04.10.2019
6534 Clear 19 1023 25 10000 2.1 160 20:55 04.10.2019
6535 Clear 19 1023 25 10000 2.1 160 20:36 04.10.2019
6536 Clear 19 1023 25 10000 2.1 160 20:18 04.10.2019
6537 Clear 18 1024 37 10000 2.6 180 19:45 04.10.2019
6538 Clear 18 1024 37 10000 2.6 180 19:27 04.10.2019
6539 Clear 17 1024 38 10000 2.1 270 18:58 04.10.2019
6540 Clear 17 1024 38 10000 2.1 270 18:38 04.10.2019
6541 Clear 17 1024 38 10000 2.1 270 18:19 04.10.2019
6542 Clear 17 1024 38 10000 2.1 270 18:19 04.10.2019
6543 Clear 16 1024 47 10000 1.5 300 17:54 04.10.2019
6544 Clear 16 1024 47 10000 1.5 300 17:36 04.10.2019
6545 Clear 15 1024 47 10000 1.5 300 17:18 04.10.2019
6546 Clear 14 1025 53 10000 2.1 120 16:41 04.10.2019
6547 Clear 14 1025 53 10000 2.1 120 16:19 04.10.2019
6548 Clear 13 1025 61 10000 1 210 15:59 04.10.2019
6549 Clear 13 1025 61 10000 1 210 15:40 04.10.2019
6550 Clear 10 1025 61 10000 1 210 15:21 04.10.2019
6551 Clear 8 1024 75 10000 0.71 106.28 14:59 04.10.2019
6552 Clear 8 1024 75 10000 0.71 106.28 14:41 04.10.2019
6553 Clear 6 1024 75 10000 0.71 106.28 14:22 04.10.2019
6554 Clear 6 1024 75 10000 0.71 106.28 13:54 04.10.2019
6555 Clear 6 1024 75 10000 0.71 106.28 13:36 04.10.2019
6556 Clear 5 1024 75 10000 0.7 121.624 13:18 04.10.2019
6557 Clear 4 1023 86 10000 1.5 40 12:42 04.10.2019
6558 Clear 4 1023 86 10000 1.5 40 12:24 04.10.2019
6559 Clear 5 1023 80 10000 1 0 11:43 04.10.2019
6560 Clear 5 1023 80 10000 1 0 11:43 04.10.2019
6561 Clear 5 1023 80 10000 1 0 11:43 04.10.2019
6562 Clear 5 1023 80 10000 1 0 11:43 04.10.2019
6563 Clear 5 1023 80 10000 1 0 11:22 04.10.2019
6564 Clear 5 1022 75 10000 1.5 10 10:57 04.10.2019
6565 Clear 5 1022 75 10000 1.5 10 10:38 04.10.2019
6566 Clear 5 1022 75 10000 1.5 10 10:19 04.10.2019
6567 Clear 5 1023 85 10000 1.02 80.825 09:43 04.10.2019
6568 Clear 5 1023 86 10000 0.96 80.802 09:25 04.10.2019
6569 Clear 6 1023 75 10000 1.5 300 08:46 04.10.2019
6570 Clear 6 1023 75 10000 1.5 300 08:27 04.10.2019
6571 Clear 6 1023 70 10000 1.5 200 07:56 04.10.2019
6572 Clear 6 1023 70 10000 1.5 200 07:37 04.10.2019
6573 Clear 6 1023 70 10000 1.5 200 07:18 04.10.2019
6574 Clear 7 1023 65 10000 3.1 170 06:40 04.10.2019
6575 Clear 7 1023 65 10000 3.1 170 06:21 04.10.2019
6576 Clear 8 1023 61 10000 3.1 160 05:22 04.10.2019
6577 Clear 10 1024 57 10000 4.1 170 04:53 04.10.2019
6578 Clear 11 1024 53 10000 5.7 190 03:42 04.10.2019
6579 Clear 11 1023 53 10000 6.2 200 02:53 04.10.2019
6580 Clouds 12 1023 43 10000 3.1 230 01:54 04.10.2019
6581 Clouds 12 1023 43 10000 3.1 230 01:54 04.10.2019
6582 -273 0 0 0 0 0 01:54 04.10.2019
6583 Clouds 12 1023 43 10000 3.1 230 01:54 04.10.2019
6584 Clouds 13 1023 43 10000 3.1 230 01:26 04.10.2019
6585 Clouds 14 1023 87 10000 4.1 230 00:36 04.10.2019
6586 Clouds 15 1022 31 10000 3.1 240 23:41 03.10.2019
6587 Clouds 16 1022 31 10000 3.1 240 23:22 03.10.2019
6588 Clouds 16 1022 31 10000 3.1 240 23:22 03.10.2019
6589 Clouds 17 1022 54 10000 2.6 200 22:58 03.10.2019
6590 Clouds 17 1022 54 10000 2.6 200 22:39 03.10.2019
6591 Clouds 17 1022 54 10000 2.6 200 22:39 03.10.2019
6592 Clouds 17 1022 54 10000 2.6 200 22:21 03.10.2019
6593 Clouds 17 1022 54 10000 2.6 200 22:21 03.10.2019
6594 Clouds 17 1022 33 10000 6.7 240 21:59 03.10.2019
6595 Clouds 17 1022 33 10000 6.7 240 21:40 03.10.2019
6596 Clouds 17 1023 31 10000 4.1 240 21:20 03.10.2019
6597 Clouds 17 1023 31 10000 4.1 240 21:20 03.10.2019
6598 Clouds 16 1023 44 10000 2.6 200 20:58 03.10.2019
6599 Clouds 17 1023 42 10000 2.6 200 20:40 03.10.2019
6600 Clouds 17 1023 42 10000 2.6 200 20:21 03.10.2019
6601 Clouds 17 1023 38 8000 2.6 300 19:57 03.10.2019
6602 Clouds 18 1023 38 8000 2.6 300 19:39 03.10.2019
6603 Clouds 17 1023 38 8000 2.6 300 19:20 03.10.2019
6604 Clouds 17 1023 54 8000 2.1 210 18:56 03.10.2019
6605 Clouds 16 1023 54 8000 2.1 210 18:38 03.10.2019
6606 Clouds 15 1023 54 8000 2.1 210 18:18 03.10.2019
6607 Clouds 14 1023 50 10000 2.1 260 17:42 03.10.2019
6608 Clouds 14 1023 50 10000 2.1 260 17:22 03.10.2019
6609 Clear 16 1023 53 10000 1.5 0 16:58 03.10.2019
6610 Clear 16 1023 53 10000 1.5 0 16:39 03.10.2019
6611 Clear 13 1023 53 10000 1.5 0 16:21 03.10.2019
6612 Clouds 9 1023 70 10000 1 30 15:45 03.10.2019
6613 Clouds 9 1023 70 10000 1 30 15:24 03.10.2019
6614 Clouds 9 1023 75 10000 3.1 270 14:59 03.10.2019
6615 Clouds 9 1023 75 10000 3.1 270 14:37 03.10.2019
6616 Clouds 7 1023 75 10000 3.1 270 14:19 03.10.2019
6617 Clouds 6 1022 80 10000 1 60 13:45 03.10.2019
6618 Clouds 6 1022 80 10000 1 60 13:26 03.10.2019
6619 Clear 6 1020 75 10000 1.5 150 12:59 03.10.2019
6620 Clear 6 1020 75 10000 1.5 150 12:40 03.10.2019
6621 Clear 6 1020 75 10000 1.5 150 12:20 03.10.2019
6622 Clear 6 1020 75 10000 1.5 150 12:20 03.10.2019
6623 Clear 7 1019 70 10000 1 0 11:58 03.10.2019
6624 Clear 7 1019 70 10000 1 0 11:58 03.10.2019
6625 Clear 7 1019 70 10000 1 0 11:40 03.10.2019
6626 Clear 6 1019 70 10000 1 0 11:21 03.10.2019
6627 Clear 7 1019 70 10000 2.6 160 10:58 03.10.2019
6628 Clear 7 1019 70 10000 2.6 160 10:38 03.10.2019
6629 Clear 6 1019 70 10000 2.6 160 10:18 03.10.2019
6630 Clear 6 1018 70 10000 1 0 09:56 03.10.2019
6631 Clear 7 1018 70 10000 1 0 09:37 03.10.2019
6632 Clear 6 1018 70 10000 1 0 09:19 03.10.2019
6633 Clear 7 1019 70 10000 0.65 299.777 08:43 03.10.2019
6634 Clear 7 1019 70 10000 0.65 299.777 08:24 03.10.2019
6635 Clear 7 1019 70 10000 0.65 299.777 08:24 03.10.2019
6636 Clear 7 1019 70 10000 0.65 299.777 08:24 03.10.2019
6637 Clear 8 1018 65 10000 2.1 170 07:45 03.10.2019
6638 Clear 8 1018 65 10000 2.1 170 07:20 03.10.2019
6639 Clear 9 1018 57 10000 2.6 150 06:53 03.10.2019
6640 Clear 9 1018 57 10000 2.6 150 06:27 03.10.2019
6641 Clear 9 1019 57 10000 3.6 160 05:49 03.10.2019
6642 Clear 9 1019 57 10000 3.6 160 05:27 03.10.2019
6643 Clear 10 1019 53 10000 3.6 170 04:45 03.10.2019
6644 Clear 11 1019 50 10000 6.2 190 03:54 03.10.2019
6645 Clear 11 1019 50 10000 6.2 190 03:19 03.10.2019
6646 Clear 11 1019 50 10000 6.2 190 03:19 03.10.2019
6647 Clear 12 1018 46 10000 7.2 210 02:27 03.10.2019
6648 Clouds 13 1019 35 10000 3.1 240 01:40 03.10.2019
6649 Clouds 15 1018 86 10000 3.1 230 00:53 03.10.2019
6650 Clouds 15 1018 86 10000 3.1 230 00:31 03.10.2019
6651 Clouds 15 1018 36 10000 3.6 210 23:57 02.10.2019
6652 Clouds 16 1018 36 10000 3.6 210 23:37 02.10.2019
6653 Clouds 16 1018 36 10000 3.6 210 23:18 02.10.2019
6654 Clouds 17 1018 52 10000 3.1 210 22:42 02.10.2019
6655 Clouds 17 1018 52 10000 3.1 210 22:20 02.10.2019
6656 Clouds 17 1018 36 7000 3.1 210 21:55 02.10.2019
6657 Clouds 17 1018 36 7000 3.1 210 21:37 02.10.2019
6658 Clouds 17 1018 36 7000 3.1 210 21:18 02.10.2019
6659 Clouds 16 1019 38 8000 3.6 210 20:55 02.10.2019
6660 -273 0 0 0 0 0 20:55 02.10.2019
6661 Clouds 16 1019 38 8000 3.6 210 20:37 02.10.2019
6662 Clouds 16 1019 38 8000 3.6 210 20:19 02.10.2019
6663 Clouds 14 1020 47 7000 2.1 170 19:44 02.10.2019
6664 Clouds 15 1020 47 7000 2.1 170 19:23 02.10.2019
6665 Clouds 14 1020 54 7000 2.1 210 18:58 02.10.2019
6666 Clouds 15 1020 54 7000 2.1 210 18:39 02.10.2019
6667 Clouds 13 1020 54 7000 2.1 210 18:21 02.10.2019
6668 Clouds 12 1020 57 7000 2.28 218.844 17:57 02.10.2019
6669 Clouds 12 1020 57 7000 2.28 218.844 17:57 02.10.2019
6670 Clouds 12 1020 57 7000 2.28 218.844 17:38 02.10.2019
6671 Clouds 12 1020 57 7000 2.28 218.844 17:20 02.10.2019
6672 Clouds 13 1021 66 7000 2.28 218.844 16:56 02.10.2019
6673 Clouds 13 1021 66 7000 2.28 218.844